﻿<?xml version="1.0" encoding="UTF-8" standalone="no" ?>
<gpx xmlns="http://www.topografix.com/GPX/1/1" creator="CompeGPS" version="1.1" xmlns:xsi="http://www.w3.org/2001/XMLSchema-instance" xsi:schemaLocation="http://www.topografix.com/GPX/1/1 http://www.topografix.com/GPX/1/1/gpx.xsd">
  <metadata>
    <link href="http://www.compegps.com">
      <text>CompeGPS TEAM, SL</text>
    </link>
    <time>2021-11-11T09:52:42Z</time>
    <bounds maxlat="40.113080" maxlon="-5.326280" minlat="39.452127" minlon="-5.739740"/>
  </metadata>
  <trk>
    <name>CG Camino de los Jeronimos</name>
    <desc>C. de los Jerónimos</desc>
    <trkseg>
      <trkpt lat="40.113080" lon="-5.739600">
        <ele>654.4</ele>
        <time>1970-01-01T00:00:00Z</time>
      </trkpt>
      <trkpt lat="40.112930" lon="-5.739740">
        <ele>652.4</ele>
        <time>1970-01-01T00:00:00Z</time>
      </trkpt>
      <trkpt lat="40.112960" lon="-5.739699">
        <ele>652.7</ele>
        <time>1970-01-01T00:00:00Z</time>
      </trkpt>
      <trkpt lat="40.112810" lon="-5.739680">
        <ele>650.0</ele>
        <time>1970-01-01T00:00:00Z</time>
      </trkpt>
      <trkpt lat="40.112640" lon="-5.739269">
        <ele>645.5</ele>
        <time>1970-01-01T00:00:00Z</time>
      </trkpt>
      <trkpt lat="40.112300" lon="-5.739039">
        <ele>638.3</ele>
        <time>1970-01-01T00:00:00Z</time>
      </trkpt>
      <trkpt lat="40.112190" lon="-5.738620">
        <ele>636.9</ele>
        <time>1970-01-01T00:00:00Z</time>
      </trkpt>
      <trkpt lat="40.111940" lon="-5.737850">
        <ele>634.6</ele>
        <time>1970-01-01T00:00:00Z</time>
      </trkpt>
      <trkpt lat="40.111870" lon="-5.737670">
        <ele>633.6</ele>
        <time>1970-01-01T00:00:00Z</time>
      </trkpt>
      <trkpt lat="40.111740" lon="-5.737079">
        <ele>631.0</ele>
        <time>1970-01-01T00:00:00Z</time>
      </trkpt>
      <trkpt lat="40.111610" lon="-5.735020">
        <ele>630.6</ele>
        <time>1970-01-01T00:00:00Z</time>
      </trkpt>
      <trkpt lat="40.111280" lon="-5.734480">
        <ele>629.6</ele>
        <time>1970-01-01T00:00:00Z</time>
      </trkpt>
      <trkpt lat="40.110850" lon="-5.734119">
        <ele>628.5</ele>
        <time>1970-01-01T00:00:00Z</time>
      </trkpt>
      <trkpt lat="40.110740" lon="-5.734070">
        <ele>627.9</ele>
        <time>1970-01-01T00:00:00Z</time>
      </trkpt>
      <trkpt lat="40.110700" lon="-5.733940">
        <ele>627.2</ele>
        <time>1970-01-01T00:00:00Z</time>
      </trkpt>
      <trkpt lat="40.110550" lon="-5.733640">
        <ele>624.3</ele>
        <time>1970-01-01T00:00:00Z</time>
      </trkpt>
      <trkpt lat="40.110400" lon="-5.733450">
        <ele>621.7</ele>
        <time>1970-01-01T00:00:00Z</time>
      </trkpt>
      <trkpt lat="40.110260" lon="-5.733049">
        <ele>616.6</ele>
        <time>1970-01-01T00:00:00Z</time>
      </trkpt>
      <trkpt lat="40.109080" lon="-5.730779">
        <ele>589.1</ele>
        <time>1970-01-01T00:00:00Z</time>
      </trkpt>
      <trkpt lat="40.108210" lon="-5.729599">
        <ele>576.7</ele>
        <time>1970-01-01T00:00:00Z</time>
      </trkpt>
      <trkpt lat="40.107970" lon="-5.729410">
        <ele>575.7</ele>
        <time>1970-01-01T00:00:00Z</time>
      </trkpt>
      <trkpt lat="40.107440" lon="-5.729119">
        <ele>577.4</ele>
        <time>1970-01-01T00:00:00Z</time>
      </trkpt>
      <trkpt lat="40.106940" lon="-5.728240">
        <ele>573.6</ele>
        <time>1970-01-01T00:00:00Z</time>
      </trkpt>
      <trkpt lat="40.106790" lon="-5.727679">
        <ele>570.4</ele>
        <time>1970-01-01T00:00:00Z</time>
      </trkpt>
      <trkpt lat="40.106670" lon="-5.726729">
        <ele>562.0</ele>
        <time>1970-01-01T00:00:00Z</time>
      </trkpt>
      <trkpt lat="40.106580" lon="-5.726280">
        <ele>556.7</ele>
        <time>1970-01-01T00:00:00Z</time>
      </trkpt>
      <trkpt lat="40.106420" lon="-5.725960">
        <ele>552.7</ele>
        <time>1970-01-01T00:00:00Z</time>
      </trkpt>
      <trkpt lat="40.106000" lon="-5.725549">
        <ele>547.5</ele>
        <time>1970-01-01T00:00:00Z</time>
      </trkpt>
      <trkpt lat="40.104910" lon="-5.725489">
        <ele>541.2</ele>
        <time>1970-01-01T00:00:00Z</time>
      </trkpt>
      <trkpt lat="40.103440" lon="-5.726160">
        <ele>537.5</ele>
        <time>1970-01-01T00:00:00Z</time>
      </trkpt>
      <trkpt lat="40.103290" lon="-5.726160">
        <ele>536.2</ele>
        <time>1970-01-01T00:00:00Z</time>
      </trkpt>
      <trkpt lat="40.103220" lon="-5.726209">
        <ele>536.0</ele>
        <time>1970-01-01T00:00:00Z</time>
      </trkpt>
      <trkpt lat="40.103090" lon="-5.726110">
        <ele>534.5</ele>
        <time>1970-01-01T00:00:00Z</time>
      </trkpt>
      <trkpt lat="40.102990" lon="-5.725940">
        <ele>532.7</ele>
        <time>1970-01-01T00:00:00Z</time>
      </trkpt>
      <trkpt lat="40.103230" lon="-5.725440">
        <ele>529.7</ele>
        <time>1970-01-01T00:00:00Z</time>
      </trkpt>
      <trkpt lat="40.103340" lon="-5.724930">
        <ele>523.8</ele>
        <time>1970-01-01T00:00:00Z</time>
      </trkpt>
      <trkpt lat="40.103600" lon="-5.724420">
        <ele>518.9</ele>
        <time>1970-01-01T00:00:00Z</time>
      </trkpt>
      <trkpt lat="40.103740" lon="-5.724210">
        <ele>517.3</ele>
        <time>1970-01-01T00:00:00Z</time>
      </trkpt>
      <trkpt lat="40.104050" lon="-5.723909">
        <ele>515.4</ele>
        <time>1970-01-01T00:00:00Z</time>
      </trkpt>
      <trkpt lat="40.104310" lon="-5.723410">
        <ele>512.3</ele>
        <time>1970-01-01T00:00:00Z</time>
      </trkpt>
      <trkpt lat="40.104150" lon="-5.723019">
        <ele>506.1</ele>
        <time>1970-01-01T00:00:00Z</time>
      </trkpt>
      <trkpt lat="40.103970" lon="-5.722950">
        <ele>503.6</ele>
        <time>1970-01-01T00:00:00Z</time>
      </trkpt>
      <trkpt lat="40.103880" lon="-5.722880">
        <ele>502.8</ele>
        <time>1970-01-01T00:00:00Z</time>
      </trkpt>
      <trkpt lat="40.103700" lon="-5.722660">
        <ele>501.2</ele>
        <time>1970-01-01T00:00:00Z</time>
      </trkpt>
      <trkpt lat="40.103300" lon="-5.721860">
        <ele>496.5</ele>
        <time>1970-01-01T00:00:00Z</time>
      </trkpt>
      <trkpt lat="40.103170" lon="-5.721400">
        <ele>495.9</ele>
        <time>1970-01-01T00:00:00Z</time>
      </trkpt>
      <trkpt lat="40.102830" lon="-5.720979">
        <ele>495.6</ele>
        <time>1970-01-01T00:00:00Z</time>
      </trkpt>
      <trkpt lat="40.101580" lon="-5.719270">
        <ele>493.5</ele>
        <time>1970-01-01T00:00:00Z</time>
      </trkpt>
      <trkpt lat="40.100210" lon="-5.718480">
        <ele>484.8</ele>
        <time>1970-01-01T00:00:00Z</time>
      </trkpt>
      <trkpt lat="40.099480" lon="-5.717839">
        <ele>494.1</ele>
        <time>1970-01-01T00:00:00Z</time>
      </trkpt>
      <trkpt lat="40.099360" lon="-5.717239">
        <ele>497.3</ele>
        <time>1970-01-01T00:00:00Z</time>
      </trkpt>
      <trkpt lat="40.099480" lon="-5.716889">
        <ele>495.5</ele>
        <time>1970-01-01T00:00:00Z</time>
      </trkpt>
      <trkpt lat="40.099280" lon="-5.716510">
        <ele>495.1</ele>
        <time>1970-01-01T00:00:00Z</time>
      </trkpt>
      <trkpt lat="40.099120" lon="-5.716350">
        <ele>494.2</ele>
        <time>1970-01-01T00:00:00Z</time>
      </trkpt>
      <trkpt lat="40.098960" lon="-5.716259">
        <ele>493.8</ele>
        <time>1970-01-01T00:00:00Z</time>
      </trkpt>
      <trkpt lat="40.098800" lon="-5.716089">
        <ele>493.0</ele>
        <time>1970-01-01T00:00:00Z</time>
      </trkpt>
      <trkpt lat="40.097980" lon="-5.715750">
        <ele>492.5</ele>
        <time>1970-01-01T00:00:00Z</time>
      </trkpt>
      <trkpt lat="40.097220" lon="-5.715270">
        <ele>488.5</ele>
        <time>1970-01-01T00:00:00Z</time>
      </trkpt>
      <trkpt lat="40.096530" lon="-5.714989">
        <ele>489.7</ele>
        <time>1970-01-01T00:00:00Z</time>
      </trkpt>
      <trkpt lat="40.095130" lon="-5.714709">
        <ele>496.0</ele>
        <time>1970-01-01T00:00:00Z</time>
      </trkpt>
      <trkpt lat="40.094780" lon="-5.714860">
        <ele>498.8</ele>
        <time>1970-01-01T00:00:00Z</time>
      </trkpt>
      <trkpt lat="40.094540" lon="-5.714929">
        <ele>500.9</ele>
        <time>1970-01-01T00:00:00Z</time>
      </trkpt>
      <trkpt lat="40.093720" lon="-5.714419">
        <ele>502.0</ele>
        <time>1970-01-01T00:00:00Z</time>
      </trkpt>
      <trkpt lat="40.093160" lon="-5.714099">
        <ele>505.6</ele>
        <time>1970-01-01T00:00:00Z</time>
      </trkpt>
      <trkpt lat="40.092580" lon="-5.714209">
        <ele>507.9</ele>
        <time>1970-01-01T00:00:00Z</time>
      </trkpt>
      <trkpt lat="40.091990" lon="-5.714389">
        <ele>509.1</ele>
        <time>1970-01-01T00:00:00Z</time>
      </trkpt>
      <trkpt lat="40.091570" lon="-5.714380">
        <ele>506.6</ele>
        <time>1970-01-01T00:00:00Z</time>
      </trkpt>
      <trkpt lat="40.090960" lon="-5.714479">
        <ele>502.6</ele>
        <time>1970-01-01T00:00:00Z</time>
      </trkpt>
      <trkpt lat="40.090780" lon="-5.714600">
        <ele>501.6</ele>
        <time>1970-01-01T00:00:00Z</time>
      </trkpt>
      <trkpt lat="40.090310" lon="-5.714740">
        <ele>496.5</ele>
        <time>1970-01-01T00:00:00Z</time>
      </trkpt>
      <trkpt lat="40.089990" lon="-5.714559">
        <ele>495.0</ele>
        <time>1970-01-01T00:00:00Z</time>
      </trkpt>
      <trkpt lat="40.089270" lon="-5.713910">
        <ele>496.2</ele>
        <time>1970-01-01T00:00:00Z</time>
      </trkpt>
      <trkpt lat="40.089150" lon="-5.713699">
        <ele>496.8</ele>
        <time>1970-01-01T00:00:00Z</time>
      </trkpt>
      <trkpt lat="40.089150" lon="-5.713000">
        <ele>499.0</ele>
        <time>1970-01-01T00:00:00Z</time>
      </trkpt>
      <trkpt lat="40.089110" lon="-5.712399">
        <ele>498.3</ele>
        <time>1970-01-01T00:00:00Z</time>
      </trkpt>
      <trkpt lat="40.089220" lon="-5.712010">
        <ele>496.6</ele>
        <time>1970-01-01T00:00:00Z</time>
      </trkpt>
      <trkpt lat="40.089480" lon="-5.711610">
        <ele>494.6</ele>
        <time>1970-01-01T00:00:00Z</time>
      </trkpt>
      <trkpt lat="40.089410" lon="-5.711060">
        <ele>491.5</ele>
        <time>1970-01-01T00:00:00Z</time>
      </trkpt>
      <trkpt lat="40.089180" lon="-5.710959">
        <ele>491.0</ele>
        <time>1970-01-01T00:00:00Z</time>
      </trkpt>
      <trkpt lat="40.088980" lon="-5.710939">
        <ele>490.0</ele>
        <time>1970-01-01T00:00:00Z</time>
      </trkpt>
      <trkpt lat="40.088740" lon="-5.710860">
        <ele>489.0</ele>
        <time>1970-01-01T00:00:00Z</time>
      </trkpt>
      <trkpt lat="40.088430" lon="-5.710600">
        <ele>487.5</ele>
        <time>1970-01-01T00:00:00Z</time>
      </trkpt>
      <trkpt lat="40.088060" lon="-5.710060">
        <ele>485.0</ele>
        <time>1970-01-01T00:00:00Z</time>
      </trkpt>
      <trkpt lat="40.087850" lon="-5.709469">
        <ele>480.5</ele>
        <time>1970-01-01T00:00:00Z</time>
      </trkpt>
      <trkpt lat="40.087720" lon="-5.709230">
        <ele>477.8</ele>
        <time>1970-01-01T00:00:00Z</time>
      </trkpt>
      <trkpt lat="40.086870" lon="-5.709090">
        <ele>468.9</ele>
        <time>1970-01-01T00:00:00Z</time>
      </trkpt>
      <trkpt lat="40.086420" lon="-5.708930">
        <ele>465.3</ele>
        <time>1970-01-01T00:00:00Z</time>
      </trkpt>
      <trkpt lat="40.085810" lon="-5.708250">
        <ele>463.8</ele>
        <time>1970-01-01T00:00:00Z</time>
      </trkpt>
      <trkpt lat="40.085290" lon="-5.707850">
        <ele>463.6</ele>
        <time>1970-01-01T00:00:00Z</time>
      </trkpt>
      <trkpt lat="40.085240" lon="-5.707700">
        <ele>463.0</ele>
        <time>1970-01-01T00:00:00Z</time>
      </trkpt>
      <trkpt lat="40.084970" lon="-5.707270">
        <ele>463.0</ele>
        <time>1970-01-01T00:00:00Z</time>
      </trkpt>
      <trkpt lat="40.084710" lon="-5.707120">
        <ele>463.0</ele>
        <time>1970-01-01T00:00:00Z</time>
      </trkpt>
      <trkpt lat="40.084460" lon="-5.707120">
        <ele>462.7</ele>
        <time>1970-01-01T00:00:00Z</time>
      </trkpt>
      <trkpt lat="40.084110" lon="-5.706819">
        <ele>461.2</ele>
        <time>1970-01-01T00:00:00Z</time>
      </trkpt>
      <trkpt lat="40.083930" lon="-5.706720">
        <ele>460.0</ele>
        <time>1970-01-01T00:00:00Z</time>
      </trkpt>
      <trkpt lat="40.083650" lon="-5.706419">
        <ele>456.9</ele>
        <time>1970-01-01T00:00:00Z</time>
      </trkpt>
      <trkpt lat="40.083120" lon="-5.706550">
        <ele>454.8</ele>
        <time>1970-01-01T00:00:00Z</time>
      </trkpt>
      <trkpt lat="40.082690" lon="-5.706049">
        <ele>449.6</ele>
        <time>1970-01-01T00:00:00Z</time>
      </trkpt>
      <trkpt lat="40.082440" lon="-5.705699">
        <ele>446.8</ele>
        <time>1970-01-01T00:00:00Z</time>
      </trkpt>
      <trkpt lat="40.082160" lon="-5.705120">
        <ele>445.8</ele>
        <time>1970-01-01T00:00:00Z</time>
      </trkpt>
      <trkpt lat="40.081630" lon="-5.704669">
        <ele>444.2</ele>
        <time>1970-01-01T00:00:00Z</time>
      </trkpt>
      <trkpt lat="40.081570" lon="-5.704430">
        <ele>442.9</ele>
        <time>1970-01-01T00:00:00Z</time>
      </trkpt>
      <trkpt lat="40.081480" lon="-5.704170">
        <ele>441.4</ele>
        <time>1970-01-01T00:00:00Z</time>
      </trkpt>
      <trkpt lat="40.081300" lon="-5.704040">
        <ele>439.9</ele>
        <time>1970-01-01T00:00:00Z</time>
      </trkpt>
      <trkpt lat="40.080570" lon="-5.703979">
        <ele>435.3</ele>
        <time>1970-01-01T00:00:00Z</time>
      </trkpt>
      <trkpt lat="40.080190" lon="-5.702980">
        <ele>434.5</ele>
        <time>1970-01-01T00:00:00Z</time>
      </trkpt>
      <trkpt lat="40.079780" lon="-5.702629">
        <ele>436.8</ele>
        <time>1970-01-01T00:00:00Z</time>
      </trkpt>
      <trkpt lat="40.079740" lon="-5.702500">
        <ele>436.9</ele>
        <time>1970-01-01T00:00:00Z</time>
      </trkpt>
      <trkpt lat="40.079760" lon="-5.701720">
        <ele>437.8</ele>
        <time>1970-01-01T00:00:00Z</time>
      </trkpt>
      <trkpt lat="40.079640" lon="-5.701299">
        <ele>440.8</ele>
        <time>1970-01-01T00:00:00Z</time>
      </trkpt>
      <trkpt lat="40.079330" lon="-5.700770">
        <ele>444.3</ele>
        <time>1970-01-01T00:00:00Z</time>
      </trkpt>
      <trkpt lat="40.079210" lon="-5.700390">
        <ele>445.6</ele>
        <time>1970-01-01T00:00:00Z</time>
      </trkpt>
      <trkpt lat="40.079120" lon="-5.699519">
        <ele>445.7</ele>
        <time>1970-01-01T00:00:00Z</time>
      </trkpt>
      <trkpt lat="40.078840" lon="-5.699259">
        <ele>445.5</ele>
        <time>1970-01-01T00:00:00Z</time>
      </trkpt>
      <trkpt lat="40.078410" lon="-5.699029">
        <ele>444.5</ele>
        <time>1970-01-01T00:00:00Z</time>
      </trkpt>
      <trkpt lat="40.078090" lon="-5.698700">
        <ele>441.1</ele>
        <time>1970-01-01T00:00:00Z</time>
      </trkpt>
      <trkpt lat="40.077360" lon="-5.698530">
        <ele>440.6</ele>
        <time>1970-01-01T00:00:00Z</time>
      </trkpt>
      <trkpt lat="40.076830" lon="-5.698090">
        <ele>440.5</ele>
        <time>1970-01-01T00:00:00Z</time>
      </trkpt>
      <trkpt lat="40.076530" lon="-5.697750">
        <ele>439.2</ele>
        <time>1970-01-01T00:00:00Z</time>
      </trkpt>
      <trkpt lat="40.076390" lon="-5.697649">
        <ele>438.3</ele>
        <time>1970-01-01T00:00:00Z</time>
      </trkpt>
      <trkpt lat="40.076140" lon="-5.697540">
        <ele>435.6</ele>
        <time>1970-01-01T00:00:00Z</time>
      </trkpt>
      <trkpt lat="40.075980" lon="-5.697499">
        <ele>433.7</ele>
        <time>1970-01-01T00:00:00Z</time>
      </trkpt>
      <trkpt lat="40.075190" lon="-5.697550">
        <ele>427.1</ele>
        <time>1970-01-01T00:00:00Z</time>
      </trkpt>
      <trkpt lat="40.074790" lon="-5.697860">
        <ele>426.8</ele>
        <time>1970-01-01T00:00:00Z</time>
      </trkpt>
      <trkpt lat="40.074530" lon="-5.698240">
        <ele>427.6</ele>
        <time>1970-01-01T00:00:00Z</time>
      </trkpt>
      <trkpt lat="40.074410" lon="-5.698189">
        <ele>427.0</ele>
        <time>1970-01-01T00:00:00Z</time>
      </trkpt>
      <trkpt lat="40.074400" lon="-5.698130">
        <ele>426.7</ele>
        <time>1970-01-01T00:00:00Z</time>
      </trkpt>
      <trkpt lat="40.074490" lon="-5.697920">
        <ele>426.2</ele>
        <time>1970-01-01T00:00:00Z</time>
      </trkpt>
      <trkpt lat="40.074640" lon="-5.694620">
        <ele>401.4</ele>
        <time>1970-01-01T00:00:00Z</time>
      </trkpt>
      <trkpt lat="40.074630" lon="-5.693569">
        <ele>399.9</ele>
        <time>1970-01-01T00:00:00Z</time>
      </trkpt>
      <trkpt lat="40.074550" lon="-5.693290">
        <ele>400.6</ele>
        <time>1970-01-01T00:00:00Z</time>
      </trkpt>
      <trkpt lat="40.074750" lon="-5.692570">
        <ele>393.9</ele>
        <time>1970-01-01T00:00:00Z</time>
      </trkpt>
      <trkpt lat="40.075130" lon="-5.692260">
        <ele>384.5</ele>
        <time>1970-01-01T00:00:00Z</time>
      </trkpt>
      <trkpt lat="40.075260" lon="-5.692190">
        <ele>381.7</ele>
        <time>1970-01-01T00:00:00Z</time>
      </trkpt>
      <trkpt lat="40.075370" lon="-5.691990">
        <ele>377.0</ele>
        <time>1970-01-01T00:00:00Z</time>
      </trkpt>
      <trkpt lat="40.075400" lon="-5.691899">
        <ele>375.3</ele>
        <time>1970-01-01T00:00:00Z</time>
      </trkpt>
      <trkpt lat="40.075440" lon="-5.691689">
        <ele>371.9</ele>
        <time>1970-01-01T00:00:00Z</time>
      </trkpt>
      <trkpt lat="40.075360" lon="-5.691070">
        <ele>367.0</ele>
        <time>1970-01-01T00:00:00Z</time>
      </trkpt>
      <trkpt lat="40.075220" lon="-5.690820">
        <ele>366.5</ele>
        <time>1970-01-01T00:00:00Z</time>
      </trkpt>
      <trkpt lat="40.075270" lon="-5.690670">
        <ele>367.3</ele>
        <time>1970-01-01T00:00:00Z</time>
      </trkpt>
      <trkpt lat="40.075280" lon="-5.690509">
        <ele>369.1</ele>
        <time>1970-01-01T00:00:00Z</time>
      </trkpt>
      <trkpt lat="40.075390" lon="-5.690309">
        <ele>372.7</ele>
        <time>1970-01-01T00:00:00Z</time>
      </trkpt>
      <trkpt lat="40.075530" lon="-5.690190">
        <ele>375.3</ele>
        <time>1970-01-01T00:00:00Z</time>
      </trkpt>
      <trkpt lat="40.075880" lon="-5.689649">
        <ele>385.0</ele>
        <time>1970-01-01T00:00:00Z</time>
      </trkpt>
      <trkpt lat="40.076790" lon="-5.688469">
        <ele>388.0</ele>
        <time>1970-01-01T00:00:00Z</time>
      </trkpt>
      <trkpt lat="40.077240" lon="-5.687570">
        <ele>392.6</ele>
        <time>1970-01-01T00:00:00Z</time>
      </trkpt>
      <trkpt lat="40.077370" lon="-5.687239">
        <ele>396.3</ele>
        <time>1970-01-01T00:00:00Z</time>
      </trkpt>
      <trkpt lat="40.077740" lon="-5.686130">
        <ele>405.1</ele>
        <time>1970-01-01T00:00:00Z</time>
      </trkpt>
      <trkpt lat="40.077780" lon="-5.686059">
        <ele>405.3</ele>
        <time>1970-01-01T00:00:00Z</time>
      </trkpt>
      <trkpt lat="40.077960" lon="-5.685859">
        <ele>403.9</ele>
        <time>1970-01-01T00:00:00Z</time>
      </trkpt>
      <trkpt lat="40.078360" lon="-5.685520">
        <ele>397.0</ele>
        <time>1970-01-01T00:00:00Z</time>
      </trkpt>
      <trkpt lat="40.078820" lon="-5.685030">
        <ele>392.5</ele>
        <time>1970-01-01T00:00:00Z</time>
      </trkpt>
      <trkpt lat="40.079330" lon="-5.683989">
        <ele>395.1</ele>
        <time>1970-01-01T00:00:00Z</time>
      </trkpt>
      <trkpt lat="40.079580" lon="-5.683200">
        <ele>396.9</ele>
        <time>1970-01-01T00:00:00Z</time>
      </trkpt>
      <trkpt lat="40.079920" lon="-5.682680">
        <ele>397.4</ele>
        <time>1970-01-01T00:00:00Z</time>
      </trkpt>
      <trkpt lat="40.080430" lon="-5.681569">
        <ele>401.7</ele>
        <time>1970-01-01T00:00:00Z</time>
      </trkpt>
      <trkpt lat="40.081580" lon="-5.679669">
        <ele>409.2</ele>
        <time>1970-01-01T00:00:00Z</time>
      </trkpt>
      <trkpt lat="40.082170" lon="-5.678899">
        <ele>411.7</ele>
        <time>1970-01-01T00:00:00Z</time>
      </trkpt>
      <trkpt lat="40.083000" lon="-5.677330">
        <ele>411.2</ele>
        <time>1970-01-01T00:00:00Z</time>
      </trkpt>
      <trkpt lat="40.083010" lon="-5.676769">
        <ele>414.8</ele>
        <time>1970-01-01T00:00:00Z</time>
      </trkpt>
      <trkpt lat="40.082970" lon="-5.676649">
        <ele>416.3</ele>
        <time>1970-01-01T00:00:00Z</time>
      </trkpt>
      <trkpt lat="40.083100" lon="-5.676129">
        <ele>420.3</ele>
        <time>1970-01-01T00:00:00Z</time>
      </trkpt>
      <trkpt lat="40.083300" lon="-5.674860">
        <ele>427.9</ele>
        <time>1970-01-01T00:00:00Z</time>
      </trkpt>
      <trkpt lat="40.083600" lon="-5.673919">
        <ele>429.2</ele>
        <time>1970-01-01T00:00:00Z</time>
      </trkpt>
      <trkpt lat="40.083640" lon="-5.673410">
        <ele>431.0</ele>
        <time>1970-01-01T00:00:00Z</time>
      </trkpt>
      <trkpt lat="40.083490" lon="-5.673109">
        <ele>431.3</ele>
        <time>1970-01-01T00:00:00Z</time>
      </trkpt>
      <trkpt lat="40.083290" lon="-5.672879">
        <ele>432.0</ele>
        <time>1970-01-01T00:00:00Z</time>
      </trkpt>
      <trkpt lat="40.083040" lon="-5.672640">
        <ele>431.7</ele>
        <time>1970-01-01T00:00:00Z</time>
      </trkpt>
      <trkpt lat="40.082970" lon="-5.672619">
        <ele>431.5</ele>
        <time>1970-01-01T00:00:00Z</time>
      </trkpt>
      <trkpt lat="40.082880" lon="-5.672500">
        <ele>430.3</ele>
        <time>1970-01-01T00:00:00Z</time>
      </trkpt>
      <trkpt lat="40.082530" lon="-5.672200">
        <ele>426.6</ele>
        <time>1970-01-01T00:00:00Z</time>
      </trkpt>
      <trkpt lat="40.081790" lon="-5.671660">
        <ele>415.2</ele>
        <time>1970-01-01T00:00:00Z</time>
      </trkpt>
      <trkpt lat="40.080830" lon="-5.671159">
        <ele>397.7</ele>
        <time>1970-01-01T00:00:00Z</time>
      </trkpt>
      <trkpt lat="40.080470" lon="-5.670839">
        <ele>391.1</ele>
        <time>1970-01-01T00:00:00Z</time>
      </trkpt>
      <trkpt lat="40.080200" lon="-5.670770">
        <ele>389.0</ele>
        <time>1970-01-01T00:00:00Z</time>
      </trkpt>
      <trkpt lat="40.079750" lon="-5.671030">
        <ele>387.8</ele>
        <time>1970-01-01T00:00:00Z</time>
      </trkpt>
      <trkpt lat="40.079560" lon="-5.671249">
        <ele>387.2</ele>
        <time>1970-01-01T00:00:00Z</time>
      </trkpt>
      <trkpt lat="40.079580" lon="-5.670630">
        <ele>387.7</ele>
        <time>1970-01-01T00:00:00Z</time>
      </trkpt>
      <trkpt lat="40.079640" lon="-5.670529">
        <ele>387.7</ele>
        <time>1970-01-01T00:00:00Z</time>
      </trkpt>
      <trkpt lat="40.079620" lon="-5.670230">
        <ele>388.4</ele>
        <time>1970-01-01T00:00:00Z</time>
      </trkpt>
      <trkpt lat="40.079350" lon="-5.670050">
        <ele>390.9</ele>
        <time>1970-01-01T00:00:00Z</time>
      </trkpt>
      <trkpt lat="40.079310" lon="-5.669990">
        <ele>391.9</ele>
        <time>1970-01-01T00:00:00Z</time>
      </trkpt>
      <trkpt lat="40.079310" lon="-5.669949">
        <ele>392.1</ele>
        <time>1970-01-01T00:00:00Z</time>
      </trkpt>
      <trkpt lat="40.079280" lon="-5.669919">
        <ele>392.8</ele>
        <time>1970-01-01T00:00:00Z</time>
      </trkpt>
      <trkpt lat="40.079240" lon="-5.669480">
        <ele>395.4</ele>
        <time>1970-01-01T00:00:00Z</time>
      </trkpt>
      <trkpt lat="40.079230" lon="-5.669519">
        <ele>395.6</ele>
        <time>1970-01-01T00:00:00Z</time>
      </trkpt>
      <trkpt lat="40.079000" lon="-5.669770">
        <ele>400.1</ele>
        <time>1970-01-01T00:00:00Z</time>
      </trkpt>
      <trkpt lat="40.079000" lon="-5.669770">
        <ele>400.1</ele>
        <time>1970-01-01T00:00:00Z</time>
      </trkpt>
      <trkpt lat="40.078640" lon="-5.670310">
        <ele>402.0</ele>
        <time>1970-01-01T00:00:00Z</time>
      </trkpt>
      <trkpt lat="40.078510" lon="-5.670409">
        <ele>403.6</ele>
        <time>1970-01-01T00:00:00Z</time>
      </trkpt>
      <trkpt lat="40.078320" lon="-5.670480">
        <ele>407.2</ele>
        <time>1970-01-01T00:00:00Z</time>
      </trkpt>
      <trkpt lat="40.078310" lon="-5.670510">
        <ele>406.9</ele>
        <time>1970-01-01T00:00:00Z</time>
      </trkpt>
      <trkpt lat="40.077840" lon="-5.670650">
        <ele>416.6</ele>
        <time>1970-01-01T00:00:00Z</time>
      </trkpt>
      <trkpt lat="40.077600" lon="-5.670770">
        <ele>419.1</ele>
        <time>1970-01-01T00:00:00Z</time>
      </trkpt>
      <trkpt lat="40.077240" lon="-5.671120">
        <ele>417.5</ele>
        <time>1970-01-01T00:00:00Z</time>
      </trkpt>
      <trkpt lat="40.077210" lon="-5.670970">
        <ele>419.9</ele>
        <time>1970-01-01T00:00:00Z</time>
      </trkpt>
      <trkpt lat="40.077430" lon="-5.670420">
        <ele>424.9</ele>
        <time>1970-01-01T00:00:00Z</time>
      </trkpt>
      <trkpt lat="40.077500" lon="-5.670080">
        <ele>427.2</ele>
        <time>1970-01-01T00:00:00Z</time>
      </trkpt>
      <trkpt lat="40.077520" lon="-5.669859">
        <ele>429.0</ele>
        <time>1970-01-01T00:00:00Z</time>
      </trkpt>
      <trkpt lat="40.077340" lon="-5.669590">
        <ele>431.8</ele>
        <time>1970-01-01T00:00:00Z</time>
      </trkpt>
      <trkpt lat="40.077130" lon="-5.669450">
        <ele>434.2</ele>
        <time>1970-01-01T00:00:00Z</time>
      </trkpt>
      <trkpt lat="40.076920" lon="-5.669680">
        <ele>433.6</ele>
        <time>1970-01-01T00:00:00Z</time>
      </trkpt>
      <trkpt lat="40.076780" lon="-5.669900">
        <ele>432.1</ele>
        <time>1970-01-01T00:00:00Z</time>
      </trkpt>
      <trkpt lat="40.076710" lon="-5.669979">
        <ele>431.9</ele>
        <time>1970-01-01T00:00:00Z</time>
      </trkpt>
      <trkpt lat="40.076600" lon="-5.670020">
        <ele>432.4</ele>
        <time>1970-01-01T00:00:00Z</time>
      </trkpt>
      <trkpt lat="40.076560" lon="-5.669889">
        <ele>434.0</ele>
        <time>1970-01-01T00:00:00Z</time>
      </trkpt>
      <trkpt lat="40.076560" lon="-5.669620">
        <ele>436.3</ele>
        <time>1970-01-01T00:00:00Z</time>
      </trkpt>
      <trkpt lat="40.076490" lon="-5.669579">
        <ele>437.3</ele>
        <time>1970-01-01T00:00:00Z</time>
      </trkpt>
      <trkpt lat="40.076370" lon="-5.669410">
        <ele>440.5</ele>
        <time>1970-01-01T00:00:00Z</time>
      </trkpt>
      <trkpt lat="40.076310" lon="-5.669369">
        <ele>441.6</ele>
        <time>1970-01-01T00:00:00Z</time>
      </trkpt>
      <trkpt lat="40.076090" lon="-5.669289">
        <ele>445.6</ele>
        <time>1970-01-01T00:00:00Z</time>
      </trkpt>
      <trkpt lat="40.075865" lon="-5.669151">
        <ele>448.8</ele>
        <time>1970-01-01T00:00:00Z</time>
      </trkpt>
      <trkpt lat="40.075865" lon="-5.669151">
        <ele>448.8</ele>
        <time>1970-01-01T00:00:00Z</time>
      </trkpt>
      <trkpt lat="40.075320" lon="-5.668629">
        <ele>456.8</ele>
        <time>1970-01-01T00:00:00Z</time>
      </trkpt>
      <trkpt lat="40.075060" lon="-5.668169">
        <ele>460.2</ele>
        <time>1970-01-01T00:00:00Z</time>
      </trkpt>
      <trkpt lat="40.074820" lon="-5.667879">
        <ele>462.5</ele>
        <time>1970-01-01T00:00:00Z</time>
      </trkpt>
      <trkpt lat="40.074780" lon="-5.667800">
        <ele>463.0</ele>
        <time>1970-01-01T00:00:00Z</time>
      </trkpt>
      <trkpt lat="40.074670" lon="-5.667419">
        <ele>464.4</ele>
        <time>1970-01-01T00:00:00Z</time>
      </trkpt>
      <trkpt lat="40.074210" lon="-5.666899">
        <ele>469.7</ele>
        <time>1970-01-01T00:00:00Z</time>
      </trkpt>
      <trkpt lat="40.073910" lon="-5.666490">
        <ele>476.3</ele>
        <time>1970-01-01T00:00:00Z</time>
      </trkpt>
      <trkpt lat="40.073810" lon="-5.666009">
        <ele>482.3</ele>
        <time>1970-01-01T00:00:00Z</time>
      </trkpt>
      <trkpt lat="40.073700" lon="-5.665689">
        <ele>486.5</ele>
        <time>1970-01-01T00:00:00Z</time>
      </trkpt>
      <trkpt lat="40.073350" lon="-5.665749">
        <ele>486.7</ele>
        <time>1970-01-01T00:00:00Z</time>
      </trkpt>
      <trkpt lat="40.072830" lon="-5.665119">
        <ele>491.2</ele>
        <time>1970-01-01T00:00:00Z</time>
      </trkpt>
      <trkpt lat="40.072610" lon="-5.664780">
        <ele>493.7</ele>
        <time>1970-01-01T00:00:00Z</time>
      </trkpt>
      <trkpt lat="40.072470" lon="-5.664429">
        <ele>494.3</ele>
        <time>1970-01-01T00:00:00Z</time>
      </trkpt>
      <trkpt lat="40.072140" lon="-5.663750">
        <ele>488.2</ele>
        <time>1970-01-01T00:00:00Z</time>
      </trkpt>
      <trkpt lat="40.071880" lon="-5.663060">
        <ele>483.4</ele>
        <time>1970-01-01T00:00:00Z</time>
      </trkpt>
      <trkpt lat="40.071670" lon="-5.662750">
        <ele>482.0</ele>
        <time>1970-01-01T00:00:00Z</time>
      </trkpt>
      <trkpt lat="40.071550" lon="-5.662430">
        <ele>482.0</ele>
        <time>1970-01-01T00:00:00Z</time>
      </trkpt>
      <trkpt lat="40.071470" lon="-5.662099">
        <ele>482.0</ele>
        <time>1970-01-01T00:00:00Z</time>
      </trkpt>
      <trkpt lat="40.071380" lon="-5.661850">
        <ele>483.0</ele>
        <time>1970-01-01T00:00:00Z</time>
      </trkpt>
      <trkpt lat="40.071410" lon="-5.661540">
        <ele>483.0</ele>
        <time>1970-01-01T00:00:00Z</time>
      </trkpt>
      <trkpt lat="40.071290" lon="-5.660919">
        <ele>483.5</ele>
        <time>1970-01-01T00:00:00Z</time>
      </trkpt>
      <trkpt lat="40.071320" lon="-5.660820">
        <ele>483.2</ele>
        <time>1970-01-01T00:00:00Z</time>
      </trkpt>
      <trkpt lat="40.071260" lon="-5.660319">
        <ele>481.3</ele>
        <time>1970-01-01T00:00:00Z</time>
      </trkpt>
      <trkpt lat="40.070910" lon="-5.659950">
        <ele>476.6</ele>
        <time>1970-01-01T00:00:00Z</time>
      </trkpt>
      <trkpt lat="40.070790" lon="-5.659629">
        <ele>474.2</ele>
        <time>1970-01-01T00:00:00Z</time>
      </trkpt>
      <trkpt lat="40.070750" lon="-5.659369">
        <ele>472.9</ele>
        <time>1970-01-01T00:00:00Z</time>
      </trkpt>
      <trkpt lat="40.070480" lon="-5.658460">
        <ele>469.4</ele>
        <time>1970-01-01T00:00:00Z</time>
      </trkpt>
      <trkpt lat="40.070000" lon="-5.657310">
        <ele>464.1</ele>
        <time>1970-01-01T00:00:00Z</time>
      </trkpt>
      <trkpt lat="40.069780" lon="-5.656829">
        <ele>463.8</ele>
        <time>1970-01-01T00:00:00Z</time>
      </trkpt>
      <trkpt lat="40.069480" lon="-5.656319">
        <ele>462.3</ele>
        <time>1970-01-01T00:00:00Z</time>
      </trkpt>
      <trkpt lat="40.068740" lon="-5.655640">
        <ele>459.6</ele>
        <time>1970-01-01T00:00:00Z</time>
      </trkpt>
      <trkpt lat="40.068600" lon="-5.655410">
        <ele>459.8</ele>
        <time>1970-01-01T00:00:00Z</time>
      </trkpt>
      <trkpt lat="40.068060" lon="-5.654649">
        <ele>459.2</ele>
        <time>1970-01-01T00:00:00Z</time>
      </trkpt>
      <trkpt lat="40.068050" lon="-5.654580">
        <ele>459.9</ele>
        <time>1970-01-01T00:00:00Z</time>
      </trkpt>
      <trkpt lat="40.067990" lon="-5.654470">
        <ele>460.6</ele>
        <time>1970-01-01T00:00:00Z</time>
      </trkpt>
      <trkpt lat="40.067670" lon="-5.654129">
        <ele>464.3</ele>
        <time>1970-01-01T00:00:00Z</time>
      </trkpt>
      <trkpt lat="40.067220" lon="-5.653899">
        <ele>467.3</ele>
        <time>1970-01-01T00:00:00Z</time>
      </trkpt>
      <trkpt lat="40.067030" lon="-5.653860">
        <ele>466.5</ele>
        <time>1970-01-01T00:00:00Z</time>
      </trkpt>
      <trkpt lat="40.066540" lon="-5.653839">
        <ele>463.1</ele>
        <time>1970-01-01T00:00:00Z</time>
      </trkpt>
      <trkpt lat="40.066140" lon="-5.653650">
        <ele>462.2</ele>
        <time>1970-01-01T00:00:00Z</time>
      </trkpt>
      <trkpt lat="40.065960" lon="-5.653280">
        <ele>465.2</ele>
        <time>1970-01-01T00:00:00Z</time>
      </trkpt>
      <trkpt lat="40.065990" lon="-5.653200">
        <ele>465.9</ele>
        <time>1970-01-01T00:00:00Z</time>
      </trkpt>
      <trkpt lat="40.066090" lon="-5.651870">
        <ele>477.0</ele>
        <time>1970-01-01T00:00:00Z</time>
      </trkpt>
      <trkpt lat="40.066300" lon="-5.651180">
        <ele>480.1</ele>
        <time>1970-01-01T00:00:00Z</time>
      </trkpt>
      <trkpt lat="40.066390" lon="-5.650410">
        <ele>482.6</ele>
        <time>1970-01-01T00:00:00Z</time>
      </trkpt>
      <trkpt lat="40.066310" lon="-5.649329">
        <ele>485.5</ele>
        <time>1970-01-01T00:00:00Z</time>
      </trkpt>
      <trkpt lat="40.066330" lon="-5.648379">
        <ele>491.9</ele>
        <time>1970-01-01T00:00:00Z</time>
      </trkpt>
      <trkpt lat="40.066420" lon="-5.647999">
        <ele>494.5</ele>
        <time>1970-01-01T00:00:00Z</time>
      </trkpt>
      <trkpt lat="40.066510" lon="-5.647790">
        <ele>496.7</ele>
        <time>1970-01-01T00:00:00Z</time>
      </trkpt>
      <trkpt lat="40.066580" lon="-5.647380">
        <ele>500.2</ele>
        <time>1970-01-01T00:00:00Z</time>
      </trkpt>
      <trkpt lat="40.066880" lon="-5.646569">
        <ele>499.9</ele>
        <time>1970-01-01T00:00:00Z</time>
      </trkpt>
      <trkpt lat="40.066990" lon="-5.646350">
        <ele>498.0</ele>
        <time>1970-01-01T00:00:00Z</time>
      </trkpt>
      <trkpt lat="40.067030" lon="-5.646030">
        <ele>497.7</ele>
        <time>1970-01-01T00:00:00Z</time>
      </trkpt>
      <trkpt lat="40.066900" lon="-5.646010">
        <ele>498.7</ele>
        <time>1970-01-01T00:00:00Z</time>
      </trkpt>
      <trkpt lat="40.066930" lon="-5.645679">
        <ele>498.5</ele>
        <time>1970-01-01T00:00:00Z</time>
      </trkpt>
      <trkpt lat="40.066760" lon="-5.645649">
        <ele>499.9</ele>
        <time>1970-01-01T00:00:00Z</time>
      </trkpt>
      <trkpt lat="40.066180" lon="-5.646180">
        <ele>509.3</ele>
        <time>1970-01-01T00:00:00Z</time>
      </trkpt>
      <trkpt lat="40.066110" lon="-5.646279">
        <ele>509.8</ele>
        <time>1970-01-01T00:00:00Z</time>
      </trkpt>
      <trkpt lat="40.065940" lon="-5.646430">
        <ele>511.0</ele>
        <time>1970-01-01T00:00:00Z</time>
      </trkpt>
      <trkpt lat="40.065420" lon="-5.646630">
        <ele>507.4</ele>
        <time>1970-01-01T00:00:00Z</time>
      </trkpt>
      <trkpt lat="40.065070" lon="-5.646849">
        <ele>502.5</ele>
        <time>1970-01-01T00:00:00Z</time>
      </trkpt>
      <trkpt lat="40.064520" lon="-5.647560">
        <ele>498.2</ele>
        <time>1970-01-01T00:00:00Z</time>
      </trkpt>
      <trkpt lat="40.063950" lon="-5.648400">
        <ele>493.5</ele>
        <time>1970-01-01T00:00:00Z</time>
      </trkpt>
      <trkpt lat="40.063520" lon="-5.648830">
        <ele>492.3</ele>
        <time>1970-01-01T00:00:00Z</time>
      </trkpt>
      <trkpt lat="40.063250" lon="-5.649230">
        <ele>488.9</ele>
        <time>1970-01-01T00:00:00Z</time>
      </trkpt>
      <trkpt lat="40.063000" lon="-5.649359">
        <ele>488.5</ele>
        <time>1970-01-01T00:00:00Z</time>
      </trkpt>
      <trkpt lat="40.062800" lon="-5.649540">
        <ele>489.4</ele>
        <time>1970-01-01T00:00:00Z</time>
      </trkpt>
      <trkpt lat="40.061960" lon="-5.650150">
        <ele>479.0</ele>
        <time>1970-01-01T00:00:00Z</time>
      </trkpt>
      <trkpt lat="40.061630" lon="-5.650350">
        <ele>469.5</ele>
        <time>1970-01-01T00:00:00Z</time>
      </trkpt>
      <trkpt lat="40.061430" lon="-5.650359">
        <ele>464.5</ele>
        <time>1970-01-01T00:00:00Z</time>
      </trkpt>
      <trkpt lat="40.061290" lon="-5.650350">
        <ele>461.7</ele>
        <time>1970-01-01T00:00:00Z</time>
      </trkpt>
      <trkpt lat="40.061180" lon="-5.650279">
        <ele>459.8</ele>
        <time>1970-01-01T00:00:00Z</time>
      </trkpt>
      <trkpt lat="40.061150" lon="-5.650309">
        <ele>459.3</ele>
        <time>1970-01-01T00:00:00Z</time>
      </trkpt>
      <trkpt lat="40.061060" lon="-5.650180">
        <ele>457.9</ele>
        <time>1970-01-01T00:00:00Z</time>
      </trkpt>
      <trkpt lat="40.060660" lon="-5.649389">
        <ele>454.7</ele>
        <time>1970-01-01T00:00:00Z</time>
      </trkpt>
      <trkpt lat="40.060140" lon="-5.648259">
        <ele>454.7</ele>
        <time>1970-01-01T00:00:00Z</time>
      </trkpt>
      <trkpt lat="40.059950" lon="-5.647749">
        <ele>453.2</ele>
        <time>1970-01-01T00:00:00Z</time>
      </trkpt>
      <trkpt lat="40.059720" lon="-5.647399">
        <ele>450.5</ele>
        <time>1970-01-01T00:00:00Z</time>
      </trkpt>
      <trkpt lat="40.059190" lon="-5.646389">
        <ele>447.6</ele>
        <time>1970-01-01T00:00:00Z</time>
      </trkpt>
      <trkpt lat="40.059100" lon="-5.646189">
        <ele>446.9</ele>
        <time>1970-01-01T00:00:00Z</time>
      </trkpt>
      <trkpt lat="40.058800" lon="-5.645660">
        <ele>446.3</ele>
        <time>1970-01-01T00:00:00Z</time>
      </trkpt>
      <trkpt lat="40.058550" lon="-5.645110">
        <ele>446.3</ele>
        <time>1970-01-01T00:00:00Z</time>
      </trkpt>
      <trkpt lat="40.058430" lon="-5.644719">
        <ele>447.2</ele>
        <time>1970-01-01T00:00:00Z</time>
      </trkpt>
      <trkpt lat="40.058410" lon="-5.644460">
        <ele>448.2</ele>
        <time>1970-01-01T00:00:00Z</time>
      </trkpt>
      <trkpt lat="40.058270" lon="-5.643760">
        <ele>449.9</ele>
        <time>1970-01-01T00:00:00Z</time>
      </trkpt>
      <trkpt lat="40.058170" lon="-5.643489">
        <ele>450.4</ele>
        <time>1970-01-01T00:00:00Z</time>
      </trkpt>
      <trkpt lat="40.058030" lon="-5.642889">
        <ele>451.6</ele>
        <time>1970-01-01T00:00:00Z</time>
      </trkpt>
      <trkpt lat="40.057810" lon="-5.642550">
        <ele>451.0</ele>
        <time>1970-01-01T00:00:00Z</time>
      </trkpt>
      <trkpt lat="40.057480" lon="-5.642219">
        <ele>448.9</ele>
        <time>1970-01-01T00:00:00Z</time>
      </trkpt>
      <trkpt lat="40.057460" lon="-5.642150">
        <ele>449.0</ele>
        <time>1970-01-01T00:00:00Z</time>
      </trkpt>
      <trkpt lat="40.057320" lon="-5.640080">
        <ele>454.4</ele>
        <time>1970-01-01T00:00:00Z</time>
      </trkpt>
      <trkpt lat="40.057090" lon="-5.637890">
        <ele>458.5</ele>
        <time>1970-01-01T00:00:00Z</time>
      </trkpt>
      <trkpt lat="40.057050" lon="-5.637030">
        <ele>457.1</ele>
        <time>1970-01-01T00:00:00Z</time>
      </trkpt>
      <trkpt lat="40.057170" lon="-5.635990">
        <ele>455.7</ele>
        <time>1970-01-01T00:00:00Z</time>
      </trkpt>
      <trkpt lat="40.057150" lon="-5.635510">
        <ele>455.5</ele>
        <time>1970-01-01T00:00:00Z</time>
      </trkpt>
      <trkpt lat="40.057250" lon="-5.634850">
        <ele>455.2</ele>
        <time>1970-01-01T00:00:00Z</time>
      </trkpt>
      <trkpt lat="40.057060" lon="-5.632419">
        <ele>442.7</ele>
        <time>1970-01-01T00:00:00Z</time>
      </trkpt>
      <trkpt lat="40.056910" lon="-5.630990">
        <ele>435.1</ele>
        <time>1970-01-01T00:00:00Z</time>
      </trkpt>
      <trkpt lat="40.056830" lon="-5.630650">
        <ele>432.4</ele>
        <time>1970-01-01T00:00:00Z</time>
      </trkpt>
      <trkpt lat="40.056800" lon="-5.630339">
        <ele>429.8</ele>
        <time>1970-01-01T00:00:00Z</time>
      </trkpt>
      <trkpt lat="40.056600" lon="-5.629419">
        <ele>426.7</ele>
        <time>1970-01-01T00:00:00Z</time>
      </trkpt>
      <trkpt lat="40.056450" lon="-5.628789">
        <ele>424.1</ele>
        <time>1970-01-01T00:00:00Z</time>
      </trkpt>
      <trkpt lat="40.056250" lon="-5.628110">
        <ele>420.3</ele>
        <time>1970-01-01T00:00:00Z</time>
      </trkpt>
      <trkpt lat="40.056170" lon="-5.628030">
        <ele>419.7</ele>
        <time>1970-01-01T00:00:00Z</time>
      </trkpt>
      <trkpt lat="40.056020" lon="-5.627710">
        <ele>419.2</ele>
        <time>1970-01-01T00:00:00Z</time>
      </trkpt>
      <trkpt lat="40.055690" lon="-5.626489">
        <ele>416.0</ele>
        <time>1970-01-01T00:00:00Z</time>
      </trkpt>
      <trkpt lat="40.055200" lon="-5.624449">
        <ele>409.4</ele>
        <time>1970-01-01T00:00:00Z</time>
      </trkpt>
      <trkpt lat="40.054610" lon="-5.623200">
        <ele>403.5</ele>
        <time>1970-01-01T00:00:00Z</time>
      </trkpt>
      <trkpt lat="40.053820" lon="-5.621450">
        <ele>394.1</ele>
        <time>1970-01-01T00:00:00Z</time>
      </trkpt>
      <trkpt lat="40.053360" lon="-5.620210">
        <ele>392.1</ele>
        <time>1970-01-01T00:00:00Z</time>
      </trkpt>
      <trkpt lat="40.053100" lon="-5.619239">
        <ele>388.8</ele>
        <time>1970-01-01T00:00:00Z</time>
      </trkpt>
      <trkpt lat="40.053100" lon="-5.619129">
        <ele>388.4</ele>
        <time>1970-01-01T00:00:00Z</time>
      </trkpt>
      <trkpt lat="40.052820" lon="-5.618179">
        <ele>381.1</ele>
        <time>1970-01-01T00:00:00Z</time>
      </trkpt>
      <trkpt lat="40.052840" lon="-5.617829">
        <ele>377.2</ele>
        <time>1970-01-01T00:00:00Z</time>
      </trkpt>
      <trkpt lat="40.052970" lon="-5.617390">
        <ele>376.0</ele>
        <time>1970-01-01T00:00:00Z</time>
      </trkpt>
      <trkpt lat="40.052750" lon="-5.616649">
        <ele>368.3</ele>
        <time>1970-01-01T00:00:00Z</time>
      </trkpt>
      <trkpt lat="40.052560" lon="-5.616560">
        <ele>366.7</ele>
        <time>1970-01-01T00:00:00Z</time>
      </trkpt>
      <trkpt lat="40.052170" lon="-5.616180">
        <ele>365.0</ele>
        <time>1970-01-01T00:00:00Z</time>
      </trkpt>
      <trkpt lat="40.051970" lon="-5.615580">
        <ele>363.3</ele>
        <time>1970-01-01T00:00:00Z</time>
      </trkpt>
      <trkpt lat="40.051940" lon="-5.614920">
        <ele>358.3</ele>
        <time>1970-01-01T00:00:00Z</time>
      </trkpt>
      <trkpt lat="40.051960" lon="-5.614699">
        <ele>356.6</ele>
        <time>1970-01-01T00:00:00Z</time>
      </trkpt>
      <trkpt lat="40.051700" lon="-5.614190">
        <ele>347.9</ele>
        <time>1970-01-01T00:00:00Z</time>
      </trkpt>
      <trkpt lat="40.051510" lon="-5.613889">
        <ele>341.3</ele>
        <time>1970-01-01T00:00:00Z</time>
      </trkpt>
      <trkpt lat="40.051880" lon="-5.613680">
        <ele>341.9</ele>
        <time>1970-01-01T00:00:00Z</time>
      </trkpt>
      <trkpt lat="40.052100" lon="-5.613169">
        <ele>337.1</ele>
        <time>1970-01-01T00:00:00Z</time>
      </trkpt>
      <trkpt lat="40.052290" lon="-5.613010">
        <ele>336.7</ele>
        <time>1970-01-01T00:00:00Z</time>
      </trkpt>
      <trkpt lat="40.052550" lon="-5.613169">
        <ele>339.8</ele>
        <time>1970-01-01T00:00:00Z</time>
      </trkpt>
      <trkpt lat="40.052570" lon="-5.612999">
        <ele>338.4</ele>
        <time>1970-01-01T00:00:00Z</time>
      </trkpt>
      <trkpt lat="40.052490" lon="-5.612850">
        <ele>336.3</ele>
        <time>1970-01-01T00:00:00Z</time>
      </trkpt>
      <trkpt lat="40.052100" lon="-5.612429">
        <ele>328.9</ele>
        <time>1970-01-01T00:00:00Z</time>
      </trkpt>
      <trkpt lat="40.051780" lon="-5.612350">
        <ele>324.0</ele>
        <time>1970-01-01T00:00:00Z</time>
      </trkpt>
      <trkpt lat="40.051410" lon="-5.612490">
        <ele>320.0</ele>
        <time>1970-01-01T00:00:00Z</time>
      </trkpt>
      <trkpt lat="40.051180" lon="-5.612380">
        <ele>316.8</ele>
        <time>1970-01-01T00:00:00Z</time>
      </trkpt>
      <trkpt lat="40.050810" lon="-5.611570">
        <ele>312.8</ele>
        <time>1970-01-01T00:00:00Z</time>
      </trkpt>
      <trkpt lat="40.050810" lon="-5.611189">
        <ele>310.4</ele>
        <time>1970-01-01T00:00:00Z</time>
      </trkpt>
      <trkpt lat="40.051220" lon="-5.610510">
        <ele>310.8</ele>
        <time>1970-01-01T00:00:00Z</time>
      </trkpt>
      <trkpt lat="40.051300" lon="-5.610230">
        <ele>308.2</ele>
        <time>1970-01-01T00:00:00Z</time>
      </trkpt>
      <trkpt lat="40.051260" lon="-5.609940">
        <ele>304.5</ele>
        <time>1970-01-01T00:00:00Z</time>
      </trkpt>
      <trkpt lat="40.051330" lon="-5.609540">
        <ele>300.6</ele>
        <time>1970-01-01T00:00:00Z</time>
      </trkpt>
      <trkpt lat="40.051400" lon="-5.609379">
        <ele>299.8</ele>
        <time>1970-01-01T00:00:00Z</time>
      </trkpt>
      <trkpt lat="40.051720" lon="-5.609250">
        <ele>300.4</ele>
        <time>1970-01-01T00:00:00Z</time>
      </trkpt>
      <trkpt lat="40.051940" lon="-5.609379">
        <ele>303.7</ele>
        <time>1970-01-01T00:00:00Z</time>
      </trkpt>
      <trkpt lat="40.052110" lon="-5.608990">
        <ele>301.1</ele>
        <time>1970-01-01T00:00:00Z</time>
      </trkpt>
      <trkpt lat="40.052240" lon="-5.608580">
        <ele>297.4</ele>
        <time>1970-01-01T00:00:00Z</time>
      </trkpt>
      <trkpt lat="40.052260" lon="-5.608070">
        <ele>290.3</ele>
        <time>1970-01-01T00:00:00Z</time>
      </trkpt>
      <trkpt lat="40.052390" lon="-5.607530">
        <ele>283.9</ele>
        <time>1970-01-01T00:00:00Z</time>
      </trkpt>
      <trkpt lat="40.052210" lon="-5.607329">
        <ele>280.5</ele>
        <time>1970-01-01T00:00:00Z</time>
      </trkpt>
      <trkpt lat="40.051980" lon="-5.607630">
        <ele>283.6</ele>
        <time>1970-01-01T00:00:00Z</time>
      </trkpt>
      <trkpt lat="40.051870" lon="-5.607640">
        <ele>283.0</ele>
        <time>1970-01-01T00:00:00Z</time>
      </trkpt>
      <trkpt lat="40.051620" lon="-5.607600">
        <ele>280.5</ele>
        <time>1970-01-01T00:00:00Z</time>
      </trkpt>
      <trkpt lat="40.051110" lon="-5.607000">
        <ele>272.4</ele>
        <time>1970-01-01T00:00:00Z</time>
      </trkpt>
      <trkpt lat="40.051320" lon="-5.606510">
        <ele>271.1</ele>
        <time>1970-01-01T00:00:00Z</time>
      </trkpt>
      <trkpt lat="40.051440" lon="-5.606400">
        <ele>271.1</ele>
        <time>1970-01-01T00:00:00Z</time>
      </trkpt>
      <trkpt lat="40.051690" lon="-5.606290">
        <ele>269.0</ele>
        <time>1970-01-01T00:00:00Z</time>
      </trkpt>
      <trkpt lat="40.051840" lon="-5.606190">
        <ele>267.6</ele>
        <time>1970-01-01T00:00:00Z</time>
      </trkpt>
      <trkpt lat="40.051840" lon="-5.605710">
        <ele>268.1</ele>
        <time>1970-01-01T00:00:00Z</time>
      </trkpt>
      <trkpt lat="40.051680" lon="-5.605860">
        <ele>268.2</ele>
        <time>1970-01-01T00:00:00Z</time>
      </trkpt>
      <trkpt lat="40.050660" lon="-5.605869">
        <ele>278.0</ele>
        <time>1970-01-01T00:00:00Z</time>
      </trkpt>
      <trkpt lat="40.050030" lon="-5.606159">
        <ele>278.2</ele>
        <time>1970-01-01T00:00:00Z</time>
      </trkpt>
      <trkpt lat="40.049490" lon="-5.606320">
        <ele>272.8</ele>
        <time>1970-01-01T00:00:00Z</time>
      </trkpt>
      <trkpt lat="40.049280" lon="-5.606409">
        <ele>271.2</ele>
        <time>1970-01-01T00:00:00Z</time>
      </trkpt>
      <trkpt lat="40.049290" lon="-5.606450">
        <ele>271.4</ele>
        <time>1970-01-01T00:00:00Z</time>
      </trkpt>
      <trkpt lat="40.049090" lon="-5.606250">
        <ele>269.4</ele>
        <time>1970-01-01T00:00:00Z</time>
      </trkpt>
      <trkpt lat="40.048810" lon="-5.606149">
        <ele>266.6</ele>
        <time>1970-01-01T00:00:00Z</time>
      </trkpt>
      <trkpt lat="40.048660" lon="-5.606269">
        <ele>265.3</ele>
        <time>1970-01-01T00:00:00Z</time>
      </trkpt>
      <trkpt lat="40.047940" lon="-5.607049">
        <ele>263.2</ele>
        <time>1970-01-01T00:00:00Z</time>
      </trkpt>
      <trkpt lat="40.047780" lon="-5.607249">
        <ele>265.1</ele>
        <time>1970-01-01T00:00:00Z</time>
      </trkpt>
      <trkpt lat="40.047620" lon="-5.607670">
        <ele>266.5</ele>
        <time>1970-01-01T00:00:00Z</time>
      </trkpt>
      <trkpt lat="40.047380" lon="-5.608780">
        <ele>262.3</ele>
        <time>1970-01-01T00:00:00Z</time>
      </trkpt>
      <trkpt lat="40.047150" lon="-5.609110">
        <ele>258.6</ele>
        <time>1970-01-01T00:00:00Z</time>
      </trkpt>
      <trkpt lat="40.046890" lon="-5.609240">
        <ele>256.3</ele>
        <time>1970-01-01T00:00:00Z</time>
      </trkpt>
      <trkpt lat="40.046210" lon="-5.609429">
        <ele>255.3</ele>
        <time>1970-01-01T00:00:00Z</time>
      </trkpt>
      <trkpt lat="40.045800" lon="-5.609360">
        <ele>256.9</ele>
        <time>1970-01-01T00:00:00Z</time>
      </trkpt>
      <trkpt lat="40.045380" lon="-5.609169">
        <ele>259.1</ele>
        <time>1970-01-01T00:00:00Z</time>
      </trkpt>
      <trkpt lat="40.044860" lon="-5.609289">
        <ele>262.1</ele>
        <time>1970-01-01T00:00:00Z</time>
      </trkpt>
      <trkpt lat="40.044780" lon="-5.609689">
        <ele>265.2</ele>
        <time>1970-01-01T00:00:00Z</time>
      </trkpt>
      <trkpt lat="40.044710" lon="-5.611080">
        <ele>269.3</ele>
        <time>1970-01-01T00:00:00Z</time>
      </trkpt>
      <trkpt lat="40.044520" lon="-5.611529">
        <ele>268.3</ele>
        <time>1970-01-01T00:00:00Z</time>
      </trkpt>
      <trkpt lat="40.044060" lon="-5.612079">
        <ele>264.7</ele>
        <time>1970-01-01T00:00:00Z</time>
      </trkpt>
      <trkpt lat="40.043930" lon="-5.612500">
        <ele>265.9</ele>
        <time>1970-01-01T00:00:00Z</time>
      </trkpt>
      <trkpt lat="40.043670" lon="-5.613100">
        <ele>268.2</ele>
        <time>1970-01-01T00:00:00Z</time>
      </trkpt>
      <trkpt lat="40.042730" lon="-5.614130">
        <ele>266.3</ele>
        <time>1970-01-01T00:00:00Z</time>
      </trkpt>
      <trkpt lat="40.042490" lon="-5.614590">
        <ele>266.3</ele>
        <time>1970-01-01T00:00:00Z</time>
      </trkpt>
      <trkpt lat="40.042500" lon="-5.615430">
        <ele>269.0</ele>
        <time>1970-01-01T00:00:00Z</time>
      </trkpt>
      <trkpt lat="40.042590" lon="-5.616230">
        <ele>271.8</ele>
        <time>1970-01-01T00:00:00Z</time>
      </trkpt>
      <trkpt lat="40.042150" lon="-5.617779">
        <ele>271.3</ele>
        <time>1970-01-01T00:00:00Z</time>
      </trkpt>
      <trkpt lat="40.041720" lon="-5.619159">
        <ele>274.4</ele>
        <time>1970-01-01T00:00:00Z</time>
      </trkpt>
      <trkpt lat="40.041590" lon="-5.619430">
        <ele>274.9</ele>
        <time>1970-01-01T00:00:00Z</time>
      </trkpt>
      <trkpt lat="40.041180" lon="-5.620460">
        <ele>272.9</ele>
        <time>1970-01-01T00:00:00Z</time>
      </trkpt>
      <trkpt lat="40.040740" lon="-5.621300">
        <ele>268.1</ele>
        <time>1970-01-01T00:00:00Z</time>
      </trkpt>
      <trkpt lat="40.040380" lon="-5.621780">
        <ele>266.9</ele>
        <time>1970-01-01T00:00:00Z</time>
      </trkpt>
      <trkpt lat="40.039620" lon="-5.622450">
        <ele>267.5</ele>
        <time>1970-01-01T00:00:00Z</time>
      </trkpt>
      <trkpt lat="40.039420" lon="-5.623020">
        <ele>269.8</ele>
        <time>1970-01-01T00:00:00Z</time>
      </trkpt>
      <trkpt lat="40.039460" lon="-5.623239">
        <ele>270.3</ele>
        <time>1970-01-01T00:00:00Z</time>
      </trkpt>
      <trkpt lat="40.039400" lon="-5.623669">
        <ele>271.6</ele>
        <time>1970-01-01T00:00:00Z</time>
      </trkpt>
      <trkpt lat="40.039260" lon="-5.623579">
        <ele>270.0</ele>
        <time>1970-01-01T00:00:00Z</time>
      </trkpt>
      <trkpt lat="40.037400" lon="-5.623710">
        <ele>258.0</ele>
        <time>1970-01-01T00:00:00Z</time>
      </trkpt>
      <trkpt lat="40.037200" lon="-5.623750">
        <ele>257.5</ele>
        <time>1970-01-01T00:00:00Z</time>
      </trkpt>
      <trkpt lat="40.036860" lon="-5.623710">
        <ele>257.1</ele>
        <time>1970-01-01T00:00:00Z</time>
      </trkpt>
      <trkpt lat="40.036020" lon="-5.623740">
        <ele>254.0</ele>
        <time>1970-01-01T00:00:00Z</time>
      </trkpt>
      <trkpt lat="40.035550" lon="-5.623390">
        <ele>253.2</ele>
        <time>1970-01-01T00:00:00Z</time>
      </trkpt>
      <trkpt lat="40.034200" lon="-5.622070">
        <ele>257.0</ele>
        <time>1970-01-01T00:00:00Z</time>
      </trkpt>
      <trkpt lat="40.032190" lon="-5.622059">
        <ele>256.0</ele>
        <time>1970-01-01T00:00:00Z</time>
      </trkpt>
      <trkpt lat="40.031210" lon="-5.622010">
        <ele>254.6</ele>
        <time>1970-01-01T00:00:00Z</time>
      </trkpt>
      <trkpt lat="40.030990" lon="-5.621960">
        <ele>254.2</ele>
        <time>1970-01-01T00:00:00Z</time>
      </trkpt>
      <trkpt lat="40.030960" lon="-5.619929">
        <ele>250.4</ele>
        <time>1970-01-01T00:00:00Z</time>
      </trkpt>
      <trkpt lat="40.030610" lon="-5.618809">
        <ele>249.0</ele>
        <time>1970-01-01T00:00:00Z</time>
      </trkpt>
      <trkpt lat="40.027500" lon="-5.614720">
        <ele>249.6</ele>
        <time>1970-01-01T00:00:00Z</time>
      </trkpt>
      <trkpt lat="40.027030" lon="-5.614059">
        <ele>249.4</ele>
        <time>1970-01-01T00:00:00Z</time>
      </trkpt>
      <trkpt lat="40.026830" lon="-5.613960">
        <ele>248.0</ele>
        <time>1970-01-01T00:00:00Z</time>
      </trkpt>
      <trkpt lat="40.026500" lon="-5.613990">
        <ele>245.3</ele>
        <time>1970-01-01T00:00:00Z</time>
      </trkpt>
      <trkpt lat="40.022226" lon="-5.615549">
        <ele>244.4</ele>
        <time>1970-01-01T00:00:00Z</time>
      </trkpt>
      <trkpt lat="40.022226" lon="-5.615549">
        <ele>244.4</ele>
        <time>1970-01-01T00:00:00Z</time>
      </trkpt>
      <trkpt lat="40.022300" lon="-5.616670">
        <ele>242.1</ele>
        <time>1970-01-01T00:00:00Z</time>
      </trkpt>
      <trkpt lat="40.022160" lon="-5.616900">
        <ele>243.4</ele>
        <time>1970-01-01T00:00:00Z</time>
      </trkpt>
      <trkpt lat="40.021910" lon="-5.617620">
        <ele>247.6</ele>
        <time>1970-01-01T00:00:00Z</time>
      </trkpt>
      <trkpt lat="40.021670" lon="-5.618100">
        <ele>250.7</ele>
        <time>1970-01-01T00:00:00Z</time>
      </trkpt>
      <trkpt lat="40.021690" lon="-5.618549">
        <ele>251.4</ele>
        <time>1970-01-01T00:00:00Z</time>
      </trkpt>
      <trkpt lat="40.021800" lon="-5.618940">
        <ele>249.9</ele>
        <time>1970-01-01T00:00:00Z</time>
      </trkpt>
      <trkpt lat="40.021590" lon="-5.620120">
        <ele>249.2</ele>
        <time>1970-01-01T00:00:00Z</time>
      </trkpt>
      <trkpt lat="40.021500" lon="-5.620930">
        <ele>249.0</ele>
        <time>1970-01-01T00:00:00Z</time>
      </trkpt>
      <trkpt lat="40.021560" lon="-5.621300">
        <ele>249.0</ele>
        <time>1970-01-01T00:00:00Z</time>
      </trkpt>
      <trkpt lat="40.021390" lon="-5.622590">
        <ele>250.9</ele>
        <time>1970-01-01T00:00:00Z</time>
      </trkpt>
      <trkpt lat="40.021270" lon="-5.623000">
        <ele>251.4</ele>
        <time>1970-01-01T00:00:00Z</time>
      </trkpt>
      <trkpt lat="40.021110" lon="-5.623980">
        <ele>249.3</ele>
        <time>1970-01-01T00:00:00Z</time>
      </trkpt>
      <trkpt lat="40.020730" lon="-5.624860">
        <ele>250.6</ele>
        <time>1970-01-01T00:00:00Z</time>
      </trkpt>
      <trkpt lat="40.020610" lon="-5.625249">
        <ele>250.9</ele>
        <time>1970-01-01T00:00:00Z</time>
      </trkpt>
      <trkpt lat="40.020400" lon="-5.625730">
        <ele>252.6</ele>
        <time>1970-01-01T00:00:00Z</time>
      </trkpt>
      <trkpt lat="40.020170" lon="-5.626100">
        <ele>253.0</ele>
        <time>1970-01-01T00:00:00Z</time>
      </trkpt>
      <trkpt lat="40.019250" lon="-5.626900">
        <ele>255.4</ele>
        <time>1970-01-01T00:00:00Z</time>
      </trkpt>
      <trkpt lat="40.019030" lon="-5.627289">
        <ele>254.4</ele>
        <time>1970-01-01T00:00:00Z</time>
      </trkpt>
      <trkpt lat="40.018800" lon="-5.627820">
        <ele>255.3</ele>
        <time>1970-01-01T00:00:00Z</time>
      </trkpt>
      <trkpt lat="40.017200" lon="-5.630540">
        <ele>259.4</ele>
        <time>1970-01-01T00:00:00Z</time>
      </trkpt>
      <trkpt lat="40.017110" lon="-5.630480">
        <ele>259.9</ele>
        <time>1970-01-01T00:00:00Z</time>
      </trkpt>
      <trkpt lat="40.016950" lon="-5.630130">
        <ele>262.3</ele>
        <time>1970-01-01T00:00:00Z</time>
      </trkpt>
      <trkpt lat="40.016720" lon="-5.629840">
        <ele>263.0</ele>
        <time>1970-01-01T00:00:00Z</time>
      </trkpt>
      <trkpt lat="40.016640" lon="-5.629780">
        <ele>263.0</ele>
        <time>1970-01-01T00:00:00Z</time>
      </trkpt>
      <trkpt lat="40.016340" lon="-5.629360">
        <ele>263.0</ele>
        <time>1970-01-01T00:00:00Z</time>
      </trkpt>
      <trkpt lat="40.015980" lon="-5.629010">
        <ele>263.0</ele>
        <time>1970-01-01T00:00:00Z</time>
      </trkpt>
      <trkpt lat="40.015150" lon="-5.628340">
        <ele>261.1</ele>
        <time>1970-01-01T00:00:00Z</time>
      </trkpt>
      <trkpt lat="40.014970" lon="-5.628299">
        <ele>261.0</ele>
        <time>1970-01-01T00:00:00Z</time>
      </trkpt>
      <trkpt lat="40.014840" lon="-5.628230">
        <ele>261.4</ele>
        <time>1970-01-01T00:00:00Z</time>
      </trkpt>
      <trkpt lat="40.014340" lon="-5.628050">
        <ele>263.0</ele>
        <time>1970-01-01T00:00:00Z</time>
      </trkpt>
      <trkpt lat="40.013970" lon="-5.627850">
        <ele>263.0</ele>
        <time>1970-01-01T00:00:00Z</time>
      </trkpt>
      <trkpt lat="40.012820" lon="-5.627170">
        <ele>265.1</ele>
        <time>1970-01-01T00:00:00Z</time>
      </trkpt>
      <trkpt lat="40.012370" lon="-5.626949">
        <ele>268.9</ele>
        <time>1970-01-01T00:00:00Z</time>
      </trkpt>
      <trkpt lat="40.011840" lon="-5.626620">
        <ele>272.2</ele>
        <time>1970-01-01T00:00:00Z</time>
      </trkpt>
      <trkpt lat="40.011310" lon="-5.626319">
        <ele>273.0</ele>
        <time>1970-01-01T00:00:00Z</time>
      </trkpt>
      <trkpt lat="40.010980" lon="-5.626199">
        <ele>272.0</ele>
        <time>1970-01-01T00:00:00Z</time>
      </trkpt>
      <trkpt lat="40.010870" lon="-5.626220">
        <ele>271.6</ele>
        <time>1970-01-01T00:00:00Z</time>
      </trkpt>
      <trkpt lat="40.010610" lon="-5.625990">
        <ele>270.4</ele>
        <time>1970-01-01T00:00:00Z</time>
      </trkpt>
      <trkpt lat="40.010290" lon="-5.625739">
        <ele>270.0</ele>
        <time>1970-01-01T00:00:00Z</time>
      </trkpt>
      <trkpt lat="40.010150" lon="-5.625679">
        <ele>270.0</ele>
        <time>1970-01-01T00:00:00Z</time>
      </trkpt>
      <trkpt lat="40.009860" lon="-5.625309">
        <ele>270.0</ele>
        <time>1970-01-01T00:00:00Z</time>
      </trkpt>
      <trkpt lat="40.009760" lon="-5.625270">
        <ele>270.0</ele>
        <time>1970-01-01T00:00:00Z</time>
      </trkpt>
      <trkpt lat="40.009210" lon="-5.624860">
        <ele>269.0</ele>
        <time>1970-01-01T00:00:00Z</time>
      </trkpt>
      <trkpt lat="40.008600" lon="-5.624479">
        <ele>268.5</ele>
        <time>1970-01-01T00:00:00Z</time>
      </trkpt>
      <trkpt lat="40.008190" lon="-5.624099">
        <ele>267.8</ele>
        <time>1970-01-01T00:00:00Z</time>
      </trkpt>
      <trkpt lat="40.007780" lon="-5.623789">
        <ele>264.2</ele>
        <time>1970-01-01T00:00:00Z</time>
      </trkpt>
      <trkpt lat="40.007350" lon="-5.623529">
        <ele>263.6</ele>
        <time>1970-01-01T00:00:00Z</time>
      </trkpt>
      <trkpt lat="40.007260" lon="-5.623460">
        <ele>264.1</ele>
        <time>1970-01-01T00:00:00Z</time>
      </trkpt>
      <trkpt lat="40.006899" lon="-5.623304">
        <ele>266.3</ele>
        <time>1970-01-01T00:00:00Z</time>
      </trkpt>
      <trkpt lat="40.006459" lon="-5.622841">
        <ele>268.5</ele>
        <time>1970-01-01T00:00:00Z</time>
      </trkpt>
      <trkpt lat="40.006070" lon="-5.622522">
        <ele>270.8</ele>
        <time>1970-01-01T00:00:00Z</time>
      </trkpt>
      <trkpt lat="40.005701" lon="-5.622110">
        <ele>271.8</ele>
        <time>1970-01-01T00:00:00Z</time>
      </trkpt>
      <trkpt lat="40.005273" lon="-5.621882">
        <ele>271.3</ele>
        <time>1970-01-01T00:00:00Z</time>
      </trkpt>
      <trkpt lat="40.004917" lon="-5.621729">
        <ele>269.6</ele>
        <time>1970-01-01T00:00:00Z</time>
      </trkpt>
      <trkpt lat="40.004378" lon="-5.621661">
        <ele>265.8</ele>
        <time>1970-01-01T00:00:00Z</time>
      </trkpt>
      <trkpt lat="40.004006" lon="-5.621390">
        <ele>265.8</ele>
        <time>1970-01-01T00:00:00Z</time>
      </trkpt>
      <trkpt lat="40.003543" lon="-5.621137">
        <ele>265.8</ele>
        <time>1970-01-01T00:00:00Z</time>
      </trkpt>
      <trkpt lat="40.002890" lon="-5.621160">
        <ele>263.2</ele>
        <time>1970-01-01T00:00:00Z</time>
      </trkpt>
      <trkpt lat="40.002700" lon="-5.620760">
        <ele>260.8</ele>
        <time>1970-01-01T00:00:00Z</time>
      </trkpt>
      <trkpt lat="40.002270" lon="-5.620359">
        <ele>259.3</ele>
        <time>1970-01-01T00:00:00Z</time>
      </trkpt>
      <trkpt lat="40.001960" lon="-5.619750">
        <ele>258.1</ele>
        <time>1970-01-01T00:00:00Z</time>
      </trkpt>
      <trkpt lat="40.001690" lon="-5.618130">
        <ele>258.9</ele>
        <time>1970-01-01T00:00:00Z</time>
      </trkpt>
      <trkpt lat="40.001580" lon="-5.617840">
        <ele>259.7</ele>
        <time>1970-01-01T00:00:00Z</time>
      </trkpt>
      <trkpt lat="40.001520" lon="-5.617590">
        <ele>260.5</ele>
        <time>1970-01-01T00:00:00Z</time>
      </trkpt>
      <trkpt lat="40.001510" lon="-5.617139">
        <ele>262.4</ele>
        <time>1970-01-01T00:00:00Z</time>
      </trkpt>
      <trkpt lat="40.001680" lon="-5.615570">
        <ele>267.0</ele>
        <time>1970-01-01T00:00:00Z</time>
      </trkpt>
      <trkpt lat="40.001490" lon="-5.613829">
        <ele>269.0</ele>
        <time>1970-01-01T00:00:00Z</time>
      </trkpt>
      <trkpt lat="40.001130" lon="-5.611419">
        <ele>272.9</ele>
        <time>1970-01-01T00:00:00Z</time>
      </trkpt>
      <trkpt lat="40.001210" lon="-5.611269">
        <ele>274.1</ele>
        <time>1970-01-01T00:00:00Z</time>
      </trkpt>
      <trkpt lat="40.000320" lon="-5.611350">
        <ele>270.5</ele>
        <time>1970-01-01T00:00:00Z</time>
      </trkpt>
      <trkpt lat="39.999060" lon="-5.611630">
        <ele>265.6</ele>
        <time>1970-01-01T00:00:00Z</time>
      </trkpt>
      <trkpt lat="39.997790" lon="-5.611860">
        <ele>261.1</ele>
        <time>1970-01-01T00:00:00Z</time>
      </trkpt>
      <trkpt lat="39.993520" lon="-5.611600">
        <ele>278.4</ele>
        <time>1970-01-01T00:00:00Z</time>
      </trkpt>
      <trkpt lat="39.992280" lon="-5.611400">
        <ele>283.7</ele>
        <time>1970-01-01T00:00:00Z</time>
      </trkpt>
      <trkpt lat="39.991480" lon="-5.611090">
        <ele>286.7</ele>
        <time>1970-01-01T00:00:00Z</time>
      </trkpt>
      <trkpt lat="39.991300" lon="-5.611039">
        <ele>288.0</ele>
        <time>1970-01-01T00:00:00Z</time>
      </trkpt>
      <trkpt lat="39.991160" lon="-5.610970">
        <ele>289.2</ele>
        <time>1970-01-01T00:00:00Z</time>
      </trkpt>
      <trkpt lat="39.991010" lon="-5.610680">
        <ele>289.4</ele>
        <time>1970-01-01T00:00:00Z</time>
      </trkpt>
      <trkpt lat="39.990360" lon="-5.610209">
        <ele>294.0</ele>
        <time>1970-01-01T00:00:00Z</time>
      </trkpt>
      <trkpt lat="39.989590" lon="-5.610069">
        <ele>294.5</ele>
        <time>1970-01-01T00:00:00Z</time>
      </trkpt>
      <trkpt lat="39.988760" lon="-5.609970">
        <ele>294.8</ele>
        <time>1970-01-01T00:00:00Z</time>
      </trkpt>
      <trkpt lat="39.988400" lon="-5.609889">
        <ele>293.4</ele>
        <time>1970-01-01T00:00:00Z</time>
      </trkpt>
    </trkseg>
    <trkseg>
      <trkpt lat="39.988147" lon="-5.609828">
        <ele>293.1</ele>
        <time>1970-01-01T00:00:00Z</time>
      </trkpt>
      <trkpt lat="39.987190" lon="-5.609680">
        <ele>288.8</ele>
        <time>1970-01-01T00:00:00Z</time>
      </trkpt>
      <trkpt lat="39.987080" lon="-5.609680">
        <ele>288.1</ele>
        <time>1970-01-01T00:00:00Z</time>
      </trkpt>
      <trkpt lat="39.986930" lon="-5.609590">
        <ele>286.4</ele>
        <time>1970-01-01T00:00:00Z</time>
      </trkpt>
      <trkpt lat="39.986780" lon="-5.609579">
        <ele>285.0</ele>
        <time>1970-01-01T00:00:00Z</time>
      </trkpt>
      <trkpt lat="39.986550" lon="-5.609560">
        <ele>282.5</ele>
        <time>1970-01-01T00:00:00Z</time>
      </trkpt>
      <trkpt lat="39.986350" lon="-5.609530">
        <ele>280.1</ele>
        <time>1970-01-01T00:00:00Z</time>
      </trkpt>
      <trkpt lat="39.985830" lon="-5.609549">
        <ele>275.8</ele>
        <time>1970-01-01T00:00:00Z</time>
      </trkpt>
      <trkpt lat="39.985750" lon="-5.609570">
        <ele>275.1</ele>
        <time>1970-01-01T00:00:00Z</time>
      </trkpt>
      <trkpt lat="39.985450" lon="-5.609659">
        <ele>275.4</ele>
        <time>1970-01-01T00:00:00Z</time>
      </trkpt>
      <trkpt lat="39.985270" lon="-5.609710">
        <ele>275.7</ele>
        <time>1970-01-01T00:00:00Z</time>
      </trkpt>
      <trkpt lat="39.985080" lon="-5.609730">
        <ele>276.6</ele>
        <time>1970-01-01T00:00:00Z</time>
      </trkpt>
      <trkpt lat="39.984960" lon="-5.609710">
        <ele>277.1</ele>
        <time>1970-01-01T00:00:00Z</time>
      </trkpt>
      <trkpt lat="39.984940" lon="-5.609700">
        <ele>277.2</ele>
        <time>1970-01-01T00:00:00Z</time>
      </trkpt>
      <trkpt lat="39.984890" lon="-5.609560">
        <ele>277.3</ele>
        <time>1970-01-01T00:00:00Z</time>
      </trkpt>
      <trkpt lat="39.984870" lon="-5.609450">
        <ele>277.0</ele>
        <time>1970-01-01T00:00:00Z</time>
      </trkpt>
      <trkpt lat="39.984780" lon="-5.609289">
        <ele>277.0</ele>
        <time>1970-01-01T00:00:00Z</time>
      </trkpt>
      <trkpt lat="39.984690" lon="-5.609259">
        <ele>277.2</ele>
        <time>1970-01-01T00:00:00Z</time>
      </trkpt>
      <trkpt lat="39.984670" lon="-5.609119">
        <ele>276.7</ele>
        <time>1970-01-01T00:00:00Z</time>
      </trkpt>
      <trkpt lat="39.984700" lon="-5.608259">
        <ele>273.8</ele>
        <time>1970-01-01T00:00:00Z</time>
      </trkpt>
      <trkpt lat="39.984720" lon="-5.608109">
        <ele>273.8</ele>
        <time>1970-01-01T00:00:00Z</time>
      </trkpt>
      <trkpt lat="39.984730" lon="-5.608040">
        <ele>273.7</ele>
        <time>1970-01-01T00:00:00Z</time>
      </trkpt>
      <trkpt lat="39.984610" lon="-5.607730">
        <ele>274.0</ele>
        <time>1970-01-01T00:00:00Z</time>
      </trkpt>
      <trkpt lat="39.984590" lon="-5.607649">
        <ele>273.7</ele>
        <time>1970-01-01T00:00:00Z</time>
      </trkpt>
      <trkpt lat="39.984580" lon="-5.607419">
        <ele>273.2</ele>
        <time>1970-01-01T00:00:00Z</time>
      </trkpt>
      <trkpt lat="39.984640" lon="-5.607040">
        <ele>273.1</ele>
        <time>1970-01-01T00:00:00Z</time>
      </trkpt>
      <trkpt lat="39.984700" lon="-5.606450">
        <ele>270.1</ele>
        <time>1970-01-01T00:00:00Z</time>
      </trkpt>
      <trkpt lat="39.984710" lon="-5.606250">
        <ele>268.6</ele>
        <time>1970-01-01T00:00:00Z</time>
      </trkpt>
      <trkpt lat="39.984770" lon="-5.605570">
        <ele>265.0</ele>
        <time>1970-01-01T00:00:00Z</time>
      </trkpt>
      <trkpt lat="39.984920" lon="-5.604960">
        <ele>265.0</ele>
        <time>1970-01-01T00:00:00Z</time>
      </trkpt>
      <trkpt lat="39.985030" lon="-5.604670">
        <ele>264.9</ele>
        <time>1970-01-01T00:00:00Z</time>
      </trkpt>
      <trkpt lat="39.985180" lon="-5.604130">
        <ele>265.0</ele>
        <time>1970-01-01T00:00:00Z</time>
      </trkpt>
      <trkpt lat="39.985180" lon="-5.603879">
        <ele>265.3</ele>
        <time>1970-01-01T00:00:00Z</time>
      </trkpt>
      <trkpt lat="39.985170" lon="-5.603339">
        <ele>266.5</ele>
        <time>1970-01-01T00:00:00Z</time>
      </trkpt>
      <trkpt lat="39.985210" lon="-5.602069">
        <ele>267.3</ele>
        <time>1970-01-01T00:00:00Z</time>
      </trkpt>
      <trkpt lat="39.985100" lon="-5.601370">
        <ele>266.5</ele>
        <time>1970-01-01T00:00:00Z</time>
      </trkpt>
      <trkpt lat="39.985010" lon="-5.600839">
        <ele>265.1</ele>
        <time>1970-01-01T00:00:00Z</time>
      </trkpt>
      <trkpt lat="39.984950" lon="-5.600489">
        <ele>263.2</ele>
        <time>1970-01-01T00:00:00Z</time>
      </trkpt>
      <trkpt lat="39.984840" lon="-5.599909">
        <ele>260.4</ele>
        <time>1970-01-01T00:00:00Z</time>
      </trkpt>
      <trkpt lat="39.984770" lon="-5.599550">
        <ele>258.8</ele>
        <time>1970-01-01T00:00:00Z</time>
      </trkpt>
      <trkpt lat="39.984640" lon="-5.598670">
        <ele>259.3</ele>
        <time>1970-01-01T00:00:00Z</time>
      </trkpt>
      <trkpt lat="39.984630" lon="-5.598509">
        <ele>259.9</ele>
        <time>1970-01-01T00:00:00Z</time>
      </trkpt>
      <trkpt lat="39.984630" lon="-5.598509">
        <ele>259.9</ele>
        <time>1970-01-01T00:00:00Z</time>
      </trkpt>
      <trkpt lat="39.984770" lon="-5.598419">
        <ele>260.8</ele>
        <time>1970-01-01T00:00:00Z</time>
      </trkpt>
      <trkpt lat="39.985150" lon="-5.598290">
        <ele>263.6</ele>
        <time>1970-01-01T00:00:00Z</time>
      </trkpt>
      <trkpt lat="39.985250" lon="-5.597850">
        <ele>264.9</ele>
        <time>1970-01-01T00:00:00Z</time>
      </trkpt>
      <trkpt lat="39.985280" lon="-5.597480">
        <ele>266.2</ele>
        <time>1970-01-01T00:00:00Z</time>
      </trkpt>
      <trkpt lat="39.985300" lon="-5.597299">
        <ele>267.0</ele>
        <time>1970-01-01T00:00:00Z</time>
      </trkpt>
      <trkpt lat="39.985360" lon="-5.596689">
        <ele>268.0</ele>
        <time>1970-01-01T00:00:00Z</time>
      </trkpt>
      <trkpt lat="39.985380" lon="-5.596409">
        <ele>267.6</ele>
        <time>1970-01-01T00:00:00Z</time>
      </trkpt>
      <trkpt lat="39.985390" lon="-5.596149">
        <ele>267.5</ele>
        <time>1970-01-01T00:00:00Z</time>
      </trkpt>
      <trkpt lat="39.985520" lon="-5.595650">
        <ele>267.9</ele>
        <time>1970-01-01T00:00:00Z</time>
      </trkpt>
      <trkpt lat="39.985560" lon="-5.595440">
        <ele>267.8</ele>
        <time>1970-01-01T00:00:00Z</time>
      </trkpt>
      <trkpt lat="39.985650" lon="-5.594950">
        <ele>269.2</ele>
        <time>1970-01-01T00:00:00Z</time>
      </trkpt>
      <trkpt lat="39.985670" lon="-5.594890">
        <ele>269.5</ele>
        <time>1970-01-01T00:00:00Z</time>
      </trkpt>
      <trkpt lat="39.985780" lon="-5.594799">
        <ele>269.6</ele>
        <time>1970-01-01T00:00:00Z</time>
      </trkpt>
      <trkpt lat="39.985810" lon="-5.594810">
        <ele>269.4</ele>
        <time>1970-01-01T00:00:00Z</time>
      </trkpt>
      <trkpt lat="39.985801" lon="-5.594544">
        <ele>271.5</ele>
        <time>1970-01-01T00:00:00Z</time>
      </trkpt>
      <trkpt lat="39.985915" lon="-5.594285">
        <ele>272.2</ele>
        <time>1970-01-01T00:00:00Z</time>
      </trkpt>
      <trkpt lat="39.985973" lon="-5.594094">
        <ele>273.6</ele>
        <time>1970-01-01T00:00:00Z</time>
      </trkpt>
      <trkpt lat="39.986044" lon="-5.593974">
        <ele>274.0</ele>
        <time>1970-01-01T00:00:00Z</time>
      </trkpt>
      <trkpt lat="39.986087" lon="-5.593852">
        <ele>274.4</ele>
        <time>1970-01-01T00:00:00Z</time>
      </trkpt>
      <trkpt lat="39.986089" lon="-5.593747">
        <ele>274.8</ele>
        <time>1970-01-01T00:00:00Z</time>
      </trkpt>
      <trkpt lat="39.986189" lon="-5.593504">
        <ele>275.4</ele>
        <time>1970-01-01T00:00:00Z</time>
      </trkpt>
      <trkpt lat="39.986404" lon="-5.592985">
        <ele>277.6</ele>
        <time>1970-01-01T00:00:00Z</time>
      </trkpt>
      <trkpt lat="39.986562" lon="-5.592552">
        <ele>278.3</ele>
        <time>1970-01-01T00:00:00Z</time>
      </trkpt>
      <trkpt lat="39.986771" lon="-5.592261">
        <ele>279.0</ele>
        <time>1970-01-01T00:00:00Z</time>
      </trkpt>
      <trkpt lat="39.986953" lon="-5.591969">
        <ele>279.2</ele>
        <time>1970-01-01T00:00:00Z</time>
      </trkpt>
      <trkpt lat="39.987093" lon="-5.591746">
        <ele>279.8</ele>
        <time>1970-01-01T00:00:00Z</time>
      </trkpt>
      <trkpt lat="39.987245" lon="-5.591613">
        <ele>280.2</ele>
        <time>1970-01-01T00:00:00Z</time>
      </trkpt>
      <trkpt lat="39.987420" lon="-5.591429">
        <ele>280.7</ele>
        <time>1970-01-01T00:00:00Z</time>
      </trkpt>
      <trkpt lat="39.987510" lon="-5.591250">
        <ele>280.0</ele>
        <time>1970-01-01T00:00:00Z</time>
      </trkpt>
      <trkpt lat="39.987470" lon="-5.590840">
        <ele>280.4</ele>
        <time>1970-01-01T00:00:00Z</time>
      </trkpt>
      <trkpt lat="39.987360" lon="-5.589830">
        <ele>276.8</ele>
        <time>1970-01-01T00:00:00Z</time>
      </trkpt>
      <trkpt lat="39.987320" lon="-5.588860">
        <ele>272.6</ele>
        <time>1970-01-01T00:00:00Z</time>
      </trkpt>
      <trkpt lat="39.987150" lon="-5.588080">
        <ele>271.9</ele>
        <time>1970-01-01T00:00:00Z</time>
      </trkpt>
      <trkpt lat="39.986890" lon="-5.587109">
        <ele>275.0</ele>
        <time>1970-01-01T00:00:00Z</time>
      </trkpt>
      <trkpt lat="39.986720" lon="-5.586849">
        <ele>276.0</ele>
        <time>1970-01-01T00:00:00Z</time>
      </trkpt>
      <trkpt lat="39.986440" lon="-5.585729">
        <ele>274.1</ele>
        <time>1970-01-01T00:00:00Z</time>
      </trkpt>
      <trkpt lat="39.986420" lon="-5.585460">
        <ele>274.0</ele>
        <time>1970-01-01T00:00:00Z</time>
      </trkpt>
      <trkpt lat="39.986211" lon="-5.585285">
        <ele>273.1</ele>
        <time>1970-01-01T00:00:00Z</time>
      </trkpt>
      <trkpt lat="39.986070" lon="-5.585060">
        <ele>272.2</ele>
        <time>1970-01-01T00:00:00Z</time>
      </trkpt>
      <trkpt lat="39.985900" lon="-5.584869">
        <ele>269.7</ele>
        <time>1970-01-01T00:00:00Z</time>
      </trkpt>
      <trkpt lat="39.985760" lon="-5.584650">
        <ele>267.6</ele>
        <time>1970-01-01T00:00:00Z</time>
      </trkpt>
      <trkpt lat="39.985750" lon="-5.584590">
        <ele>267.3</ele>
        <time>1970-01-01T00:00:00Z</time>
      </trkpt>
      <trkpt lat="39.985630" lon="-5.584349">
        <ele>265.6</ele>
        <time>1970-01-01T00:00:00Z</time>
      </trkpt>
      <trkpt lat="39.985250" lon="-5.583530">
        <ele>262.5</ele>
        <time>1970-01-01T00:00:00Z</time>
      </trkpt>
      <trkpt lat="39.985220" lon="-5.583319">
        <ele>262.0</ele>
        <time>1970-01-01T00:00:00Z</time>
      </trkpt>
      <trkpt lat="39.985200" lon="-5.582709">
        <ele>261.0</ele>
        <time>1970-01-01T00:00:00Z</time>
      </trkpt>
      <trkpt lat="39.985200" lon="-5.582330">
        <ele>260.8</ele>
        <time>1970-01-01T00:00:00Z</time>
      </trkpt>
      <trkpt lat="39.985220" lon="-5.581950">
        <ele>260.8</ele>
        <time>1970-01-01T00:00:00Z</time>
      </trkpt>
      <trkpt lat="39.985110" lon="-5.581610">
        <ele>260.3</ele>
        <time>1970-01-01T00:00:00Z</time>
      </trkpt>
      <trkpt lat="39.985000" lon="-5.581359">
        <ele>260.5</ele>
        <time>1970-01-01T00:00:00Z</time>
      </trkpt>
      <trkpt lat="39.984980" lon="-5.581219">
        <ele>260.1</ele>
        <time>1970-01-01T00:00:00Z</time>
      </trkpt>
      <trkpt lat="39.984900" lon="-5.581019">
        <ele>259.1</ele>
        <time>1970-01-01T00:00:00Z</time>
      </trkpt>
      <trkpt lat="39.984710" lon="-5.580600">
        <ele>257.4</ele>
        <time>1970-01-01T00:00:00Z</time>
      </trkpt>
      <trkpt lat="39.984650" lon="-5.580239">
        <ele>257.2</ele>
        <time>1970-01-01T00:00:00Z</time>
      </trkpt>
      <trkpt lat="39.984570" lon="-5.580009">
        <ele>257.0</ele>
        <time>1970-01-01T00:00:00Z</time>
      </trkpt>
      <trkpt lat="39.984390" lon="-5.579749">
        <ele>257.0</ele>
        <time>1970-01-01T00:00:00Z</time>
      </trkpt>
      <trkpt lat="39.984270" lon="-5.579540">
        <ele>256.7</ele>
        <time>1970-01-01T00:00:00Z</time>
      </trkpt>
      <trkpt lat="39.984210" lon="-5.579379">
        <ele>256.4</ele>
        <time>1970-01-01T00:00:00Z</time>
      </trkpt>
      <trkpt lat="39.984060" lon="-5.578799">
        <ele>255.7</ele>
        <time>1970-01-01T00:00:00Z</time>
      </trkpt>
      <trkpt lat="39.984000" lon="-5.578500">
        <ele>255.7</ele>
        <time>1970-01-01T00:00:00Z</time>
      </trkpt>
      <trkpt lat="39.983880" lon="-5.578169">
        <ele>256.6</ele>
        <time>1970-01-01T00:00:00Z</time>
      </trkpt>
      <trkpt lat="39.983790" lon="-5.577829">
        <ele>258.0</ele>
        <time>1970-01-01T00:00:00Z</time>
      </trkpt>
      <trkpt lat="39.983740" lon="-5.577530">
        <ele>258.4</ele>
        <time>1970-01-01T00:00:00Z</time>
      </trkpt>
      <trkpt lat="39.983640" lon="-5.577279">
        <ele>259.5</ele>
        <time>1970-01-01T00:00:00Z</time>
      </trkpt>
      <trkpt lat="39.983620" lon="-5.577210">
        <ele>259.8</ele>
        <time>1970-01-01T00:00:00Z</time>
      </trkpt>
      <trkpt lat="39.983370" lon="-5.576260">
        <ele>262.9</ele>
        <time>1970-01-01T00:00:00Z</time>
      </trkpt>
      <trkpt lat="39.983250" lon="-5.576000">
        <ele>264.2</ele>
        <time>1970-01-01T00:00:00Z</time>
      </trkpt>
      <trkpt lat="39.983140" lon="-5.575880">
        <ele>263.9</ele>
        <time>1970-01-01T00:00:00Z</time>
      </trkpt>
      <trkpt lat="39.983130" lon="-5.575869">
        <ele>263.9</ele>
        <time>1970-01-01T00:00:00Z</time>
      </trkpt>
      <trkpt lat="39.983160" lon="-5.575869">
        <ele>263.9</ele>
        <time>1970-01-01T00:00:00Z</time>
      </trkpt>
      <trkpt lat="39.983080" lon="-5.575809">
        <ele>263.9</ele>
        <time>1970-01-01T00:00:00Z</time>
      </trkpt>
      <trkpt lat="39.983050" lon="-5.575770">
        <ele>264.0</ele>
        <time>1970-01-01T00:00:00Z</time>
      </trkpt>
      <trkpt lat="39.983100" lon="-5.575800">
        <ele>263.9</ele>
        <time>1970-01-01T00:00:00Z</time>
      </trkpt>
      <trkpt lat="39.983140" lon="-5.575860">
        <ele>263.9</ele>
        <time>1970-01-01T00:00:00Z</time>
      </trkpt>
      <trkpt lat="39.983160" lon="-5.575860">
        <ele>263.9</ele>
        <time>1970-01-01T00:00:00Z</time>
      </trkpt>
      <trkpt lat="39.983150" lon="-5.575839">
        <ele>263.9</ele>
        <time>1970-01-01T00:00:00Z</time>
      </trkpt>
      <trkpt lat="39.983120" lon="-5.575800">
        <ele>264.0</ele>
        <time>1970-01-01T00:00:00Z</time>
      </trkpt>
      <trkpt lat="39.983030" lon="-5.575779">
        <ele>264.0</ele>
        <time>1970-01-01T00:00:00Z</time>
      </trkpt>
      <trkpt lat="39.983020" lon="-5.575770">
        <ele>264.0</ele>
        <time>1970-01-01T00:00:00Z</time>
      </trkpt>
      <trkpt lat="39.983010" lon="-5.575710">
        <ele>264.0</ele>
        <time>1970-01-01T00:00:00Z</time>
      </trkpt>
      <trkpt lat="39.982980" lon="-5.575469">
        <ele>264.1</ele>
        <time>1970-01-01T00:00:00Z</time>
      </trkpt>
      <trkpt lat="39.982850" lon="-5.575239">
        <ele>263.7</ele>
        <time>1970-01-01T00:00:00Z</time>
      </trkpt>
      <trkpt lat="39.982750" lon="-5.575039">
        <ele>263.3</ele>
        <time>1970-01-01T00:00:00Z</time>
      </trkpt>
      <trkpt lat="39.982600" lon="-5.574910">
        <ele>263.3</ele>
        <time>1970-01-01T00:00:00Z</time>
      </trkpt>
      <trkpt lat="39.982460" lon="-5.574799">
        <ele>263.1</ele>
        <time>1970-01-01T00:00:00Z</time>
      </trkpt>
      <trkpt lat="39.982160" lon="-5.574360">
        <ele>262.6</ele>
        <time>1970-01-01T00:00:00Z</time>
      </trkpt>
      <trkpt lat="39.982000" lon="-5.574130">
        <ele>262.9</ele>
        <time>1970-01-01T00:00:00Z</time>
      </trkpt>
      <trkpt lat="39.981750" lon="-5.573560">
        <ele>262.4</ele>
        <time>1970-01-01T00:00:00Z</time>
      </trkpt>
      <trkpt lat="39.981590" lon="-5.573189">
        <ele>262.0</ele>
        <time>1970-01-01T00:00:00Z</time>
      </trkpt>
      <trkpt lat="39.981360" lon="-5.572950">
        <ele>262.0</ele>
        <time>1970-01-01T00:00:00Z</time>
      </trkpt>
      <trkpt lat="39.981050" lon="-5.572370">
        <ele>262.8</ele>
        <time>1970-01-01T00:00:00Z</time>
      </trkpt>
      <trkpt lat="39.981010" lon="-5.572299">
        <ele>263.0</ele>
        <time>1970-01-01T00:00:00Z</time>
      </trkpt>
      <trkpt lat="39.980360" lon="-5.571330">
        <ele>261.3</ele>
        <time>1970-01-01T00:00:00Z</time>
      </trkpt>
      <trkpt lat="39.980270" lon="-5.571119">
        <ele>260.8</ele>
        <time>1970-01-01T00:00:00Z</time>
      </trkpt>
      <trkpt lat="39.980200" lon="-5.570930">
        <ele>261.0</ele>
        <time>1970-01-01T00:00:00Z</time>
      </trkpt>
      <trkpt lat="39.980090" lon="-5.570760">
        <ele>261.0</ele>
        <time>1970-01-01T00:00:00Z</time>
      </trkpt>
      <trkpt lat="39.980030" lon="-5.570530">
        <ele>261.3</ele>
        <time>1970-01-01T00:00:00Z</time>
      </trkpt>
      <trkpt lat="39.979880" lon="-5.570059">
        <ele>262.5</ele>
        <time>1970-01-01T00:00:00Z</time>
      </trkpt>
      <trkpt lat="39.979840" lon="-5.569730">
        <ele>263.5</ele>
        <time>1970-01-01T00:00:00Z</time>
      </trkpt>
      <trkpt lat="39.979810" lon="-5.569199">
        <ele>264.1</ele>
        <time>1970-01-01T00:00:00Z</time>
      </trkpt>
      <trkpt lat="39.979770" lon="-5.568959">
        <ele>264.2</ele>
        <time>1970-01-01T00:00:00Z</time>
      </trkpt>
      <trkpt lat="39.979590" lon="-5.568400">
        <ele>264.0</ele>
        <time>1970-01-01T00:00:00Z</time>
      </trkpt>
      <trkpt lat="39.979230" lon="-5.567710">
        <ele>265.8</ele>
        <time>1970-01-01T00:00:00Z</time>
      </trkpt>
      <trkpt lat="39.979170" lon="-5.567469">
        <ele>265.5</ele>
        <time>1970-01-01T00:00:00Z</time>
      </trkpt>
      <trkpt lat="39.979050" lon="-5.566940">
        <ele>266.0</ele>
        <time>1970-01-01T00:00:00Z</time>
      </trkpt>
      <trkpt lat="39.978910" lon="-5.566220">
        <ele>265.5</ele>
        <time>1970-01-01T00:00:00Z</time>
      </trkpt>
      <trkpt lat="39.978880" lon="-5.566070">
        <ele>265.4</ele>
        <time>1970-01-01T00:00:00Z</time>
      </trkpt>
      <trkpt lat="39.978860" lon="-5.565990">
        <ele>265.1</ele>
        <time>1970-01-01T00:00:00Z</time>
      </trkpt>
      <trkpt lat="39.978720" lon="-5.565070">
        <ele>261.7</ele>
        <time>1970-01-01T00:00:00Z</time>
      </trkpt>
      <trkpt lat="39.978620" lon="-5.564380">
        <ele>262.2</ele>
        <time>1970-01-01T00:00:00Z</time>
      </trkpt>
      <trkpt lat="39.978440" lon="-5.563690">
        <ele>263.2</ele>
        <time>1970-01-01T00:00:00Z</time>
      </trkpt>
      <trkpt lat="39.978390" lon="-5.563540">
        <ele>263.8</ele>
        <time>1970-01-01T00:00:00Z</time>
      </trkpt>
      <trkpt lat="39.978140" lon="-5.562719">
        <ele>265.9</ele>
        <time>1970-01-01T00:00:00Z</time>
      </trkpt>
      <trkpt lat="39.978100" lon="-5.562570">
        <ele>266.0</ele>
        <time>1970-01-01T00:00:00Z</time>
      </trkpt>
      <trkpt lat="39.977990" lon="-5.562050">
        <ele>268.0</ele>
        <time>1970-01-01T00:00:00Z</time>
      </trkpt>
      <trkpt lat="39.977510" lon="-5.561079">
        <ele>268.0</ele>
        <time>1970-01-01T00:00:00Z</time>
      </trkpt>
      <trkpt lat="39.977000" lon="-5.560380">
        <ele>267.3</ele>
        <time>1970-01-01T00:00:00Z</time>
      </trkpt>
      <trkpt lat="39.976840" lon="-5.560010">
        <ele>265.4</ele>
        <time>1970-01-01T00:00:00Z</time>
      </trkpt>
      <trkpt lat="39.976620" lon="-5.559729">
        <ele>265.3</ele>
        <time>1970-01-01T00:00:00Z</time>
      </trkpt>
      <trkpt lat="39.976520" lon="-5.559490">
        <ele>265.0</ele>
        <time>1970-01-01T00:00:00Z</time>
      </trkpt>
      <trkpt lat="39.976460" lon="-5.559359">
        <ele>265.0</ele>
        <time>1970-01-01T00:00:00Z</time>
      </trkpt>
      <trkpt lat="39.976280" lon="-5.559060">
        <ele>264.0</ele>
        <time>1970-01-01T00:00:00Z</time>
      </trkpt>
      <trkpt lat="39.975990" lon="-5.558600">
        <ele>264.0</ele>
        <time>1970-01-01T00:00:00Z</time>
      </trkpt>
      <trkpt lat="39.975830" lon="-5.558250">
        <ele>263.5</ele>
        <time>1970-01-01T00:00:00Z</time>
      </trkpt>
      <trkpt lat="39.975530" lon="-5.557859">
        <ele>263.0</ele>
        <time>1970-01-01T00:00:00Z</time>
      </trkpt>
      <trkpt lat="39.975450" lon="-5.557710">
        <ele>263.0</ele>
        <time>1970-01-01T00:00:00Z</time>
      </trkpt>
      <trkpt lat="39.975210" lon="-5.557349">
        <ele>262.2</ele>
        <time>1970-01-01T00:00:00Z</time>
      </trkpt>
      <trkpt lat="39.974980" lon="-5.556969">
        <ele>262.0</ele>
        <time>1970-01-01T00:00:00Z</time>
      </trkpt>
      <trkpt lat="39.974910" lon="-5.556859">
        <ele>262.0</ele>
        <time>1970-01-01T00:00:00Z</time>
      </trkpt>
      <trkpt lat="39.974570" lon="-5.556090">
        <ele>261.7</ele>
        <time>1970-01-01T00:00:00Z</time>
      </trkpt>
      <trkpt lat="39.974270" lon="-5.555739">
        <ele>261.0</ele>
        <time>1970-01-01T00:00:00Z</time>
      </trkpt>
      <trkpt lat="39.974030" lon="-5.555329">
        <ele>262.6</ele>
        <time>1970-01-01T00:00:00Z</time>
      </trkpt>
      <trkpt lat="39.973770" lon="-5.554970">
        <ele>263.6</ele>
        <time>1970-01-01T00:00:00Z</time>
      </trkpt>
      <trkpt lat="39.973730" lon="-5.554789">
        <ele>264.4</ele>
        <time>1970-01-01T00:00:00Z</time>
      </trkpt>
      <trkpt lat="39.973520" lon="-5.554400">
        <ele>266.6</ele>
        <time>1970-01-01T00:00:00Z</time>
      </trkpt>
      <trkpt lat="39.973410" lon="-5.554149">
        <ele>267.4</ele>
        <time>1970-01-01T00:00:00Z</time>
      </trkpt>
      <trkpt lat="39.973320" lon="-5.553900">
        <ele>267.8</ele>
        <time>1970-01-01T00:00:00Z</time>
      </trkpt>
      <trkpt lat="39.973280" lon="-5.553779">
        <ele>268.0</ele>
        <time>1970-01-01T00:00:00Z</time>
      </trkpt>
      <trkpt lat="39.973250" lon="-5.553609">
        <ele>268.0</ele>
        <time>1970-01-01T00:00:00Z</time>
      </trkpt>
      <trkpt lat="39.972950" lon="-5.552960">
        <ele>268.1</ele>
        <time>1970-01-01T00:00:00Z</time>
      </trkpt>
      <trkpt lat="39.972810" lon="-5.552750">
        <ele>267.9</ele>
        <time>1970-01-01T00:00:00Z</time>
      </trkpt>
      <trkpt lat="39.972750" lon="-5.552530">
        <ele>267.6</ele>
        <time>1970-01-01T00:00:00Z</time>
      </trkpt>
      <trkpt lat="39.972640" lon="-5.552160">
        <ele>266.6</ele>
        <time>1970-01-01T00:00:00Z</time>
      </trkpt>
      <trkpt lat="39.972420" lon="-5.551509">
        <ele>265.1</ele>
        <time>1970-01-01T00:00:00Z</time>
      </trkpt>
      <trkpt lat="39.972250" lon="-5.551159">
        <ele>265.2</ele>
        <time>1970-01-01T00:00:00Z</time>
      </trkpt>
      <trkpt lat="39.972070" lon="-5.550669">
        <ele>265.0</ele>
        <time>1970-01-01T00:00:00Z</time>
      </trkpt>
      <trkpt lat="39.971960" lon="-5.550450">
        <ele>264.8</ele>
        <time>1970-01-01T00:00:00Z</time>
      </trkpt>
      <trkpt lat="39.971760" lon="-5.550039">
        <ele>264.0</ele>
        <time>1970-01-01T00:00:00Z</time>
      </trkpt>
      <trkpt lat="39.971580" lon="-5.549839">
        <ele>264.0</ele>
        <time>1970-01-01T00:00:00Z</time>
      </trkpt>
      <trkpt lat="39.971410" lon="-5.549500">
        <ele>263.0</ele>
        <time>1970-01-01T00:00:00Z</time>
      </trkpt>
      <trkpt lat="39.971260" lon="-5.549200">
        <ele>263.3</ele>
        <time>1970-01-01T00:00:00Z</time>
      </trkpt>
      <trkpt lat="39.971230" lon="-5.549130">
        <ele>263.4</ele>
        <time>1970-01-01T00:00:00Z</time>
      </trkpt>
      <trkpt lat="39.970930" lon="-5.548109">
        <ele>265.0</ele>
        <time>1970-01-01T00:00:00Z</time>
      </trkpt>
      <trkpt lat="39.970640" lon="-5.547599">
        <ele>265.4</ele>
        <time>1970-01-01T00:00:00Z</time>
      </trkpt>
      <trkpt lat="39.970530" lon="-5.547359">
        <ele>266.0</ele>
        <time>1970-01-01T00:00:00Z</time>
      </trkpt>
      <trkpt lat="39.970300" lon="-5.546899">
        <ele>267.0</ele>
        <time>1970-01-01T00:00:00Z</time>
      </trkpt>
      <trkpt lat="39.970270" lon="-5.546750">
        <ele>267.5</ele>
        <time>1970-01-01T00:00:00Z</time>
      </trkpt>
      <trkpt lat="39.970090" lon="-5.546230">
        <ele>269.4</ele>
        <time>1970-01-01T00:00:00Z</time>
      </trkpt>
      <trkpt lat="39.969780" lon="-5.545620">
        <ele>271.7</ele>
        <time>1970-01-01T00:00:00Z</time>
      </trkpt>
      <trkpt lat="39.969640" lon="-5.545430">
        <ele>271.0</ele>
        <time>1970-01-01T00:00:00Z</time>
      </trkpt>
      <trkpt lat="39.969510" lon="-5.545190">
        <ele>271.0</ele>
        <time>1970-01-01T00:00:00Z</time>
      </trkpt>
      <trkpt lat="39.969360" lon="-5.544840">
        <ele>271.0</ele>
        <time>1970-01-01T00:00:00Z</time>
      </trkpt>
      <trkpt lat="39.969160" lon="-5.544519">
        <ele>270.4</ele>
        <time>1970-01-01T00:00:00Z</time>
      </trkpt>
      <trkpt lat="39.969120" lon="-5.544450">
        <ele>270.2</ele>
        <time>1970-01-01T00:00:00Z</time>
      </trkpt>
      <trkpt lat="39.968830" lon="-5.543829">
        <ele>270.9</ele>
        <time>1970-01-01T00:00:00Z</time>
      </trkpt>
      <trkpt lat="39.968760" lon="-5.543709">
        <ele>270.8</ele>
        <time>1970-01-01T00:00:00Z</time>
      </trkpt>
      <trkpt lat="39.968570" lon="-5.543270">
        <ele>271.0</ele>
        <time>1970-01-01T00:00:00Z</time>
      </trkpt>
      <trkpt lat="39.968480" lon="-5.543019">
        <ele>271.0</ele>
        <time>1970-01-01T00:00:00Z</time>
      </trkpt>
      <trkpt lat="39.968220" lon="-5.542600">
        <ele>270.7</ele>
        <time>1970-01-01T00:00:00Z</time>
      </trkpt>
      <trkpt lat="39.968180" lon="-5.542469">
        <ele>270.2</ele>
        <time>1970-01-01T00:00:00Z</time>
      </trkpt>
      <trkpt lat="39.968150" lon="-5.542400">
        <ele>270.0</ele>
        <time>1970-01-01T00:00:00Z</time>
      </trkpt>
      <trkpt lat="39.967940" lon="-5.541940">
        <ele>268.9</ele>
        <time>1970-01-01T00:00:00Z</time>
      </trkpt>
      <trkpt lat="39.967820" lon="-5.541230">
        <ele>267.7</ele>
        <time>1970-01-01T00:00:00Z</time>
      </trkpt>
      <trkpt lat="39.967750" lon="-5.541050">
        <ele>268.0</ele>
        <time>1970-01-01T00:00:00Z</time>
      </trkpt>
      <trkpt lat="39.967700" lon="-5.540889">
        <ele>268.0</ele>
        <time>1970-01-01T00:00:00Z</time>
      </trkpt>
      <trkpt lat="39.967590" lon="-5.540749">
        <ele>268.3</ele>
        <time>1970-01-01T00:00:00Z</time>
      </trkpt>
      <trkpt lat="39.967390" lon="-5.540530">
        <ele>269.0</ele>
        <time>1970-01-01T00:00:00Z</time>
      </trkpt>
      <trkpt lat="39.967220" lon="-5.540020">
        <ele>269.0</ele>
        <time>1970-01-01T00:00:00Z</time>
      </trkpt>
      <trkpt lat="39.966990" lon="-5.539769">
        <ele>269.0</ele>
        <time>1970-01-01T00:00:00Z</time>
      </trkpt>
      <trkpt lat="39.966730" lon="-5.539279">
        <ele>269.0</ele>
        <time>1970-01-01T00:00:00Z</time>
      </trkpt>
      <trkpt lat="39.966640" lon="-5.539160">
        <ele>269.1</ele>
        <time>1970-01-01T00:00:00Z</time>
      </trkpt>
      <trkpt lat="39.966460" lon="-5.538969">
        <ele>268.7</ele>
        <time>1970-01-01T00:00:00Z</time>
      </trkpt>
      <trkpt lat="39.966340" lon="-5.538720">
        <ele>268.0</ele>
        <time>1970-01-01T00:00:00Z</time>
      </trkpt>
      <trkpt lat="39.965920" lon="-5.538079">
        <ele>266.7</ele>
        <time>1970-01-01T00:00:00Z</time>
      </trkpt>
      <trkpt lat="39.965860" lon="-5.538010">
        <ele>266.9</ele>
        <time>1970-01-01T00:00:00Z</time>
      </trkpt>
      <trkpt lat="39.965330" lon="-5.537439">
        <ele>269.2</ele>
        <time>1970-01-01T00:00:00Z</time>
      </trkpt>
      <trkpt lat="39.965220" lon="-5.537110">
        <ele>268.7</ele>
        <time>1970-01-01T00:00:00Z</time>
      </trkpt>
      <trkpt lat="39.964920" lon="-5.536439">
        <ele>268.0</ele>
        <time>1970-01-01T00:00:00Z</time>
      </trkpt>
      <trkpt lat="39.964810" lon="-5.536220">
        <ele>267.6</ele>
        <time>1970-01-01T00:00:00Z</time>
      </trkpt>
      <trkpt lat="39.964610" lon="-5.535850">
        <ele>266.4</ele>
        <time>1970-01-01T00:00:00Z</time>
      </trkpt>
      <trkpt lat="39.964480" lon="-5.535459">
        <ele>266.0</ele>
        <time>1970-01-01T00:00:00Z</time>
      </trkpt>
      <trkpt lat="39.964360" lon="-5.535210">
        <ele>265.8</ele>
        <time>1970-01-01T00:00:00Z</time>
      </trkpt>
      <trkpt lat="39.964320" lon="-5.535160">
        <ele>265.9</ele>
        <time>1970-01-01T00:00:00Z</time>
      </trkpt>
      <trkpt lat="39.963770" lon="-5.534430">
        <ele>265.0</ele>
        <time>1970-01-01T00:00:00Z</time>
      </trkpt>
      <trkpt lat="39.963520" lon="-5.533639">
        <ele>265.0</ele>
        <time>1970-01-01T00:00:00Z</time>
      </trkpt>
      <trkpt lat="39.963410" lon="-5.532450">
        <ele>264.8</ele>
        <time>1970-01-01T00:00:00Z</time>
      </trkpt>
      <trkpt lat="39.963360" lon="-5.532230">
        <ele>263.7</ele>
        <time>1970-01-01T00:00:00Z</time>
      </trkpt>
      <trkpt lat="39.963340" lon="-5.531420">
        <ele>264.8</ele>
        <time>1970-01-01T00:00:00Z</time>
      </trkpt>
      <trkpt lat="39.963290" lon="-5.530950">
        <ele>265.0</ele>
        <time>1970-01-01T00:00:00Z</time>
      </trkpt>
      <trkpt lat="39.963240" lon="-5.530679">
        <ele>265.2</ele>
        <time>1970-01-01T00:00:00Z</time>
      </trkpt>
      <trkpt lat="39.963240" lon="-5.530460">
        <ele>265.2</ele>
        <time>1970-01-01T00:00:00Z</time>
      </trkpt>
      <trkpt lat="39.963148" lon="-5.529470">
        <ele>265.4</ele>
        <time>1970-01-01T00:00:00Z</time>
      </trkpt>
      <trkpt lat="39.963167" lon="-5.529840">
        <ele>265.0</ele>
        <time>1970-01-01T00:00:00Z</time>
      </trkpt>
      <trkpt lat="39.963240" lon="-5.530200">
        <ele>265.2</ele>
        <time>1970-01-01T00:00:00Z</time>
      </trkpt>
      <trkpt lat="39.963240" lon="-5.530200">
        <ele>265.2</ele>
        <time>1970-01-01T00:00:00Z</time>
      </trkpt>
    </trkseg>
    <trkseg>
      <trkpt lat="39.963080" lon="-5.529410">
        <ele>265.1</ele>
        <time>1970-01-01T00:00:00Z</time>
      </trkpt>
      <trkpt lat="39.963120" lon="-5.529430">
        <ele>265.3</ele>
        <time>1970-01-01T00:00:00Z</time>
      </trkpt>
      <trkpt lat="39.962650" lon="-5.530189">
        <ele>266.1</ele>
        <time>1970-01-01T00:00:00Z</time>
      </trkpt>
      <trkpt lat="39.961790" lon="-5.531779">
        <ele>271.5</ele>
        <time>1970-01-01T00:00:00Z</time>
      </trkpt>
      <trkpt lat="39.960870" lon="-5.533529">
        <ele>266.8</ele>
        <time>1970-01-01T00:00:00Z</time>
      </trkpt>
      <trkpt lat="39.960430" lon="-5.534300">
        <ele>266.3</ele>
        <time>1970-01-01T00:00:00Z</time>
      </trkpt>
      <trkpt lat="39.960030" lon="-5.535659">
        <ele>266.3</ele>
        <time>1970-01-01T00:00:00Z</time>
      </trkpt>
      <trkpt lat="39.959950" lon="-5.536020">
        <ele>266.0</ele>
        <time>1970-01-01T00:00:00Z</time>
      </trkpt>
      <trkpt lat="39.959450" lon="-5.536630">
        <ele>266.0</ele>
        <time>1970-01-01T00:00:00Z</time>
      </trkpt>
      <trkpt lat="39.957840" lon="-5.538909">
        <ele>264.5</ele>
        <time>1970-01-01T00:00:00Z</time>
      </trkpt>
      <trkpt lat="39.957130" lon="-5.540029">
        <ele>264.6</ele>
        <time>1970-01-01T00:00:00Z</time>
      </trkpt>
      <trkpt lat="39.955710" lon="-5.542440">
        <ele>257.0</ele>
        <time>1970-01-01T00:00:00Z</time>
      </trkpt>
      <trkpt lat="39.955010" lon="-5.544050">
        <ele>258.2</ele>
        <time>1970-01-01T00:00:00Z</time>
      </trkpt>
      <trkpt lat="39.954350" lon="-5.545200">
        <ele>253.8</ele>
        <time>1970-01-01T00:00:00Z</time>
      </trkpt>
      <trkpt lat="39.954240" lon="-5.545460">
        <ele>253.1</ele>
        <time>1970-01-01T00:00:00Z</time>
      </trkpt>
      <trkpt lat="39.952210" lon="-5.548580">
        <ele>258.0</ele>
        <time>1970-01-01T00:00:00Z</time>
      </trkpt>
      <trkpt lat="39.951800" lon="-5.549179">
        <ele>257.6</ele>
        <time>1970-01-01T00:00:00Z</time>
      </trkpt>
      <trkpt lat="39.951710" lon="-5.549259">
        <ele>258.0</ele>
        <time>1970-01-01T00:00:00Z</time>
      </trkpt>
      <trkpt lat="39.951000" lon="-5.550480">
        <ele>261.0</ele>
        <time>1970-01-01T00:00:00Z</time>
      </trkpt>
      <trkpt lat="39.950060" lon="-5.552309">
        <ele>262.2</ele>
        <time>1970-01-01T00:00:00Z</time>
      </trkpt>
      <trkpt lat="39.949800" lon="-5.552999">
        <ele>260.1</ele>
        <time>1970-01-01T00:00:00Z</time>
      </trkpt>
      <trkpt lat="39.949640" lon="-5.553010">
        <ele>259.3</ele>
        <time>1970-01-01T00:00:00Z</time>
      </trkpt>
      <trkpt lat="39.949390" lon="-5.553149">
        <ele>258.0</ele>
        <time>1970-01-01T00:00:00Z</time>
      </trkpt>
      <trkpt lat="39.949240" lon="-5.553259">
        <ele>257.8</ele>
        <time>1970-01-01T00:00:00Z</time>
      </trkpt>
      <trkpt lat="39.948220" lon="-5.553760">
        <ele>252.9</ele>
        <time>1970-01-01T00:00:00Z</time>
      </trkpt>
      <trkpt lat="39.947960" lon="-5.553730">
        <ele>251.6</ele>
        <time>1970-01-01T00:00:00Z</time>
      </trkpt>
      <trkpt lat="39.947150" lon="-5.553310">
        <ele>251.7</ele>
        <time>1970-01-01T00:00:00Z</time>
      </trkpt>
      <trkpt lat="39.946390" lon="-5.553040">
        <ele>251.8</ele>
        <time>1970-01-01T00:00:00Z</time>
      </trkpt>
      <trkpt lat="39.944680" lon="-5.552180">
        <ele>254.4</ele>
        <time>1970-01-01T00:00:00Z</time>
      </trkpt>
      <trkpt lat="39.944230" lon="-5.551999">
        <ele>255.3</ele>
        <time>1970-01-01T00:00:00Z</time>
      </trkpt>
      <trkpt lat="39.941600" lon="-5.552360">
        <ele>261.0</ele>
        <time>1970-01-01T00:00:00Z</time>
      </trkpt>
      <trkpt lat="39.939760" lon="-5.552079">
        <ele>260.3</ele>
        <time>1970-01-01T00:00:00Z</time>
      </trkpt>
      <trkpt lat="39.938330" lon="-5.552169">
        <ele>260.2</ele>
        <time>1970-01-01T00:00:00Z</time>
      </trkpt>
      <trkpt lat="39.938290" lon="-5.552169">
        <ele>260.0</ele>
        <time>1970-01-01T00:00:00Z</time>
      </trkpt>
      <trkpt lat="39.938210" lon="-5.552229">
        <ele>259.9</ele>
        <time>1970-01-01T00:00:00Z</time>
      </trkpt>
      <trkpt lat="39.938000" lon="-5.552459">
        <ele>259.0</ele>
        <time>1970-01-01T00:00:00Z</time>
      </trkpt>
      <trkpt lat="39.937870" lon="-5.552700">
        <ele>259.0</ele>
        <time>1970-01-01T00:00:00Z</time>
      </trkpt>
      <trkpt lat="39.937760" lon="-5.552820">
        <ele>258.8</ele>
        <time>1970-01-01T00:00:00Z</time>
      </trkpt>
      <trkpt lat="39.937120" lon="-5.552790">
        <ele>260.3</ele>
        <time>1970-01-01T00:00:00Z</time>
      </trkpt>
      <trkpt lat="39.936460" lon="-5.552689">
        <ele>266.8</ele>
        <time>1970-01-01T00:00:00Z</time>
      </trkpt>
      <trkpt lat="39.935130" lon="-5.552290">
        <ele>269.4</ele>
        <time>1970-01-01T00:00:00Z</time>
      </trkpt>
      <trkpt lat="39.932790" lon="-5.551709">
        <ele>261.6</ele>
        <time>1970-01-01T00:00:00Z</time>
      </trkpt>
      <trkpt lat="39.931960" lon="-5.551329">
        <ele>262.9</ele>
        <time>1970-01-01T00:00:00Z</time>
      </trkpt>
      <trkpt lat="39.931310" lon="-5.551010">
        <ele>267.0</ele>
        <time>1970-01-01T00:00:00Z</time>
      </trkpt>
      <trkpt lat="39.930300" lon="-5.550340">
        <ele>261.9</ele>
        <time>1970-01-01T00:00:00Z</time>
      </trkpt>
      <trkpt lat="39.930000" lon="-5.550110">
        <ele>260.9</ele>
        <time>1970-01-01T00:00:00Z</time>
      </trkpt>
      <trkpt lat="39.929780" lon="-5.549979">
        <ele>260.7</ele>
        <time>1970-01-01T00:00:00Z</time>
      </trkpt>
      <trkpt lat="39.929570" lon="-5.549890">
        <ele>260.0</ele>
        <time>1970-01-01T00:00:00Z</time>
      </trkpt>
      <trkpt lat="39.928530" lon="-5.549680">
        <ele>260.8</ele>
        <time>1970-01-01T00:00:00Z</time>
      </trkpt>
      <trkpt lat="39.926010" lon="-5.549040">
        <ele>263.0</ele>
        <time>1970-01-01T00:00:00Z</time>
      </trkpt>
      <trkpt lat="39.925280" lon="-5.548910">
        <ele>266.2</ele>
        <time>1970-01-01T00:00:00Z</time>
      </trkpt>
      <trkpt lat="39.924660" lon="-5.548749">
        <ele>268.0</ele>
        <time>1970-01-01T00:00:00Z</time>
      </trkpt>
      <trkpt lat="39.924810" lon="-5.547309">
        <ele>268.5</ele>
        <time>1970-01-01T00:00:00Z</time>
      </trkpt>
      <trkpt lat="39.924740" lon="-5.547189">
        <ele>268.2</ele>
        <time>1970-01-01T00:00:00Z</time>
      </trkpt>
      <trkpt lat="39.924660" lon="-5.547180">
        <ele>267.7</ele>
        <time>1970-01-01T00:00:00Z</time>
      </trkpt>
      <trkpt lat="39.924010" lon="-5.546929">
        <ele>266.7</ele>
        <time>1970-01-01T00:00:00Z</time>
      </trkpt>
      <trkpt lat="39.923350" lon="-5.546710">
        <ele>265.0</ele>
        <time>1970-01-01T00:00:00Z</time>
      </trkpt>
      <trkpt lat="39.921170" lon="-5.546060">
        <ele>266.9</ele>
        <time>1970-01-01T00:00:00Z</time>
      </trkpt>
      <trkpt lat="39.919600" lon="-5.545699">
        <ele>268.7</ele>
        <time>1970-01-01T00:00:00Z</time>
      </trkpt>
      <trkpt lat="39.919620" lon="-5.545719">
        <ele>268.7</ele>
        <time>1970-01-01T00:00:00Z</time>
      </trkpt>
      <trkpt lat="39.917040" lon="-5.545190">
        <ele>271.8</ele>
        <time>1970-01-01T00:00:00Z</time>
      </trkpt>
      <trkpt lat="39.915930" lon="-5.544970">
        <ele>271.4</ele>
        <time>1970-01-01T00:00:00Z</time>
      </trkpt>
      <trkpt lat="39.915410" lon="-5.544919">
        <ele>270.4</ele>
        <time>1970-01-01T00:00:00Z</time>
      </trkpt>
      <trkpt lat="39.913530" lon="-5.544519">
        <ele>268.0</ele>
        <time>1970-01-01T00:00:00Z</time>
      </trkpt>
      <trkpt lat="39.910690" lon="-5.543670">
        <ele>265.2</ele>
        <time>1970-01-01T00:00:00Z</time>
      </trkpt>
      <trkpt lat="39.909440" lon="-5.543369">
        <ele>270.6</ele>
        <time>1970-01-01T00:00:00Z</time>
      </trkpt>
      <trkpt lat="39.909130" lon="-5.543060">
        <ele>271.0</ele>
        <time>1970-01-01T00:00:00Z</time>
      </trkpt>
      <trkpt lat="39.909000" lon="-5.543010">
        <ele>271.0</ele>
        <time>1970-01-01T00:00:00Z</time>
      </trkpt>
      <trkpt lat="39.908680" lon="-5.542989">
        <ele>270.6</ele>
        <time>1970-01-01T00:00:00Z</time>
      </trkpt>
      <trkpt lat="39.907040" lon="-5.542989">
        <ele>275.0</ele>
        <time>1970-01-01T00:00:00Z</time>
      </trkpt>
      <trkpt lat="39.906010" lon="-5.542909">
        <ele>274.1</ele>
        <time>1970-01-01T00:00:00Z</time>
      </trkpt>
      <trkpt lat="39.905090" lon="-5.542759">
        <ele>272.8</ele>
        <time>1970-01-01T00:00:00Z</time>
      </trkpt>
      <trkpt lat="39.904920" lon="-5.542690">
        <ele>273.3</ele>
        <time>1970-01-01T00:00:00Z</time>
      </trkpt>
      <trkpt lat="39.904490" lon="-5.542340">
        <ele>272.6</ele>
        <time>1970-01-01T00:00:00Z</time>
      </trkpt>
      <trkpt lat="39.904190" lon="-5.542299">
        <ele>272.2</ele>
        <time>1970-01-01T00:00:00Z</time>
      </trkpt>
      <trkpt lat="39.903710" lon="-5.542469">
        <ele>271.8</ele>
        <time>1970-01-01T00:00:00Z</time>
      </trkpt>
      <trkpt lat="39.902700" lon="-5.542389">
        <ele>274.3</ele>
        <time>1970-01-01T00:00:00Z</time>
      </trkpt>
      <trkpt lat="39.900420" lon="-5.542389">
        <ele>271.2</ele>
        <time>1970-01-01T00:00:00Z</time>
      </trkpt>
      <trkpt lat="39.899900" lon="-5.542200">
        <ele>272.9</ele>
        <time>1970-01-01T00:00:00Z</time>
      </trkpt>
      <trkpt lat="39.899360" lon="-5.541869">
        <ele>276.9</ele>
        <time>1970-01-01T00:00:00Z</time>
      </trkpt>
      <trkpt lat="39.898200" lon="-5.541720">
        <ele>275.3</ele>
        <time>1970-01-01T00:00:00Z</time>
      </trkpt>
      <trkpt lat="39.896478" lon="-5.541288">
        <ele>282.0</ele>
        <time>1970-01-01T00:00:00Z</time>
      </trkpt>
      <trkpt lat="39.896890" lon="-5.540080">
        <ele>284.3</ele>
        <time>1970-01-01T00:00:00Z</time>
      </trkpt>
      <trkpt lat="39.897100" lon="-5.538329">
        <ele>285.0</ele>
        <time>1970-01-01T00:00:00Z</time>
      </trkpt>
      <trkpt lat="39.897090" lon="-5.537789">
        <ele>285.9</ele>
        <time>1970-01-01T00:00:00Z</time>
      </trkpt>
      <trkpt lat="39.896840" lon="-5.537340">
        <ele>283.0</ele>
        <time>1970-01-01T00:00:00Z</time>
      </trkpt>
      <trkpt lat="39.896810" lon="-5.537239">
        <ele>282.9</ele>
        <time>1970-01-01T00:00:00Z</time>
      </trkpt>
      <trkpt lat="39.896870" lon="-5.537080">
        <ele>282.9</ele>
        <time>1970-01-01T00:00:00Z</time>
      </trkpt>
      <trkpt lat="39.896810" lon="-5.536779">
        <ele>281.6</ele>
        <time>1970-01-01T00:00:00Z</time>
      </trkpt>
      <trkpt lat="39.896220" lon="-5.535850">
        <ele>280.7</ele>
        <time>1970-01-01T00:00:00Z</time>
      </trkpt>
      <trkpt lat="39.894430" lon="-5.533359">
        <ele>286.3</ele>
        <time>1970-01-01T00:00:00Z</time>
      </trkpt>
      <trkpt lat="39.893990" lon="-5.532880">
        <ele>285.5</ele>
        <time>1970-01-01T00:00:00Z</time>
      </trkpt>
      <trkpt lat="39.893830" lon="-5.532600">
        <ele>283.5</ele>
        <time>1970-01-01T00:00:00Z</time>
      </trkpt>
      <trkpt lat="39.892710" lon="-5.531029">
        <ele>286.2</ele>
        <time>1970-01-01T00:00:00Z</time>
      </trkpt>
      <trkpt lat="39.891930" lon="-5.529870">
        <ele>292.3</ele>
        <time>1970-01-01T00:00:00Z</time>
      </trkpt>
      <trkpt lat="39.891890" lon="-5.529750">
        <ele>292.8</ele>
        <time>1970-01-01T00:00:00Z</time>
      </trkpt>
      <trkpt lat="39.891630" lon="-5.529260">
        <ele>293.0</ele>
        <time>1970-01-01T00:00:00Z</time>
      </trkpt>
      <trkpt lat="39.891320" lon="-5.528299">
        <ele>295.0</ele>
        <time>1970-01-01T00:00:00Z</time>
      </trkpt>
      <trkpt lat="39.891376" lon="-5.528126">
        <ele>295.5</ele>
        <time>1970-01-01T00:00:00Z</time>
      </trkpt>
      <trkpt lat="39.891333" lon="-5.527816">
        <ele>296.9</ele>
        <time>1970-01-01T00:00:00Z</time>
      </trkpt>
      <trkpt lat="39.891326" lon="-5.527493">
        <ele>297.0</ele>
        <time>1970-01-01T00:00:00Z</time>
      </trkpt>
      <trkpt lat="39.891322" lon="-5.527266">
        <ele>296.5</ele>
        <time>1970-01-01T00:00:00Z</time>
      </trkpt>
      <trkpt lat="39.891319" lon="-5.527014">
        <ele>295.9</ele>
        <time>1970-01-01T00:00:00Z</time>
      </trkpt>
      <trkpt lat="39.891311" lon="-5.526773">
        <ele>295.3</ele>
        <time>1970-01-01T00:00:00Z</time>
      </trkpt>
      <trkpt lat="39.891303" lon="-5.526486">
        <ele>295.0</ele>
        <time>1970-01-01T00:00:00Z</time>
      </trkpt>
      <trkpt lat="39.891310" lon="-5.526165">
        <ele>294.7</ele>
        <time>1970-01-01T00:00:00Z</time>
      </trkpt>
      <trkpt lat="39.891312" lon="-5.525873">
        <ele>293.9</ele>
        <time>1970-01-01T00:00:00Z</time>
      </trkpt>
      <trkpt lat="39.891309" lon="-5.525611">
        <ele>294.0</ele>
        <time>1970-01-01T00:00:00Z</time>
      </trkpt>
      <trkpt lat="39.891303" lon="-5.525276">
        <ele>294.0</ele>
        <time>1970-01-01T00:00:00Z</time>
      </trkpt>
      <trkpt lat="39.891295" lon="-5.525008">
        <ele>293.7</ele>
        <time>1970-01-01T00:00:00Z</time>
      </trkpt>
      <trkpt lat="39.891282" lon="-5.524755">
        <ele>293.0</ele>
        <time>1970-01-01T00:00:00Z</time>
      </trkpt>
      <trkpt lat="39.891311" lon="-5.524499">
        <ele>293.0</ele>
        <time>1970-01-01T00:00:00Z</time>
      </trkpt>
      <trkpt lat="39.891326" lon="-5.524225">
        <ele>293.0</ele>
        <time>1970-01-01T00:00:00Z</time>
      </trkpt>
      <trkpt lat="39.891323" lon="-5.523939">
        <ele>292.2</ele>
        <time>1970-01-01T00:00:00Z</time>
      </trkpt>
      <trkpt lat="39.891328" lon="-5.523687">
        <ele>292.1</ele>
        <time>1970-01-01T00:00:00Z</time>
      </trkpt>
      <trkpt lat="39.891329" lon="-5.523424">
        <ele>292.1</ele>
        <time>1970-01-01T00:00:00Z</time>
      </trkpt>
      <trkpt lat="39.891314" lon="-5.523113">
        <ele>291.6</ele>
        <time>1970-01-01T00:00:00Z</time>
      </trkpt>
      <trkpt lat="39.891325" lon="-5.522798">
        <ele>291.1</ele>
        <time>1970-01-01T00:00:00Z</time>
      </trkpt>
      <trkpt lat="39.891315" lon="-5.522412">
        <ele>291.0</ele>
        <time>1970-01-01T00:00:00Z</time>
      </trkpt>
      <trkpt lat="39.891310" lon="-5.522054">
        <ele>291.0</ele>
        <time>1970-01-01T00:00:00Z</time>
      </trkpt>
      <trkpt lat="39.891310" lon="-5.521611">
        <ele>291.0</ele>
        <time>1970-01-01T00:00:00Z</time>
      </trkpt>
      <trkpt lat="39.891320" lon="-5.521185">
        <ele>290.0</ele>
        <time>1970-01-01T00:00:00Z</time>
      </trkpt>
      <trkpt lat="39.891306" lon="-5.520791">
        <ele>290.0</ele>
        <time>1970-01-01T00:00:00Z</time>
      </trkpt>
      <trkpt lat="39.891310" lon="-5.520401">
        <ele>290.0</ele>
        <time>1970-01-01T00:00:00Z</time>
      </trkpt>
      <trkpt lat="39.891307" lon="-5.519920">
        <ele>290.0</ele>
        <time>1970-01-01T00:00:00Z</time>
      </trkpt>
      <trkpt lat="39.891307" lon="-5.519464">
        <ele>290.0</ele>
        <time>1970-01-01T00:00:00Z</time>
      </trkpt>
      <trkpt lat="39.891299" lon="-5.519225">
        <ele>289.7</ele>
        <time>1970-01-01T00:00:00Z</time>
      </trkpt>
      <trkpt lat="39.891300" lon="-5.518991">
        <ele>289.0</ele>
        <time>1970-01-01T00:00:00Z</time>
      </trkpt>
      <trkpt lat="39.891283" lon="-5.518721">
        <ele>289.0</ele>
        <time>1970-01-01T00:00:00Z</time>
      </trkpt>
      <trkpt lat="39.891297" lon="-5.518487">
        <ele>289.0</ele>
        <time>1970-01-01T00:00:00Z</time>
      </trkpt>
      <trkpt lat="39.891294" lon="-5.518230">
        <ele>289.0</ele>
        <time>1970-01-01T00:00:00Z</time>
      </trkpt>
      <trkpt lat="39.891291" lon="-5.517962">
        <ele>289.0</ele>
        <time>1970-01-01T00:00:00Z</time>
      </trkpt>
      <trkpt lat="39.891279" lon="-5.517680">
        <ele>289.0</ele>
        <time>1970-01-01T00:00:00Z</time>
      </trkpt>
      <trkpt lat="39.891293" lon="-5.517446">
        <ele>289.0</ele>
        <time>1970-01-01T00:00:00Z</time>
      </trkpt>
      <trkpt lat="39.891299" lon="-5.517143">
        <ele>289.3</ele>
        <time>1970-01-01T00:00:00Z</time>
      </trkpt>
      <trkpt lat="39.891310" lon="-5.516874">
        <ele>290.0</ele>
        <time>1970-01-01T00:00:00Z</time>
      </trkpt>
      <trkpt lat="39.891293" lon="-5.516616">
        <ele>290.0</ele>
        <time>1970-01-01T00:00:00Z</time>
      </trkpt>
      <trkpt lat="39.891289" lon="-5.516364">
        <ele>290.0</ele>
        <time>1970-01-01T00:00:00Z</time>
      </trkpt>
      <trkpt lat="39.891281" lon="-5.516108">
        <ele>290.1</ele>
        <time>1970-01-01T00:00:00Z</time>
      </trkpt>
      <trkpt lat="39.891270" lon="-5.515814">
        <ele>290.1</ele>
        <time>1970-01-01T00:00:00Z</time>
      </trkpt>
      <trkpt lat="39.891252" lon="-5.515579">
        <ele>290.2</ele>
        <time>1970-01-01T00:00:00Z</time>
      </trkpt>
      <trkpt lat="39.891235" lon="-5.515327">
        <ele>290.3</ele>
        <time>1970-01-01T00:00:00Z</time>
      </trkpt>
      <trkpt lat="39.891209" lon="-5.515082">
        <ele>290.4</ele>
        <time>1970-01-01T00:00:00Z</time>
      </trkpt>
      <trkpt lat="39.891183" lon="-5.514847">
        <ele>290.5</ele>
        <time>1970-01-01T00:00:00Z</time>
      </trkpt>
      <trkpt lat="39.891138" lon="-5.514413">
        <ele>290.0</ele>
        <time>1970-01-01T00:00:00Z</time>
      </trkpt>
      <trkpt lat="39.891088" lon="-5.514001">
        <ele>289.9</ele>
        <time>1970-01-01T00:00:00Z</time>
      </trkpt>
      <trkpt lat="39.891051" lon="-5.513654">
        <ele>289.0</ele>
        <time>1970-01-01T00:00:00Z</time>
      </trkpt>
      <trkpt lat="39.891085" lon="-5.513329">
        <ele>288.9</ele>
        <time>1970-01-01T00:00:00Z</time>
      </trkpt>
      <trkpt lat="39.891194" lon="-5.512876">
        <ele>288.1</ele>
        <time>1970-01-01T00:00:00Z</time>
      </trkpt>
      <trkpt lat="39.891096" lon="-5.512610">
        <ele>288.0</ele>
        <time>1970-01-01T00:00:00Z</time>
      </trkpt>
      <trkpt lat="39.890970" lon="-5.512407">
        <ele>288.1</ele>
        <time>1970-01-01T00:00:00Z</time>
      </trkpt>
      <trkpt lat="39.890902" lon="-5.512229">
        <ele>288.4</ele>
        <time>1970-01-01T00:00:00Z</time>
      </trkpt>
      <trkpt lat="39.890828" lon="-5.511881">
        <ele>289.0</ele>
        <time>1970-01-01T00:00:00Z</time>
      </trkpt>
      <trkpt lat="39.890793" lon="-5.511605">
        <ele>289.0</ele>
        <time>1970-01-01T00:00:00Z</time>
      </trkpt>
      <trkpt lat="39.890772" lon="-5.511365">
        <ele>289.2</ele>
        <time>1970-01-01T00:00:00Z</time>
      </trkpt>
      <trkpt lat="39.890732" lon="-5.511135">
        <ele>289.0</ele>
        <time>1970-01-01T00:00:00Z</time>
      </trkpt>
      <trkpt lat="39.890680" lon="-5.510859">
        <ele>289.0</ele>
        <time>1970-01-01T00:00:00Z</time>
      </trkpt>
      <trkpt lat="39.890780" lon="-5.510730">
        <ele>289.0</ele>
        <time>1970-01-01T00:00:00Z</time>
      </trkpt>
      <trkpt lat="39.890740" lon="-5.510390">
        <ele>289.2</ele>
        <time>1970-01-01T00:00:00Z</time>
      </trkpt>
      <trkpt lat="39.890710" lon="-5.510130">
        <ele>290.1</ele>
        <time>1970-01-01T00:00:00Z</time>
      </trkpt>
      <trkpt lat="39.890680" lon="-5.509790">
        <ele>290.7</ele>
        <time>1970-01-01T00:00:00Z</time>
      </trkpt>
      <trkpt lat="39.890650" lon="-5.509539">
        <ele>290.8</ele>
        <time>1970-01-01T00:00:00Z</time>
      </trkpt>
      <trkpt lat="39.890630" lon="-5.509309">
        <ele>290.9</ele>
        <time>1970-01-01T00:00:00Z</time>
      </trkpt>
      <trkpt lat="39.890610" lon="-5.508969">
        <ele>291.0</ele>
        <time>1970-01-01T00:00:00Z</time>
      </trkpt>
      <trkpt lat="39.890600" lon="-5.508649">
        <ele>291.0</ele>
        <time>1970-01-01T00:00:00Z</time>
      </trkpt>
      <trkpt lat="39.890580" lon="-5.508350">
        <ele>291.4</ele>
        <time>1970-01-01T00:00:00Z</time>
      </trkpt>
      <trkpt lat="39.890570" lon="-5.508040">
        <ele>291.6</ele>
        <time>1970-01-01T00:00:00Z</time>
      </trkpt>
      <trkpt lat="39.890550" lon="-5.507690">
        <ele>292.0</ele>
        <time>1970-01-01T00:00:00Z</time>
      </trkpt>
      <trkpt lat="39.890540" lon="-5.507430">
        <ele>291.8</ele>
        <time>1970-01-01T00:00:00Z</time>
      </trkpt>
      <trkpt lat="39.890520" lon="-5.507170">
        <ele>291.2</ele>
        <time>1970-01-01T00:00:00Z</time>
      </trkpt>
      <trkpt lat="39.890510" lon="-5.506929">
        <ele>291.0</ele>
        <time>1970-01-01T00:00:00Z</time>
      </trkpt>
      <trkpt lat="39.890490" lon="-5.506600">
        <ele>291.0</ele>
        <time>1970-01-01T00:00:00Z</time>
      </trkpt>
      <trkpt lat="39.890470" lon="-5.506349">
        <ele>291.0</ele>
        <time>1970-01-01T00:00:00Z</time>
      </trkpt>
      <trkpt lat="39.890450" lon="-5.506110">
        <ele>291.9</ele>
        <time>1970-01-01T00:00:00Z</time>
      </trkpt>
      <trkpt lat="39.890420" lon="-5.505820">
        <ele>292.0</ele>
        <time>1970-01-01T00:00:00Z</time>
      </trkpt>
      <trkpt lat="39.890380" lon="-5.505539">
        <ele>292.0</ele>
        <time>1970-01-01T00:00:00Z</time>
      </trkpt>
      <trkpt lat="39.890350" lon="-5.505259">
        <ele>292.0</ele>
        <time>1970-01-01T00:00:00Z</time>
      </trkpt>
      <trkpt lat="39.890310" lon="-5.504999">
        <ele>292.0</ele>
        <time>1970-01-01T00:00:00Z</time>
      </trkpt>
      <trkpt lat="39.890270" lon="-5.504760">
        <ele>292.0</ele>
        <time>1970-01-01T00:00:00Z</time>
      </trkpt>
      <trkpt lat="39.890220" lon="-5.504500">
        <ele>292.0</ele>
        <time>1970-01-01T00:00:00Z</time>
      </trkpt>
      <trkpt lat="39.890170" lon="-5.504249">
        <ele>292.1</ele>
        <time>1970-01-01T00:00:00Z</time>
      </trkpt>
      <trkpt lat="39.890110" lon="-5.503959">
        <ele>293.0</ele>
        <time>1970-01-01T00:00:00Z</time>
      </trkpt>
      <trkpt lat="39.890060" lon="-5.503660">
        <ele>293.5</ele>
        <time>1970-01-01T00:00:00Z</time>
      </trkpt>
      <trkpt lat="39.890010" lon="-5.503340">
        <ele>294.0</ele>
        <time>1970-01-01T00:00:00Z</time>
      </trkpt>
      <trkpt lat="39.889950" lon="-5.503009">
        <ele>294.6</ele>
        <time>1970-01-01T00:00:00Z</time>
      </trkpt>
      <trkpt lat="39.889910" lon="-5.502779">
        <ele>296.0</ele>
        <time>1970-01-01T00:00:00Z</time>
      </trkpt>
      <trkpt lat="39.889860" lon="-5.502549">
        <ele>296.0</ele>
        <time>1970-01-01T00:00:00Z</time>
      </trkpt>
      <trkpt lat="39.889820" lon="-5.502319">
        <ele>296.0</ele>
        <time>1970-01-01T00:00:00Z</time>
      </trkpt>
      <trkpt lat="39.889770" lon="-5.502089">
        <ele>296.3</ele>
        <time>1970-01-01T00:00:00Z</time>
      </trkpt>
      <trkpt lat="39.889730" lon="-5.501859">
        <ele>297.0</ele>
        <time>1970-01-01T00:00:00Z</time>
      </trkpt>
      <trkpt lat="39.889660" lon="-5.501519">
        <ele>297.0</ele>
        <time>1970-01-01T00:00:00Z</time>
      </trkpt>
      <trkpt lat="39.889590" lon="-5.501180">
        <ele>296.6</ele>
        <time>1970-01-01T00:00:00Z</time>
      </trkpt>
      <trkpt lat="39.889520" lon="-5.500840">
        <ele>296.3</ele>
        <time>1970-01-01T00:00:00Z</time>
      </trkpt>
      <trkpt lat="39.889460" lon="-5.500500">
        <ele>296.0</ele>
        <time>1970-01-01T00:00:00Z</time>
      </trkpt>
      <trkpt lat="39.889420" lon="-5.500249">
        <ele>295.7</ele>
        <time>1970-01-01T00:00:00Z</time>
      </trkpt>
      <trkpt lat="39.889390" lon="-5.499989">
        <ele>295.0</ele>
        <time>1970-01-01T00:00:00Z</time>
      </trkpt>
      <trkpt lat="39.889350" lon="-5.499729">
        <ele>294.5</ele>
        <time>1970-01-01T00:00:00Z</time>
      </trkpt>
      <trkpt lat="39.889310" lon="-5.499469">
        <ele>294.0</ele>
        <time>1970-01-01T00:00:00Z</time>
      </trkpt>
      <trkpt lat="39.889270" lon="-5.499189">
        <ele>294.0</ele>
        <time>1970-01-01T00:00:00Z</time>
      </trkpt>
      <trkpt lat="39.889220" lon="-5.498880">
        <ele>294.0</ele>
        <time>1970-01-01T00:00:00Z</time>
      </trkpt>
      <trkpt lat="39.889180" lon="-5.498579">
        <ele>294.0</ele>
        <time>1970-01-01T00:00:00Z</time>
      </trkpt>
      <trkpt lat="39.889140" lon="-5.498280">
        <ele>293.2</ele>
        <time>1970-01-01T00:00:00Z</time>
      </trkpt>
      <trkpt lat="39.889100" lon="-5.497979">
        <ele>293.0</ele>
        <time>1970-01-01T00:00:00Z</time>
      </trkpt>
      <trkpt lat="39.889060" lon="-5.497710">
        <ele>292.9</ele>
        <time>1970-01-01T00:00:00Z</time>
      </trkpt>
      <trkpt lat="39.889030" lon="-5.497450">
        <ele>292.1</ele>
        <time>1970-01-01T00:00:00Z</time>
      </trkpt>
      <trkpt lat="39.888990" lon="-5.497190">
        <ele>291.5</ele>
        <time>1970-01-01T00:00:00Z</time>
      </trkpt>
      <trkpt lat="39.888970" lon="-5.496939">
        <ele>291.0</ele>
        <time>1970-01-01T00:00:00Z</time>
      </trkpt>
      <trkpt lat="39.888940" lon="-5.496689">
        <ele>290.9</ele>
        <time>1970-01-01T00:00:00Z</time>
      </trkpt>
      <trkpt lat="39.888910" lon="-5.496449">
        <ele>290.7</ele>
        <time>1970-01-01T00:00:00Z</time>
      </trkpt>
      <trkpt lat="39.888880" lon="-5.496199">
        <ele>290.1</ele>
        <time>1970-01-01T00:00:00Z</time>
      </trkpt>
      <trkpt lat="39.888850" lon="-5.495950">
        <ele>290.0</ele>
        <time>1970-01-01T00:00:00Z</time>
      </trkpt>
      <trkpt lat="39.888820" lon="-5.495690">
        <ele>290.0</ele>
        <time>1970-01-01T00:00:00Z</time>
      </trkpt>
      <trkpt lat="39.888780" lon="-5.495440">
        <ele>290.0</ele>
        <time>1970-01-01T00:00:00Z</time>
      </trkpt>
      <trkpt lat="39.888750" lon="-5.495189">
        <ele>290.0</ele>
        <time>1970-01-01T00:00:00Z</time>
      </trkpt>
      <trkpt lat="39.888730" lon="-5.494929">
        <ele>289.6</ele>
        <time>1970-01-01T00:00:00Z</time>
      </trkpt>
      <trkpt lat="39.888700" lon="-5.494669">
        <ele>289.1</ele>
        <time>1970-01-01T00:00:00Z</time>
      </trkpt>
      <trkpt lat="39.888670" lon="-5.494420">
        <ele>288.1</ele>
        <time>1970-01-01T00:00:00Z</time>
      </trkpt>
      <trkpt lat="39.888640" lon="-5.494090">
        <ele>286.4</ele>
        <time>1970-01-01T00:00:00Z</time>
      </trkpt>
      <trkpt lat="39.888600" lon="-5.493770">
        <ele>284.3</ele>
        <time>1970-01-01T00:00:00Z</time>
      </trkpt>
      <trkpt lat="39.888580" lon="-5.493429">
        <ele>282.8</ele>
        <time>1970-01-01T00:00:00Z</time>
      </trkpt>
      <trkpt lat="39.888560" lon="-5.493179">
        <ele>281.8</ele>
        <time>1970-01-01T00:00:00Z</time>
      </trkpt>
      <trkpt lat="39.888540" lon="-5.492930">
        <ele>281.0</ele>
        <time>1970-01-01T00:00:00Z</time>
      </trkpt>
      <trkpt lat="39.888520" lon="-5.492680">
        <ele>281.0</ele>
        <time>1970-01-01T00:00:00Z</time>
      </trkpt>
      <trkpt lat="39.888510" lon="-5.492350">
        <ele>280.2</ele>
        <time>1970-01-01T00:00:00Z</time>
      </trkpt>
      <trkpt lat="39.888510" lon="-5.492090">
        <ele>280.0</ele>
        <time>1970-01-01T00:00:00Z</time>
      </trkpt>
      <trkpt lat="39.888500" lon="-5.491879">
        <ele>279.5</ele>
        <time>1970-01-01T00:00:00Z</time>
      </trkpt>
      <trkpt lat="39.888500" lon="-5.491619">
        <ele>279.0</ele>
        <time>1970-01-01T00:00:00Z</time>
      </trkpt>
      <trkpt lat="39.888510" lon="-5.491290">
        <ele>278.5</ele>
        <time>1970-01-01T00:00:00Z</time>
      </trkpt>
      <trkpt lat="39.888530" lon="-5.490950">
        <ele>278.1</ele>
        <time>1970-01-01T00:00:00Z</time>
      </trkpt>
      <trkpt lat="39.888560" lon="-5.490630">
        <ele>278.3</ele>
        <time>1970-01-01T00:00:00Z</time>
      </trkpt>
      <trkpt lat="39.888590" lon="-5.490320">
        <ele>279.6</ele>
        <time>1970-01-01T00:00:00Z</time>
      </trkpt>
      <trkpt lat="39.888620" lon="-5.490039">
        <ele>280.8</ele>
        <time>1970-01-01T00:00:00Z</time>
      </trkpt>
      <trkpt lat="39.888640" lon="-5.489800">
        <ele>281.8</ele>
        <time>1970-01-01T00:00:00Z</time>
      </trkpt>
      <trkpt lat="39.888660" lon="-5.489540">
        <ele>282.0</ele>
        <time>1970-01-01T00:00:00Z</time>
      </trkpt>
      <trkpt lat="39.888670" lon="-5.489289">
        <ele>283.0</ele>
        <time>1970-01-01T00:00:00Z</time>
      </trkpt>
      <trkpt lat="39.888690" lon="-5.489009">
        <ele>283.7</ele>
        <time>1970-01-01T00:00:00Z</time>
      </trkpt>
      <trkpt lat="39.888710" lon="-5.488689">
        <ele>284.3</ele>
        <time>1970-01-01T00:00:00Z</time>
      </trkpt>
      <trkpt lat="39.888740" lon="-5.488390">
        <ele>285.0</ele>
        <time>1970-01-01T00:00:00Z</time>
      </trkpt>
      <trkpt lat="39.888780" lon="-5.488059">
        <ele>284.3</ele>
        <time>1970-01-01T00:00:00Z</time>
      </trkpt>
      <trkpt lat="39.888820" lon="-5.487709">
        <ele>284.9</ele>
        <time>1970-01-01T00:00:00Z</time>
      </trkpt>
      <trkpt lat="39.888850" lon="-5.487479">
        <ele>285.0</ele>
        <time>1970-01-01T00:00:00Z</time>
      </trkpt>
      <trkpt lat="39.888870" lon="-5.487240">
        <ele>285.0</ele>
        <time>1970-01-01T00:00:00Z</time>
      </trkpt>
      <trkpt lat="39.888900" lon="-5.486989">
        <ele>285.8</ele>
        <time>1970-01-01T00:00:00Z</time>
      </trkpt>
      <trkpt lat="39.888930" lon="-5.486729">
        <ele>286.0</ele>
        <time>1970-01-01T00:00:00Z</time>
      </trkpt>
      <trkpt lat="39.888960" lon="-5.486479">
        <ele>286.0</ele>
        <time>1970-01-01T00:00:00Z</time>
      </trkpt>
      <trkpt lat="39.888980" lon="-5.486219">
        <ele>286.3</ele>
        <time>1970-01-01T00:00:00Z</time>
      </trkpt>
      <trkpt lat="39.889010" lon="-5.485959">
        <ele>287.0</ele>
        <time>1970-01-01T00:00:00Z</time>
      </trkpt>
      <trkpt lat="39.889030" lon="-5.485690">
        <ele>287.0</ele>
        <time>1970-01-01T00:00:00Z</time>
      </trkpt>
      <trkpt lat="39.889060" lon="-5.485400">
        <ele>287.0</ele>
        <time>1970-01-01T00:00:00Z</time>
      </trkpt>
      <trkpt lat="39.889090" lon="-5.485089">
        <ele>287.0</ele>
        <time>1970-01-01T00:00:00Z</time>
      </trkpt>
      <trkpt lat="39.889120" lon="-5.484770">
        <ele>287.0</ele>
        <time>1970-01-01T00:00:00Z</time>
      </trkpt>
      <trkpt lat="39.889160" lon="-5.484450">
        <ele>287.7</ele>
        <time>1970-01-01T00:00:00Z</time>
      </trkpt>
      <trkpt lat="39.889190" lon="-5.484130">
        <ele>287.7</ele>
        <time>1970-01-01T00:00:00Z</time>
      </trkpt>
      <trkpt lat="39.889210" lon="-5.483829">
        <ele>287.0</ele>
        <time>1970-01-01T00:00:00Z</time>
      </trkpt>
      <trkpt lat="39.889230" lon="-5.483520">
        <ele>287.0</ele>
        <time>1970-01-01T00:00:00Z</time>
      </trkpt>
      <trkpt lat="39.889240" lon="-5.483199">
        <ele>285.8</ele>
        <time>1970-01-01T00:00:00Z</time>
      </trkpt>
      <trkpt lat="39.889250" lon="-5.482870">
        <ele>285.1</ele>
        <time>1970-01-01T00:00:00Z</time>
      </trkpt>
      <trkpt lat="39.889260" lon="-5.482520">
        <ele>284.7</ele>
        <time>1970-01-01T00:00:00Z</time>
      </trkpt>
      <trkpt lat="39.889270" lon="-5.482170">
        <ele>284.0</ele>
        <time>1970-01-01T00:00:00Z</time>
      </trkpt>
      <trkpt lat="39.889280" lon="-5.481819">
        <ele>283.7</ele>
        <time>1970-01-01T00:00:00Z</time>
      </trkpt>
      <trkpt lat="39.889290" lon="-5.481469">
        <ele>283.0</ele>
        <time>1970-01-01T00:00:00Z</time>
      </trkpt>
      <trkpt lat="39.889300" lon="-5.481119">
        <ele>282.0</ele>
        <time>1970-01-01T00:00:00Z</time>
      </trkpt>
      <trkpt lat="39.889300" lon="-5.480779">
        <ele>282.0</ele>
        <time>1970-01-01T00:00:00Z</time>
      </trkpt>
      <trkpt lat="39.889310" lon="-5.480439">
        <ele>282.0</ele>
        <time>1970-01-01T00:00:00Z</time>
      </trkpt>
      <trkpt lat="39.889310" lon="-5.480110">
        <ele>282.0</ele>
        <time>1970-01-01T00:00:00Z</time>
      </trkpt>
      <trkpt lat="39.889310" lon="-5.479820">
        <ele>282.0</ele>
        <time>1970-01-01T00:00:00Z</time>
      </trkpt>
      <trkpt lat="39.889300" lon="-5.479550">
        <ele>282.1</ele>
        <time>1970-01-01T00:00:00Z</time>
      </trkpt>
      <trkpt lat="39.889260" lon="-5.479300">
        <ele>283.0</ele>
        <time>1970-01-01T00:00:00Z</time>
      </trkpt>
      <trkpt lat="39.889270" lon="-5.478999">
        <ele>283.5</ele>
        <time>1970-01-01T00:00:00Z</time>
      </trkpt>
      <trkpt lat="39.889270" lon="-5.478649">
        <ele>284.0</ele>
        <time>1970-01-01T00:00:00Z</time>
      </trkpt>
      <trkpt lat="39.889270" lon="-5.478300">
        <ele>284.0</ele>
        <time>1970-01-01T00:00:00Z</time>
      </trkpt>
      <trkpt lat="39.889270" lon="-5.477970">
        <ele>283.0</ele>
        <time>1970-01-01T00:00:00Z</time>
      </trkpt>
      <trkpt lat="39.889280" lon="-5.477660">
        <ele>283.0</ele>
        <time>1970-01-01T00:00:00Z</time>
      </trkpt>
      <trkpt lat="39.889290" lon="-5.477350">
        <ele>283.0</ele>
        <time>1970-01-01T00:00:00Z</time>
      </trkpt>
      <trkpt lat="39.889310" lon="-5.477060">
        <ele>283.0</ele>
        <time>1970-01-01T00:00:00Z</time>
      </trkpt>
      <trkpt lat="39.889340" lon="-5.476760">
        <ele>284.0</ele>
        <time>1970-01-01T00:00:00Z</time>
      </trkpt>
      <trkpt lat="39.889350" lon="-5.476510">
        <ele>284.1</ele>
        <time>1970-01-01T00:00:00Z</time>
      </trkpt>
      <trkpt lat="39.889350" lon="-5.476259">
        <ele>284.5</ele>
        <time>1970-01-01T00:00:00Z</time>
      </trkpt>
      <trkpt lat="39.889340" lon="-5.475999">
        <ele>285.1</ele>
        <time>1970-01-01T00:00:00Z</time>
      </trkpt>
      <trkpt lat="39.889340" lon="-5.475730">
        <ele>285.8</ele>
        <time>1970-01-01T00:00:00Z</time>
      </trkpt>
      <trkpt lat="39.889350" lon="-5.475420">
        <ele>286.3</ele>
        <time>1970-01-01T00:00:00Z</time>
      </trkpt>
      <trkpt lat="39.889360" lon="-5.475100">
        <ele>286.4</ele>
        <time>1970-01-01T00:00:00Z</time>
      </trkpt>
      <trkpt lat="39.889370" lon="-5.474769">
        <ele>286.5</ele>
        <time>1970-01-01T00:00:00Z</time>
      </trkpt>
      <trkpt lat="39.889370" lon="-5.474430">
        <ele>286.5</ele>
        <time>1970-01-01T00:00:00Z</time>
      </trkpt>
      <trkpt lat="39.889380" lon="-5.474100">
        <ele>287.8</ele>
        <time>1970-01-01T00:00:00Z</time>
      </trkpt>
      <trkpt lat="39.889380" lon="-5.473750">
        <ele>287.3</ele>
        <time>1970-01-01T00:00:00Z</time>
      </trkpt>
      <trkpt lat="39.889390" lon="-5.473499">
        <ele>287.6</ele>
        <time>1970-01-01T00:00:00Z</time>
      </trkpt>
      <trkpt lat="39.889400" lon="-5.473170">
        <ele>288.8</ele>
        <time>1970-01-01T00:00:00Z</time>
      </trkpt>
      <trkpt lat="39.889420" lon="-5.472869">
        <ele>289.6</ele>
        <time>1970-01-01T00:00:00Z</time>
      </trkpt>
      <trkpt lat="39.889440" lon="-5.472630">
        <ele>290.5</ele>
        <time>1970-01-01T00:00:00Z</time>
      </trkpt>
      <trkpt lat="39.889470" lon="-5.472330">
        <ele>291.4</ele>
        <time>1970-01-01T00:00:00Z</time>
      </trkpt>
      <trkpt lat="39.889500" lon="-5.472000">
        <ele>293.5</ele>
        <time>1970-01-01T00:00:00Z</time>
      </trkpt>
      <trkpt lat="39.889510" lon="-5.471760">
        <ele>294.0</ele>
        <time>1970-01-01T00:00:00Z</time>
      </trkpt>
      <trkpt lat="39.889540" lon="-5.471420">
        <ele>295.3</ele>
        <time>1970-01-01T00:00:00Z</time>
      </trkpt>
      <trkpt lat="39.889570" lon="-5.471089">
        <ele>296.7</ele>
        <time>1970-01-01T00:00:00Z</time>
      </trkpt>
      <trkpt lat="39.889600" lon="-5.470760">
        <ele>297.0</ele>
        <time>1970-01-01T00:00:00Z</time>
      </trkpt>
      <trkpt lat="39.889620" lon="-5.470440">
        <ele>296.5</ele>
        <time>1970-01-01T00:00:00Z</time>
      </trkpt>
      <trkpt lat="39.889630" lon="-5.470139">
        <ele>295.3</ele>
        <time>1970-01-01T00:00:00Z</time>
      </trkpt>
      <trkpt lat="39.889640" lon="-5.469819">
        <ele>294.9</ele>
        <time>1970-01-01T00:00:00Z</time>
      </trkpt>
      <trkpt lat="39.889640" lon="-5.469470">
        <ele>294.6</ele>
        <time>1970-01-01T00:00:00Z</time>
      </trkpt>
      <trkpt lat="39.889650" lon="-5.469210">
        <ele>294.6</ele>
        <time>1970-01-01T00:00:00Z</time>
      </trkpt>
      <trkpt lat="39.889680" lon="-5.468920">
        <ele>294.4</ele>
        <time>1970-01-01T00:00:00Z</time>
      </trkpt>
      <trkpt lat="39.889720" lon="-5.468620">
        <ele>293.9</ele>
        <time>1970-01-01T00:00:00Z</time>
      </trkpt>
      <trkpt lat="39.889770" lon="-5.468320">
        <ele>293.1</ele>
        <time>1970-01-01T00:00:00Z</time>
      </trkpt>
      <trkpt lat="39.889830" lon="-5.468030">
        <ele>291.7</ele>
        <time>1970-01-01T00:00:00Z</time>
      </trkpt>
      <trkpt lat="39.889890" lon="-5.467749">
        <ele>291.0</ele>
        <time>1970-01-01T00:00:00Z</time>
      </trkpt>
      <trkpt lat="39.889980" lon="-5.467480">
        <ele>289.9</ele>
        <time>1970-01-01T00:00:00Z</time>
      </trkpt>
      <trkpt lat="39.890080" lon="-5.467229">
        <ele>288.1</ele>
        <time>1970-01-01T00:00:00Z</time>
      </trkpt>
      <trkpt lat="39.890200" lon="-5.467010">
        <ele>286.4</ele>
        <time>1970-01-01T00:00:00Z</time>
      </trkpt>
      <trkpt lat="39.890360" lon="-5.466900">
        <ele>285.1</ele>
        <time>1970-01-01T00:00:00Z</time>
      </trkpt>
      <trkpt lat="39.890590" lon="-5.466990">
        <ele>284.3</ele>
        <time>1970-01-01T00:00:00Z</time>
      </trkpt>
      <trkpt lat="39.890770" lon="-5.467179">
        <ele>284.3</ele>
        <time>1970-01-01T00:00:00Z</time>
      </trkpt>
      <trkpt lat="39.890970" lon="-5.467190">
        <ele>283.9</ele>
        <time>1970-01-01T00:00:00Z</time>
      </trkpt>
      <trkpt lat="39.891080" lon="-5.466990">
        <ele>283.2</ele>
        <time>1970-01-01T00:00:00Z</time>
      </trkpt>
      <trkpt lat="39.891040" lon="-5.466810">
        <ele>283.0</ele>
        <time>1970-01-01T00:00:00Z</time>
      </trkpt>
      <trkpt lat="39.890840" lon="-5.466769">
        <ele>283.3</ele>
        <time>1970-01-01T00:00:00Z</time>
      </trkpt>
      <trkpt lat="39.890630" lon="-5.466769">
        <ele>283.8</ele>
        <time>1970-01-01T00:00:00Z</time>
      </trkpt>
      <trkpt lat="39.890390" lon="-5.466780">
        <ele>284.6</ele>
        <time>1970-01-01T00:00:00Z</time>
      </trkpt>
      <trkpt lat="39.890140" lon="-5.466780">
        <ele>286.5</ele>
        <time>1970-01-01T00:00:00Z</time>
      </trkpt>
      <trkpt lat="39.889900" lon="-5.466780">
        <ele>288.0</ele>
        <time>1970-01-01T00:00:00Z</time>
      </trkpt>
      <trkpt lat="39.889660" lon="-5.466760">
        <ele>289.7</ele>
        <time>1970-01-01T00:00:00Z</time>
      </trkpt>
      <trkpt lat="39.889400" lon="-5.466719">
        <ele>291.4</ele>
        <time>1970-01-01T00:00:00Z</time>
      </trkpt>
      <trkpt lat="39.889220" lon="-5.466689">
        <ele>292.6</ele>
        <time>1970-01-01T00:00:00Z</time>
      </trkpt>
      <trkpt lat="39.888970" lon="-5.466650">
        <ele>293.1</ele>
        <time>1970-01-01T00:00:00Z</time>
      </trkpt>
      <trkpt lat="39.888740" lon="-5.466610">
        <ele>292.5</ele>
        <time>1970-01-01T00:00:00Z</time>
      </trkpt>
      <trkpt lat="39.888510" lon="-5.466569">
        <ele>291.4</ele>
        <time>1970-01-01T00:00:00Z</time>
      </trkpt>
      <trkpt lat="39.888270" lon="-5.466509">
        <ele>290.2</ele>
        <time>1970-01-01T00:00:00Z</time>
      </trkpt>
      <trkpt lat="39.888070" lon="-5.466440">
        <ele>288.8</ele>
        <time>1970-01-01T00:00:00Z</time>
      </trkpt>
      <trkpt lat="39.887900" lon="-5.466339">
        <ele>288.1</ele>
        <time>1970-01-01T00:00:00Z</time>
      </trkpt>
      <trkpt lat="39.887700" lon="-5.466190">
        <ele>288.2</ele>
        <time>1970-01-01T00:00:00Z</time>
      </trkpt>
      <trkpt lat="39.887580" lon="-5.466060">
        <ele>288.3</ele>
        <time>1970-01-01T00:00:00Z</time>
      </trkpt>
      <trkpt lat="39.887420" lon="-5.465849">
        <ele>288.3</ele>
        <time>1970-01-01T00:00:00Z</time>
      </trkpt>
      <trkpt lat="39.887260" lon="-5.465679">
        <ele>288.9</ele>
        <time>1970-01-01T00:00:00Z</time>
      </trkpt>
      <trkpt lat="39.887060" lon="-5.465539">
        <ele>290.0</ele>
        <time>1970-01-01T00:00:00Z</time>
      </trkpt>
      <trkpt lat="39.886860" lon="-5.465410">
        <ele>290.6</ele>
        <time>1970-01-01T00:00:00Z</time>
      </trkpt>
      <trkpt lat="39.886630" lon="-5.465290">
        <ele>291.0</ele>
        <time>1970-01-01T00:00:00Z</time>
      </trkpt>
      <trkpt lat="39.886410" lon="-5.465210">
        <ele>291.0</ele>
        <time>1970-01-01T00:00:00Z</time>
      </trkpt>
      <trkpt lat="39.886150" lon="-5.465129">
        <ele>291.0</ele>
        <time>1970-01-01T00:00:00Z</time>
      </trkpt>
      <trkpt lat="39.885970" lon="-5.465060">
        <ele>290.5</ele>
        <time>1970-01-01T00:00:00Z</time>
      </trkpt>
      <trkpt lat="39.885790" lon="-5.465010">
        <ele>290.0</ele>
        <time>1970-01-01T00:00:00Z</time>
      </trkpt>
      <trkpt lat="39.885600" lon="-5.464970">
        <ele>290.2</ele>
        <time>1970-01-01T00:00:00Z</time>
      </trkpt>
      <trkpt lat="39.885360" lon="-5.464839">
        <ele>291.0</ele>
        <time>1970-01-01T00:00:00Z</time>
      </trkpt>
      <trkpt lat="39.885150" lon="-5.464710">
        <ele>291.3</ele>
        <time>1970-01-01T00:00:00Z</time>
      </trkpt>
      <trkpt lat="39.884970" lon="-5.464619">
        <ele>292.2</ele>
        <time>1970-01-01T00:00:00Z</time>
      </trkpt>
      <trkpt lat="39.885190" lon="-5.464729">
        <ele>291.2</ele>
        <time>1970-01-01T00:00:00Z</time>
      </trkpt>
      <trkpt lat="39.885350" lon="-5.464849">
        <ele>291.0</ele>
        <time>1970-01-01T00:00:00Z</time>
      </trkpt>
      <trkpt lat="39.885400" lon="-5.464879">
        <ele>291.0</ele>
        <time>1970-01-01T00:00:00Z</time>
      </trkpt>
      <trkpt lat="39.885230" lon="-5.464770">
        <ele>291.0</ele>
        <time>1970-01-01T00:00:00Z</time>
      </trkpt>
      <trkpt lat="39.885050" lon="-5.464669">
        <ele>291.9</ele>
        <time>1970-01-01T00:00:00Z</time>
      </trkpt>
      <trkpt lat="39.884860" lon="-5.464559">
        <ele>292.4</ele>
        <time>1970-01-01T00:00:00Z</time>
      </trkpt>
      <trkpt lat="39.884680" lon="-5.464460">
        <ele>292.7</ele>
        <time>1970-01-01T00:00:00Z</time>
      </trkpt>
      <trkpt lat="39.884450" lon="-5.464400">
        <ele>293.4</ele>
        <time>1970-01-01T00:00:00Z</time>
      </trkpt>
      <trkpt lat="39.884230" lon="-5.464409">
        <ele>294.0</ele>
        <time>1970-01-01T00:00:00Z</time>
      </trkpt>
      <trkpt lat="39.883980" lon="-5.464400">
        <ele>294.9</ele>
        <time>1970-01-01T00:00:00Z</time>
      </trkpt>
      <trkpt lat="39.883740" lon="-5.464340">
        <ele>295.4</ele>
        <time>1970-01-01T00:00:00Z</time>
      </trkpt>
      <trkpt lat="39.883500" lon="-5.464320">
        <ele>296.3</ele>
        <time>1970-01-01T00:00:00Z</time>
      </trkpt>
      <trkpt lat="39.883290" lon="-5.464379">
        <ele>297.3</ele>
        <time>1970-01-01T00:00:00Z</time>
      </trkpt>
      <trkpt lat="39.883120" lon="-5.464480">
        <ele>297.8</ele>
        <time>1970-01-01T00:00:00Z</time>
      </trkpt>
      <trkpt lat="39.882930" lon="-5.464609">
        <ele>297.4</ele>
        <time>1970-01-01T00:00:00Z</time>
      </trkpt>
      <trkpt lat="39.882720" lon="-5.464690">
        <ele>296.7</ele>
        <time>1970-01-01T00:00:00Z</time>
      </trkpt>
      <trkpt lat="39.882540" lon="-5.464699">
        <ele>295.9</ele>
        <time>1970-01-01T00:00:00Z</time>
      </trkpt>
      <trkpt lat="39.882320" lon="-5.464660">
        <ele>294.5</ele>
        <time>1970-01-01T00:00:00Z</time>
      </trkpt>
      <trkpt lat="39.882130" lon="-5.464600">
        <ele>292.9</ele>
        <time>1970-01-01T00:00:00Z</time>
      </trkpt>
      <trkpt lat="39.881910" lon="-5.464529">
        <ele>292.0</ele>
        <time>1970-01-01T00:00:00Z</time>
      </trkpt>
      <trkpt lat="39.881650" lon="-5.464450">
        <ele>290.1</ele>
        <time>1970-01-01T00:00:00Z</time>
      </trkpt>
      <trkpt lat="39.881470" lon="-5.464400">
        <ele>288.8</ele>
        <time>1970-01-01T00:00:00Z</time>
      </trkpt>
      <trkpt lat="39.881290" lon="-5.464340">
        <ele>288.2</ele>
        <time>1970-01-01T00:00:00Z</time>
      </trkpt>
      <trkpt lat="39.881030" lon="-5.464250">
        <ele>286.6</ele>
        <time>1970-01-01T00:00:00Z</time>
      </trkpt>
      <trkpt lat="39.880800" lon="-5.464170">
        <ele>285.3</ele>
        <time>1970-01-01T00:00:00Z</time>
      </trkpt>
      <trkpt lat="39.880590" lon="-5.464110">
        <ele>285.0</ele>
        <time>1970-01-01T00:00:00Z</time>
      </trkpt>
      <trkpt lat="39.880390" lon="-5.464050">
        <ele>284.4</ele>
        <time>1970-01-01T00:00:00Z</time>
      </trkpt>
      <trkpt lat="39.880200" lon="-5.463990">
        <ele>283.6</ele>
        <time>1970-01-01T00:00:00Z</time>
      </trkpt>
      <trkpt lat="39.880000" lon="-5.463929">
        <ele>283.0</ele>
        <time>1970-01-01T00:00:00Z</time>
      </trkpt>
      <trkpt lat="39.879830" lon="-5.463860">
        <ele>283.0</ele>
        <time>1970-01-01T00:00:00Z</time>
      </trkpt>
      <trkpt lat="39.879640" lon="-5.463820">
        <ele>283.0</ele>
        <time>1970-01-01T00:00:00Z</time>
      </trkpt>
      <trkpt lat="39.879450" lon="-5.463770">
        <ele>283.0</ele>
        <time>1970-01-01T00:00:00Z</time>
      </trkpt>
      <trkpt lat="39.879270" lon="-5.463689">
        <ele>283.1</ele>
        <time>1970-01-01T00:00:00Z</time>
      </trkpt>
      <trkpt lat="39.879020" lon="-5.463600">
        <ele>283.0</ele>
        <time>1970-01-01T00:00:00Z</time>
      </trkpt>
      <trkpt lat="39.878840" lon="-5.463540">
        <ele>283.0</ele>
        <time>1970-01-01T00:00:00Z</time>
      </trkpt>
      <trkpt lat="39.878590" lon="-5.463469">
        <ele>283.1</ele>
        <time>1970-01-01T00:00:00Z</time>
      </trkpt>
      <trkpt lat="39.878370" lon="-5.463409">
        <ele>283.4</ele>
        <time>1970-01-01T00:00:00Z</time>
      </trkpt>
      <trkpt lat="39.878160" lon="-5.463390">
        <ele>283.8</ele>
        <time>1970-01-01T00:00:00Z</time>
      </trkpt>
      <trkpt lat="39.877930" lon="-5.463390">
        <ele>283.3</ele>
        <time>1970-01-01T00:00:00Z</time>
      </trkpt>
      <trkpt lat="39.877690" lon="-5.463400">
        <ele>284.1</ele>
        <time>1970-01-01T00:00:00Z</time>
      </trkpt>
      <trkpt lat="39.877460" lon="-5.463430">
        <ele>284.0</ele>
        <time>1970-01-01T00:00:00Z</time>
      </trkpt>
      <trkpt lat="39.877270" lon="-5.463469">
        <ele>284.0</ele>
        <time>1970-01-01T00:00:00Z</time>
      </trkpt>
      <trkpt lat="39.877060" lon="-5.463519">
        <ele>283.0</ele>
        <time>1970-01-01T00:00:00Z</time>
      </trkpt>
      <trkpt lat="39.876850" lon="-5.463570">
        <ele>282.1</ele>
        <time>1970-01-01T00:00:00Z</time>
      </trkpt>
      <trkpt lat="39.876680" lon="-5.463620">
        <ele>282.0</ele>
        <time>1970-01-01T00:00:00Z</time>
      </trkpt>
      <trkpt lat="39.876530" lon="-5.463660">
        <ele>282.2</ele>
        <time>1970-01-01T00:00:00Z</time>
      </trkpt>
      <trkpt lat="39.876350" lon="-5.463669">
        <ele>282.0</ele>
        <time>1970-01-01T00:00:00Z</time>
      </trkpt>
      <trkpt lat="39.876100" lon="-5.463660">
        <ele>282.1</ele>
        <time>1970-01-01T00:00:00Z</time>
      </trkpt>
      <trkpt lat="39.875920" lon="-5.463660">
        <ele>282.9</ele>
        <time>1970-01-01T00:00:00Z</time>
      </trkpt>
      <trkpt lat="39.875710" lon="-5.463660">
        <ele>283.6</ele>
        <time>1970-01-01T00:00:00Z</time>
      </trkpt>
      <trkpt lat="39.875500" lon="-5.463650">
        <ele>284.5</ele>
        <time>1970-01-01T00:00:00Z</time>
      </trkpt>
      <trkpt lat="39.875270" lon="-5.463630">
        <ele>285.6</ele>
        <time>1970-01-01T00:00:00Z</time>
      </trkpt>
      <trkpt lat="39.875040" lon="-5.463609">
        <ele>286.7</ele>
        <time>1970-01-01T00:00:00Z</time>
      </trkpt>
      <trkpt lat="39.874810" lon="-5.463590">
        <ele>287.1</ele>
        <time>1970-01-01T00:00:00Z</time>
      </trkpt>
      <trkpt lat="39.874570" lon="-5.463570">
        <ele>287.8</ele>
        <time>1970-01-01T00:00:00Z</time>
      </trkpt>
      <trkpt lat="39.874340" lon="-5.463540">
        <ele>288.0</ele>
        <time>1970-01-01T00:00:00Z</time>
      </trkpt>
      <trkpt lat="39.874100" lon="-5.463510">
        <ele>288.3</ele>
        <time>1970-01-01T00:00:00Z</time>
      </trkpt>
      <trkpt lat="39.873870" lon="-5.463480">
        <ele>288.9</ele>
        <time>1970-01-01T00:00:00Z</time>
      </trkpt>
      <trkpt lat="39.873640" lon="-5.463450">
        <ele>289.7</ele>
        <time>1970-01-01T00:00:00Z</time>
      </trkpt>
      <trkpt lat="39.873420" lon="-5.463420">
        <ele>290.7</ele>
        <time>1970-01-01T00:00:00Z</time>
      </trkpt>
      <trkpt lat="39.873200" lon="-5.463390">
        <ele>291.6</ele>
        <time>1970-01-01T00:00:00Z</time>
      </trkpt>
      <trkpt lat="39.872980" lon="-5.463349">
        <ele>292.1</ele>
        <time>1970-01-01T00:00:00Z</time>
      </trkpt>
      <trkpt lat="39.872750" lon="-5.463310">
        <ele>292.9</ele>
        <time>1970-01-01T00:00:00Z</time>
      </trkpt>
      <trkpt lat="39.872520" lon="-5.463270">
        <ele>294.0</ele>
        <time>1970-01-01T00:00:00Z</time>
      </trkpt>
      <trkpt lat="39.872290" lon="-5.463229">
        <ele>295.0</ele>
        <time>1970-01-01T00:00:00Z</time>
      </trkpt>
      <trkpt lat="39.872050" lon="-5.463190">
        <ele>295.1</ele>
        <time>1970-01-01T00:00:00Z</time>
      </trkpt>
      <trkpt lat="39.871820" lon="-5.463149">
        <ele>295.0</ele>
        <time>1970-01-01T00:00:00Z</time>
      </trkpt>
      <trkpt lat="39.871570" lon="-5.463119">
        <ele>294.5</ele>
        <time>1970-01-01T00:00:00Z</time>
      </trkpt>
      <trkpt lat="39.871320" lon="-5.463089">
        <ele>293.7</ele>
        <time>1970-01-01T00:00:00Z</time>
      </trkpt>
      <trkpt lat="39.871060" lon="-5.463059">
        <ele>292.9</ele>
        <time>1970-01-01T00:00:00Z</time>
      </trkpt>
      <trkpt lat="39.870790" lon="-5.462999">
        <ele>292.6</ele>
        <time>1970-01-01T00:00:00Z</time>
      </trkpt>
      <trkpt lat="39.870520" lon="-5.462940">
        <ele>293.2</ele>
        <time>1970-01-01T00:00:00Z</time>
      </trkpt>
      <trkpt lat="39.870260" lon="-5.462870">
        <ele>294.5</ele>
        <time>1970-01-01T00:00:00Z</time>
      </trkpt>
      <trkpt lat="39.870010" lon="-5.462820">
        <ele>295.7</ele>
        <time>1970-01-01T00:00:00Z</time>
      </trkpt>
      <trkpt lat="39.869800" lon="-5.462790">
        <ele>296.1</ele>
        <time>1970-01-01T00:00:00Z</time>
      </trkpt>
      <trkpt lat="39.869600" lon="-5.462779">
        <ele>296.5</ele>
        <time>1970-01-01T00:00:00Z</time>
      </trkpt>
      <trkpt lat="39.869370" lon="-5.462760">
        <ele>296.9</ele>
        <time>1970-01-01T00:00:00Z</time>
      </trkpt>
      <trkpt lat="39.869220" lon="-5.462740">
        <ele>296.4</ele>
        <time>1970-01-01T00:00:00Z</time>
      </trkpt>
      <trkpt lat="39.868980" lon="-5.462719">
        <ele>295.3</ele>
        <time>1970-01-01T00:00:00Z</time>
      </trkpt>
      <trkpt lat="39.868720" lon="-5.462710">
        <ele>294.0</ele>
        <time>1970-01-01T00:00:00Z</time>
      </trkpt>
      <trkpt lat="39.868520" lon="-5.462700">
        <ele>293.1</ele>
        <time>1970-01-01T00:00:00Z</time>
      </trkpt>
      <trkpt lat="39.868290" lon="-5.462689">
        <ele>293.0</ele>
        <time>1970-01-01T00:00:00Z</time>
      </trkpt>
      <trkpt lat="39.868040" lon="-5.462689">
        <ele>293.0</ele>
        <time>1970-01-01T00:00:00Z</time>
      </trkpt>
      <trkpt lat="39.867800" lon="-5.462700">
        <ele>293.1</ele>
        <time>1970-01-01T00:00:00Z</time>
      </trkpt>
      <trkpt lat="39.867570" lon="-5.462719">
        <ele>294.9</ele>
        <time>1970-01-01T00:00:00Z</time>
      </trkpt>
      <trkpt lat="39.867340" lon="-5.462740">
        <ele>295.9</ele>
        <time>1970-01-01T00:00:00Z</time>
      </trkpt>
      <trkpt lat="39.867120" lon="-5.462760">
        <ele>296.9</ele>
        <time>1970-01-01T00:00:00Z</time>
      </trkpt>
      <trkpt lat="39.866900" lon="-5.462779">
        <ele>297.0</ele>
        <time>1970-01-01T00:00:00Z</time>
      </trkpt>
      <trkpt lat="39.866710" lon="-5.462810">
        <ele>297.0</ele>
        <time>1970-01-01T00:00:00Z</time>
      </trkpt>
      <trkpt lat="39.866520" lon="-5.462850">
        <ele>296.6</ele>
        <time>1970-01-01T00:00:00Z</time>
      </trkpt>
      <trkpt lat="39.866340" lon="-5.462930">
        <ele>295.7</ele>
        <time>1970-01-01T00:00:00Z</time>
      </trkpt>
      <trkpt lat="39.866160" lon="-5.462970">
        <ele>295.0</ele>
        <time>1970-01-01T00:00:00Z</time>
      </trkpt>
      <trkpt lat="39.865960" lon="-5.462930">
        <ele>294.1</ele>
        <time>1970-01-01T00:00:00Z</time>
      </trkpt>
      <trkpt lat="39.865760" lon="-5.462840">
        <ele>293.2</ele>
        <time>1970-01-01T00:00:00Z</time>
      </trkpt>
      <trkpt lat="39.865540" lon="-5.462730">
        <ele>292.3</ele>
        <time>1970-01-01T00:00:00Z</time>
      </trkpt>
      <trkpt lat="39.865310" lon="-5.462650">
        <ele>292.1</ele>
        <time>1970-01-01T00:00:00Z</time>
      </trkpt>
      <trkpt lat="39.865080" lon="-5.462620">
        <ele>293.0</ele>
        <time>1970-01-01T00:00:00Z</time>
      </trkpt>
      <trkpt lat="39.864830" lon="-5.462610">
        <ele>293.9</ele>
        <time>1970-01-01T00:00:00Z</time>
      </trkpt>
      <trkpt lat="39.864590" lon="-5.462580">
        <ele>294.4</ele>
        <time>1970-01-01T00:00:00Z</time>
      </trkpt>
      <trkpt lat="39.864370" lon="-5.462569">
        <ele>295.7</ele>
        <time>1970-01-01T00:00:00Z</time>
      </trkpt>
      <trkpt lat="39.864180" lon="-5.462580">
        <ele>297.2</ele>
        <time>1970-01-01T00:00:00Z</time>
      </trkpt>
      <trkpt lat="39.863920" lon="-5.462650">
        <ele>299.4</ele>
        <time>1970-01-01T00:00:00Z</time>
      </trkpt>
      <trkpt lat="39.863670" lon="-5.462760">
        <ele>302.5</ele>
        <time>1970-01-01T00:00:00Z</time>
      </trkpt>
      <trkpt lat="39.863480" lon="-5.462829">
        <ele>303.8</ele>
        <time>1970-01-01T00:00:00Z</time>
      </trkpt>
      <trkpt lat="39.863290" lon="-5.462900">
        <ele>305.4</ele>
        <time>1970-01-01T00:00:00Z</time>
      </trkpt>
      <trkpt lat="39.863100" lon="-5.462999">
        <ele>306.5</ele>
        <time>1970-01-01T00:00:00Z</time>
      </trkpt>
      <trkpt lat="39.862940" lon="-5.463170">
        <ele>307.1</ele>
        <time>1970-01-01T00:00:00Z</time>
      </trkpt>
      <trkpt lat="39.862800" lon="-5.463370">
        <ele>308.0</ele>
        <time>1970-01-01T00:00:00Z</time>
      </trkpt>
      <trkpt lat="39.862670" lon="-5.463560">
        <ele>308.0</ele>
        <time>1970-01-01T00:00:00Z</time>
      </trkpt>
      <trkpt lat="39.862540" lon="-5.463749">
        <ele>308.0</ele>
        <time>1970-01-01T00:00:00Z</time>
      </trkpt>
      <trkpt lat="39.862410" lon="-5.463929">
        <ele>308.0</ele>
        <time>1970-01-01T00:00:00Z</time>
      </trkpt>
      <trkpt lat="39.862270" lon="-5.464120">
        <ele>308.0</ele>
        <time>1970-01-01T00:00:00Z</time>
      </trkpt>
      <trkpt lat="39.862130" lon="-5.464299">
        <ele>308.0</ele>
        <time>1970-01-01T00:00:00Z</time>
      </trkpt>
      <trkpt lat="39.861990" lon="-5.464460">
        <ele>308.0</ele>
        <time>1970-01-01T00:00:00Z</time>
      </trkpt>
      <trkpt lat="39.861830" lon="-5.464669">
        <ele>307.9</ele>
        <time>1970-01-01T00:00:00Z</time>
      </trkpt>
      <trkpt lat="39.861720" lon="-5.464839">
        <ele>308.0</ele>
        <time>1970-01-01T00:00:00Z</time>
      </trkpt>
      <trkpt lat="39.861580" lon="-5.465040">
        <ele>308.2</ele>
        <time>1970-01-01T00:00:00Z</time>
      </trkpt>
      <trkpt lat="39.861450" lon="-5.465300">
        <ele>309.0</ele>
        <time>1970-01-01T00:00:00Z</time>
      </trkpt>
      <trkpt lat="39.861370" lon="-5.465520">
        <ele>309.0</ele>
        <time>1970-01-01T00:00:00Z</time>
      </trkpt>
      <trkpt lat="39.861270" lon="-5.465810">
        <ele>309.2</ele>
        <time>1970-01-01T00:00:00Z</time>
      </trkpt>
      <trkpt lat="39.861140" lon="-5.465990">
        <ele>309.8</ele>
        <time>1970-01-01T00:00:00Z</time>
      </trkpt>
      <trkpt lat="39.860950" lon="-5.466120">
        <ele>310.1</ele>
        <time>1970-01-01T00:00:00Z</time>
      </trkpt>
      <trkpt lat="39.860750" lon="-5.466290">
        <ele>310.0</ele>
        <time>1970-01-01T00:00:00Z</time>
      </trkpt>
      <trkpt lat="39.860560" lon="-5.466450">
        <ele>309.9</ele>
        <time>1970-01-01T00:00:00Z</time>
      </trkpt>
      <trkpt lat="39.860380" lon="-5.466590">
        <ele>309.1</ele>
        <time>1970-01-01T00:00:00Z</time>
      </trkpt>
      <trkpt lat="39.860260" lon="-5.466659">
        <ele>308.9</ele>
        <time>1970-01-01T00:00:00Z</time>
      </trkpt>
      <trkpt lat="39.860100" lon="-5.466530">
        <ele>309.0</ele>
        <time>1970-01-01T00:00:00Z</time>
      </trkpt>
      <trkpt lat="39.859910" lon="-5.466300">
        <ele>309.0</ele>
        <time>1970-01-01T00:00:00Z</time>
      </trkpt>
      <trkpt lat="39.859740" lon="-5.466079">
        <ele>309.9</ele>
        <time>1970-01-01T00:00:00Z</time>
      </trkpt>
      <trkpt lat="39.859550" lon="-5.465830">
        <ele>310.0</ele>
        <time>1970-01-01T00:00:00Z</time>
      </trkpt>
      <trkpt lat="39.859360" lon="-5.465580">
        <ele>310.0</ele>
        <time>1970-01-01T00:00:00Z</time>
      </trkpt>
      <trkpt lat="39.859180" lon="-5.465339">
        <ele>309.8</ele>
        <time>1970-01-01T00:00:00Z</time>
      </trkpt>
      <trkpt lat="39.859000" lon="-5.465099">
        <ele>308.5</ele>
        <time>1970-01-01T00:00:00Z</time>
      </trkpt>
      <trkpt lat="39.858830" lon="-5.464869">
        <ele>307.3</ele>
        <time>1970-01-01T00:00:00Z</time>
      </trkpt>
      <trkpt lat="39.858650" lon="-5.464619">
        <ele>307.0</ele>
        <time>1970-01-01T00:00:00Z</time>
      </trkpt>
      <trkpt lat="39.858520" lon="-5.464439">
        <ele>307.0</ele>
        <time>1970-01-01T00:00:00Z</time>
      </trkpt>
      <trkpt lat="39.858380" lon="-5.464170">
        <ele>307.9</ele>
        <time>1970-01-01T00:00:00Z</time>
      </trkpt>
      <trkpt lat="39.858270" lon="-5.463940">
        <ele>308.7</ele>
        <time>1970-01-01T00:00:00Z</time>
      </trkpt>
      <trkpt lat="39.858160" lon="-5.463730">
        <ele>309.6</ele>
        <time>1970-01-01T00:00:00Z</time>
      </trkpt>
      <trkpt lat="39.858050" lon="-5.463570">
        <ele>310.1</ele>
        <time>1970-01-01T00:00:00Z</time>
      </trkpt>
      <trkpt lat="39.857910" lon="-5.463349">
        <ele>311.4</ele>
        <time>1970-01-01T00:00:00Z</time>
      </trkpt>
      <trkpt lat="39.857740" lon="-5.463070">
        <ele>312.1</ele>
        <time>1970-01-01T00:00:00Z</time>
      </trkpt>
      <trkpt lat="39.857550" lon="-5.462810">
        <ele>312.4</ele>
        <time>1970-01-01T00:00:00Z</time>
      </trkpt>
      <trkpt lat="39.857400" lon="-5.462620">
        <ele>312.9</ele>
        <time>1970-01-01T00:00:00Z</time>
      </trkpt>
      <trkpt lat="39.857280" lon="-5.462420">
        <ele>312.9</ele>
        <time>1970-01-01T00:00:00Z</time>
      </trkpt>
      <trkpt lat="39.857150" lon="-5.462180">
        <ele>313.1</ele>
        <time>1970-01-01T00:00:00Z</time>
      </trkpt>
      <trkpt lat="39.857020" lon="-5.461930">
        <ele>314.5</ele>
        <time>1970-01-01T00:00:00Z</time>
      </trkpt>
      <trkpt lat="39.856930" lon="-5.461709">
        <ele>314.7</ele>
        <time>1970-01-01T00:00:00Z</time>
      </trkpt>
      <trkpt lat="39.856800" lon="-5.461470">
        <ele>314.2</ele>
        <time>1970-01-01T00:00:00Z</time>
      </trkpt>
      <trkpt lat="39.856660" lon="-5.461249">
        <ele>314.1</ele>
        <time>1970-01-01T00:00:00Z</time>
      </trkpt>
      <trkpt lat="39.856520" lon="-5.461060">
        <ele>314.7</ele>
        <time>1970-01-01T00:00:00Z</time>
      </trkpt>
      <trkpt lat="39.856360" lon="-5.460920">
        <ele>315.0</ele>
        <time>1970-01-01T00:00:00Z</time>
      </trkpt>
      <trkpt lat="39.856170" lon="-5.460819">
        <ele>316.2</ele>
        <time>1970-01-01T00:00:00Z</time>
      </trkpt>
      <trkpt lat="39.856040" lon="-5.460759">
        <ele>316.7</ele>
        <time>1970-01-01T00:00:00Z</time>
      </trkpt>
      <trkpt lat="39.855820" lon="-5.460759">
        <ele>318.9</ele>
        <time>1970-01-01T00:00:00Z</time>
      </trkpt>
      <trkpt lat="39.855660" lon="-5.460619">
        <ele>320.3</ele>
        <time>1970-01-01T00:00:00Z</time>
      </trkpt>
      <trkpt lat="39.855440" lon="-5.460460">
        <ele>322.9</ele>
        <time>1970-01-01T00:00:00Z</time>
      </trkpt>
      <trkpt lat="39.855230" lon="-5.460320">
        <ele>324.3</ele>
        <time>1970-01-01T00:00:00Z</time>
      </trkpt>
      <trkpt lat="39.855020" lon="-5.460280">
        <ele>326.0</ele>
        <time>1970-01-01T00:00:00Z</time>
      </trkpt>
      <trkpt lat="39.854830" lon="-5.460389">
        <ele>328.1</ele>
        <time>1970-01-01T00:00:00Z</time>
      </trkpt>
      <trkpt lat="39.854650" lon="-5.460460">
        <ele>329.9</ele>
        <time>1970-01-01T00:00:00Z</time>
      </trkpt>
      <trkpt lat="39.854440" lon="-5.460490">
        <ele>331.2</ele>
        <time>1970-01-01T00:00:00Z</time>
      </trkpt>
      <trkpt lat="39.854290" lon="-5.460380">
        <ele>332.0</ele>
        <time>1970-01-01T00:00:00Z</time>
      </trkpt>
      <trkpt lat="39.854090" lon="-5.460359">
        <ele>332.2</ele>
        <time>1970-01-01T00:00:00Z</time>
      </trkpt>
      <trkpt lat="39.853890" lon="-5.460490">
        <ele>333.0</ele>
        <time>1970-01-01T00:00:00Z</time>
      </trkpt>
      <trkpt lat="39.853670" lon="-5.460529">
        <ele>333.7</ele>
        <time>1970-01-01T00:00:00Z</time>
      </trkpt>
      <trkpt lat="39.853450" lon="-5.460469">
        <ele>333.4</ele>
        <time>1970-01-01T00:00:00Z</time>
      </trkpt>
      <trkpt lat="39.853300" lon="-5.460340">
        <ele>333.7</ele>
        <time>1970-01-01T00:00:00Z</time>
      </trkpt>
      <trkpt lat="39.853170" lon="-5.460099">
        <ele>335.2</ele>
        <time>1970-01-01T00:00:00Z</time>
      </trkpt>
      <trkpt lat="39.853070" lon="-5.459890">
        <ele>335.6</ele>
        <time>1970-01-01T00:00:00Z</time>
      </trkpt>
      <trkpt lat="39.852890" lon="-5.459800">
        <ele>336.0</ele>
        <time>1970-01-01T00:00:00Z</time>
      </trkpt>
      <trkpt lat="39.852750" lon="-5.459959">
        <ele>336.0</ele>
        <time>1970-01-01T00:00:00Z</time>
      </trkpt>
      <trkpt lat="39.852800" lon="-5.460239">
        <ele>336.0</ele>
        <time>1970-01-01T00:00:00Z</time>
      </trkpt>
      <trkpt lat="39.852710" lon="-5.460400">
        <ele>336.0</ele>
        <time>1970-01-01T00:00:00Z</time>
      </trkpt>
      <trkpt lat="39.852550" lon="-5.460529">
        <ele>336.6</ele>
        <time>1970-01-01T00:00:00Z</time>
      </trkpt>
      <trkpt lat="39.852320" lon="-5.460490">
        <ele>336.9</ele>
        <time>1970-01-01T00:00:00Z</time>
      </trkpt>
      <trkpt lat="39.852090" lon="-5.460430">
        <ele>336.4</ele>
        <time>1970-01-01T00:00:00Z</time>
      </trkpt>
      <trkpt lat="39.852003" lon="-5.460761">
        <ele>336.9</ele>
        <time>1970-01-01T00:00:00Z</time>
      </trkpt>
      <trkpt lat="39.851917" lon="-5.460957">
        <ele>337.0</ele>
        <time>1970-01-01T00:00:00Z</time>
      </trkpt>
      <trkpt lat="39.851802" lon="-5.461292">
        <ele>336.0</ele>
        <time>1970-01-01T00:00:00Z</time>
      </trkpt>
      <trkpt lat="39.851607" lon="-5.461577">
        <ele>334.9</ele>
        <time>1970-01-01T00:00:00Z</time>
      </trkpt>
      <trkpt lat="39.851252" lon="-5.461728">
        <ele>332.2</ele>
        <time>1970-01-01T00:00:00Z</time>
      </trkpt>
      <trkpt lat="39.851015" lon="-5.461848">
        <ele>330.3</ele>
        <time>1970-01-01T00:00:00Z</time>
      </trkpt>
      <trkpt lat="39.850888" lon="-5.461937">
        <ele>330.0</ele>
        <time>1970-01-01T00:00:00Z</time>
      </trkpt>
      <trkpt lat="39.850558" lon="-5.462194">
        <ele>327.7</ele>
        <time>1970-01-01T00:00:00Z</time>
      </trkpt>
      <trkpt lat="39.850492" lon="-5.462297">
        <ele>326.9</ele>
        <time>1970-01-01T00:00:00Z</time>
      </trkpt>
      <trkpt lat="39.850193" lon="-5.462426">
        <ele>325.0</ele>
        <time>1970-01-01T00:00:00Z</time>
      </trkpt>
      <trkpt lat="39.850029" lon="-5.462467">
        <ele>323.5</ele>
        <time>1970-01-01T00:00:00Z</time>
      </trkpt>
      <trkpt lat="39.849859" lon="-5.462438">
        <ele>322.6</ele>
        <time>1970-01-01T00:00:00Z</time>
      </trkpt>
      <trkpt lat="39.849752" lon="-5.462387">
        <ele>322.4</ele>
        <time>1970-01-01T00:00:00Z</time>
      </trkpt>
      <trkpt lat="39.849651" lon="-5.462477">
        <ele>322.0</ele>
        <time>1970-01-01T00:00:00Z</time>
      </trkpt>
      <trkpt lat="39.849358" lon="-5.462689">
        <ele>321.0</ele>
        <time>1970-01-01T00:00:00Z</time>
      </trkpt>
      <trkpt lat="39.848445" lon="-5.463264">
        <ele>321.4</ele>
        <time>1970-01-01T00:00:00Z</time>
      </trkpt>
      <trkpt lat="39.847104" lon="-5.464069">
        <ele>317.6</ele>
        <time>1970-01-01T00:00:00Z</time>
      </trkpt>
      <trkpt lat="39.845570" lon="-5.465019">
        <ele>317.0</ele>
        <time>1970-01-01T00:00:00Z</time>
      </trkpt>
      <trkpt lat="39.844785" lon="-5.465494">
        <ele>317.0</ele>
        <time>1970-01-01T00:00:00Z</time>
      </trkpt>
      <trkpt lat="39.844265" lon="-5.465802">
        <ele>316.7</ele>
        <time>1970-01-01T00:00:00Z</time>
      </trkpt>
      <trkpt lat="39.843433" lon="-5.466392">
        <ele>316.8</ele>
        <time>1970-01-01T00:00:00Z</time>
      </trkpt>
      <trkpt lat="39.842509" lon="-5.467037">
        <ele>314.6</ele>
        <time>1970-01-01T00:00:00Z</time>
      </trkpt>
      <trkpt lat="39.841604" lon="-5.467670">
        <ele>316.6</ele>
        <time>1970-01-01T00:00:00Z</time>
      </trkpt>
      <trkpt lat="39.840232" lon="-5.468626">
        <ele>325.7</ele>
        <time>1970-01-01T00:00:00Z</time>
      </trkpt>
      <trkpt lat="39.839427" lon="-5.469205">
        <ele>327.6</ele>
        <time>1970-01-01T00:00:00Z</time>
      </trkpt>
      <trkpt lat="39.837703" lon="-5.470195">
        <ele>328.5</ele>
        <time>1970-01-01T00:00:00Z</time>
      </trkpt>
      <trkpt lat="39.836580" lon="-5.470914">
        <ele>332.4</ele>
        <time>1970-01-01T00:00:00Z</time>
      </trkpt>
      <trkpt lat="39.834957" lon="-5.471814">
        <ele>331.4</ele>
        <time>1970-01-01T00:00:00Z</time>
      </trkpt>
      <trkpt lat="39.836488" lon="-5.473108">
        <ele>331.0</ele>
        <time>1970-01-01T00:00:00Z</time>
      </trkpt>
      <trkpt lat="39.836210" lon="-5.473189">
        <ele>331.0</ele>
        <time>1970-01-01T00:00:00Z</time>
      </trkpt>
      <trkpt lat="39.836030" lon="-5.473219">
        <ele>330.3</ele>
        <time>1970-01-01T00:00:00Z</time>
      </trkpt>
      <trkpt lat="39.835840" lon="-5.473249">
        <ele>329.6</ele>
        <time>1970-01-01T00:00:00Z</time>
      </trkpt>
      <trkpt lat="39.835660" lon="-5.473280">
        <ele>329.1</ele>
        <time>1970-01-01T00:00:00Z</time>
      </trkpt>
      <trkpt lat="39.835480" lon="-5.473320">
        <ele>329.0</ele>
        <time>1970-01-01T00:00:00Z</time>
      </trkpt>
      <trkpt lat="39.835290" lon="-5.473350">
        <ele>328.6</ele>
        <time>1970-01-01T00:00:00Z</time>
      </trkpt>
      <trkpt lat="39.835100" lon="-5.473380">
        <ele>327.8</ele>
        <time>1970-01-01T00:00:00Z</time>
      </trkpt>
      <trkpt lat="39.834910" lon="-5.473419">
        <ele>327.4</ele>
        <time>1970-01-01T00:00:00Z</time>
      </trkpt>
      <trkpt lat="39.834720" lon="-5.473449">
        <ele>327.9</ele>
        <time>1970-01-01T00:00:00Z</time>
      </trkpt>
      <trkpt lat="39.834530" lon="-5.473479">
        <ele>328.7</ele>
        <time>1970-01-01T00:00:00Z</time>
      </trkpt>
      <trkpt lat="39.834330" lon="-5.473510">
        <ele>329.0</ele>
        <time>1970-01-01T00:00:00Z</time>
      </trkpt>
      <trkpt lat="39.834130" lon="-5.473540">
        <ele>329.0</ele>
        <time>1970-01-01T00:00:00Z</time>
      </trkpt>
      <trkpt lat="39.833930" lon="-5.473580">
        <ele>328.6</ele>
        <time>1970-01-01T00:00:00Z</time>
      </trkpt>
      <trkpt lat="39.833720" lon="-5.473610">
        <ele>327.6</ele>
        <time>1970-01-01T00:00:00Z</time>
      </trkpt>
      <trkpt lat="39.833500" lon="-5.473649">
        <ele>326.7</ele>
        <time>1970-01-01T00:00:00Z</time>
      </trkpt>
      <trkpt lat="39.833290" lon="-5.473679">
        <ele>324.9</ele>
        <time>1970-01-01T00:00:00Z</time>
      </trkpt>
      <trkpt lat="39.833070" lon="-5.473720">
        <ele>324.0</ele>
        <time>1970-01-01T00:00:00Z</time>
      </trkpt>
      <trkpt lat="39.832860" lon="-5.473759">
        <ele>324.0</ele>
        <time>1970-01-01T00:00:00Z</time>
      </trkpt>
      <trkpt lat="39.832640" lon="-5.473789">
        <ele>323.2</ele>
        <time>1970-01-01T00:00:00Z</time>
      </trkpt>
      <trkpt lat="39.832430" lon="-5.473830">
        <ele>322.9</ele>
        <time>1970-01-01T00:00:00Z</time>
      </trkpt>
      <trkpt lat="39.832210" lon="-5.473870">
        <ele>322.7</ele>
        <time>1970-01-01T00:00:00Z</time>
      </trkpt>
      <trkpt lat="39.832000" lon="-5.473900">
        <ele>322.5</ele>
        <time>1970-01-01T00:00:00Z</time>
      </trkpt>
      <trkpt lat="39.831790" lon="-5.473939">
        <ele>323.2</ele>
        <time>1970-01-01T00:00:00Z</time>
      </trkpt>
      <trkpt lat="39.831590" lon="-5.473970">
        <ele>324.5</ele>
        <time>1970-01-01T00:00:00Z</time>
      </trkpt>
      <trkpt lat="39.831390" lon="-5.474010">
        <ele>325.1</ele>
        <time>1970-01-01T00:00:00Z</time>
      </trkpt>
      <trkpt lat="39.831190" lon="-5.474040">
        <ele>325.0</ele>
        <time>1970-01-01T00:00:00Z</time>
      </trkpt>
      <trkpt lat="39.830990" lon="-5.474070">
        <ele>325.0</ele>
        <time>1970-01-01T00:00:00Z</time>
      </trkpt>
      <trkpt lat="39.830800" lon="-5.474100">
        <ele>325.0</ele>
        <time>1970-01-01T00:00:00Z</time>
      </trkpt>
      <trkpt lat="39.830620" lon="-5.474130">
        <ele>325.6</ele>
        <time>1970-01-01T00:00:00Z</time>
      </trkpt>
      <trkpt lat="39.830440" lon="-5.474106">
        <ele>326.4</ele>
        <time>1970-01-01T00:00:00Z</time>
      </trkpt>
      <trkpt lat="39.829974" lon="-5.474007">
        <ele>328.4</ele>
        <time>1970-01-01T00:00:00Z</time>
      </trkpt>
      <trkpt lat="39.829335" lon="-5.473984">
        <ele>331.0</ele>
        <time>1970-01-01T00:00:00Z</time>
      </trkpt>
      <trkpt lat="39.829036" lon="-5.474056">
        <ele>331.4</ele>
        <time>1970-01-01T00:00:00Z</time>
      </trkpt>
      <trkpt lat="39.828898" lon="-5.474191">
        <ele>332.0</ele>
        <time>1970-01-01T00:00:00Z</time>
      </trkpt>
      <trkpt lat="39.828785" lon="-5.474420">
        <ele>331.3</ele>
        <time>1970-01-01T00:00:00Z</time>
      </trkpt>
      <trkpt lat="39.828570" lon="-5.474629">
        <ele>330.7</ele>
        <time>1970-01-01T00:00:00Z</time>
      </trkpt>
      <trkpt lat="39.828340" lon="-5.474820">
        <ele>330.2</ele>
        <time>1970-01-01T00:00:00Z</time>
      </trkpt>
      <trkpt lat="39.828130" lon="-5.475059">
        <ele>330.0</ele>
        <time>1970-01-01T00:00:00Z</time>
      </trkpt>
      <trkpt lat="39.827950" lon="-5.475330">
        <ele>328.9</ele>
        <time>1970-01-01T00:00:00Z</time>
      </trkpt>
      <trkpt lat="39.827780" lon="-5.475640">
        <ele>326.2</ele>
        <time>1970-01-01T00:00:00Z</time>
      </trkpt>
      <trkpt lat="39.827600" lon="-5.475970">
        <ele>325.0</ele>
        <time>1970-01-01T00:00:00Z</time>
      </trkpt>
      <trkpt lat="39.827420" lon="-5.476310">
        <ele>325.0</ele>
        <time>1970-01-01T00:00:00Z</time>
      </trkpt>
      <trkpt lat="39.827240" lon="-5.476639">
        <ele>324.9</ele>
        <time>1970-01-01T00:00:00Z</time>
      </trkpt>
      <trkpt lat="39.827070" lon="-5.476940">
        <ele>325.0</ele>
        <time>1970-01-01T00:00:00Z</time>
      </trkpt>
      <trkpt lat="39.826910" lon="-5.477230">
        <ele>325.3</ele>
        <time>1970-01-01T00:00:00Z</time>
      </trkpt>
      <trkpt lat="39.826760" lon="-5.477499">
        <ele>325.7</ele>
        <time>1970-01-01T00:00:00Z</time>
      </trkpt>
      <trkpt lat="39.826600" lon="-5.477750">
        <ele>325.1</ele>
        <time>1970-01-01T00:00:00Z</time>
      </trkpt>
      <trkpt lat="39.826430" lon="-5.477970">
        <ele>323.6</ele>
        <time>1970-01-01T00:00:00Z</time>
      </trkpt>
      <trkpt lat="39.826220" lon="-5.478150">
        <ele>321.8</ele>
        <time>1970-01-01T00:00:00Z</time>
      </trkpt>
      <trkpt lat="39.825980" lon="-5.478309">
        <ele>319.7</ele>
        <time>1970-01-01T00:00:00Z</time>
      </trkpt>
      <trkpt lat="39.825720" lon="-5.478460">
        <ele>318.4</ele>
        <time>1970-01-01T00:00:00Z</time>
      </trkpt>
      <trkpt lat="39.825440" lon="-5.478599">
        <ele>317.8</ele>
        <time>1970-01-01T00:00:00Z</time>
      </trkpt>
      <trkpt lat="39.825140" lon="-5.478750">
        <ele>316.8</ele>
        <time>1970-01-01T00:00:00Z</time>
      </trkpt>
      <trkpt lat="39.824840" lon="-5.478909">
        <ele>317.0</ele>
        <time>1970-01-01T00:00:00Z</time>
      </trkpt>
      <trkpt lat="39.824540" lon="-5.479059">
        <ele>317.0</ele>
        <time>1970-01-01T00:00:00Z</time>
      </trkpt>
      <trkpt lat="39.824260" lon="-5.479210">
        <ele>318.0</ele>
        <time>1970-01-01T00:00:00Z</time>
      </trkpt>
      <trkpt lat="39.824020" lon="-5.479339">
        <ele>318.0</ele>
        <time>1970-01-01T00:00:00Z</time>
      </trkpt>
      <trkpt lat="39.823840" lon="-5.479489">
        <ele>317.4</ele>
        <time>1970-01-01T00:00:00Z</time>
      </trkpt>
      <trkpt lat="39.823193" lon="-5.479757">
        <ele>323.2</ele>
        <time>1970-01-01T00:00:00Z</time>
      </trkpt>
      <trkpt lat="39.822173" lon="-5.480305">
        <ele>329.0</ele>
        <time>1970-01-01T00:00:00Z</time>
      </trkpt>
      <trkpt lat="39.820316" lon="-5.480752">
        <ele>330.8</ele>
        <time>1970-01-01T00:00:00Z</time>
      </trkpt>
      <trkpt lat="39.818055" lon="-5.481247">
        <ele>318.3</ele>
        <time>1970-01-01T00:00:00Z</time>
      </trkpt>
      <trkpt lat="39.817947" lon="-5.481242">
        <ele>318.2</ele>
        <time>1970-01-01T00:00:00Z</time>
      </trkpt>
      <trkpt lat="39.816481" lon="-5.481576">
        <ele>314.0</ele>
        <time>1970-01-01T00:00:00Z</time>
      </trkpt>
      <trkpt lat="39.814835" lon="-5.481901">
        <ele>316.0</ele>
        <time>1970-01-01T00:00:00Z</time>
      </trkpt>
      <trkpt lat="39.812300" lon="-5.482465">
        <ele>320.3</ele>
        <time>1970-01-01T00:00:00Z</time>
      </trkpt>
      <trkpt lat="39.811843" lon="-5.482787">
        <ele>319.3</ele>
        <time>1970-01-01T00:00:00Z</time>
      </trkpt>
      <trkpt lat="39.811315" lon="-5.483446">
        <ele>313.3</ele>
        <time>1970-01-01T00:00:00Z</time>
      </trkpt>
      <trkpt lat="39.810958" lon="-5.483725">
        <ele>308.1</ele>
        <time>1970-01-01T00:00:00Z</time>
      </trkpt>
      <trkpt lat="39.810253" lon="-5.483851">
        <ele>305.1</ele>
        <time>1970-01-01T00:00:00Z</time>
      </trkpt>
      <trkpt lat="39.809123" lon="-5.483589">
        <ele>302.2</ele>
        <time>1970-01-01T00:00:00Z</time>
      </trkpt>
      <trkpt lat="39.807027" lon="-5.483034">
        <ele>303.5</ele>
        <time>1970-01-01T00:00:00Z</time>
      </trkpt>
      <trkpt lat="39.806555" lon="-5.482871">
        <ele>310.4</ele>
        <time>1970-01-01T00:00:00Z</time>
      </trkpt>
      <trkpt lat="39.805838" lon="-5.482841">
        <ele>319.6</ele>
        <time>1970-01-01T00:00:00Z</time>
      </trkpt>
      <trkpt lat="39.805716" lon="-5.482851">
        <ele>319.9</ele>
        <time>1970-01-01T00:00:00Z</time>
      </trkpt>
      <trkpt lat="39.805630" lon="-5.482920">
        <ele>319.6</ele>
        <time>1970-01-01T00:00:00Z</time>
      </trkpt>
      <trkpt lat="39.805432" lon="-5.482986">
        <ele>319.2</ele>
        <time>1970-01-01T00:00:00Z</time>
      </trkpt>
      <trkpt lat="39.805315" lon="-5.483088">
        <ele>318.8</ele>
        <time>1970-01-01T00:00:00Z</time>
      </trkpt>
      <trkpt lat="39.805322" lon="-5.483131">
        <ele>318.6</ele>
        <time>1970-01-01T00:00:00Z</time>
      </trkpt>
      <trkpt lat="39.805307" lon="-5.483272">
        <ele>318.0</ele>
        <time>1970-01-01T00:00:00Z</time>
      </trkpt>
      <trkpt lat="39.805067" lon="-5.483368">
        <ele>317.3</ele>
        <time>1970-01-01T00:00:00Z</time>
      </trkpt>
      <trkpt lat="39.804988" lon="-5.483426">
        <ele>316.8</ele>
        <time>1970-01-01T00:00:00Z</time>
      </trkpt>
      <trkpt lat="39.804992" lon="-5.483425">
        <ele>316.8</ele>
        <time>1970-01-01T00:00:00Z</time>
      </trkpt>
      <trkpt lat="39.804847" lon="-5.483566">
        <ele>316.7</ele>
        <time>1970-01-01T00:00:00Z</time>
      </trkpt>
      <trkpt lat="39.804846" lon="-5.483560">
        <ele>316.7</ele>
        <time>1970-01-01T00:00:00Z</time>
      </trkpt>
      <trkpt lat="39.804714" lon="-5.483614">
        <ele>317.3</ele>
        <time>1970-01-01T00:00:00Z</time>
      </trkpt>
      <trkpt lat="39.804524" lon="-5.483759">
        <ele>318.7</ele>
        <time>1970-01-01T00:00:00Z</time>
      </trkpt>
      <trkpt lat="39.804155" lon="-5.484028">
        <ele>322.1</ele>
        <time>1970-01-01T00:00:00Z</time>
      </trkpt>
      <trkpt lat="39.803542" lon="-5.484457">
        <ele>323.6</ele>
        <time>1970-01-01T00:00:00Z</time>
      </trkpt>
      <trkpt lat="39.802992" lon="-5.484826">
        <ele>324.3</ele>
        <time>1970-01-01T00:00:00Z</time>
      </trkpt>
      <trkpt lat="39.802660" lon="-5.485074">
        <ele>325.1</ele>
        <time>1970-01-01T00:00:00Z</time>
      </trkpt>
      <trkpt lat="39.802634" lon="-5.485102">
        <ele>325.2</ele>
        <time>1970-01-01T00:00:00Z</time>
      </trkpt>
      <trkpt lat="39.802572" lon="-5.485299">
        <ele>326.7</ele>
        <time>1970-01-01T00:00:00Z</time>
      </trkpt>
      <trkpt lat="39.802229" lon="-5.485530">
        <ele>328.2</ele>
        <time>1970-01-01T00:00:00Z</time>
      </trkpt>
      <trkpt lat="39.801930" lon="-5.485740">
        <ele>327.3</ele>
        <time>1970-01-01T00:00:00Z</time>
      </trkpt>
      <trkpt lat="39.801674" lon="-5.485814">
        <ele>325.1</ele>
        <time>1970-01-01T00:00:00Z</time>
      </trkpt>
      <trkpt lat="39.801416" lon="-5.485855">
        <ele>323.4</ele>
        <time>1970-01-01T00:00:00Z</time>
      </trkpt>
      <trkpt lat="39.801168" lon="-5.485735">
        <ele>321.8</ele>
        <time>1970-01-01T00:00:00Z</time>
      </trkpt>
      <trkpt lat="39.800870" lon="-5.485598">
        <ele>319.9</ele>
        <time>1970-01-01T00:00:00Z</time>
      </trkpt>
      <trkpt lat="39.800428" lon="-5.485223">
        <ele>316.4</ele>
        <time>1970-01-01T00:00:00Z</time>
      </trkpt>
      <trkpt lat="39.800097" lon="-5.485007">
        <ele>316.0</ele>
        <time>1970-01-01T00:00:00Z</time>
      </trkpt>
      <trkpt lat="39.799578" lon="-5.484911">
        <ele>315.0</ele>
        <time>1970-01-01T00:00:00Z</time>
      </trkpt>
      <trkpt lat="39.799338" lon="-5.484810">
        <ele>315.4</ele>
        <time>1970-01-01T00:00:00Z</time>
      </trkpt>
      <trkpt lat="39.799155" lon="-5.484712">
        <ele>315.7</ele>
        <time>1970-01-01T00:00:00Z</time>
      </trkpt>
      <trkpt lat="39.798960" lon="-5.484557">
        <ele>315.7</ele>
        <time>1970-01-01T00:00:00Z</time>
      </trkpt>
      <trkpt lat="39.798738" lon="-5.484448">
        <ele>316.0</ele>
        <time>1970-01-01T00:00:00Z</time>
      </trkpt>
      <trkpt lat="39.798531" lon="-5.484483">
        <ele>315.8</ele>
        <time>1970-01-01T00:00:00Z</time>
      </trkpt>
      <trkpt lat="39.798251" lon="-5.484627">
        <ele>314.6</ele>
        <time>1970-01-01T00:00:00Z</time>
      </trkpt>
      <trkpt lat="39.798127" lon="-5.484722">
        <ele>314.0</ele>
        <time>1970-01-01T00:00:00Z</time>
      </trkpt>
      <trkpt lat="39.798050" lon="-5.484788">
        <ele>313.7</ele>
        <time>1970-01-01T00:00:00Z</time>
      </trkpt>
      <trkpt lat="39.797907" lon="-5.484871">
        <ele>313.1</ele>
        <time>1970-01-01T00:00:00Z</time>
      </trkpt>
      <trkpt lat="39.797820" lon="-5.484931">
        <ele>312.5</ele>
        <time>1970-01-01T00:00:00Z</time>
      </trkpt>
      <trkpt lat="39.797771" lon="-5.484963">
        <ele>312.3</ele>
        <time>1970-01-01T00:00:00Z</time>
      </trkpt>
      <trkpt lat="39.797590" lon="-5.484757">
        <ele>310.4</ele>
        <time>1970-01-01T00:00:00Z</time>
      </trkpt>
      <trkpt lat="39.797422" lon="-5.484564">
        <ele>309.0</ele>
        <time>1970-01-01T00:00:00Z</time>
      </trkpt>
      <trkpt lat="39.797272" lon="-5.484486">
        <ele>309.0</ele>
        <time>1970-01-01T00:00:00Z</time>
      </trkpt>
      <trkpt lat="39.797205" lon="-5.484448">
        <ele>309.0</ele>
        <time>1970-01-01T00:00:00Z</time>
      </trkpt>
      <trkpt lat="39.797004" lon="-5.484448">
        <ele>309.0</ele>
        <time>1970-01-01T00:00:00Z</time>
      </trkpt>
      <trkpt lat="39.796909" lon="-5.484444">
        <ele>309.2</ele>
        <time>1970-01-01T00:00:00Z</time>
      </trkpt>
      <trkpt lat="39.796626" lon="-5.484360">
        <ele>310.0</ele>
        <time>1970-01-01T00:00:00Z</time>
      </trkpt>
      <trkpt lat="39.796542" lon="-5.484105">
        <ele>310.0</ele>
        <time>1970-01-01T00:00:00Z</time>
      </trkpt>
      <trkpt lat="39.796526" lon="-5.484067">
        <ele>310.0</ele>
        <time>1970-01-01T00:00:00Z</time>
      </trkpt>
      <trkpt lat="39.796427" lon="-5.483962">
        <ele>310.0</ele>
        <time>1970-01-01T00:00:00Z</time>
      </trkpt>
      <trkpt lat="39.796187" lon="-5.483846">
        <ele>310.7</ele>
        <time>1970-01-01T00:00:00Z</time>
      </trkpt>
      <trkpt lat="39.796164" lon="-5.483837">
        <ele>310.9</ele>
        <time>1970-01-01T00:00:00Z</time>
      </trkpt>
      <trkpt lat="39.795947" lon="-5.484002">
        <ele>312.8</ele>
        <time>1970-01-01T00:00:00Z</time>
      </trkpt>
      <trkpt lat="39.795533" lon="-5.484154">
        <ele>316.4</ele>
        <time>1970-01-01T00:00:00Z</time>
      </trkpt>
      <trkpt lat="39.795342" lon="-5.484226">
        <ele>318.0</ele>
        <time>1970-01-01T00:00:00Z</time>
      </trkpt>
      <trkpt lat="39.795128" lon="-5.484217">
        <ele>319.8</ele>
        <time>1970-01-01T00:00:00Z</time>
      </trkpt>
      <trkpt lat="39.794698" lon="-5.484012">
        <ele>322.6</ele>
        <time>1970-01-01T00:00:00Z</time>
      </trkpt>
      <trkpt lat="39.794265" lon="-5.483755">
        <ele>324.0</ele>
        <time>1970-01-01T00:00:00Z</time>
      </trkpt>
      <trkpt lat="39.793963" lon="-5.483521">
        <ele>324.9</ele>
        <time>1970-01-01T00:00:00Z</time>
      </trkpt>
      <trkpt lat="39.793875" lon="-5.483401">
        <ele>325.2</ele>
        <time>1970-01-01T00:00:00Z</time>
      </trkpt>
      <trkpt lat="39.793788" lon="-5.483301">
        <ele>325.2</ele>
        <time>1970-01-01T00:00:00Z</time>
      </trkpt>
      <trkpt lat="39.793664" lon="-5.483195">
        <ele>325.1</ele>
        <time>1970-01-01T00:00:00Z</time>
      </trkpt>
      <trkpt lat="39.793534" lon="-5.483122">
        <ele>324.9</ele>
        <time>1970-01-01T00:00:00Z</time>
      </trkpt>
      <trkpt lat="39.793477" lon="-5.483102">
        <ele>324.7</ele>
        <time>1970-01-01T00:00:00Z</time>
      </trkpt>
      <trkpt lat="39.793262" lon="-5.483081">
        <ele>323.9</ele>
        <time>1970-01-01T00:00:00Z</time>
      </trkpt>
      <trkpt lat="39.793214" lon="-5.483271">
        <ele>322.9</ele>
        <time>1970-01-01T00:00:00Z</time>
      </trkpt>
      <trkpt lat="39.793169" lon="-5.483376">
        <ele>322.4</ele>
        <time>1970-01-01T00:00:00Z</time>
      </trkpt>
      <trkpt lat="39.793130" lon="-5.483480">
        <ele>322.1</ele>
        <time>1970-01-01T00:00:00Z</time>
      </trkpt>
      <trkpt lat="39.793104" lon="-5.483652">
        <ele>322.0</ele>
        <time>1970-01-01T00:00:00Z</time>
      </trkpt>
      <trkpt lat="39.792887" lon="-5.483740">
        <ele>321.4</ele>
        <time>1970-01-01T00:00:00Z</time>
      </trkpt>
      <trkpt lat="39.792809" lon="-5.483747">
        <ele>321.1</ele>
        <time>1970-01-01T00:00:00Z</time>
      </trkpt>
      <trkpt lat="39.792759" lon="-5.483759">
        <ele>320.8</ele>
        <time>1970-01-01T00:00:00Z</time>
      </trkpt>
      <trkpt lat="39.792690" lon="-5.483774">
        <ele>320.5</ele>
        <time>1970-01-01T00:00:00Z</time>
      </trkpt>
      <trkpt lat="39.792650" lon="-5.483774">
        <ele>320.4</ele>
        <time>1970-01-01T00:00:00Z</time>
      </trkpt>
      <trkpt lat="39.792373" lon="-5.483993">
        <ele>319.9</ele>
        <time>1970-01-01T00:00:00Z</time>
      </trkpt>
      <trkpt lat="39.792084" lon="-5.484098">
        <ele>317.9</ele>
        <time>1970-01-01T00:00:00Z</time>
      </trkpt>
      <trkpt lat="39.792035" lon="-5.484096">
        <ele>317.6</ele>
        <time>1970-01-01T00:00:00Z</time>
      </trkpt>
      <trkpt lat="39.792132" lon="-5.484057">
        <ele>318.2</ele>
        <time>1970-01-01T00:00:00Z</time>
      </trkpt>
      <trkpt lat="39.792034" lon="-5.484082">
        <ele>317.6</ele>
        <time>1970-01-01T00:00:00Z</time>
      </trkpt>
      <trkpt lat="39.792021" lon="-5.484099">
        <ele>317.5</ele>
        <time>1970-01-01T00:00:00Z</time>
      </trkpt>
      <trkpt lat="39.791732" lon="-5.484164">
        <ele>315.6</ele>
        <time>1970-01-01T00:00:00Z</time>
      </trkpt>
      <trkpt lat="39.791118" lon="-5.484157">
        <ele>313.8</ele>
        <time>1970-01-01T00:00:00Z</time>
      </trkpt>
      <trkpt lat="39.790922" lon="-5.484062">
        <ele>313.5</ele>
        <time>1970-01-01T00:00:00Z</time>
      </trkpt>
      <trkpt lat="39.790756" lon="-5.483929">
        <ele>313.4</ele>
        <time>1970-01-01T00:00:00Z</time>
      </trkpt>
      <trkpt lat="39.790617" lon="-5.483820">
        <ele>313.3</ele>
        <time>1970-01-01T00:00:00Z</time>
      </trkpt>
      <trkpt lat="39.790565" lon="-5.483795">
        <ele>313.2</ele>
        <time>1970-01-01T00:00:00Z</time>
      </trkpt>
      <trkpt lat="39.790473" lon="-5.483760">
        <ele>312.9</ele>
        <time>1970-01-01T00:00:00Z</time>
      </trkpt>
      <trkpt lat="39.790468" lon="-5.483745">
        <ele>312.9</ele>
        <time>1970-01-01T00:00:00Z</time>
      </trkpt>
      <trkpt lat="39.790200" lon="-5.483502">
        <ele>313.0</ele>
        <time>1970-01-01T00:00:00Z</time>
      </trkpt>
      <trkpt lat="39.790193" lon="-5.483506">
        <ele>313.0</ele>
        <time>1970-01-01T00:00:00Z</time>
      </trkpt>
      <trkpt lat="39.789938" lon="-5.483554">
        <ele>312.8</ele>
        <time>1970-01-01T00:00:00Z</time>
      </trkpt>
      <trkpt lat="39.789708" lon="-5.483666">
        <ele>312.3</ele>
        <time>1970-01-01T00:00:00Z</time>
      </trkpt>
      <trkpt lat="39.789563" lon="-5.483652">
        <ele>312.4</ele>
        <time>1970-01-01T00:00:00Z</time>
      </trkpt>
      <trkpt lat="39.789283" lon="-5.483688">
        <ele>314.3</ele>
        <time>1970-01-01T00:00:00Z</time>
      </trkpt>
      <trkpt lat="39.789250" lon="-5.483677">
        <ele>314.6</ele>
        <time>1970-01-01T00:00:00Z</time>
      </trkpt>
      <trkpt lat="39.788931" lon="-5.483660">
        <ele>317.4</ele>
        <time>1970-01-01T00:00:00Z</time>
      </trkpt>
      <trkpt lat="39.788831" lon="-5.483671">
        <ele>318.4</ele>
        <time>1970-01-01T00:00:00Z</time>
      </trkpt>
      <trkpt lat="39.788657" lon="-5.483675">
        <ele>320.6</ele>
        <time>1970-01-01T00:00:00Z</time>
      </trkpt>
      <trkpt lat="39.788504" lon="-5.483621">
        <ele>322.1</ele>
        <time>1970-01-01T00:00:00Z</time>
      </trkpt>
      <trkpt lat="39.788362" lon="-5.483541">
        <ele>323.5</ele>
        <time>1970-01-01T00:00:00Z</time>
      </trkpt>
      <trkpt lat="39.788272" lon="-5.483514">
        <ele>324.6</ele>
        <time>1970-01-01T00:00:00Z</time>
      </trkpt>
      <trkpt lat="39.788007" lon="-5.483496">
        <ele>327.9</ele>
        <time>1970-01-01T00:00:00Z</time>
      </trkpt>
      <trkpt lat="39.787794" lon="-5.483520">
        <ele>330.8</ele>
        <time>1970-01-01T00:00:00Z</time>
      </trkpt>
      <trkpt lat="39.787657" lon="-5.483528">
        <ele>332.4</ele>
        <time>1970-01-01T00:00:00Z</time>
      </trkpt>
      <trkpt lat="39.787497" lon="-5.483559">
        <ele>334.0</ele>
        <time>1970-01-01T00:00:00Z</time>
      </trkpt>
      <trkpt lat="39.787310" lon="-5.483636">
        <ele>335.6</ele>
        <time>1970-01-01T00:00:00Z</time>
      </trkpt>
      <trkpt lat="39.787007" lon="-5.483823">
        <ele>338.0</ele>
        <time>1970-01-01T00:00:00Z</time>
      </trkpt>
    </trkseg>
    <trkseg>
      <trkpt lat="39.787053" lon="-5.483787">
        <ele>337.6</ele>
        <time>1970-01-01T00:00:00Z</time>
      </trkpt>
      <trkpt lat="39.786912" lon="-5.483851">
        <ele>338.2</ele>
        <time>1970-01-01T00:00:00Z</time>
      </trkpt>
      <trkpt lat="39.786048" lon="-5.483826">
        <ele>345.1</ele>
        <time>1970-01-01T00:00:00Z</time>
      </trkpt>
      <trkpt lat="39.785864" lon="-5.484018">
        <ele>345.9</ele>
        <time>1970-01-01T00:00:00Z</time>
      </trkpt>
      <trkpt lat="39.785714" lon="-5.483850">
        <ele>346.9</ele>
        <time>1970-01-01T00:00:00Z</time>
      </trkpt>
      <trkpt lat="39.785641" lon="-5.483866">
        <ele>347.4</ele>
        <time>1970-01-01T00:00:00Z</time>
      </trkpt>
      <trkpt lat="39.785622" lon="-5.483844">
        <ele>347.4</ele>
        <time>1970-01-01T00:00:00Z</time>
      </trkpt>
      <trkpt lat="39.785539" lon="-5.483854">
        <ele>347.8</ele>
        <time>1970-01-01T00:00:00Z</time>
      </trkpt>
      <trkpt lat="39.785471" lon="-5.483847">
        <ele>348.1</ele>
        <time>1970-01-01T00:00:00Z</time>
      </trkpt>
      <trkpt lat="39.785355" lon="-5.483790">
        <ele>348.2</ele>
        <time>1970-01-01T00:00:00Z</time>
      </trkpt>
      <trkpt lat="39.785256" lon="-5.483771">
        <ele>348.1</ele>
        <time>1970-01-01T00:00:00Z</time>
      </trkpt>
      <trkpt lat="39.784965" lon="-5.483666">
        <ele>347.4</ele>
        <time>1970-01-01T00:00:00Z</time>
      </trkpt>
      <trkpt lat="39.784652" lon="-5.483590">
        <ele>345.6</ele>
        <time>1970-01-01T00:00:00Z</time>
      </trkpt>
      <trkpt lat="39.784435" lon="-5.483663">
        <ele>346.2</ele>
        <time>1970-01-01T00:00:00Z</time>
      </trkpt>
      <trkpt lat="39.784381" lon="-5.483661">
        <ele>346.0</ele>
        <time>1970-01-01T00:00:00Z</time>
      </trkpt>
      <trkpt lat="39.784349" lon="-5.483654">
        <ele>345.9</ele>
        <time>1970-01-01T00:00:00Z</time>
      </trkpt>
      <trkpt lat="39.784251" lon="-5.483621">
        <ele>345.5</ele>
        <time>1970-01-01T00:00:00Z</time>
      </trkpt>
      <trkpt lat="39.784242" lon="-5.483411">
        <ele>344.6</ele>
        <time>1970-01-01T00:00:00Z</time>
      </trkpt>
      <trkpt lat="39.784243" lon="-5.483149">
        <ele>342.8</ele>
        <time>1970-01-01T00:00:00Z</time>
      </trkpt>
      <trkpt lat="39.784357" lon="-5.482896">
        <ele>341.3</ele>
        <time>1970-01-01T00:00:00Z</time>
      </trkpt>
      <trkpt lat="39.784415" lon="-5.482704">
        <ele>340.5</ele>
        <time>1970-01-01T00:00:00Z</time>
      </trkpt>
      <trkpt lat="39.784403" lon="-5.482581">
        <ele>339.9</ele>
        <time>1970-01-01T00:00:00Z</time>
      </trkpt>
      <trkpt lat="39.784267" lon="-5.482500">
        <ele>339.9</ele>
        <time>1970-01-01T00:00:00Z</time>
      </trkpt>
      <trkpt lat="39.783989" lon="-5.482298">
        <ele>341.1</ele>
        <time>1970-01-01T00:00:00Z</time>
      </trkpt>
      <trkpt lat="39.783927" lon="-5.482244">
        <ele>341.6</ele>
        <time>1970-01-01T00:00:00Z</time>
      </trkpt>
      <trkpt lat="39.783725" lon="-5.482043">
        <ele>343.0</ele>
        <time>1970-01-01T00:00:00Z</time>
      </trkpt>
      <trkpt lat="39.783268" lon="-5.481549">
        <ele>344.6</ele>
        <time>1970-01-01T00:00:00Z</time>
      </trkpt>
      <trkpt lat="39.782686" lon="-5.480763">
        <ele>342.1</ele>
        <time>1970-01-01T00:00:00Z</time>
      </trkpt>
      <trkpt lat="39.782249" lon="-5.480122">
        <ele>338.9</ele>
        <time>1970-01-01T00:00:00Z</time>
      </trkpt>
      <trkpt lat="39.782077" lon="-5.480169">
        <ele>338.9</ele>
        <time>1970-01-01T00:00:00Z</time>
      </trkpt>
      <trkpt lat="39.781893" lon="-5.479514">
        <ele>336.7</ele>
        <time>1970-01-01T00:00:00Z</time>
      </trkpt>
      <trkpt lat="39.781776" lon="-5.478938">
        <ele>335.1</ele>
        <time>1970-01-01T00:00:00Z</time>
      </trkpt>
      <trkpt lat="39.781664" lon="-5.478631">
        <ele>335.0</ele>
        <time>1970-01-01T00:00:00Z</time>
      </trkpt>
      <trkpt lat="39.781624" lon="-5.478617">
        <ele>335.0</ele>
        <time>1970-01-01T00:00:00Z</time>
      </trkpt>
      <trkpt lat="39.781502" lon="-5.478637">
        <ele>335.0</ele>
        <time>1970-01-01T00:00:00Z</time>
      </trkpt>
      <trkpt lat="39.780908" lon="-5.478795">
        <ele>335.2</ele>
        <time>1970-01-01T00:00:00Z</time>
      </trkpt>
      <trkpt lat="39.780647" lon="-5.478804">
        <ele>336.1</ele>
        <time>1970-01-01T00:00:00Z</time>
      </trkpt>
      <trkpt lat="39.780181" lon="-5.478700">
        <ele>337.7</ele>
        <time>1970-01-01T00:00:00Z</time>
      </trkpt>
      <trkpt lat="39.779127" lon="-5.478259">
        <ele>341.0</ele>
        <time>1970-01-01T00:00:00Z</time>
      </trkpt>
      <trkpt lat="39.777835" lon="-5.477804">
        <ele>343.8</ele>
        <time>1970-01-01T00:00:00Z</time>
      </trkpt>
      <trkpt lat="39.777243" lon="-5.477725">
        <ele>346.2</ele>
        <time>1970-01-01T00:00:00Z</time>
      </trkpt>
      <trkpt lat="39.776905" lon="-5.477724">
        <ele>348.3</ele>
        <time>1970-01-01T00:00:00Z</time>
      </trkpt>
      <trkpt lat="39.776801" lon="-5.477709">
        <ele>349.2</ele>
        <time>1970-01-01T00:00:00Z</time>
      </trkpt>
      <trkpt lat="39.776742" lon="-5.477771">
        <ele>349.7</ele>
        <time>1970-01-01T00:00:00Z</time>
      </trkpt>
      <trkpt lat="39.775096" lon="-5.478255">
        <ele>356.2</ele>
        <time>1970-01-01T00:00:00Z</time>
      </trkpt>
      <trkpt lat="39.774410" lon="-5.478539">
        <ele>359.1</ele>
        <time>1970-01-01T00:00:00Z</time>
      </trkpt>
      <trkpt lat="39.773761" lon="-5.479386">
        <ele>363.9</ele>
        <time>1970-01-01T00:00:00Z</time>
      </trkpt>
      <trkpt lat="39.773257" lon="-5.480016">
        <ele>366.8</ele>
        <time>1970-01-01T00:00:00Z</time>
      </trkpt>
      <trkpt lat="39.772682" lon="-5.480567">
        <ele>365.8</ele>
        <time>1970-01-01T00:00:00Z</time>
      </trkpt>
      <trkpt lat="39.772402" lon="-5.479956">
        <ele>356.0</ele>
        <time>1970-01-01T00:00:00Z</time>
      </trkpt>
    </trkseg>
    <trkseg>
      <trkpt lat="39.772369" lon="-5.479838">
        <ele>354.5</ele>
        <time>1970-01-01T00:00:00Z</time>
      </trkpt>
      <trkpt lat="39.772229" lon="-5.479833">
        <ele>352.6</ele>
        <time>1970-01-01T00:00:00Z</time>
      </trkpt>
      <trkpt lat="39.772077" lon="-5.479810">
        <ele>351.0</ele>
        <time>1970-01-01T00:00:00Z</time>
      </trkpt>
      <trkpt lat="39.771902" lon="-5.479755">
        <ele>349.7</ele>
        <time>1970-01-01T00:00:00Z</time>
      </trkpt>
      <trkpt lat="39.771391" lon="-5.479553">
        <ele>346.5</ele>
        <time>1970-01-01T00:00:00Z</time>
      </trkpt>
      <trkpt lat="39.771042" lon="-5.479555">
        <ele>345.1</ele>
        <time>1970-01-01T00:00:00Z</time>
      </trkpt>
      <trkpt lat="39.770795" lon="-5.479505">
        <ele>345.4</ele>
        <time>1970-01-01T00:00:00Z</time>
      </trkpt>
      <trkpt lat="39.770716" lon="-5.479459">
        <ele>345.7</ele>
        <time>1970-01-01T00:00:00Z</time>
      </trkpt>
      <trkpt lat="39.770644" lon="-5.479405">
        <ele>345.9</ele>
        <time>1970-01-01T00:00:00Z</time>
      </trkpt>
      <trkpt lat="39.770298" lon="-5.479073">
        <ele>348.4</ele>
        <time>1970-01-01T00:00:00Z</time>
      </trkpt>
      <trkpt lat="39.770061" lon="-5.478945">
        <ele>350.5</ele>
        <time>1970-01-01T00:00:00Z</time>
      </trkpt>
      <trkpt lat="39.769885" lon="-5.478723">
        <ele>352.4</ele>
        <time>1970-01-01T00:00:00Z</time>
      </trkpt>
      <trkpt lat="39.769852" lon="-5.478672">
        <ele>352.9</ele>
        <time>1970-01-01T00:00:00Z</time>
      </trkpt>
      <trkpt lat="39.769815" lon="-5.478617">
        <ele>353.2</ele>
        <time>1970-01-01T00:00:00Z</time>
      </trkpt>
      <trkpt lat="39.769526" lon="-5.478491">
        <ele>354.6</ele>
        <time>1970-01-01T00:00:00Z</time>
      </trkpt>
      <trkpt lat="39.769468" lon="-5.478517">
        <ele>354.5</ele>
        <time>1970-01-01T00:00:00Z</time>
      </trkpt>
      <trkpt lat="39.769124" lon="-5.478658">
        <ele>354.3</ele>
        <time>1970-01-01T00:00:00Z</time>
      </trkpt>
      <trkpt lat="39.768670" lon="-5.478655">
        <ele>356.0</ele>
        <time>1970-01-01T00:00:00Z</time>
      </trkpt>
      <trkpt lat="39.768316" lon="-5.478596">
        <ele>356.0</ele>
        <time>1970-01-01T00:00:00Z</time>
      </trkpt>
      <trkpt lat="39.768137" lon="-5.478590">
        <ele>356.4</ele>
        <time>1970-01-01T00:00:00Z</time>
      </trkpt>
      <trkpt lat="39.767797" lon="-5.478386">
        <ele>357.2</ele>
        <time>1970-01-01T00:00:00Z</time>
      </trkpt>
      <trkpt lat="39.767515" lon="-5.478210">
        <ele>358.2</ele>
        <time>1970-01-01T00:00:00Z</time>
      </trkpt>
      <trkpt lat="39.767289" lon="-5.478020">
        <ele>359.6</ele>
        <time>1970-01-01T00:00:00Z</time>
      </trkpt>
      <trkpt lat="39.766859" lon="-5.477824">
        <ele>358.6</ele>
        <time>1970-01-01T00:00:00Z</time>
      </trkpt>
      <trkpt lat="39.766362" lon="-5.477638">
        <ele>358.3</ele>
        <time>1970-01-01T00:00:00Z</time>
      </trkpt>
      <trkpt lat="39.765948" lon="-5.477354">
        <ele>358.6</ele>
        <time>1970-01-01T00:00:00Z</time>
      </trkpt>
      <trkpt lat="39.765583" lon="-5.477144">
        <ele>361.6</ele>
        <time>1970-01-01T00:00:00Z</time>
      </trkpt>
      <trkpt lat="39.765028" lon="-5.476809">
        <ele>364.0</ele>
        <time>1970-01-01T00:00:00Z</time>
      </trkpt>
      <trkpt lat="39.764895" lon="-5.476754">
        <ele>364.8</ele>
        <time>1970-01-01T00:00:00Z</time>
      </trkpt>
      <trkpt lat="39.764681" lon="-5.476569">
        <ele>366.0</ele>
        <time>1970-01-01T00:00:00Z</time>
      </trkpt>
      <trkpt lat="39.764524" lon="-5.476386">
        <ele>367.0</ele>
        <time>1970-01-01T00:00:00Z</time>
      </trkpt>
      <trkpt lat="39.764484" lon="-5.476303">
        <ele>367.6</ele>
        <time>1970-01-01T00:00:00Z</time>
      </trkpt>
      <trkpt lat="39.764461" lon="-5.476270">
        <ele>367.9</ele>
        <time>1970-01-01T00:00:00Z</time>
      </trkpt>
      <trkpt lat="39.764267" lon="-5.476053">
        <ele>369.9</ele>
        <time>1970-01-01T00:00:00Z</time>
      </trkpt>
      <trkpt lat="39.764169" lon="-5.475998">
        <ele>370.8</ele>
        <time>1970-01-01T00:00:00Z</time>
      </trkpt>
      <trkpt lat="39.763818" lon="-5.475805">
        <ele>373.6</ele>
        <time>1970-01-01T00:00:00Z</time>
      </trkpt>
      <trkpt lat="39.763679" lon="-5.475706">
        <ele>374.7</ele>
        <time>1970-01-01T00:00:00Z</time>
      </trkpt>
      <trkpt lat="39.763339" lon="-5.475624">
        <ele>376.4</ele>
        <time>1970-01-01T00:00:00Z</time>
      </trkpt>
      <trkpt lat="39.762813" lon="-5.475531">
        <ele>380.3</ele>
        <time>1970-01-01T00:00:00Z</time>
      </trkpt>
      <trkpt lat="39.762546" lon="-5.475644">
        <ele>382.4</ele>
        <time>1970-01-01T00:00:00Z</time>
      </trkpt>
      <trkpt lat="39.762305" lon="-5.475845">
        <ele>384.3</ele>
        <time>1970-01-01T00:00:00Z</time>
      </trkpt>
      <trkpt lat="39.762085" lon="-5.475787">
        <ele>385.5</ele>
        <time>1970-01-01T00:00:00Z</time>
      </trkpt>
      <trkpt lat="39.761853" lon="-5.475574">
        <ele>386.4</ele>
        <time>1970-01-01T00:00:00Z</time>
      </trkpt>
      <trkpt lat="39.761530" lon="-5.475307">
        <ele>385.5</ele>
        <time>1970-01-01T00:00:00Z</time>
      </trkpt>
      <trkpt lat="39.761242" lon="-5.475105">
        <ele>385.3</ele>
        <time>1970-01-01T00:00:00Z</time>
      </trkpt>
      <trkpt lat="39.761007" lon="-5.475046">
        <ele>386.0</ele>
        <time>1970-01-01T00:00:00Z</time>
      </trkpt>
      <trkpt lat="39.760817" lon="-5.474965">
        <ele>386.2</ele>
        <time>1970-01-01T00:00:00Z</time>
      </trkpt>
      <trkpt lat="39.760384" lon="-5.474731">
        <ele>388.0</ele>
        <time>1970-01-01T00:00:00Z</time>
      </trkpt>
      <trkpt lat="39.760241" lon="-5.474680">
        <ele>388.8</ele>
        <time>1970-01-01T00:00:00Z</time>
      </trkpt>
      <trkpt lat="39.760048" lon="-5.474594">
        <ele>389.8</ele>
        <time>1970-01-01T00:00:00Z</time>
      </trkpt>
      <trkpt lat="39.759911" lon="-5.474524">
        <ele>390.0</ele>
        <time>1970-01-01T00:00:00Z</time>
      </trkpt>
      <trkpt lat="39.759644" lon="-5.474354">
        <ele>390.0</ele>
        <time>1970-01-01T00:00:00Z</time>
      </trkpt>
      <trkpt lat="39.759174" lon="-5.474099">
        <ele>389.9</ele>
        <time>1970-01-01T00:00:00Z</time>
      </trkpt>
      <trkpt lat="39.758781" lon="-5.473761">
        <ele>390.0</ele>
        <time>1970-01-01T00:00:00Z</time>
      </trkpt>
      <trkpt lat="39.758738" lon="-5.473722">
        <ele>390.0</ele>
        <time>1970-01-01T00:00:00Z</time>
      </trkpt>
      <trkpt lat="39.758494" lon="-5.473542">
        <ele>390.0</ele>
        <time>1970-01-01T00:00:00Z</time>
      </trkpt>
      <trkpt lat="39.758413" lon="-5.473502">
        <ele>390.0</ele>
        <time>1970-01-01T00:00:00Z</time>
      </trkpt>
      <trkpt lat="39.757916" lon="-5.473286">
        <ele>391.0</ele>
        <time>1970-01-01T00:00:00Z</time>
      </trkpt>
      <trkpt lat="39.757540" lon="-5.473118">
        <ele>390.6</ele>
        <time>1970-01-01T00:00:00Z</time>
      </trkpt>
      <trkpt lat="39.757363" lon="-5.472997">
        <ele>390.8</ele>
        <time>1970-01-01T00:00:00Z</time>
      </trkpt>
      <trkpt lat="39.757169" lon="-5.472807">
        <ele>391.6</ele>
        <time>1970-01-01T00:00:00Z</time>
      </trkpt>
      <trkpt lat="39.757070" lon="-5.472716">
        <ele>392.1</ele>
        <time>1970-01-01T00:00:00Z</time>
      </trkpt>
      <trkpt lat="39.756617" lon="-5.472269">
        <ele>393.6</ele>
        <time>1970-01-01T00:00:00Z</time>
      </trkpt>
      <trkpt lat="39.756398" lon="-5.472067">
        <ele>394.5</ele>
        <time>1970-01-01T00:00:00Z</time>
      </trkpt>
      <trkpt lat="39.756159" lon="-5.471807">
        <ele>395.3</ele>
        <time>1970-01-01T00:00:00Z</time>
      </trkpt>
      <trkpt lat="39.755972" lon="-5.471690">
        <ele>395.0</ele>
        <time>1970-01-01T00:00:00Z</time>
      </trkpt>
      <trkpt lat="39.755606" lon="-5.471492">
        <ele>394.3</ele>
        <time>1970-01-01T00:00:00Z</time>
      </trkpt>
      <trkpt lat="39.755438" lon="-5.471302">
        <ele>394.5</ele>
        <time>1970-01-01T00:00:00Z</time>
      </trkpt>
      <trkpt lat="39.755302" lon="-5.470999">
        <ele>394.0</ele>
        <time>1970-01-01T00:00:00Z</time>
      </trkpt>
      <trkpt lat="39.755095" lon="-5.470364">
        <ele>393.1</ele>
        <time>1970-01-01T00:00:00Z</time>
      </trkpt>
      <trkpt lat="39.755076" lon="-5.470295">
        <ele>393.0</ele>
        <time>1970-01-01T00:00:00Z</time>
      </trkpt>
      <trkpt lat="39.754932" lon="-5.470051">
        <ele>393.0</ele>
        <time>1970-01-01T00:00:00Z</time>
      </trkpt>
      <trkpt lat="39.754852" lon="-5.469822">
        <ele>393.2</ele>
        <time>1970-01-01T00:00:00Z</time>
      </trkpt>
      <trkpt lat="39.754760" lon="-5.469574">
        <ele>394.0</ele>
        <time>1970-01-01T00:00:00Z</time>
      </trkpt>
      <trkpt lat="39.754656" lon="-5.469415">
        <ele>394.0</ele>
        <time>1970-01-01T00:00:00Z</time>
      </trkpt>
      <trkpt lat="39.754566" lon="-5.469193">
        <ele>394.3</ele>
        <time>1970-01-01T00:00:00Z</time>
      </trkpt>
      <trkpt lat="39.754520" lon="-5.469072">
        <ele>394.7</ele>
        <time>1970-01-01T00:00:00Z</time>
      </trkpt>
      <trkpt lat="39.754270" lon="-5.468612">
        <ele>396.4</ele>
        <time>1970-01-01T00:00:00Z</time>
      </trkpt>
      <trkpt lat="39.754064" lon="-5.468157">
        <ele>396.9</ele>
        <time>1970-01-01T00:00:00Z</time>
      </trkpt>
      <trkpt lat="39.753874" lon="-5.467706">
        <ele>395.0</ele>
        <time>1970-01-01T00:00:00Z</time>
      </trkpt>
      <trkpt lat="39.753840" lon="-5.467645">
        <ele>394.8</ele>
        <time>1970-01-01T00:00:00Z</time>
      </trkpt>
      <trkpt lat="39.753651" lon="-5.467404">
        <ele>393.3</ele>
        <time>1970-01-01T00:00:00Z</time>
      </trkpt>
      <trkpt lat="39.753461" lon="-5.467306">
        <ele>392.0</ele>
        <time>1970-01-01T00:00:00Z</time>
      </trkpt>
      <trkpt lat="39.753430" lon="-5.467313">
        <ele>391.9</ele>
        <time>1970-01-01T00:00:00Z</time>
      </trkpt>
      <trkpt lat="39.753115" lon="-5.467340">
        <ele>391.2</ele>
        <time>1970-01-01T00:00:00Z</time>
      </trkpt>
      <trkpt lat="39.752773" lon="-5.467360">
        <ele>392.5</ele>
        <time>1970-01-01T00:00:00Z</time>
      </trkpt>
      <trkpt lat="39.752647" lon="-5.467372">
        <ele>393.2</ele>
        <time>1970-01-01T00:00:00Z</time>
      </trkpt>
      <trkpt lat="39.752326" lon="-5.467571">
        <ele>396.4</ele>
        <time>1970-01-01T00:00:00Z</time>
      </trkpt>
      <trkpt lat="39.752252" lon="-5.467600">
        <ele>396.9</ele>
        <time>1970-01-01T00:00:00Z</time>
      </trkpt>
      <trkpt lat="39.751998" lon="-5.467708">
        <ele>399.4</ele>
        <time>1970-01-01T00:00:00Z</time>
      </trkpt>
      <trkpt lat="39.751893" lon="-5.467800">
        <ele>401.0</ele>
        <time>1970-01-01T00:00:00Z</time>
      </trkpt>
      <trkpt lat="39.751799" lon="-5.467773">
        <ele>401.1</ele>
        <time>1970-01-01T00:00:00Z</time>
      </trkpt>
      <trkpt lat="39.751688" lon="-5.467723">
        <ele>400.8</ele>
        <time>1970-01-01T00:00:00Z</time>
      </trkpt>
      <trkpt lat="39.751560" lon="-5.467659">
        <ele>400.1</ele>
        <time>1970-01-01T00:00:00Z</time>
      </trkpt>
      <trkpt lat="39.751425" lon="-5.467556">
        <ele>398.9</ele>
        <time>1970-01-01T00:00:00Z</time>
      </trkpt>
      <trkpt lat="39.751291" lon="-5.467477">
        <ele>398.1</ele>
        <time>1970-01-01T00:00:00Z</time>
      </trkpt>
      <trkpt lat="39.750898" lon="-5.467365">
        <ele>397.7</ele>
        <time>1970-01-01T00:00:00Z</time>
      </trkpt>
      <trkpt lat="39.750673" lon="-5.467307">
        <ele>396.9</ele>
        <time>1970-01-01T00:00:00Z</time>
      </trkpt>
      <trkpt lat="39.750505" lon="-5.467252">
        <ele>396.9</ele>
        <time>1970-01-01T00:00:00Z</time>
      </trkpt>
      <trkpt lat="39.750347" lon="-5.467174">
        <ele>396.6</ele>
        <time>1970-01-01T00:00:00Z</time>
      </trkpt>
      <trkpt lat="39.750172" lon="-5.467063">
        <ele>395.6</ele>
        <time>1970-01-01T00:00:00Z</time>
      </trkpt>
      <trkpt lat="39.750006" lon="-5.466942">
        <ele>393.9</ele>
        <time>1970-01-01T00:00:00Z</time>
      </trkpt>
      <trkpt lat="39.749797" lon="-5.466836">
        <ele>393.6</ele>
        <time>1970-01-01T00:00:00Z</time>
      </trkpt>
      <trkpt lat="39.749294" lon="-5.466845">
        <ele>394.9</ele>
        <time>1970-01-01T00:00:00Z</time>
      </trkpt>
      <trkpt lat="39.748961" lon="-5.466812">
        <ele>396.1</ele>
        <time>1970-01-01T00:00:00Z</time>
      </trkpt>
      <trkpt lat="39.748800" lon="-5.466768">
        <ele>396.4</ele>
        <time>1970-01-01T00:00:00Z</time>
      </trkpt>
      <trkpt lat="39.748622" lon="-5.466640">
        <ele>396.0</ele>
        <time>1970-01-01T00:00:00Z</time>
      </trkpt>
      <trkpt lat="39.748568" lon="-5.466538">
        <ele>395.7</ele>
        <time>1970-01-01T00:00:00Z</time>
      </trkpt>
      <trkpt lat="39.748558" lon="-5.466177">
        <ele>394.2</ele>
        <time>1970-01-01T00:00:00Z</time>
      </trkpt>
      <trkpt lat="39.748649" lon="-5.465735">
        <ele>396.1</ele>
        <time>1970-01-01T00:00:00Z</time>
      </trkpt>
      <trkpt lat="39.748646" lon="-5.465455">
        <ele>397.5</ele>
        <time>1970-01-01T00:00:00Z</time>
      </trkpt>
      <trkpt lat="39.748761" lon="-5.465297">
        <ele>397.9</ele>
        <time>1970-01-01T00:00:00Z</time>
      </trkpt>
      <trkpt lat="39.748827" lon="-5.465216">
        <ele>398.0</ele>
        <time>1970-01-01T00:00:00Z</time>
      </trkpt>
      <trkpt lat="39.748848" lon="-5.465120">
        <ele>398.5</ele>
        <time>1970-01-01T00:00:00Z</time>
      </trkpt>
      <trkpt lat="39.748847" lon="-5.465119">
        <ele>398.5</ele>
        <time>1970-01-01T00:00:00Z</time>
      </trkpt>
      <trkpt lat="39.748737" lon="-5.464991">
        <ele>400.7</ele>
        <time>1970-01-01T00:00:00Z</time>
      </trkpt>
      <trkpt lat="39.748593" lon="-5.464866">
        <ele>403.0</ele>
        <time>1970-01-01T00:00:00Z</time>
      </trkpt>
      <trkpt lat="39.748353" lon="-5.464819">
        <ele>405.3</ele>
        <time>1970-01-01T00:00:00Z</time>
      </trkpt>
      <trkpt lat="39.748173" lon="-5.464821">
        <ele>405.3</ele>
        <time>1970-01-01T00:00:00Z</time>
      </trkpt>
      <trkpt lat="39.747893" lon="-5.464909">
        <ele>405.1</ele>
        <time>1970-01-01T00:00:00Z</time>
      </trkpt>
      <trkpt lat="39.747657" lon="-5.464989">
        <ele>406.1</ele>
        <time>1970-01-01T00:00:00Z</time>
      </trkpt>
      <trkpt lat="39.747396" lon="-5.465047">
        <ele>406.8</ele>
        <time>1970-01-01T00:00:00Z</time>
      </trkpt>
      <trkpt lat="39.746905" lon="-5.465171">
        <ele>407.7</ele>
        <time>1970-01-01T00:00:00Z</time>
      </trkpt>
      <trkpt lat="39.746814" lon="-5.465203">
        <ele>407.8</ele>
        <time>1970-01-01T00:00:00Z</time>
      </trkpt>
      <trkpt lat="39.746345" lon="-5.465454">
        <ele>409.0</ele>
        <time>1970-01-01T00:00:00Z</time>
      </trkpt>
      <trkpt lat="39.745888" lon="-5.465612">
        <ele>408.3</ele>
        <time>1970-01-01T00:00:00Z</time>
      </trkpt>
      <trkpt lat="39.745607" lon="-5.465626">
        <ele>408.3</ele>
        <time>1970-01-01T00:00:00Z</time>
      </trkpt>
      <trkpt lat="39.745434" lon="-5.465522">
        <ele>409.3</ele>
        <time>1970-01-01T00:00:00Z</time>
      </trkpt>
      <trkpt lat="39.745161" lon="-5.465339">
        <ele>410.8</ele>
        <time>1970-01-01T00:00:00Z</time>
      </trkpt>
      <trkpt lat="39.744963" lon="-5.465197">
        <ele>411.8</ele>
        <time>1970-01-01T00:00:00Z</time>
      </trkpt>
      <trkpt lat="39.744685" lon="-5.465057">
        <ele>413.6</ele>
        <time>1970-01-01T00:00:00Z</time>
      </trkpt>
      <trkpt lat="39.744410" lon="-5.464949">
        <ele>415.0</ele>
        <time>1970-01-01T00:00:00Z</time>
      </trkpt>
      <trkpt lat="39.744272" lon="-5.464922">
        <ele>415.0</ele>
        <time>1970-01-01T00:00:00Z</time>
      </trkpt>
      <trkpt lat="39.744149" lon="-5.464874">
        <ele>415.0</ele>
        <time>1970-01-01T00:00:00Z</time>
      </trkpt>
      <trkpt lat="39.743956" lon="-5.464830">
        <ele>415.0</ele>
        <time>1970-01-01T00:00:00Z</time>
      </trkpt>
      <trkpt lat="39.743603" lon="-5.464868">
        <ele>414.3</ele>
        <time>1970-01-01T00:00:00Z</time>
      </trkpt>
      <trkpt lat="39.743227" lon="-5.464788">
        <ele>413.9</ele>
        <time>1970-01-01T00:00:00Z</time>
      </trkpt>
      <trkpt lat="39.743018" lon="-5.464694">
        <ele>414.6</ele>
        <time>1970-01-01T00:00:00Z</time>
      </trkpt>
      <trkpt lat="39.742779" lon="-5.464655">
        <ele>415.0</ele>
        <time>1970-01-01T00:00:00Z</time>
      </trkpt>
      <trkpt lat="39.742549" lon="-5.464594">
        <ele>416.0</ele>
        <time>1970-01-01T00:00:00Z</time>
      </trkpt>
      <trkpt lat="39.742220" lon="-5.464447">
        <ele>416.4</ele>
        <time>1970-01-01T00:00:00Z</time>
      </trkpt>
      <trkpt lat="39.741924" lon="-5.464235">
        <ele>417.1</ele>
        <time>1970-01-01T00:00:00Z</time>
      </trkpt>
      <trkpt lat="39.741880" lon="-5.464212">
        <ele>417.0</ele>
        <time>1970-01-01T00:00:00Z</time>
      </trkpt>
      <trkpt lat="39.741692" lon="-5.464177">
        <ele>416.6</ele>
        <time>1970-01-01T00:00:00Z</time>
      </trkpt>
      <trkpt lat="39.741302" lon="-5.464190">
        <ele>416.3</ele>
        <time>1970-01-01T00:00:00Z</time>
      </trkpt>
      <trkpt lat="39.741257" lon="-5.464185">
        <ele>416.2</ele>
        <time>1970-01-01T00:00:00Z</time>
      </trkpt>
      <trkpt lat="39.740946" lon="-5.464184">
        <ele>416.0</ele>
        <time>1970-01-01T00:00:00Z</time>
      </trkpt>
      <trkpt lat="39.740511" lon="-5.464161">
        <ele>417.2</ele>
        <time>1970-01-01T00:00:00Z</time>
      </trkpt>
      <trkpt lat="39.740245" lon="-5.464116">
        <ele>417.6</ele>
        <time>1970-01-01T00:00:00Z</time>
      </trkpt>
      <trkpt lat="39.739777" lon="-5.463822">
        <ele>419.2</ele>
        <time>1970-01-01T00:00:00Z</time>
      </trkpt>
      <trkpt lat="39.739553" lon="-5.463672">
        <ele>420.5</ele>
        <time>1970-01-01T00:00:00Z</time>
      </trkpt>
      <trkpt lat="39.739468" lon="-5.463630">
        <ele>420.8</ele>
        <time>1970-01-01T00:00:00Z</time>
      </trkpt>
      <trkpt lat="39.739047" lon="-5.463515">
        <ele>422.8</ele>
        <time>1970-01-01T00:00:00Z</time>
      </trkpt>
      <trkpt lat="39.738996" lon="-5.463506">
        <ele>422.9</ele>
        <time>1970-01-01T00:00:00Z</time>
      </trkpt>
      <trkpt lat="39.738521" lon="-5.463407">
        <ele>424.2</ele>
        <time>1970-01-01T00:00:00Z</time>
      </trkpt>
      <trkpt lat="39.738140" lon="-5.463344">
        <ele>426.2</ele>
        <time>1970-01-01T00:00:00Z</time>
      </trkpt>
      <trkpt lat="39.737859" lon="-5.463214">
        <ele>427.4</ele>
        <time>1970-01-01T00:00:00Z</time>
      </trkpt>
      <trkpt lat="39.737653" lon="-5.463188">
        <ele>427.4</ele>
        <time>1970-01-01T00:00:00Z</time>
      </trkpt>
      <trkpt lat="39.737476" lon="-5.463223">
        <ele>426.7</ele>
        <time>1970-01-01T00:00:00Z</time>
      </trkpt>
      <trkpt lat="39.737440" lon="-5.463205">
        <ele>426.8</ele>
        <time>1970-01-01T00:00:00Z</time>
      </trkpt>
      <trkpt lat="39.737155" lon="-5.462993">
        <ele>429.1</ele>
        <time>1970-01-01T00:00:00Z</time>
      </trkpt>
      <trkpt lat="39.736861" lon="-5.462908">
        <ele>431.7</ele>
        <time>1970-01-01T00:00:00Z</time>
      </trkpt>
      <trkpt lat="39.736516" lon="-5.462915">
        <ele>435.4</ele>
        <time>1970-01-01T00:00:00Z</time>
      </trkpt>
      <trkpt lat="39.736356" lon="-5.462940">
        <ele>437.1</ele>
        <time>1970-01-01T00:00:00Z</time>
      </trkpt>
      <trkpt lat="39.736142" lon="-5.463033">
        <ele>439.1</ele>
        <time>1970-01-01T00:00:00Z</time>
      </trkpt>
      <trkpt lat="39.735718" lon="-5.463160">
        <ele>443.7</ele>
        <time>1970-01-01T00:00:00Z</time>
      </trkpt>
      <trkpt lat="39.735617" lon="-5.463184">
        <ele>444.9</ele>
        <time>1970-01-01T00:00:00Z</time>
      </trkpt>
      <trkpt lat="39.735351" lon="-5.463336">
        <ele>446.7</ele>
        <time>1970-01-01T00:00:00Z</time>
      </trkpt>
      <trkpt lat="39.734775" lon="-5.463501">
        <ele>447.9</ele>
        <time>1970-01-01T00:00:00Z</time>
      </trkpt>
      <trkpt lat="39.734430" lon="-5.463582">
        <ele>447.2</ele>
        <time>1970-01-01T00:00:00Z</time>
      </trkpt>
      <trkpt lat="39.733926" lon="-5.463523">
        <ele>446.7</ele>
        <time>1970-01-01T00:00:00Z</time>
      </trkpt>
      <trkpt lat="39.733545" lon="-5.463457">
        <ele>446.7</ele>
        <time>1970-01-01T00:00:00Z</time>
      </trkpt>
      <trkpt lat="39.733245" lon="-5.463398">
        <ele>447.2</ele>
        <time>1970-01-01T00:00:00Z</time>
      </trkpt>
      <trkpt lat="39.732809" lon="-5.463333">
        <ele>449.1</ele>
        <time>1970-01-01T00:00:00Z</time>
      </trkpt>
      <trkpt lat="39.732563" lon="-5.463266">
        <ele>452.1</ele>
        <time>1970-01-01T00:00:00Z</time>
      </trkpt>
      <trkpt lat="39.732475" lon="-5.463274">
        <ele>452.4</ele>
        <time>1970-01-01T00:00:00Z</time>
      </trkpt>
      <trkpt lat="39.732314" lon="-5.463313">
        <ele>452.0</ele>
        <time>1970-01-01T00:00:00Z</time>
      </trkpt>
      <trkpt lat="39.731861" lon="-5.463334">
        <ele>451.6</ele>
        <time>1970-01-01T00:00:00Z</time>
      </trkpt>
      <trkpt lat="39.731638" lon="-5.463274">
        <ele>452.3</ele>
        <time>1970-01-01T00:00:00Z</time>
      </trkpt>
      <trkpt lat="39.731523" lon="-5.463246">
        <ele>452.7</ele>
        <time>1970-01-01T00:00:00Z</time>
      </trkpt>
      <trkpt lat="39.731402" lon="-5.463236">
        <ele>452.8</ele>
        <time>1970-01-01T00:00:00Z</time>
      </trkpt>
      <trkpt lat="39.731359" lon="-5.463342">
        <ele>451.5</ele>
        <time>1970-01-01T00:00:00Z</time>
      </trkpt>
      <trkpt lat="39.731125" lon="-5.463432">
        <ele>451.2</ele>
        <time>1970-01-01T00:00:00Z</time>
      </trkpt>
      <trkpt lat="39.730976" lon="-5.463376">
        <ele>452.1</ele>
        <time>1970-01-01T00:00:00Z</time>
      </trkpt>
      <trkpt lat="39.730686" lon="-5.463238">
        <ele>453.6</ele>
        <time>1970-01-01T00:00:00Z</time>
      </trkpt>
      <trkpt lat="39.730478" lon="-5.463162">
        <ele>453.9</ele>
        <time>1970-01-01T00:00:00Z</time>
      </trkpt>
      <trkpt lat="39.730299" lon="-5.463018">
        <ele>455.1</ele>
        <time>1970-01-01T00:00:00Z</time>
      </trkpt>
      <trkpt lat="39.730072" lon="-5.462922">
        <ele>456.0</ele>
        <time>1970-01-01T00:00:00Z</time>
      </trkpt>
      <trkpt lat="39.729756" lon="-5.462876">
        <ele>457.2</ele>
        <time>1970-01-01T00:00:00Z</time>
      </trkpt>
      <trkpt lat="39.729315" lon="-5.462856">
        <ele>457.4</ele>
        <time>1970-01-01T00:00:00Z</time>
      </trkpt>
      <trkpt lat="39.729137" lon="-5.462862">
        <ele>458.0</ele>
        <time>1970-01-01T00:00:00Z</time>
      </trkpt>
      <trkpt lat="39.728816" lon="-5.462979">
        <ele>459.1</ele>
        <time>1970-01-01T00:00:00Z</time>
      </trkpt>
      <trkpt lat="39.728736" lon="-5.462968">
        <ele>459.7</ele>
        <time>1970-01-01T00:00:00Z</time>
      </trkpt>
      <trkpt lat="39.728641" lon="-5.462943">
        <ele>460.1</ele>
        <time>1970-01-01T00:00:00Z</time>
      </trkpt>
      <trkpt lat="39.728469" lon="-5.462959">
        <ele>460.4</ele>
        <time>1970-01-01T00:00:00Z</time>
      </trkpt>
      <trkpt lat="39.728245" lon="-5.462984">
        <ele>462.3</ele>
        <time>1970-01-01T00:00:00Z</time>
      </trkpt>
      <trkpt lat="39.728152" lon="-5.462857">
        <ele>461.8</ele>
        <time>1970-01-01T00:00:00Z</time>
      </trkpt>
      <trkpt lat="39.727969" lon="-5.462642">
        <ele>462.1</ele>
        <time>1970-01-01T00:00:00Z</time>
      </trkpt>
      <trkpt lat="39.727558" lon="-5.462558">
        <ele>464.7</ele>
        <time>1970-01-01T00:00:00Z</time>
      </trkpt>
      <trkpt lat="39.727315" lon="-5.462521">
        <ele>467.7</ele>
        <time>1970-01-01T00:00:00Z</time>
      </trkpt>
      <trkpt lat="39.726996" lon="-5.462487">
        <ele>470.8</ele>
        <time>1970-01-01T00:00:00Z</time>
      </trkpt>
      <trkpt lat="39.726691" lon="-5.462623">
        <ele>473.4</ele>
        <time>1970-01-01T00:00:00Z</time>
      </trkpt>
      <trkpt lat="39.726502" lon="-5.462595">
        <ele>474.8</ele>
        <time>1970-01-01T00:00:00Z</time>
      </trkpt>
      <trkpt lat="39.726245" lon="-5.462545">
        <ele>476.1</ele>
        <time>1970-01-01T00:00:00Z</time>
      </trkpt>
      <trkpt lat="39.726068" lon="-5.462553">
        <ele>476.6</ele>
        <time>1970-01-01T00:00:00Z</time>
      </trkpt>
      <trkpt lat="39.725908" lon="-5.462594">
        <ele>476.4</ele>
        <time>1970-01-01T00:00:00Z</time>
      </trkpt>
      <trkpt lat="39.725718" lon="-5.462603">
        <ele>476.3</ele>
        <time>1970-01-01T00:00:00Z</time>
      </trkpt>
      <trkpt lat="39.725553" lon="-5.462477">
        <ele>476.4</ele>
        <time>1970-01-01T00:00:00Z</time>
      </trkpt>
      <trkpt lat="39.725293" lon="-5.462275">
        <ele>477.5</ele>
        <time>1970-01-01T00:00:00Z</time>
      </trkpt>
      <trkpt lat="39.725069" lon="-5.462121">
        <ele>479.3</ele>
        <time>1970-01-01T00:00:00Z</time>
      </trkpt>
      <trkpt lat="39.725026" lon="-5.462089">
        <ele>479.7</ele>
        <time>1970-01-01T00:00:00Z</time>
      </trkpt>
      <trkpt lat="39.724961" lon="-5.462033">
        <ele>480.4</ele>
        <time>1970-01-01T00:00:00Z</time>
      </trkpt>
      <trkpt lat="39.724784" lon="-5.462021">
        <ele>480.7</ele>
        <time>1970-01-01T00:00:00Z</time>
      </trkpt>
      <trkpt lat="39.724612" lon="-5.462013">
        <ele>481.4</ele>
        <time>1970-01-01T00:00:00Z</time>
      </trkpt>
      <trkpt lat="39.724374" lon="-5.462061">
        <ele>481.8</ele>
        <time>1970-01-01T00:00:00Z</time>
      </trkpt>
      <trkpt lat="39.724030" lon="-5.462142">
        <ele>482.1</ele>
        <time>1970-01-01T00:00:00Z</time>
      </trkpt>
      <trkpt lat="39.723681" lon="-5.462132">
        <ele>484.3</ele>
        <time>1970-01-01T00:00:00Z</time>
      </trkpt>
      <trkpt lat="39.723536" lon="-5.462076">
        <ele>486.5</ele>
        <time>1970-01-01T00:00:00Z</time>
      </trkpt>
      <trkpt lat="39.723248" lon="-5.462051">
        <ele>488.5</ele>
        <time>1970-01-01T00:00:00Z</time>
      </trkpt>
      <trkpt lat="39.723092" lon="-5.462012">
        <ele>489.5</ele>
        <time>1970-01-01T00:00:00Z</time>
      </trkpt>
      <trkpt lat="39.722944" lon="-5.461931">
        <ele>491.5</ele>
        <time>1970-01-01T00:00:00Z</time>
      </trkpt>
      <trkpt lat="39.722679" lon="-5.461903">
        <ele>490.4</ele>
        <time>1970-01-01T00:00:00Z</time>
      </trkpt>
      <trkpt lat="39.722291" lon="-5.461897">
        <ele>487.5</ele>
        <time>1970-01-01T00:00:00Z</time>
      </trkpt>
      <trkpt lat="39.721873" lon="-5.461843">
        <ele>487.3</ele>
        <time>1970-01-01T00:00:00Z</time>
      </trkpt>
      <trkpt lat="39.721824" lon="-5.461839">
        <ele>487.4</ele>
        <time>1970-01-01T00:00:00Z</time>
      </trkpt>
      <trkpt lat="39.721587" lon="-5.461898">
        <ele>487.6</ele>
        <time>1970-01-01T00:00:00Z</time>
      </trkpt>
      <trkpt lat="39.721344" lon="-5.462003">
        <ele>487.5</ele>
        <time>1970-01-01T00:00:00Z</time>
      </trkpt>
      <trkpt lat="39.721240" lon="-5.462011">
        <ele>488.1</ele>
        <time>1970-01-01T00:00:00Z</time>
      </trkpt>
      <trkpt lat="39.721043" lon="-5.462076">
        <ele>489.2</ele>
        <time>1970-01-01T00:00:00Z</time>
      </trkpt>
      <trkpt lat="39.720789" lon="-5.462124">
        <ele>492.0</ele>
        <time>1970-01-01T00:00:00Z</time>
      </trkpt>
      <trkpt lat="39.720476" lon="-5.462271">
        <ele>494.6</ele>
        <time>1970-01-01T00:00:00Z</time>
      </trkpt>
      <trkpt lat="39.720224" lon="-5.462357">
        <ele>496.5</ele>
        <time>1970-01-01T00:00:00Z</time>
      </trkpt>
      <trkpt lat="39.720037" lon="-5.462380">
        <ele>497.8</ele>
        <time>1970-01-01T00:00:00Z</time>
      </trkpt>
      <trkpt lat="39.719868" lon="-5.462456">
        <ele>498.1</ele>
        <time>1970-01-01T00:00:00Z</time>
      </trkpt>
      <trkpt lat="39.719647" lon="-5.462553">
        <ele>499.6</ele>
        <time>1970-01-01T00:00:00Z</time>
      </trkpt>
      <trkpt lat="39.719274" lon="-5.462801">
        <ele>500.1</ele>
        <time>1970-01-01T00:00:00Z</time>
      </trkpt>
      <trkpt lat="39.719181" lon="-5.462853">
        <ele>500.3</ele>
        <time>1970-01-01T00:00:00Z</time>
      </trkpt>
      <trkpt lat="39.718908" lon="-5.462919">
        <ele>502.2</ele>
        <time>1970-01-01T00:00:00Z</time>
      </trkpt>
      <trkpt lat="39.718556" lon="-5.462885">
        <ele>503.1</ele>
        <time>1970-01-01T00:00:00Z</time>
      </trkpt>
      <trkpt lat="39.718459" lon="-5.462832">
        <ele>503.4</ele>
        <time>1970-01-01T00:00:00Z</time>
      </trkpt>
      <trkpt lat="39.718393" lon="-5.462821">
        <ele>503.4</ele>
        <time>1970-01-01T00:00:00Z</time>
      </trkpt>
      <trkpt lat="39.718113" lon="-5.462670">
        <ele>504.1</ele>
        <time>1970-01-01T00:00:00Z</time>
      </trkpt>
      <trkpt lat="39.718004" lon="-5.462608">
        <ele>504.3</ele>
        <time>1970-01-01T00:00:00Z</time>
      </trkpt>
      <trkpt lat="39.717805" lon="-5.462530">
        <ele>504.7</ele>
        <time>1970-01-01T00:00:00Z</time>
      </trkpt>
      <trkpt lat="39.717607" lon="-5.462541">
        <ele>504.6</ele>
        <time>1970-01-01T00:00:00Z</time>
      </trkpt>
      <trkpt lat="39.717366" lon="-5.462491">
        <ele>504.8</ele>
        <time>1970-01-01T00:00:00Z</time>
      </trkpt>
      <trkpt lat="39.716906" lon="-5.462297">
        <ele>508.0</ele>
        <time>1970-01-01T00:00:00Z</time>
      </trkpt>
      <trkpt lat="39.716851" lon="-5.462273">
        <ele>508.4</ele>
        <time>1970-01-01T00:00:00Z</time>
      </trkpt>
      <trkpt lat="39.716578" lon="-5.462280">
        <ele>509.5</ele>
        <time>1970-01-01T00:00:00Z</time>
      </trkpt>
      <trkpt lat="39.716237" lon="-5.462384">
        <ele>508.6</ele>
        <time>1970-01-01T00:00:00Z</time>
      </trkpt>
      <trkpt lat="39.715969" lon="-5.462289">
        <ele>509.4</ele>
        <time>1970-01-01T00:00:00Z</time>
      </trkpt>
      <trkpt lat="39.715924" lon="-5.462251">
        <ele>509.7</ele>
        <time>1970-01-01T00:00:00Z</time>
      </trkpt>
      <trkpt lat="39.715826" lon="-5.462160">
        <ele>511.0</ele>
        <time>1970-01-01T00:00:00Z</time>
      </trkpt>
      <trkpt lat="39.715506" lon="-5.462091">
        <ele>514.0</ele>
        <time>1970-01-01T00:00:00Z</time>
      </trkpt>
      <trkpt lat="39.715401" lon="-5.462175">
        <ele>513.1</ele>
        <time>1970-01-01T00:00:00Z</time>
      </trkpt>
      <trkpt lat="39.715208" lon="-5.462331">
        <ele>512.3</ele>
        <time>1970-01-01T00:00:00Z</time>
      </trkpt>
      <trkpt lat="39.714869" lon="-5.462352">
        <ele>513.7</ele>
        <time>1970-01-01T00:00:00Z</time>
      </trkpt>
      <trkpt lat="39.714502" lon="-5.462263">
        <ele>516.1</ele>
        <time>1970-01-01T00:00:00Z</time>
      </trkpt>
      <trkpt lat="39.714335" lon="-5.462187">
        <ele>517.1</ele>
        <time>1970-01-01T00:00:00Z</time>
      </trkpt>
      <trkpt lat="39.714173" lon="-5.461986">
        <ele>517.4</ele>
        <time>1970-01-01T00:00:00Z</time>
      </trkpt>
      <trkpt lat="39.714070" lon="-5.461796">
        <ele>520.1</ele>
        <time>1970-01-01T00:00:00Z</time>
      </trkpt>
      <trkpt lat="39.714000" lon="-5.461663">
        <ele>521.4</ele>
        <time>1970-01-01T00:00:00Z</time>
      </trkpt>
      <trkpt lat="39.713883" lon="-5.461511">
        <ele>522.3</ele>
        <time>1970-01-01T00:00:00Z</time>
      </trkpt>
      <trkpt lat="39.713725" lon="-5.461449">
        <ele>521.5</ele>
        <time>1970-01-01T00:00:00Z</time>
      </trkpt>
      <trkpt lat="39.713675" lon="-5.461413">
        <ele>521.3</ele>
        <time>1970-01-01T00:00:00Z</time>
      </trkpt>
      <trkpt lat="39.713449" lon="-5.461282">
        <ele>522.1</ele>
        <time>1970-01-01T00:00:00Z</time>
      </trkpt>
      <trkpt lat="39.713248" lon="-5.461203">
        <ele>522.1</ele>
        <time>1970-01-01T00:00:00Z</time>
      </trkpt>
      <trkpt lat="39.712837" lon="-5.461045">
        <ele>523.7</ele>
        <time>1970-01-01T00:00:00Z</time>
      </trkpt>
      <trkpt lat="39.712587" lon="-5.460935">
        <ele>526.7</ele>
        <time>1970-01-01T00:00:00Z</time>
      </trkpt>
      <trkpt lat="39.712325" lon="-5.460880">
        <ele>528.9</ele>
        <time>1970-01-01T00:00:00Z</time>
      </trkpt>
      <trkpt lat="39.712023" lon="-5.460949">
        <ele>528.9</ele>
        <time>1970-01-01T00:00:00Z</time>
      </trkpt>
      <trkpt lat="39.711927" lon="-5.460990">
        <ele>528.6</ele>
        <time>1970-01-01T00:00:00Z</time>
      </trkpt>
      <trkpt lat="39.711653" lon="-5.461142">
        <ele>527.1</ele>
        <time>1970-01-01T00:00:00Z</time>
      </trkpt>
      <trkpt lat="39.711418" lon="-5.461219">
        <ele>526.3</ele>
        <time>1970-01-01T00:00:00Z</time>
      </trkpt>
      <trkpt lat="39.711329" lon="-5.461230">
        <ele>526.3</ele>
        <time>1970-01-01T00:00:00Z</time>
      </trkpt>
      <trkpt lat="39.710897" lon="-5.461096">
        <ele>525.0</ele>
        <time>1970-01-01T00:00:00Z</time>
      </trkpt>
      <trkpt lat="39.710543" lon="-5.461072">
        <ele>524.9</ele>
        <time>1970-01-01T00:00:00Z</time>
      </trkpt>
      <trkpt lat="39.710134" lon="-5.460992">
        <ele>527.0</ele>
        <time>1970-01-01T00:00:00Z</time>
      </trkpt>
      <trkpt lat="39.710031" lon="-5.460960">
        <ele>527.9</ele>
        <time>1970-01-01T00:00:00Z</time>
      </trkpt>
      <trkpt lat="39.709696" lon="-5.460892">
        <ele>530.9</ele>
        <time>1970-01-01T00:00:00Z</time>
      </trkpt>
      <trkpt lat="39.709642" lon="-5.460888">
        <ele>531.1</ele>
        <time>1970-01-01T00:00:00Z</time>
      </trkpt>
      <trkpt lat="39.709217" lon="-5.460796">
        <ele>533.6</ele>
        <time>1970-01-01T00:00:00Z</time>
      </trkpt>
      <trkpt lat="39.708740" lon="-5.460653">
        <ele>536.1</ele>
        <time>1970-01-01T00:00:00Z</time>
      </trkpt>
      <trkpt lat="39.708441" lon="-5.460562">
        <ele>537.8</ele>
        <time>1970-01-01T00:00:00Z</time>
      </trkpt>
      <trkpt lat="39.707958" lon="-5.460560">
        <ele>537.8</ele>
        <time>1970-01-01T00:00:00Z</time>
      </trkpt>
      <trkpt lat="39.707383" lon="-5.460420">
        <ele>538.8</ele>
        <time>1970-01-01T00:00:00Z</time>
      </trkpt>
      <trkpt lat="39.706911" lon="-5.460428">
        <ele>541.8</ele>
        <time>1970-01-01T00:00:00Z</time>
      </trkpt>
      <trkpt lat="39.706627" lon="-5.460432">
        <ele>544.5</ele>
        <time>1970-01-01T00:00:00Z</time>
      </trkpt>
      <trkpt lat="39.706560" lon="-5.460433">
        <ele>545.4</ele>
        <time>1970-01-01T00:00:00Z</time>
      </trkpt>
      <trkpt lat="39.706420" lon="-5.460446">
        <ele>547.3</ele>
        <time>1970-01-01T00:00:00Z</time>
      </trkpt>
      <trkpt lat="39.706240" lon="-5.460466">
        <ele>550.3</ele>
        <time>1970-01-01T00:00:00Z</time>
      </trkpt>
      <trkpt lat="39.705942" lon="-5.460600">
        <ele>553.7</ele>
        <time>1970-01-01T00:00:00Z</time>
      </trkpt>
      <trkpt lat="39.705538" lon="-5.460719">
        <ele>556.9</ele>
        <time>1970-01-01T00:00:00Z</time>
      </trkpt>
      <trkpt lat="39.705345" lon="-5.460708">
        <ele>557.9</ele>
        <time>1970-01-01T00:00:00Z</time>
      </trkpt>
      <trkpt lat="39.705261" lon="-5.460682">
        <ele>558.3</ele>
        <time>1970-01-01T00:00:00Z</time>
      </trkpt>
      <trkpt lat="39.705007" lon="-5.460607">
        <ele>558.9</ele>
        <time>1970-01-01T00:00:00Z</time>
      </trkpt>
      <trkpt lat="39.704773" lon="-5.460460">
        <ele>560.9</ele>
        <time>1970-01-01T00:00:00Z</time>
      </trkpt>
      <trkpt lat="39.704708" lon="-5.460356">
        <ele>562.2</ele>
        <time>1970-01-01T00:00:00Z</time>
      </trkpt>
      <trkpt lat="39.704634" lon="-5.460248">
        <ele>564.1</ele>
        <time>1970-01-01T00:00:00Z</time>
      </trkpt>
      <trkpt lat="39.704438" lon="-5.460078">
        <ele>567.1</ele>
        <time>1970-01-01T00:00:00Z</time>
      </trkpt>
      <trkpt lat="39.704149" lon="-5.459828">
        <ele>571.7</ele>
        <time>1970-01-01T00:00:00Z</time>
      </trkpt>
      <trkpt lat="39.703897" lon="-5.459663">
        <ele>574.3</ele>
        <time>1970-01-01T00:00:00Z</time>
      </trkpt>
      <trkpt lat="39.703703" lon="-5.459604">
        <ele>576.4</ele>
        <time>1970-01-01T00:00:00Z</time>
      </trkpt>
      <trkpt lat="39.703621" lon="-5.459544">
        <ele>577.9</ele>
        <time>1970-01-01T00:00:00Z</time>
      </trkpt>
      <trkpt lat="39.703577" lon="-5.459530">
        <ele>578.3</ele>
        <time>1970-01-01T00:00:00Z</time>
      </trkpt>
      <trkpt lat="39.703257" lon="-5.459463">
        <ele>581.3</ele>
        <time>1970-01-01T00:00:00Z</time>
      </trkpt>
      <trkpt lat="39.703050" lon="-5.459561">
        <ele>581.4</ele>
        <time>1970-01-01T00:00:00Z</time>
      </trkpt>
      <trkpt lat="39.702675" lon="-5.459834">
        <ele>583.0</ele>
        <time>1970-01-01T00:00:00Z</time>
      </trkpt>
      <trkpt lat="39.702627" lon="-5.459856">
        <ele>583.3</ele>
        <time>1970-01-01T00:00:00Z</time>
      </trkpt>
      <trkpt lat="39.702503" lon="-5.459897">
        <ele>584.2</ele>
        <time>1970-01-01T00:00:00Z</time>
      </trkpt>
      <trkpt lat="39.702301" lon="-5.459870">
        <ele>585.9</ele>
        <time>1970-01-01T00:00:00Z</time>
      </trkpt>
      <trkpt lat="39.702202" lon="-5.459831">
        <ele>586.4</ele>
        <time>1970-01-01T00:00:00Z</time>
      </trkpt>
      <trkpt lat="39.702151" lon="-5.459809">
        <ele>586.6</ele>
        <time>1970-01-01T00:00:00Z</time>
      </trkpt>
      <trkpt lat="39.702029" lon="-5.459783">
        <ele>587.1</ele>
        <time>1970-01-01T00:00:00Z</time>
      </trkpt>
      <trkpt lat="39.701772" lon="-5.459815">
        <ele>588.0</ele>
        <time>1970-01-01T00:00:00Z</time>
      </trkpt>
      <trkpt lat="39.701322" lon="-5.459782">
        <ele>588.7</ele>
        <time>1970-01-01T00:00:00Z</time>
      </trkpt>
      <trkpt lat="39.701252" lon="-5.459772">
        <ele>589.1</ele>
        <time>1970-01-01T00:00:00Z</time>
      </trkpt>
      <trkpt lat="39.700836" lon="-5.459653">
        <ele>591.9</ele>
        <time>1970-01-01T00:00:00Z</time>
      </trkpt>
      <trkpt lat="39.700689" lon="-5.459590">
        <ele>593.9</ele>
        <time>1970-01-01T00:00:00Z</time>
      </trkpt>
      <trkpt lat="39.700552" lon="-5.459514">
        <ele>595.1</ele>
        <time>1970-01-01T00:00:00Z</time>
      </trkpt>
      <trkpt lat="39.700033" lon="-5.459367">
        <ele>595.8</ele>
        <time>1970-01-01T00:00:00Z</time>
      </trkpt>
      <trkpt lat="39.699914" lon="-5.459352">
        <ele>595.8</ele>
        <time>1970-01-01T00:00:00Z</time>
      </trkpt>
      <trkpt lat="39.699855" lon="-5.459337">
        <ele>596.0</ele>
        <time>1970-01-01T00:00:00Z</time>
      </trkpt>
      <trkpt lat="39.699597" lon="-5.459148">
        <ele>596.8</ele>
        <time>1970-01-01T00:00:00Z</time>
      </trkpt>
      <trkpt lat="39.699376" lon="-5.458892">
        <ele>600.9</ele>
        <time>1970-01-01T00:00:00Z</time>
      </trkpt>
      <trkpt lat="39.699141" lon="-5.458660">
        <ele>604.4</ele>
        <time>1970-01-01T00:00:00Z</time>
      </trkpt>
      <trkpt lat="39.698975" lon="-5.458509">
        <ele>606.7</ele>
        <time>1970-01-01T00:00:00Z</time>
      </trkpt>
      <trkpt lat="39.698618" lon="-5.458247">
        <ele>611.9</ele>
        <time>1970-01-01T00:00:00Z</time>
      </trkpt>
      <trkpt lat="39.698564" lon="-5.458207">
        <ele>612.4</ele>
        <time>1970-01-01T00:00:00Z</time>
      </trkpt>
      <trkpt lat="39.698271" lon="-5.458038">
        <ele>615.0</ele>
        <time>1970-01-01T00:00:00Z</time>
      </trkpt>
      <trkpt lat="39.697938" lon="-5.457898">
        <ele>619.1</ele>
        <time>1970-01-01T00:00:00Z</time>
      </trkpt>
      <trkpt lat="39.697659" lon="-5.457730">
        <ele>621.8</ele>
        <time>1970-01-01T00:00:00Z</time>
      </trkpt>
      <trkpt lat="39.697319" lon="-5.457558">
        <ele>624.7</ele>
        <time>1970-01-01T00:00:00Z</time>
      </trkpt>
      <trkpt lat="39.697138" lon="-5.457474">
        <ele>625.8</ele>
        <time>1970-01-01T00:00:00Z</time>
      </trkpt>
      <trkpt lat="39.696887" lon="-5.457323">
        <ele>627.6</ele>
        <time>1970-01-01T00:00:00Z</time>
      </trkpt>
      <trkpt lat="39.696641" lon="-5.457217">
        <ele>629.0</ele>
        <time>1970-01-01T00:00:00Z</time>
      </trkpt>
      <trkpt lat="39.696475" lon="-5.457134">
        <ele>630.1</ele>
        <time>1970-01-01T00:00:00Z</time>
      </trkpt>
      <trkpt lat="39.696308" lon="-5.457062">
        <ele>631.4</ele>
        <time>1970-01-01T00:00:00Z</time>
      </trkpt>
      <trkpt lat="39.696128" lon="-5.456997">
        <ele>632.4</ele>
        <time>1970-01-01T00:00:00Z</time>
      </trkpt>
      <trkpt lat="39.695880" lon="-5.456962">
        <ele>633.4</ele>
        <time>1970-01-01T00:00:00Z</time>
      </trkpt>
      <trkpt lat="39.695823" lon="-5.456966">
        <ele>633.6</ele>
        <time>1970-01-01T00:00:00Z</time>
      </trkpt>
      <trkpt lat="39.695476" lon="-5.457010">
        <ele>634.7</ele>
        <time>1970-01-01T00:00:00Z</time>
      </trkpt>
      <trkpt lat="39.695348" lon="-5.457035">
        <ele>635.6</ele>
        <time>1970-01-01T00:00:00Z</time>
      </trkpt>
      <trkpt lat="39.695286" lon="-5.457048">
        <ele>636.0</ele>
        <time>1970-01-01T00:00:00Z</time>
      </trkpt>
      <trkpt lat="39.695046" lon="-5.457109">
        <ele>637.3</ele>
        <time>1970-01-01T00:00:00Z</time>
      </trkpt>
      <trkpt lat="39.694876" lon="-5.457181">
        <ele>638.3</ele>
        <time>1970-01-01T00:00:00Z</time>
      </trkpt>
      <trkpt lat="39.694489" lon="-5.457269">
        <ele>639.7</ele>
        <time>1970-01-01T00:00:00Z</time>
      </trkpt>
      <trkpt lat="39.694218" lon="-5.457361">
        <ele>640.7</ele>
        <time>1970-01-01T00:00:00Z</time>
      </trkpt>
      <trkpt lat="39.694016" lon="-5.457382">
        <ele>643.1</ele>
        <time>1970-01-01T00:00:00Z</time>
      </trkpt>
      <trkpt lat="39.693682" lon="-5.457290">
        <ele>646.5</ele>
        <time>1970-01-01T00:00:00Z</time>
      </trkpt>
      <trkpt lat="39.693484" lon="-5.457268">
        <ele>647.5</ele>
        <time>1970-01-01T00:00:00Z</time>
      </trkpt>
      <trkpt lat="39.693172" lon="-5.457147">
        <ele>649.8</ele>
        <time>1970-01-01T00:00:00Z</time>
      </trkpt>
      <trkpt lat="39.692970" lon="-5.456977">
        <ele>652.7</ele>
        <time>1970-01-01T00:00:00Z</time>
      </trkpt>
      <trkpt lat="39.692608" lon="-5.456694">
        <ele>655.6</ele>
        <time>1970-01-01T00:00:00Z</time>
      </trkpt>
      <trkpt lat="39.692276" lon="-5.456330">
        <ele>658.6</ele>
        <time>1970-01-01T00:00:00Z</time>
      </trkpt>
      <trkpt lat="39.692218" lon="-5.456268">
        <ele>658.9</ele>
        <time>1970-01-01T00:00:00Z</time>
      </trkpt>
      <trkpt lat="39.691805" lon="-5.455918">
        <ele>660.2</ele>
        <time>1970-01-01T00:00:00Z</time>
      </trkpt>
      <trkpt lat="39.691270" lon="-5.455636">
        <ele>660.8</ele>
        <time>1970-01-01T00:00:00Z</time>
      </trkpt>
      <trkpt lat="39.691033" lon="-5.455527">
        <ele>660.9</ele>
        <time>1970-01-01T00:00:00Z</time>
      </trkpt>
      <trkpt lat="39.690292" lon="-5.455256">
        <ele>660.8</ele>
        <time>1970-01-01T00:00:00Z</time>
      </trkpt>
      <trkpt lat="39.690000" lon="-5.455291">
        <ele>661.1</ele>
        <time>1970-01-01T00:00:00Z</time>
      </trkpt>
      <trkpt lat="39.689743" lon="-5.455148">
        <ele>662.2</ele>
        <time>1970-01-01T00:00:00Z</time>
      </trkpt>
      <trkpt lat="39.689206" lon="-5.454756">
        <ele>662.1</ele>
        <time>1970-01-01T00:00:00Z</time>
      </trkpt>
      <trkpt lat="39.688696" lon="-5.454388">
        <ele>658.5</ele>
        <time>1970-01-01T00:00:00Z</time>
      </trkpt>
      <trkpt lat="39.688163" lon="-5.454020">
        <ele>657.8</ele>
        <time>1970-01-01T00:00:00Z</time>
      </trkpt>
      <trkpt lat="39.687092" lon="-5.453274">
        <ele>669.4</ele>
        <time>1970-01-01T00:00:00Z</time>
      </trkpt>
      <trkpt lat="39.686576" lon="-5.452887">
        <ele>668.5</ele>
        <time>1970-01-01T00:00:00Z</time>
      </trkpt>
      <trkpt lat="39.685557" lon="-5.452170">
        <ele>673.0</ele>
        <time>1970-01-01T00:00:00Z</time>
      </trkpt>
      <trkpt lat="39.685324" lon="-5.451987">
        <ele>673.2</ele>
        <time>1970-01-01T00:00:00Z</time>
      </trkpt>
      <trkpt lat="39.685200" lon="-5.451989">
        <ele>673.2</ele>
        <time>1970-01-01T00:00:00Z</time>
      </trkpt>
      <trkpt lat="39.685163" lon="-5.452090">
        <ele>673.0</ele>
        <time>1970-01-01T00:00:00Z</time>
      </trkpt>
      <trkpt lat="39.685044" lon="-5.452219">
        <ele>672.6</ele>
        <time>1970-01-01T00:00:00Z</time>
      </trkpt>
      <trkpt lat="39.684714" lon="-5.452081">
        <ele>670.0</ele>
        <time>1970-01-01T00:00:00Z</time>
      </trkpt>
      <trkpt lat="39.684474" lon="-5.451994">
        <ele>667.4</ele>
        <time>1970-01-01T00:00:00Z</time>
      </trkpt>
      <trkpt lat="39.684216" lon="-5.452008">
        <ele>664.9</ele>
        <time>1970-01-01T00:00:00Z</time>
      </trkpt>
      <trkpt lat="39.684177" lon="-5.452014">
        <ele>664.2</ele>
        <time>1970-01-01T00:00:00Z</time>
      </trkpt>
      <trkpt lat="39.683938" lon="-5.452052">
        <ele>659.4</ele>
        <time>1970-01-01T00:00:00Z</time>
      </trkpt>
      <trkpt lat="39.683677" lon="-5.452068">
        <ele>653.5</ele>
        <time>1970-01-01T00:00:00Z</time>
      </trkpt>
      <trkpt lat="39.683470" lon="-5.452091">
        <ele>649.0</ele>
        <time>1970-01-01T00:00:00Z</time>
      </trkpt>
      <trkpt lat="39.683256" lon="-5.452118">
        <ele>644.6</ele>
        <time>1970-01-01T00:00:00Z</time>
      </trkpt>
      <trkpt lat="39.683157" lon="-5.452125">
        <ele>642.6</ele>
        <time>1970-01-01T00:00:00Z</time>
      </trkpt>
      <trkpt lat="39.683055" lon="-5.452126">
        <ele>640.7</ele>
        <time>1970-01-01T00:00:00Z</time>
      </trkpt>
      <trkpt lat="39.682789" lon="-5.452103">
        <ele>637.5</ele>
        <time>1970-01-01T00:00:00Z</time>
      </trkpt>
      <trkpt lat="39.682539" lon="-5.452058">
        <ele>634.5</ele>
        <time>1970-01-01T00:00:00Z</time>
      </trkpt>
      <trkpt lat="39.682328" lon="-5.452030">
        <ele>632.2</ele>
        <time>1970-01-01T00:00:00Z</time>
      </trkpt>
      <trkpt lat="39.682074" lon="-5.451979">
        <ele>629.4</ele>
        <time>1970-01-01T00:00:00Z</time>
      </trkpt>
      <trkpt lat="39.681822" lon="-5.451924">
        <ele>627.0</ele>
        <time>1970-01-01T00:00:00Z</time>
      </trkpt>
      <trkpt lat="39.681458" lon="-5.451759">
        <ele>625.0</ele>
        <time>1970-01-01T00:00:00Z</time>
      </trkpt>
      <trkpt lat="39.681275" lon="-5.451644">
        <ele>623.5</ele>
        <time>1970-01-01T00:00:00Z</time>
      </trkpt>
      <trkpt lat="39.681041" lon="-5.451458">
        <ele>622.6</ele>
        <time>1970-01-01T00:00:00Z</time>
      </trkpt>
      <trkpt lat="39.680798" lon="-5.451248">
        <ele>621.9</ele>
        <time>1970-01-01T00:00:00Z</time>
      </trkpt>
      <trkpt lat="39.680659" lon="-5.451161">
        <ele>620.2</ele>
        <time>1970-01-01T00:00:00Z</time>
      </trkpt>
      <trkpt lat="39.680457" lon="-5.451039">
        <ele>618.6</ele>
        <time>1970-01-01T00:00:00Z</time>
      </trkpt>
      <trkpt lat="39.680180" lon="-5.450917">
        <ele>615.6</ele>
        <time>1970-01-01T00:00:00Z</time>
      </trkpt>
      <trkpt lat="39.679873" lon="-5.450777">
        <ele>612.3</ele>
        <time>1970-01-01T00:00:00Z</time>
      </trkpt>
      <trkpt lat="39.679767" lon="-5.450722">
        <ele>611.7</ele>
        <time>1970-01-01T00:00:00Z</time>
      </trkpt>
      <trkpt lat="39.679516" lon="-5.450598">
        <ele>611.0</ele>
        <time>1970-01-01T00:00:00Z</time>
      </trkpt>
      <trkpt lat="39.679293" lon="-5.450509">
        <ele>609.2</ele>
        <time>1970-01-01T00:00:00Z</time>
      </trkpt>
      <trkpt lat="39.679101" lon="-5.450356">
        <ele>608.4</ele>
        <time>1970-01-01T00:00:00Z</time>
      </trkpt>
      <trkpt lat="39.678755" lon="-5.450248">
        <ele>603.4</ele>
        <time>1970-01-01T00:00:00Z</time>
      </trkpt>
      <trkpt lat="39.678508" lon="-5.450135">
        <ele>600.2</ele>
        <time>1970-01-01T00:00:00Z</time>
      </trkpt>
      <trkpt lat="39.678457" lon="-5.450103">
        <ele>599.6</ele>
        <time>1970-01-01T00:00:00Z</time>
      </trkpt>
      <trkpt lat="39.678228" lon="-5.450068">
        <ele>593.3</ele>
        <time>1970-01-01T00:00:00Z</time>
      </trkpt>
      <trkpt lat="39.678006" lon="-5.450094">
        <ele>587.1</ele>
        <time>1970-01-01T00:00:00Z</time>
      </trkpt>
      <trkpt lat="39.677823" lon="-5.450071">
        <ele>583.8</ele>
        <time>1970-01-01T00:00:00Z</time>
      </trkpt>
      <trkpt lat="39.677584" lon="-5.449988">
        <ele>580.6</ele>
        <time>1970-01-01T00:00:00Z</time>
      </trkpt>
      <trkpt lat="39.677381" lon="-5.449798">
        <ele>580.0</ele>
        <time>1970-01-01T00:00:00Z</time>
      </trkpt>
      <trkpt lat="39.677298" lon="-5.449686">
        <ele>580.7</ele>
        <time>1970-01-01T00:00:00Z</time>
      </trkpt>
      <trkpt lat="39.677221" lon="-5.449588">
        <ele>581.1</ele>
        <time>1970-01-01T00:00:00Z</time>
      </trkpt>
      <trkpt lat="39.677065" lon="-5.449643">
        <ele>577.4</ele>
        <time>1970-01-01T00:00:00Z</time>
      </trkpt>
      <trkpt lat="39.677063" lon="-5.449774">
        <ele>575.4</ele>
        <time>1970-01-01T00:00:00Z</time>
      </trkpt>
      <trkpt lat="39.677114" lon="-5.450279">
        <ele>569.9</ele>
        <time>1970-01-01T00:00:00Z</time>
      </trkpt>
      <trkpt lat="39.677178" lon="-5.450715">
        <ele>566.6</ele>
        <time>1970-01-01T00:00:00Z</time>
      </trkpt>
      <trkpt lat="39.677219" lon="-5.450879">
        <ele>565.0</ele>
        <time>1970-01-01T00:00:00Z</time>
      </trkpt>
      <trkpt lat="39.677276" lon="-5.451124">
        <ele>562.5</ele>
        <time>1970-01-01T00:00:00Z</time>
      </trkpt>
      <trkpt lat="39.677323" lon="-5.451279">
        <ele>560.5</ele>
        <time>1970-01-01T00:00:00Z</time>
      </trkpt>
      <trkpt lat="39.677438" lon="-5.451470">
        <ele>559.4</ele>
        <time>1970-01-01T00:00:00Z</time>
      </trkpt>
      <trkpt lat="39.677486" lon="-5.451519">
        <ele>559.3</ele>
        <time>1970-01-01T00:00:00Z</time>
      </trkpt>
      <trkpt lat="39.677673" lon="-5.451716">
        <ele>559.1</ele>
        <time>1970-01-01T00:00:00Z</time>
      </trkpt>
      <trkpt lat="39.677690" lon="-5.451755">
        <ele>558.8</ele>
        <time>1970-01-01T00:00:00Z</time>
      </trkpt>
      <trkpt lat="39.677706" lon="-5.451800">
        <ele>558.4</ele>
        <time>1970-01-01T00:00:00Z</time>
      </trkpt>
      <trkpt lat="39.677728" lon="-5.452073">
        <ele>555.3</ele>
        <time>1970-01-01T00:00:00Z</time>
      </trkpt>
      <trkpt lat="39.677744" lon="-5.452183">
        <ele>554.0</ele>
        <time>1970-01-01T00:00:00Z</time>
      </trkpt>
      <trkpt lat="39.677729" lon="-5.452519">
        <ele>548.6</ele>
        <time>1970-01-01T00:00:00Z</time>
      </trkpt>
      <trkpt lat="39.677661" lon="-5.452624">
        <ele>547.1</ele>
        <time>1970-01-01T00:00:00Z</time>
      </trkpt>
      <trkpt lat="39.677495" lon="-5.452856">
        <ele>543.1</ele>
        <time>1970-01-01T00:00:00Z</time>
      </trkpt>
      <trkpt lat="39.677449" lon="-5.452922">
        <ele>541.8</ele>
        <time>1970-01-01T00:00:00Z</time>
      </trkpt>
      <trkpt lat="39.677310" lon="-5.453138">
        <ele>539.4</ele>
        <time>1970-01-01T00:00:00Z</time>
      </trkpt>
      <trkpt lat="39.677262" lon="-5.453207">
        <ele>538.5</ele>
        <time>1970-01-01T00:00:00Z</time>
      </trkpt>
      <trkpt lat="39.677221" lon="-5.453274">
        <ele>537.4</ele>
        <time>1970-01-01T00:00:00Z</time>
      </trkpt>
      <trkpt lat="39.677084" lon="-5.453659">
        <ele>531.3</ele>
        <time>1970-01-01T00:00:00Z</time>
      </trkpt>
      <trkpt lat="39.677026" lon="-5.453827">
        <ele>529.1</ele>
        <time>1970-01-01T00:00:00Z</time>
      </trkpt>
      <trkpt lat="39.676932" lon="-5.454059">
        <ele>525.5</ele>
        <time>1970-01-01T00:00:00Z</time>
      </trkpt>
      <trkpt lat="39.676782" lon="-5.454390">
        <ele>522.3</ele>
        <time>1970-01-01T00:00:00Z</time>
      </trkpt>
      <trkpt lat="39.676590" lon="-5.454806">
        <ele>517.0</ele>
        <time>1970-01-01T00:00:00Z</time>
      </trkpt>
      <trkpt lat="39.676404" lon="-5.455113">
        <ele>515.6</ele>
        <time>1970-01-01T00:00:00Z</time>
      </trkpt>
      <trkpt lat="39.676240" lon="-5.455336">
        <ele>514.9</ele>
        <time>1970-01-01T00:00:00Z</time>
      </trkpt>
      <trkpt lat="39.675828" lon="-5.455708">
        <ele>510.6</ele>
        <time>1970-01-01T00:00:00Z</time>
      </trkpt>
      <trkpt lat="39.675489" lon="-5.456049">
        <ele>505.3</ele>
        <time>1970-01-01T00:00:00Z</time>
      </trkpt>
      <trkpt lat="39.675381" lon="-5.456167">
        <ele>503.8</ele>
        <time>1970-01-01T00:00:00Z</time>
      </trkpt>
      <trkpt lat="39.675307" lon="-5.456260">
        <ele>503.0</ele>
        <time>1970-01-01T00:00:00Z</time>
      </trkpt>
      <trkpt lat="39.675186" lon="-5.456474">
        <ele>501.6</ele>
        <time>1970-01-01T00:00:00Z</time>
      </trkpt>
      <trkpt lat="39.675017" lon="-5.456902">
        <ele>498.5</ele>
        <time>1970-01-01T00:00:00Z</time>
      </trkpt>
      <trkpt lat="39.674942" lon="-5.457155">
        <ele>496.6</ele>
        <time>1970-01-01T00:00:00Z</time>
      </trkpt>
      <trkpt lat="39.674920" lon="-5.457425">
        <ele>495.2</ele>
        <time>1970-01-01T00:00:00Z</time>
      </trkpt>
      <trkpt lat="39.674867" lon="-5.457688">
        <ele>493.4</ele>
        <time>1970-01-01T00:00:00Z</time>
      </trkpt>
      <trkpt lat="39.674822" lon="-5.458104">
        <ele>490.8</ele>
        <time>1970-01-01T00:00:00Z</time>
      </trkpt>
      <trkpt lat="39.674820" lon="-5.458230">
        <ele>490.2</ele>
        <time>1970-01-01T00:00:00Z</time>
      </trkpt>
      <trkpt lat="39.674819" lon="-5.458357">
        <ele>489.6</ele>
        <time>1970-01-01T00:00:00Z</time>
      </trkpt>
      <trkpt lat="39.674817" lon="-5.458750">
        <ele>488.6</ele>
        <time>1970-01-01T00:00:00Z</time>
      </trkpt>
      <trkpt lat="39.674804" lon="-5.458906">
        <ele>487.8</ele>
        <time>1970-01-01T00:00:00Z</time>
      </trkpt>
      <trkpt lat="39.674689" lon="-5.459167">
        <ele>485.7</ele>
        <time>1970-01-01T00:00:00Z</time>
      </trkpt>
      <trkpt lat="39.674385" lon="-5.459420">
        <ele>482.5</ele>
        <time>1970-01-01T00:00:00Z</time>
      </trkpt>
      <trkpt lat="39.674169" lon="-5.459439">
        <ele>482.0</ele>
        <time>1970-01-01T00:00:00Z</time>
      </trkpt>
      <trkpt lat="39.673891" lon="-5.459397">
        <ele>481.7</ele>
        <time>1970-01-01T00:00:00Z</time>
      </trkpt>
      <trkpt lat="39.673882" lon="-5.459338">
        <ele>481.2</ele>
        <time>1970-01-01T00:00:00Z</time>
      </trkpt>
      <trkpt lat="39.673873" lon="-5.459124">
        <ele>479.9</ele>
        <time>1970-01-01T00:00:00Z</time>
      </trkpt>
      <trkpt lat="39.673762" lon="-5.459046">
        <ele>479.3</ele>
        <time>1970-01-01T00:00:00Z</time>
      </trkpt>
      <trkpt lat="39.673578" lon="-5.459105">
        <ele>479.5</ele>
        <time>1970-01-01T00:00:00Z</time>
      </trkpt>
      <trkpt lat="39.673286" lon="-5.459247">
        <ele>480.0</ele>
        <time>1970-01-01T00:00:00Z</time>
      </trkpt>
      <trkpt lat="39.673099" lon="-5.459338">
        <ele>479.3</ele>
        <time>1970-01-01T00:00:00Z</time>
      </trkpt>
      <trkpt lat="39.672995" lon="-5.459397">
        <ele>478.7</ele>
        <time>1970-01-01T00:00:00Z</time>
      </trkpt>
      <trkpt lat="39.672814" lon="-5.459555">
        <ele>477.9</ele>
        <time>1970-01-01T00:00:00Z</time>
      </trkpt>
      <trkpt lat="39.672724" lon="-5.459649">
        <ele>477.6</ele>
        <time>1970-01-01T00:00:00Z</time>
      </trkpt>
      <trkpt lat="39.672555" lon="-5.459761">
        <ele>473.9</ele>
        <time>1970-01-01T00:00:00Z</time>
      </trkpt>
      <trkpt lat="39.672338" lon="-5.459880">
        <ele>468.1</ele>
        <time>1970-01-01T00:00:00Z</time>
      </trkpt>
      <trkpt lat="39.672238" lon="-5.460029">
        <ele>465.2</ele>
        <time>1970-01-01T00:00:00Z</time>
      </trkpt>
      <trkpt lat="39.672153" lon="-5.460153">
        <ele>462.7</ele>
        <time>1970-01-01T00:00:00Z</time>
      </trkpt>
      <trkpt lat="39.672066" lon="-5.460300">
        <ele>460.7</ele>
        <time>1970-01-01T00:00:00Z</time>
      </trkpt>
      <trkpt lat="39.672044" lon="-5.460346">
        <ele>460.2</ele>
        <time>1970-01-01T00:00:00Z</time>
      </trkpt>
      <trkpt lat="39.672041" lon="-5.460441">
        <ele>460.1</ele>
        <time>1970-01-01T00:00:00Z</time>
      </trkpt>
      <trkpt lat="39.672029" lon="-5.460716">
        <ele>459.1</ele>
        <time>1970-01-01T00:00:00Z</time>
      </trkpt>
      <trkpt lat="39.672022" lon="-5.460849">
        <ele>458.3</ele>
        <time>1970-01-01T00:00:00Z</time>
      </trkpt>
      <trkpt lat="39.672015" lon="-5.461008">
        <ele>457.3</ele>
        <time>1970-01-01T00:00:00Z</time>
      </trkpt>
      <trkpt lat="39.671864" lon="-5.461075">
        <ele>454.2</ele>
        <time>1970-01-01T00:00:00Z</time>
      </trkpt>
      <trkpt lat="39.671637" lon="-5.460931">
        <ele>449.9</ele>
        <time>1970-01-01T00:00:00Z</time>
      </trkpt>
      <trkpt lat="39.671527" lon="-5.460829">
        <ele>447.5</ele>
        <time>1970-01-01T00:00:00Z</time>
      </trkpt>
      <trkpt lat="39.671409" lon="-5.460669">
        <ele>444.9</ele>
        <time>1970-01-01T00:00:00Z</time>
      </trkpt>
      <trkpt lat="39.671368" lon="-5.460571">
        <ele>444.0</ele>
        <time>1970-01-01T00:00:00Z</time>
      </trkpt>
      <trkpt lat="39.671277" lon="-5.460363">
        <ele>441.1</ele>
        <time>1970-01-01T00:00:00Z</time>
      </trkpt>
      <trkpt lat="39.671211" lon="-5.460114">
        <ele>439.9</ele>
        <time>1970-01-01T00:00:00Z</time>
      </trkpt>
      <trkpt lat="39.671193" lon="-5.460047">
        <ele>439.4</ele>
        <time>1970-01-01T00:00:00Z</time>
      </trkpt>
      <trkpt lat="39.671115" lon="-5.459832">
        <ele>438.2</ele>
        <time>1970-01-01T00:00:00Z</time>
      </trkpt>
      <trkpt lat="39.670992" lon="-5.459748">
        <ele>437.2</ele>
        <time>1970-01-01T00:00:00Z</time>
      </trkpt>
      <trkpt lat="39.670890" lon="-5.459637">
        <ele>436.8</ele>
        <time>1970-01-01T00:00:00Z</time>
      </trkpt>
      <trkpt lat="39.670722" lon="-5.459456">
        <ele>436.5</ele>
        <time>1970-01-01T00:00:00Z</time>
      </trkpt>
      <trkpt lat="39.670677" lon="-5.459410">
        <ele>436.7</ele>
        <time>1970-01-01T00:00:00Z</time>
      </trkpt>
      <trkpt lat="39.670529" lon="-5.459334">
        <ele>436.6</ele>
        <time>1970-01-01T00:00:00Z</time>
      </trkpt>
      <trkpt lat="39.670364" lon="-5.459264">
        <ele>436.4</ele>
        <time>1970-01-01T00:00:00Z</time>
      </trkpt>
      <trkpt lat="39.670302" lon="-5.459233">
        <ele>436.7</ele>
        <time>1970-01-01T00:00:00Z</time>
      </trkpt>
      <trkpt lat="39.670168" lon="-5.459176">
        <ele>437.6</ele>
        <time>1970-01-01T00:00:00Z</time>
      </trkpt>
      <trkpt lat="39.669828" lon="-5.459047">
        <ele>439.7</ele>
        <time>1970-01-01T00:00:00Z</time>
      </trkpt>
      <trkpt lat="39.669653" lon="-5.459012">
        <ele>441.1</ele>
        <time>1970-01-01T00:00:00Z</time>
      </trkpt>
      <trkpt lat="39.669350" lon="-5.459040">
        <ele>444.1</ele>
        <time>1970-01-01T00:00:00Z</time>
      </trkpt>
      <trkpt lat="39.669250" lon="-5.459060">
        <ele>444.8</ele>
        <time>1970-01-01T00:00:00Z</time>
      </trkpt>
      <trkpt lat="39.668900" lon="-5.459190">
        <ele>446.5</ele>
        <time>1970-01-01T00:00:00Z</time>
      </trkpt>
      <trkpt lat="39.668840" lon="-5.459220">
        <ele>446.9</ele>
        <time>1970-01-01T00:00:00Z</time>
      </trkpt>
      <trkpt lat="39.668560" lon="-5.459370">
        <ele>449.8</ele>
        <time>1970-01-01T00:00:00Z</time>
      </trkpt>
      <trkpt lat="39.668230" lon="-5.459800">
        <ele>451.2</ele>
        <time>1970-01-01T00:00:00Z</time>
      </trkpt>
      <trkpt lat="39.668160" lon="-5.459890">
        <ele>451.0</ele>
        <time>1970-01-01T00:00:00Z</time>
      </trkpt>
      <trkpt lat="39.668089" lon="-5.459930">
        <ele>451.4</ele>
        <time>1970-01-01T00:00:00Z</time>
      </trkpt>
      <trkpt lat="39.667966" lon="-5.460019">
        <ele>451.7</ele>
        <time>1970-01-01T00:00:00Z</time>
      </trkpt>
      <trkpt lat="39.667710" lon="-5.460140">
        <ele>451.0</ele>
        <time>1970-01-01T00:00:00Z</time>
      </trkpt>
      <trkpt lat="39.667630" lon="-5.460190">
        <ele>450.7</ele>
        <time>1970-01-01T00:00:00Z</time>
      </trkpt>
      <trkpt lat="39.667280" lon="-5.460300">
        <ele>449.5</ele>
        <time>1970-01-01T00:00:00Z</time>
      </trkpt>
      <trkpt lat="39.667240" lon="-5.460320">
        <ele>448.9</ele>
        <time>1970-01-01T00:00:00Z</time>
      </trkpt>
      <trkpt lat="39.667160" lon="-5.460380">
        <ele>447.4</ele>
        <time>1970-01-01T00:00:00Z</time>
      </trkpt>
      <trkpt lat="39.667070" lon="-5.460412">
        <ele>446.5</ele>
        <time>1970-01-01T00:00:00Z</time>
      </trkpt>
      <trkpt lat="39.666882" lon="-5.460546">
        <ele>444.5</ele>
        <time>1970-01-01T00:00:00Z</time>
      </trkpt>
      <trkpt lat="39.666791" lon="-5.460589">
        <ele>443.7</ele>
        <time>1970-01-01T00:00:00Z</time>
      </trkpt>
      <trkpt lat="39.666638" lon="-5.460595">
        <ele>443.0</ele>
        <time>1970-01-01T00:00:00Z</time>
      </trkpt>
      <trkpt lat="39.666541" lon="-5.460481">
        <ele>443.4</ele>
        <time>1970-01-01T00:00:00Z</time>
      </trkpt>
      <trkpt lat="39.666433" lon="-5.460302">
        <ele>443.7</ele>
        <time>1970-01-01T00:00:00Z</time>
      </trkpt>
      <trkpt lat="39.666382" lon="-5.460149">
        <ele>444.8</ele>
        <time>1970-01-01T00:00:00Z</time>
      </trkpt>
      <trkpt lat="39.666338" lon="-5.459873">
        <ele>446.5</ele>
        <time>1970-01-01T00:00:00Z</time>
      </trkpt>
      <trkpt lat="39.666336" lon="-5.459547">
        <ele>450.1</ele>
        <time>1970-01-01T00:00:00Z</time>
      </trkpt>
      <trkpt lat="39.666365" lon="-5.459222">
        <ele>454.0</ele>
        <time>1970-01-01T00:00:00Z</time>
      </trkpt>
      <trkpt lat="39.666460" lon="-5.459004">
        <ele>458.7</ele>
        <time>1970-01-01T00:00:00Z</time>
      </trkpt>
      <trkpt lat="39.666458" lon="-5.458677">
        <ele>462.6</ele>
        <time>1970-01-01T00:00:00Z</time>
      </trkpt>
      <trkpt lat="39.666233" lon="-5.458436">
        <ele>460.4</ele>
        <time>1970-01-01T00:00:00Z</time>
      </trkpt>
      <trkpt lat="39.665839" lon="-5.458340">
        <ele>456.0</ele>
        <time>1970-01-01T00:00:00Z</time>
      </trkpt>
      <trkpt lat="39.665494" lon="-5.458480">
        <ele>449.8</ele>
        <time>1970-01-01T00:00:00Z</time>
      </trkpt>
      <trkpt lat="39.665070" lon="-5.458670">
        <ele>446.0</ele>
        <time>1970-01-01T00:00:00Z</time>
      </trkpt>
      <trkpt lat="39.664880" lon="-5.458770">
        <ele>444.9</ele>
        <time>1970-01-01T00:00:00Z</time>
      </trkpt>
      <trkpt lat="39.664661" lon="-5.458870">
        <ele>444.5</ele>
        <time>1970-01-01T00:00:00Z</time>
      </trkpt>
      <trkpt lat="39.664552" lon="-5.458948">
        <ele>444.1</ele>
        <time>1970-01-01T00:00:00Z</time>
      </trkpt>
      <trkpt lat="39.664397" lon="-5.459018">
        <ele>444.0</ele>
        <time>1970-01-01T00:00:00Z</time>
      </trkpt>
      <trkpt lat="39.664176" lon="-5.459045">
        <ele>444.0</ele>
        <time>1970-01-01T00:00:00Z</time>
      </trkpt>
      <trkpt lat="39.663937" lon="-5.459025">
        <ele>442.6</ele>
        <time>1970-01-01T00:00:00Z</time>
      </trkpt>
      <trkpt lat="39.663748" lon="-5.459053">
        <ele>441.5</ele>
        <time>1970-01-01T00:00:00Z</time>
      </trkpt>
      <trkpt lat="39.663348" lon="-5.458998">
        <ele>439.8</ele>
        <time>1970-01-01T00:00:00Z</time>
      </trkpt>
      <trkpt lat="39.663014" lon="-5.458811">
        <ele>439.0</ele>
        <time>1970-01-01T00:00:00Z</time>
      </trkpt>
      <trkpt lat="39.662668" lon="-5.458554">
        <ele>439.0</ele>
        <time>1970-01-01T00:00:00Z</time>
      </trkpt>
      <trkpt lat="39.662268" lon="-5.458307">
        <ele>439.9</ele>
        <time>1970-01-01T00:00:00Z</time>
      </trkpt>
      <trkpt lat="39.662037" lon="-5.457949">
        <ele>444.8</ele>
        <time>1970-01-01T00:00:00Z</time>
      </trkpt>
      <trkpt lat="39.661840" lon="-5.457697">
        <ele>448.6</ele>
        <time>1970-01-01T00:00:00Z</time>
      </trkpt>
      <trkpt lat="39.661629" lon="-5.457428">
        <ele>453.9</ele>
        <time>1970-01-01T00:00:00Z</time>
      </trkpt>
      <trkpt lat="39.661408" lon="-5.457239">
        <ele>456.6</ele>
        <time>1970-01-01T00:00:00Z</time>
      </trkpt>
      <trkpt lat="39.661090" lon="-5.457146">
        <ele>458.6</ele>
        <time>1970-01-01T00:00:00Z</time>
      </trkpt>
      <trkpt lat="39.660865" lon="-5.457127">
        <ele>460.0</ele>
        <time>1970-01-01T00:00:00Z</time>
      </trkpt>
      <trkpt lat="39.660433" lon="-5.457106">
        <ele>462.3</ele>
        <time>1970-01-01T00:00:00Z</time>
      </trkpt>
      <trkpt lat="39.659859" lon="-5.457202">
        <ele>464.8</ele>
        <time>1970-01-01T00:00:00Z</time>
      </trkpt>
      <trkpt lat="39.659365" lon="-5.457342">
        <ele>463.3</ele>
        <time>1970-01-01T00:00:00Z</time>
      </trkpt>
      <trkpt lat="39.658931" lon="-5.457420">
        <ele>459.8</ele>
        <time>1970-01-01T00:00:00Z</time>
      </trkpt>
      <trkpt lat="39.658778" lon="-5.457624">
        <ele>456.6</ele>
        <time>1970-01-01T00:00:00Z</time>
      </trkpt>
      <trkpt lat="39.658504" lon="-5.457807">
        <ele>450.7</ele>
        <time>1970-01-01T00:00:00Z</time>
      </trkpt>
      <trkpt lat="39.658230" lon="-5.457791">
        <ele>447.7</ele>
        <time>1970-01-01T00:00:00Z</time>
      </trkpt>
      <trkpt lat="39.658156" lon="-5.457678">
        <ele>448.1</ele>
        <time>1970-01-01T00:00:00Z</time>
      </trkpt>
      <trkpt lat="39.658115" lon="-5.457449">
        <ele>449.6</ele>
        <time>1970-01-01T00:00:00Z</time>
      </trkpt>
      <trkpt lat="39.658084" lon="-5.457238">
        <ele>451.1</ele>
        <time>1970-01-01T00:00:00Z</time>
      </trkpt>
      <trkpt lat="39.657991" lon="-5.457141">
        <ele>450.8</ele>
        <time>1970-01-01T00:00:00Z</time>
      </trkpt>
      <trkpt lat="39.657799" lon="-5.457088">
        <ele>448.7</ele>
        <time>1970-01-01T00:00:00Z</time>
      </trkpt>
      <trkpt lat="39.657673" lon="-5.457054">
        <ele>447.6</ele>
        <time>1970-01-01T00:00:00Z</time>
      </trkpt>
      <trkpt lat="39.657191" lon="-5.456874">
        <ele>444.5</ele>
        <time>1970-01-01T00:00:00Z</time>
      </trkpt>
      <trkpt lat="39.656722" lon="-5.456665">
        <ele>443.1</ele>
        <time>1970-01-01T00:00:00Z</time>
      </trkpt>
      <trkpt lat="39.656369" lon="-5.456519">
        <ele>443.0</ele>
        <time>1970-01-01T00:00:00Z</time>
      </trkpt>
      <trkpt lat="39.656015" lon="-5.456244">
        <ele>443.7</ele>
        <time>1970-01-01T00:00:00Z</time>
      </trkpt>
      <trkpt lat="39.655675" lon="-5.455929">
        <ele>444.6</ele>
        <time>1970-01-01T00:00:00Z</time>
      </trkpt>
      <trkpt lat="39.655210" lon="-5.455539">
        <ele>446.2</ele>
        <time>1970-01-01T00:00:00Z</time>
      </trkpt>
      <trkpt lat="39.654717" lon="-5.455196">
        <ele>450.0</ele>
        <time>1970-01-01T00:00:00Z</time>
      </trkpt>
      <trkpt lat="39.654335" lon="-5.454972">
        <ele>452.5</ele>
        <time>1970-01-01T00:00:00Z</time>
      </trkpt>
      <trkpt lat="39.654107" lon="-5.454877">
        <ele>453.1</ele>
        <time>1970-01-01T00:00:00Z</time>
      </trkpt>
      <trkpt lat="39.653964" lon="-5.454831">
        <ele>453.0</ele>
        <time>1970-01-01T00:00:00Z</time>
      </trkpt>
      <trkpt lat="39.653804" lon="-5.454715">
        <ele>455.3</ele>
        <time>1970-01-01T00:00:00Z</time>
      </trkpt>
      <trkpt lat="39.653493" lon="-5.454494">
        <ele>457.4</ele>
        <time>1970-01-01T00:00:00Z</time>
      </trkpt>
      <trkpt lat="39.653369" lon="-5.454396">
        <ele>457.7</ele>
        <time>1970-01-01T00:00:00Z</time>
      </trkpt>
      <trkpt lat="39.653191" lon="-5.454332">
        <ele>455.9</ele>
        <time>1970-01-01T00:00:00Z</time>
      </trkpt>
      <trkpt lat="39.652730" lon="-5.454180">
        <ele>451.5</ele>
        <time>1970-01-01T00:00:00Z</time>
      </trkpt>
      <trkpt lat="39.652357" lon="-5.454110">
        <ele>448.4</ele>
        <time>1970-01-01T00:00:00Z</time>
      </trkpt>
      <trkpt lat="39.652036" lon="-5.454192">
        <ele>446.6</ele>
        <time>1970-01-01T00:00:00Z</time>
      </trkpt>
      <trkpt lat="39.651526" lon="-5.454244">
        <ele>446.1</ele>
        <time>1970-01-01T00:00:00Z</time>
      </trkpt>
      <trkpt lat="39.650922" lon="-5.454240">
        <ele>447.5</ele>
        <time>1970-01-01T00:00:00Z</time>
      </trkpt>
      <trkpt lat="39.650784" lon="-5.454165">
        <ele>447.3</ele>
        <time>1970-01-01T00:00:00Z</time>
      </trkpt>
      <trkpt lat="39.650731" lon="-5.453942">
        <ele>448.0</ele>
        <time>1970-01-01T00:00:00Z</time>
      </trkpt>
      <trkpt lat="39.650740" lon="-5.453493">
        <ele>453.9</ele>
        <time>1970-01-01T00:00:00Z</time>
      </trkpt>
      <trkpt lat="39.650705" lon="-5.453242">
        <ele>458.1</ele>
        <time>1970-01-01T00:00:00Z</time>
      </trkpt>
      <trkpt lat="39.650468" lon="-5.453152">
        <ele>459.7</ele>
        <time>1970-01-01T00:00:00Z</time>
      </trkpt>
      <trkpt lat="39.649963" lon="-5.453157">
        <ele>459.8</ele>
        <time>1970-01-01T00:00:00Z</time>
      </trkpt>
      <trkpt lat="39.649463" lon="-5.453198">
        <ele>460.9</ele>
        <time>1970-01-01T00:00:00Z</time>
      </trkpt>
      <trkpt lat="39.649229" lon="-5.453178">
        <ele>461.6</ele>
        <time>1970-01-01T00:00:00Z</time>
      </trkpt>
      <trkpt lat="39.648924" lon="-5.453126">
        <ele>463.7</ele>
        <time>1970-01-01T00:00:00Z</time>
      </trkpt>
      <trkpt lat="39.648640" lon="-5.453139">
        <ele>463.4</ele>
        <time>1970-01-01T00:00:00Z</time>
      </trkpt>
      <trkpt lat="39.648010" lon="-5.453315">
        <ele>461.4</ele>
        <time>1970-01-01T00:00:00Z</time>
      </trkpt>
      <trkpt lat="39.647624" lon="-5.453430">
        <ele>461.1</ele>
        <time>1970-01-01T00:00:00Z</time>
      </trkpt>
      <trkpt lat="39.647244" lon="-5.453515">
        <ele>462.4</ele>
        <time>1970-01-01T00:00:00Z</time>
      </trkpt>
      <trkpt lat="39.647119" lon="-5.453488">
        <ele>463.2</ele>
        <time>1970-01-01T00:00:00Z</time>
      </trkpt>
      <trkpt lat="39.647049" lon="-5.453386">
        <ele>464.5</ele>
        <time>1970-01-01T00:00:00Z</time>
      </trkpt>
      <trkpt lat="39.647029" lon="-5.453246">
        <ele>466.3</ele>
        <time>1970-01-01T00:00:00Z</time>
      </trkpt>
      <trkpt lat="39.646985" lon="-5.453005">
        <ele>468.7</ele>
        <time>1970-01-01T00:00:00Z</time>
      </trkpt>
      <trkpt lat="39.646845" lon="-5.452994">
        <ele>468.7</ele>
        <time>1970-01-01T00:00:00Z</time>
      </trkpt>
      <trkpt lat="39.646794" lon="-5.453313">
        <ele>465.4</ele>
        <time>1970-01-01T00:00:00Z</time>
      </trkpt>
      <trkpt lat="39.646612" lon="-5.453376">
        <ele>465.0</ele>
        <time>1970-01-01T00:00:00Z</time>
      </trkpt>
      <trkpt lat="39.646258" lon="-5.453311">
        <ele>466.5</ele>
        <time>1970-01-01T00:00:00Z</time>
      </trkpt>
      <trkpt lat="39.645867" lon="-5.453018">
        <ele>470.3</ele>
        <time>1970-01-01T00:00:00Z</time>
      </trkpt>
      <trkpt lat="39.645704" lon="-5.452872">
        <ele>472.7</ele>
        <time>1970-01-01T00:00:00Z</time>
      </trkpt>
      <trkpt lat="39.645331" lon="-5.452836">
        <ele>473.8</ele>
        <time>1970-01-01T00:00:00Z</time>
      </trkpt>
      <trkpt lat="39.644914" lon="-5.452932">
        <ele>472.8</ele>
        <time>1970-01-01T00:00:00Z</time>
      </trkpt>
      <trkpt lat="39.644605" lon="-5.453078">
        <ele>471.2</ele>
        <time>1970-01-01T00:00:00Z</time>
      </trkpt>
      <trkpt lat="39.644373" lon="-5.453187">
        <ele>470.3</ele>
        <time>1970-01-01T00:00:00Z</time>
      </trkpt>
      <trkpt lat="39.644164" lon="-5.453261">
        <ele>469.7</ele>
        <time>1970-01-01T00:00:00Z</time>
      </trkpt>
      <trkpt lat="39.643947" lon="-5.453306">
        <ele>468.5</ele>
        <time>1970-01-01T00:00:00Z</time>
      </trkpt>
      <trkpt lat="39.643805" lon="-5.453411">
        <ele>466.5</ele>
        <time>1970-01-01T00:00:00Z</time>
      </trkpt>
      <trkpt lat="39.643720" lon="-5.453650">
        <ele>464.0</ele>
        <time>1970-01-01T00:00:00Z</time>
      </trkpt>
      <trkpt lat="39.643631" lon="-5.453964">
        <ele>462.0</ele>
        <time>1970-01-01T00:00:00Z</time>
      </trkpt>
      <trkpt lat="39.643480" lon="-5.454210">
        <ele>462.0</ele>
        <time>1970-01-01T00:00:00Z</time>
      </trkpt>
      <trkpt lat="39.643300" lon="-5.454291">
        <ele>462.0</ele>
        <time>1970-01-01T00:00:00Z</time>
      </trkpt>
      <trkpt lat="39.642995" lon="-5.454466">
        <ele>462.0</ele>
        <time>1970-01-01T00:00:00Z</time>
      </trkpt>
      <trkpt lat="39.642730" lon="-5.454626">
        <ele>461.7</ele>
        <time>1970-01-01T00:00:00Z</time>
      </trkpt>
      <trkpt lat="39.642446" lon="-5.454639">
        <ele>460.5</ele>
        <time>1970-01-01T00:00:00Z</time>
      </trkpt>
      <trkpt lat="39.642096" lon="-5.454598">
        <ele>458.0</ele>
        <time>1970-01-01T00:00:00Z</time>
      </trkpt>
      <trkpt lat="39.641700" lon="-5.454549">
        <ele>458.0</ele>
        <time>1970-01-01T00:00:00Z</time>
      </trkpt>
      <trkpt lat="39.641331" lon="-5.454536">
        <ele>459.4</ele>
        <time>1970-01-01T00:00:00Z</time>
      </trkpt>
      <trkpt lat="39.640767" lon="-5.454597">
        <ele>460.0</ele>
        <time>1970-01-01T00:00:00Z</time>
      </trkpt>
      <trkpt lat="39.640266" lon="-5.454661">
        <ele>460.0</ele>
        <time>1970-01-01T00:00:00Z</time>
      </trkpt>
      <trkpt lat="39.640081" lon="-5.454672">
        <ele>459.7</ele>
        <time>1970-01-01T00:00:00Z</time>
      </trkpt>
      <trkpt lat="39.639950" lon="-5.454673">
        <ele>459.4</ele>
        <time>1970-01-01T00:00:00Z</time>
      </trkpt>
      <trkpt lat="39.639756" lon="-5.454690">
        <ele>459.0</ele>
        <time>1970-01-01T00:00:00Z</time>
      </trkpt>
      <trkpt lat="39.639643" lon="-5.454697">
        <ele>459.0</ele>
        <time>1970-01-01T00:00:00Z</time>
      </trkpt>
      <trkpt lat="39.639428" lon="-5.454672">
        <ele>459.0</ele>
        <time>1970-01-01T00:00:00Z</time>
      </trkpt>
      <trkpt lat="39.639280" lon="-5.454609">
        <ele>459.2</ele>
        <time>1970-01-01T00:00:00Z</time>
      </trkpt>
      <trkpt lat="39.639041" lon="-5.454647">
        <ele>460.5</ele>
        <time>1970-01-01T00:00:00Z</time>
      </trkpt>
      <trkpt lat="39.638896" lon="-5.454671">
        <ele>460.9</ele>
        <time>1970-01-01T00:00:00Z</time>
      </trkpt>
      <trkpt lat="39.638800" lon="-5.454732">
        <ele>461.1</ele>
        <time>1970-01-01T00:00:00Z</time>
      </trkpt>
      <trkpt lat="39.638686" lon="-5.454792">
        <ele>461.1</ele>
        <time>1970-01-01T00:00:00Z</time>
      </trkpt>
      <trkpt lat="39.638591" lon="-5.454835">
        <ele>461.1</ele>
        <time>1970-01-01T00:00:00Z</time>
      </trkpt>
      <trkpt lat="39.638455" lon="-5.454847">
        <ele>461.5</ele>
        <time>1970-01-01T00:00:00Z</time>
      </trkpt>
      <trkpt lat="39.637978" lon="-5.454842">
        <ele>459.9</ele>
        <time>1970-01-01T00:00:00Z</time>
      </trkpt>
      <trkpt lat="39.637573" lon="-5.454816">
        <ele>460.0</ele>
        <time>1970-01-01T00:00:00Z</time>
      </trkpt>
      <trkpt lat="39.637395" lon="-5.454740">
        <ele>461.3</ele>
        <time>1970-01-01T00:00:00Z</time>
      </trkpt>
      <trkpt lat="39.637346" lon="-5.454703">
        <ele>461.9</ele>
        <time>1970-01-01T00:00:00Z</time>
      </trkpt>
      <trkpt lat="39.637288" lon="-5.454695">
        <ele>462.0</ele>
        <time>1970-01-01T00:00:00Z</time>
      </trkpt>
      <trkpt lat="39.637210" lon="-5.454700">
        <ele>462.0</ele>
        <time>1970-01-01T00:00:00Z</time>
      </trkpt>
      <trkpt lat="39.637059" lon="-5.454658">
        <ele>462.9</ele>
        <time>1970-01-01T00:00:00Z</time>
      </trkpt>
      <trkpt lat="39.636910" lon="-5.454570">
        <ele>463.7</ele>
        <time>1970-01-01T00:00:00Z</time>
      </trkpt>
      <trkpt lat="39.636790" lon="-5.454440">
        <ele>464.3</ele>
        <time>1970-01-01T00:00:00Z</time>
      </trkpt>
      <trkpt lat="39.636650" lon="-5.454170">
        <ele>466.2</ele>
        <time>1970-01-01T00:00:00Z</time>
      </trkpt>
      <trkpt lat="39.636390" lon="-5.453770">
        <ele>469.4</ele>
        <time>1970-01-01T00:00:00Z</time>
      </trkpt>
      <trkpt lat="39.636270" lon="-5.453520">
        <ele>471.2</ele>
        <time>1970-01-01T00:00:00Z</time>
      </trkpt>
      <trkpt lat="39.636224" lon="-5.453242">
        <ele>474.3</ele>
        <time>1970-01-01T00:00:00Z</time>
      </trkpt>
      <trkpt lat="39.635929" lon="-5.452696">
        <ele>474.9</ele>
        <time>1970-01-01T00:00:00Z</time>
      </trkpt>
      <trkpt lat="39.635693" lon="-5.452338">
        <ele>477.1</ele>
        <time>1970-01-01T00:00:00Z</time>
      </trkpt>
      <trkpt lat="39.635303" lon="-5.451852">
        <ele>474.9</ele>
        <time>1970-01-01T00:00:00Z</time>
      </trkpt>
      <trkpt lat="39.634809" lon="-5.451136">
        <ele>471.8</ele>
        <time>1970-01-01T00:00:00Z</time>
      </trkpt>
      <trkpt lat="39.634695" lon="-5.450992">
        <ele>470.9</ele>
        <time>1970-01-01T00:00:00Z</time>
      </trkpt>
      <trkpt lat="39.634184" lon="-5.450637">
        <ele>468.7</ele>
        <time>1970-01-01T00:00:00Z</time>
      </trkpt>
      <trkpt lat="39.633893" lon="-5.450539">
        <ele>468.6</ele>
        <time>1970-01-01T00:00:00Z</time>
      </trkpt>
      <trkpt lat="39.633657" lon="-5.450426">
        <ele>470.4</ele>
        <time>1970-01-01T00:00:00Z</time>
      </trkpt>
      <trkpt lat="39.633362" lon="-5.450334">
        <ele>472.6</ele>
        <time>1970-01-01T00:00:00Z</time>
      </trkpt>
      <trkpt lat="39.633003" lon="-5.450048">
        <ele>477.8</ele>
        <time>1970-01-01T00:00:00Z</time>
      </trkpt>
      <trkpt lat="39.632712" lon="-5.449956">
        <ele>479.3</ele>
        <time>1970-01-01T00:00:00Z</time>
      </trkpt>
      <trkpt lat="39.632093" lon="-5.449829">
        <ele>480.7</ele>
        <time>1970-01-01T00:00:00Z</time>
      </trkpt>
      <trkpt lat="39.631695" lon="-5.449920">
        <ele>478.8</ele>
        <time>1970-01-01T00:00:00Z</time>
      </trkpt>
      <trkpt lat="39.631559" lon="-5.449968">
        <ele>478.3</ele>
        <time>1970-01-01T00:00:00Z</time>
      </trkpt>
      <trkpt lat="39.631343" lon="-5.449948">
        <ele>479.6</ele>
        <time>1970-01-01T00:00:00Z</time>
      </trkpt>
      <trkpt lat="39.630802" lon="-5.449947">
        <ele>480.9</ele>
        <time>1970-01-01T00:00:00Z</time>
      </trkpt>
      <trkpt lat="39.630694" lon="-5.449960">
        <ele>480.9</ele>
        <time>1970-01-01T00:00:00Z</time>
      </trkpt>
      <trkpt lat="39.630586" lon="-5.449927">
        <ele>481.2</ele>
        <time>1970-01-01T00:00:00Z</time>
      </trkpt>
      <trkpt lat="39.630448" lon="-5.449678">
        <ele>483.3</ele>
        <time>1970-01-01T00:00:00Z</time>
      </trkpt>
      <trkpt lat="39.630270" lon="-5.449120">
        <ele>489.4</ele>
        <time>1970-01-01T00:00:00Z</time>
      </trkpt>
      <trkpt lat="39.630090" lon="-5.448590">
        <ele>492.1</ele>
        <time>1970-01-01T00:00:00Z</time>
      </trkpt>
      <trkpt lat="39.630070" lon="-5.448530">
        <ele>492.3</ele>
        <time>1970-01-01T00:00:00Z</time>
      </trkpt>
      <trkpt lat="39.630040" lon="-5.448110">
        <ele>495.4</ele>
        <time>1970-01-01T00:00:00Z</time>
      </trkpt>
      <trkpt lat="39.630080" lon="-5.447830">
        <ele>499.4</ele>
        <time>1970-01-01T00:00:00Z</time>
      </trkpt>
      <trkpt lat="39.630074" lon="-5.447527">
        <ele>501.0</ele>
        <time>1970-01-01T00:00:00Z</time>
      </trkpt>
      <trkpt lat="39.630110" lon="-5.447320">
        <ele>503.5</ele>
        <time>1970-01-01T00:00:00Z</time>
      </trkpt>
      <trkpt lat="39.630219" lon="-5.447078">
        <ele>507.4</ele>
        <time>1970-01-01T00:00:00Z</time>
      </trkpt>
      <trkpt lat="39.630180" lon="-5.446910">
        <ele>508.2</ele>
        <time>1970-01-01T00:00:00Z</time>
      </trkpt>
      <trkpt lat="39.630180" lon="-5.446600">
        <ele>510.4</ele>
        <time>1970-01-01T00:00:00Z</time>
      </trkpt>
      <trkpt lat="39.630220" lon="-5.446460">
        <ele>511.4</ele>
        <time>1970-01-01T00:00:00Z</time>
      </trkpt>
      <trkpt lat="39.630350" lon="-5.446200">
        <ele>514.0</ele>
        <time>1970-01-01T00:00:00Z</time>
      </trkpt>
      <trkpt lat="39.630490" lon="-5.445850">
        <ele>516.6</ele>
        <time>1970-01-01T00:00:00Z</time>
      </trkpt>
      <trkpt lat="39.630540" lon="-5.445360">
        <ele>516.2</ele>
        <time>1970-01-01T00:00:00Z</time>
      </trkpt>
      <trkpt lat="39.630560" lon="-5.445150">
        <ele>516.9</ele>
        <time>1970-01-01T00:00:00Z</time>
      </trkpt>
      <trkpt lat="39.630560" lon="-5.444990">
        <ele>517.2</ele>
        <time>1970-01-01T00:00:00Z</time>
      </trkpt>
      <trkpt lat="39.630522" lon="-5.444857">
        <ele>516.8</ele>
        <time>1970-01-01T00:00:00Z</time>
      </trkpt>
      <trkpt lat="39.630468" lon="-5.444663">
        <ele>516.4</ele>
        <time>1970-01-01T00:00:00Z</time>
      </trkpt>
      <trkpt lat="39.630371" lon="-5.444351">
        <ele>517.3</ele>
        <time>1970-01-01T00:00:00Z</time>
      </trkpt>
      <trkpt lat="39.630317" lon="-5.444104">
        <ele>519.0</ele>
        <time>1970-01-01T00:00:00Z</time>
      </trkpt>
      <trkpt lat="39.630250" lon="-5.443930">
        <ele>520.6</ele>
        <time>1970-01-01T00:00:00Z</time>
      </trkpt>
      <trkpt lat="39.630141" lon="-5.443725">
        <ele>522.6</ele>
        <time>1970-01-01T00:00:00Z</time>
      </trkpt>
      <trkpt lat="39.630050" lon="-5.443540">
        <ele>524.7</ele>
        <time>1970-01-01T00:00:00Z</time>
      </trkpt>
      <trkpt lat="39.630000" lon="-5.443440">
        <ele>525.7</ele>
        <time>1970-01-01T00:00:00Z</time>
      </trkpt>
      <trkpt lat="39.629770" lon="-5.443150">
        <ele>527.5</ele>
        <time>1970-01-01T00:00:00Z</time>
      </trkpt>
      <trkpt lat="39.629760" lon="-5.443100">
        <ele>528.1</ele>
        <time>1970-01-01T00:00:00Z</time>
      </trkpt>
      <trkpt lat="39.629690" lon="-5.442560">
        <ele>533.5</ele>
        <time>1970-01-01T00:00:00Z</time>
      </trkpt>
      <trkpt lat="39.629680" lon="-5.442500">
        <ele>534.0</ele>
        <time>1970-01-01T00:00:00Z</time>
      </trkpt>
      <trkpt lat="39.629680" lon="-5.442260">
        <ele>536.1</ele>
        <time>1970-01-01T00:00:00Z</time>
      </trkpt>
      <trkpt lat="39.629770" lon="-5.441930">
        <ele>539.5</ele>
        <time>1970-01-01T00:00:00Z</time>
      </trkpt>
      <trkpt lat="39.629845" lon="-5.441729">
        <ele>541.1</ele>
        <time>1970-01-01T00:00:00Z</time>
      </trkpt>
      <trkpt lat="39.629869" lon="-5.441654">
        <ele>541.5</ele>
        <time>1970-01-01T00:00:00Z</time>
      </trkpt>
      <trkpt lat="39.629890" lon="-5.441600">
        <ele>541.9</ele>
        <time>1970-01-01T00:00:00Z</time>
      </trkpt>
      <trkpt lat="39.629940" lon="-5.441320">
        <ele>543.8</ele>
        <time>1970-01-01T00:00:00Z</time>
      </trkpt>
      <trkpt lat="39.630100" lon="-5.440910">
        <ele>546.2</ele>
        <time>1970-01-01T00:00:00Z</time>
      </trkpt>
      <trkpt lat="39.630210" lon="-5.440610">
        <ele>546.7</ele>
        <time>1970-01-01T00:00:00Z</time>
      </trkpt>
      <trkpt lat="39.630290" lon="-5.440270">
        <ele>547.0</ele>
        <time>1970-01-01T00:00:00Z</time>
      </trkpt>
      <trkpt lat="39.630350" lon="-5.439870">
        <ele>548.3</ele>
        <time>1970-01-01T00:00:00Z</time>
      </trkpt>
      <trkpt lat="39.630360" lon="-5.439730">
        <ele>549.3</ele>
        <time>1970-01-01T00:00:00Z</time>
      </trkpt>
      <trkpt lat="39.630380" lon="-5.439520">
        <ele>550.8</ele>
        <time>1970-01-01T00:00:00Z</time>
      </trkpt>
      <trkpt lat="39.630370" lon="-5.439390">
        <ele>551.5</ele>
        <time>1970-01-01T00:00:00Z</time>
      </trkpt>
      <trkpt lat="39.630370" lon="-5.438950">
        <ele>554.5</ele>
        <time>1970-01-01T00:00:00Z</time>
      </trkpt>
      <trkpt lat="39.630370" lon="-5.438890">
        <ele>554.8</ele>
        <time>1970-01-01T00:00:00Z</time>
      </trkpt>
      <trkpt lat="39.630360" lon="-5.438670">
        <ele>557.0</ele>
        <time>1970-01-01T00:00:00Z</time>
      </trkpt>
      <trkpt lat="39.630350" lon="-5.438610">
        <ele>557.8</ele>
        <time>1970-01-01T00:00:00Z</time>
      </trkpt>
      <trkpt lat="39.630410" lon="-5.438070">
        <ele>562.5</ele>
        <time>1970-01-01T00:00:00Z</time>
      </trkpt>
      <trkpt lat="39.630430" lon="-5.437990">
        <ele>563.5</ele>
        <time>1970-01-01T00:00:00Z</time>
      </trkpt>
      <trkpt lat="39.630570" lon="-5.437720">
        <ele>566.0</ele>
        <time>1970-01-01T00:00:00Z</time>
      </trkpt>
      <trkpt lat="39.630730" lon="-5.437550">
        <ele>568.4</ele>
        <time>1970-01-01T00:00:00Z</time>
      </trkpt>
      <trkpt lat="39.630760" lon="-5.437530">
        <ele>568.6</ele>
        <time>1970-01-01T00:00:00Z</time>
      </trkpt>
      <trkpt lat="39.630800" lon="-5.437440">
        <ele>569.8</ele>
        <time>1970-01-01T00:00:00Z</time>
      </trkpt>
      <trkpt lat="39.630870" lon="-5.437250">
        <ele>573.4</ele>
        <time>1970-01-01T00:00:00Z</time>
      </trkpt>
      <trkpt lat="39.630920" lon="-5.437130">
        <ele>575.6</ele>
        <time>1970-01-01T00:00:00Z</time>
      </trkpt>
      <trkpt lat="39.631020" lon="-5.436950">
        <ele>578.6</ele>
        <time>1970-01-01T00:00:00Z</time>
      </trkpt>
      <trkpt lat="39.631129" lon="-5.436770">
        <ele>581.3</ele>
        <time>1970-01-01T00:00:00Z</time>
      </trkpt>
      <trkpt lat="39.631195" lon="-5.436644">
        <ele>582.9</ele>
        <time>1970-01-01T00:00:00Z</time>
      </trkpt>
      <trkpt lat="39.631312" lon="-5.436409">
        <ele>586.0</ele>
        <time>1970-01-01T00:00:00Z</time>
      </trkpt>
      <trkpt lat="39.631456" lon="-5.436024">
        <ele>592.0</ele>
        <time>1970-01-01T00:00:00Z</time>
      </trkpt>
      <trkpt lat="39.631513" lon="-5.435665">
        <ele>595.1</ele>
        <time>1970-01-01T00:00:00Z</time>
      </trkpt>
      <trkpt lat="39.631444" lon="-5.435290">
        <ele>596.0</ele>
        <time>1970-01-01T00:00:00Z</time>
      </trkpt>
      <trkpt lat="39.631323" lon="-5.434843">
        <ele>598.0</ele>
        <time>1970-01-01T00:00:00Z</time>
      </trkpt>
      <trkpt lat="39.631190" lon="-5.434570">
        <ele>599.1</ele>
        <time>1970-01-01T00:00:00Z</time>
      </trkpt>
      <trkpt lat="39.630940" lon="-5.434290">
        <ele>600.0</ele>
        <time>1970-01-01T00:00:00Z</time>
      </trkpt>
      <trkpt lat="39.630810" lon="-5.434110">
        <ele>600.8</ele>
        <time>1970-01-01T00:00:00Z</time>
      </trkpt>
      <trkpt lat="39.630630" lon="-5.433850">
        <ele>603.1</ele>
        <time>1970-01-01T00:00:00Z</time>
      </trkpt>
      <trkpt lat="39.630469" lon="-5.433467">
        <ele>606.9</ele>
        <time>1970-01-01T00:00:00Z</time>
      </trkpt>
      <trkpt lat="39.630400" lon="-5.433325">
        <ele>608.6</ele>
        <time>1970-01-01T00:00:00Z</time>
      </trkpt>
      <trkpt lat="39.630362" lon="-5.433201">
        <ele>610.2</ele>
        <time>1970-01-01T00:00:00Z</time>
      </trkpt>
      <trkpt lat="39.630290" lon="-5.432977">
        <ele>613.4</ele>
        <time>1970-01-01T00:00:00Z</time>
      </trkpt>
      <trkpt lat="39.630213" lon="-5.432771">
        <ele>616.4</ele>
        <time>1970-01-01T00:00:00Z</time>
      </trkpt>
      <trkpt lat="39.630163" lon="-5.432594">
        <ele>619.0</ele>
        <time>1970-01-01T00:00:00Z</time>
      </trkpt>
      <trkpt lat="39.630070" lon="-5.432300">
        <ele>621.8</ele>
        <time>1970-01-01T00:00:00Z</time>
      </trkpt>
      <trkpt lat="39.630042" lon="-5.432118">
        <ele>624.3</ele>
        <time>1970-01-01T00:00:00Z</time>
      </trkpt>
      <trkpt lat="39.629944" lon="-5.431858">
        <ele>628.5</ele>
        <time>1970-01-01T00:00:00Z</time>
      </trkpt>
      <trkpt lat="39.629922" lon="-5.431613">
        <ele>631.6</ele>
        <time>1970-01-01T00:00:00Z</time>
      </trkpt>
      <trkpt lat="39.629909" lon="-5.431385">
        <ele>634.3</ele>
        <time>1970-01-01T00:00:00Z</time>
      </trkpt>
      <trkpt lat="39.629918" lon="-5.431147">
        <ele>637.1</ele>
        <time>1970-01-01T00:00:00Z</time>
      </trkpt>
      <trkpt lat="39.629850" lon="-5.430890">
        <ele>639.6</ele>
        <time>1970-01-01T00:00:00Z</time>
      </trkpt>
      <trkpt lat="39.629770" lon="-5.430680">
        <ele>641.2</ele>
        <time>1970-01-01T00:00:00Z</time>
      </trkpt>
      <trkpt lat="39.629628" lon="-5.430403">
        <ele>641.5</ele>
        <time>1970-01-01T00:00:00Z</time>
      </trkpt>
      <trkpt lat="39.629574" lon="-5.430174">
        <ele>641.8</ele>
        <time>1970-01-01T00:00:00Z</time>
      </trkpt>
      <trkpt lat="39.629552" lon="-5.429922">
        <ele>641.5</ele>
        <time>1970-01-01T00:00:00Z</time>
      </trkpt>
      <trkpt lat="39.629553" lon="-5.429451">
        <ele>640.0</ele>
        <time>1970-01-01T00:00:00Z</time>
      </trkpt>
      <trkpt lat="39.629571" lon="-5.429218">
        <ele>639.6</ele>
        <time>1970-01-01T00:00:00Z</time>
      </trkpt>
      <trkpt lat="39.629627" lon="-5.428929">
        <ele>638.5</ele>
        <time>1970-01-01T00:00:00Z</time>
      </trkpt>
      <trkpt lat="39.629760" lon="-5.428610">
        <ele>638.2</ele>
        <time>1970-01-01T00:00:00Z</time>
      </trkpt>
      <trkpt lat="39.629993" lon="-5.428231">
        <ele>638.1</ele>
        <time>1970-01-01T00:00:00Z</time>
      </trkpt>
      <trkpt lat="39.630192" lon="-5.427964">
        <ele>636.5</ele>
        <time>1970-01-01T00:00:00Z</time>
      </trkpt>
      <trkpt lat="39.630265" lon="-5.427716">
        <ele>636.2</ele>
        <time>1970-01-01T00:00:00Z</time>
      </trkpt>
      <trkpt lat="39.630250" lon="-5.427270">
        <ele>638.0</ele>
        <time>1970-01-01T00:00:00Z</time>
      </trkpt>
      <trkpt lat="39.630250" lon="-5.427190">
        <ele>638.3</ele>
        <time>1970-01-01T00:00:00Z</time>
      </trkpt>
      <trkpt lat="39.630220" lon="-5.426720">
        <ele>640.9</ele>
        <time>1970-01-01T00:00:00Z</time>
      </trkpt>
      <trkpt lat="39.630190" lon="-5.426360">
        <ele>642.0</ele>
        <time>1970-01-01T00:00:00Z</time>
      </trkpt>
      <trkpt lat="39.630180" lon="-5.426220">
        <ele>642.3</ele>
        <time>1970-01-01T00:00:00Z</time>
      </trkpt>
      <trkpt lat="39.630100" lon="-5.425950">
        <ele>644.2</ele>
        <time>1970-01-01T00:00:00Z</time>
      </trkpt>
      <trkpt lat="39.629910" lon="-5.425300">
        <ele>646.1</ele>
        <time>1970-01-01T00:00:00Z</time>
      </trkpt>
      <trkpt lat="39.629710" lon="-5.424660">
        <ele>646.3</ele>
        <time>1970-01-01T00:00:00Z</time>
      </trkpt>
      <trkpt lat="39.629670" lon="-5.424560">
        <ele>646.0</ele>
        <time>1970-01-01T00:00:00Z</time>
      </trkpt>
      <trkpt lat="39.629620" lon="-5.424110">
        <ele>643.9</ele>
        <time>1970-01-01T00:00:00Z</time>
      </trkpt>
      <trkpt lat="39.629600" lon="-5.423890">
        <ele>643.4</ele>
        <time>1970-01-01T00:00:00Z</time>
      </trkpt>
      <trkpt lat="39.629580" lon="-5.423740">
        <ele>642.8</ele>
        <time>1970-01-01T00:00:00Z</time>
      </trkpt>
      <trkpt lat="39.629580" lon="-5.423270">
        <ele>641.7</ele>
        <time>1970-01-01T00:00:00Z</time>
      </trkpt>
      <trkpt lat="39.629560" lon="-5.422910">
        <ele>641.2</ele>
        <time>1970-01-01T00:00:00Z</time>
      </trkpt>
      <trkpt lat="39.629460" lon="-5.422210">
        <ele>643.0</ele>
        <time>1970-01-01T00:00:00Z</time>
      </trkpt>
      <trkpt lat="39.629390" lon="-5.421950">
        <ele>644.9</ele>
        <time>1970-01-01T00:00:00Z</time>
      </trkpt>
      <trkpt lat="39.629270" lon="-5.421420">
        <ele>646.6</ele>
        <time>1970-01-01T00:00:00Z</time>
      </trkpt>
      <trkpt lat="39.629230" lon="-5.421250">
        <ele>647.3</ele>
        <time>1970-01-01T00:00:00Z</time>
      </trkpt>
      <trkpt lat="39.629150" lon="-5.420650">
        <ele>645.9</ele>
        <time>1970-01-01T00:00:00Z</time>
      </trkpt>
      <trkpt lat="39.629050" lon="-5.420080">
        <ele>645.2</ele>
        <time>1970-01-01T00:00:00Z</time>
      </trkpt>
      <trkpt lat="39.628950" lon="-5.419510">
        <ele>644.9</ele>
        <time>1970-01-01T00:00:00Z</time>
      </trkpt>
      <trkpt lat="39.628920" lon="-5.419460">
        <ele>645.2</ele>
        <time>1970-01-01T00:00:00Z</time>
      </trkpt>
      <trkpt lat="39.628850" lon="-5.419410">
        <ele>645.9</ele>
        <time>1970-01-01T00:00:00Z</time>
      </trkpt>
      <trkpt lat="39.628727" lon="-5.419397">
        <ele>647.4</ele>
        <time>1970-01-01T00:00:00Z</time>
      </trkpt>
      <trkpt lat="39.628575" lon="-5.419345">
        <ele>648.4</ele>
        <time>1970-01-01T00:00:00Z</time>
      </trkpt>
      <trkpt lat="39.628265" lon="-5.419316">
        <ele>650.2</ele>
        <time>1970-01-01T00:00:00Z</time>
      </trkpt>
      <trkpt lat="39.627897" lon="-5.419222">
        <ele>652.4</ele>
        <time>1970-01-01T00:00:00Z</time>
      </trkpt>
      <trkpt lat="39.627682" lon="-5.419156">
        <ele>654.4</ele>
        <time>1970-01-01T00:00:00Z</time>
      </trkpt>
      <trkpt lat="39.627452" lon="-5.419177">
        <ele>655.5</ele>
        <time>1970-01-01T00:00:00Z</time>
      </trkpt>
      <trkpt lat="39.627166" lon="-5.419488">
        <ele>653.7</ele>
        <time>1970-01-01T00:00:00Z</time>
      </trkpt>
      <trkpt lat="39.626741" lon="-5.419997">
        <ele>651.2</ele>
        <time>1970-01-01T00:00:00Z</time>
      </trkpt>
      <trkpt lat="39.626469" lon="-5.420110">
        <ele>651.9</ele>
        <time>1970-01-01T00:00:00Z</time>
      </trkpt>
      <trkpt lat="39.626187" lon="-5.420001">
        <ele>653.4</ele>
        <time>1970-01-01T00:00:00Z</time>
      </trkpt>
      <trkpt lat="39.625920" lon="-5.419770">
        <ele>656.2</ele>
        <time>1970-01-01T00:00:00Z</time>
      </trkpt>
      <trkpt lat="39.625500" lon="-5.419110">
        <ele>659.8</ele>
        <time>1970-01-01T00:00:00Z</time>
      </trkpt>
      <trkpt lat="39.625135" lon="-5.418206">
        <ele>657.9</ele>
        <time>1970-01-01T00:00:00Z</time>
      </trkpt>
      <trkpt lat="39.625037" lon="-5.417293">
        <ele>658.3</ele>
        <time>1970-01-01T00:00:00Z</time>
      </trkpt>
      <trkpt lat="39.625044" lon="-5.416519">
        <ele>659.5</ele>
        <time>1970-01-01T00:00:00Z</time>
      </trkpt>
      <trkpt lat="39.625180" lon="-5.415140">
        <ele>666.3</ele>
        <time>1970-01-01T00:00:00Z</time>
      </trkpt>
      <trkpt lat="39.625157" lon="-5.414968">
        <ele>666.4</ele>
        <time>1970-01-01T00:00:00Z</time>
      </trkpt>
      <trkpt lat="39.625130" lon="-5.415090">
        <ele>664.8</ele>
        <time>1970-01-01T00:00:00Z</time>
      </trkpt>
      <trkpt lat="39.625120" lon="-5.415200">
        <ele>664.0</ele>
        <time>1970-01-01T00:00:00Z</time>
      </trkpt>
      <trkpt lat="39.625070" lon="-5.415320">
        <ele>661.8</ele>
        <time>1970-01-01T00:00:00Z</time>
      </trkpt>
      <trkpt lat="39.624970" lon="-5.415340">
        <ele>658.3</ele>
        <time>1970-01-01T00:00:00Z</time>
      </trkpt>
      <trkpt lat="39.624930" lon="-5.415330">
        <ele>657.3</ele>
        <time>1970-01-01T00:00:00Z</time>
      </trkpt>
      <trkpt lat="39.624740" lon="-5.415280">
        <ele>652.7</ele>
        <time>1970-01-01T00:00:00Z</time>
      </trkpt>
      <trkpt lat="39.624690" lon="-5.415280">
        <ele>652.0</ele>
        <time>1970-01-01T00:00:00Z</time>
      </trkpt>
      <trkpt lat="39.624580" lon="-5.415290">
        <ele>650.4</ele>
        <time>1970-01-01T00:00:00Z</time>
      </trkpt>
      <trkpt lat="39.624320" lon="-5.415360">
        <ele>646.7</ele>
        <time>1970-01-01T00:00:00Z</time>
      </trkpt>
      <trkpt lat="39.624190" lon="-5.415530">
        <ele>645.1</ele>
        <time>1970-01-01T00:00:00Z</time>
      </trkpt>
      <trkpt lat="39.624103" lon="-5.415624">
        <ele>645.1</ele>
        <time>1970-01-01T00:00:00Z</time>
      </trkpt>
      <trkpt lat="39.624010" lon="-5.415850">
        <ele>644.4</ele>
        <time>1970-01-01T00:00:00Z</time>
      </trkpt>
      <trkpt lat="39.623833" lon="-5.416058">
        <ele>645.7</ele>
        <time>1970-01-01T00:00:00Z</time>
      </trkpt>
      <trkpt lat="39.623643" lon="-5.416307">
        <ele>648.3</ele>
        <time>1970-01-01T00:00:00Z</time>
      </trkpt>
      <trkpt lat="39.623490" lon="-5.416690">
        <ele>647.3</ele>
        <time>1970-01-01T00:00:00Z</time>
      </trkpt>
      <trkpt lat="39.623310" lon="-5.417140">
        <ele>646.8</ele>
        <time>1970-01-01T00:00:00Z</time>
      </trkpt>
      <trkpt lat="39.623210" lon="-5.417370">
        <ele>647.0</ele>
        <time>1970-01-01T00:00:00Z</time>
      </trkpt>
      <trkpt lat="39.623040" lon="-5.417660">
        <ele>647.2</ele>
        <time>1970-01-01T00:00:00Z</time>
      </trkpt>
      <trkpt lat="39.622860" lon="-5.417960">
        <ele>647.8</ele>
        <time>1970-01-01T00:00:00Z</time>
      </trkpt>
      <trkpt lat="39.622720" lon="-5.418150">
        <ele>648.3</ele>
        <time>1970-01-01T00:00:00Z</time>
      </trkpt>
      <trkpt lat="39.622540" lon="-5.418300">
        <ele>649.9</ele>
        <time>1970-01-01T00:00:00Z</time>
      </trkpt>
      <trkpt lat="39.622350" lon="-5.418410">
        <ele>651.9</ele>
        <time>1970-01-01T00:00:00Z</time>
      </trkpt>
      <trkpt lat="39.622090" lon="-5.418490">
        <ele>653.2</ele>
        <time>1970-01-01T00:00:00Z</time>
      </trkpt>
      <trkpt lat="39.621820" lon="-5.418480">
        <ele>654.5</ele>
        <time>1970-01-01T00:00:00Z</time>
      </trkpt>
      <trkpt lat="39.621620" lon="-5.418470">
        <ele>655.0</ele>
        <time>1970-01-01T00:00:00Z</time>
      </trkpt>
      <trkpt lat="39.621320" lon="-5.418440">
        <ele>654.6</ele>
        <time>1970-01-01T00:00:00Z</time>
      </trkpt>
      <trkpt lat="39.621060" lon="-5.418360">
        <ele>656.4</ele>
        <time>1970-01-01T00:00:00Z</time>
      </trkpt>
      <trkpt lat="39.620880" lon="-5.418410">
        <ele>657.0</ele>
        <time>1970-01-01T00:00:00Z</time>
      </trkpt>
      <trkpt lat="39.620790" lon="-5.418500">
        <ele>657.0</ele>
        <time>1970-01-01T00:00:00Z</time>
      </trkpt>
      <trkpt lat="39.620650" lon="-5.418610">
        <ele>657.9</ele>
        <time>1970-01-01T00:00:00Z</time>
      </trkpt>
      <trkpt lat="39.620530" lon="-5.418720">
        <ele>658.7</ele>
        <time>1970-01-01T00:00:00Z</time>
      </trkpt>
      <trkpt lat="39.620450" lon="-5.418760">
        <ele>659.8</ele>
        <time>1970-01-01T00:00:00Z</time>
      </trkpt>
      <trkpt lat="39.620350" lon="-5.418860">
        <ele>660.6</ele>
        <time>1970-01-01T00:00:00Z</time>
      </trkpt>
      <trkpt lat="39.620300" lon="-5.419000">
        <ele>660.3</ele>
        <time>1970-01-01T00:00:00Z</time>
      </trkpt>
      <trkpt lat="39.620250" lon="-5.419130">
        <ele>660.0</ele>
        <time>1970-01-01T00:00:00Z</time>
      </trkpt>
      <trkpt lat="39.620200" lon="-5.419260">
        <ele>660.0</ele>
        <time>1970-01-01T00:00:00Z</time>
      </trkpt>
      <trkpt lat="39.620010" lon="-5.419570">
        <ele>663.5</ele>
        <time>1970-01-01T00:00:00Z</time>
      </trkpt>
      <trkpt lat="39.619770" lon="-5.419900">
        <ele>666.9</ele>
        <time>1970-01-01T00:00:00Z</time>
      </trkpt>
      <trkpt lat="39.619620" lon="-5.419950">
        <ele>668.9</ele>
        <time>1970-01-01T00:00:00Z</time>
      </trkpt>
      <trkpt lat="39.619530" lon="-5.419780">
        <ele>670.4</ele>
        <time>1970-01-01T00:00:00Z</time>
      </trkpt>
      <trkpt lat="39.619430" lon="-5.419480">
        <ele>672.6</ele>
        <time>1970-01-01T00:00:00Z</time>
      </trkpt>
      <trkpt lat="39.619290" lon="-5.419370">
        <ele>673.9</ele>
        <time>1970-01-01T00:00:00Z</time>
      </trkpt>
      <trkpt lat="39.619040" lon="-5.419200">
        <ele>677.2</ele>
        <time>1970-01-01T00:00:00Z</time>
      </trkpt>
      <trkpt lat="39.618900" lon="-5.419078">
        <ele>679.2</ele>
        <time>1970-01-01T00:00:00Z</time>
      </trkpt>
      <trkpt lat="39.618853" lon="-5.418983">
        <ele>680.7</ele>
        <time>1970-01-01T00:00:00Z</time>
      </trkpt>
      <trkpt lat="39.618680" lon="-5.418840">
        <ele>684.0</ele>
        <time>1970-01-01T00:00:00Z</time>
      </trkpt>
      <trkpt lat="39.618561" lon="-5.418734">
        <ele>686.3</ele>
        <time>1970-01-01T00:00:00Z</time>
      </trkpt>
      <trkpt lat="39.618599" lon="-5.418624">
        <ele>688.2</ele>
        <time>1970-01-01T00:00:00Z</time>
      </trkpt>
      <trkpt lat="39.618900" lon="-5.418470">
        <ele>689.3</ele>
        <time>1970-01-01T00:00:00Z</time>
      </trkpt>
      <trkpt lat="39.618900" lon="-5.418410">
        <ele>689.9</ele>
        <time>1970-01-01T00:00:00Z</time>
      </trkpt>
      <trkpt lat="39.618760" lon="-5.418455">
        <ele>690.1</ele>
        <time>1970-01-01T00:00:00Z</time>
      </trkpt>
      <trkpt lat="39.618500" lon="-5.418406">
        <ele>691.8</ele>
        <time>1970-01-01T00:00:00Z</time>
      </trkpt>
      <trkpt lat="39.618070" lon="-5.418320">
        <ele>692.6</ele>
        <time>1970-01-01T00:00:00Z</time>
      </trkpt>
      <trkpt lat="39.618010" lon="-5.418310">
        <ele>693.0</ele>
        <time>1970-01-01T00:00:00Z</time>
      </trkpt>
      <trkpt lat="39.617800" lon="-5.418270">
        <ele>695.5</ele>
        <time>1970-01-01T00:00:00Z</time>
      </trkpt>
      <trkpt lat="39.617563" lon="-5.418390">
        <ele>695.6</ele>
        <time>1970-01-01T00:00:00Z</time>
      </trkpt>
      <trkpt lat="39.617485" lon="-5.418481">
        <ele>695.4</ele>
        <time>1970-01-01T00:00:00Z</time>
      </trkpt>
      <trkpt lat="39.617360" lon="-5.418669">
        <ele>695.0</ele>
        <time>1970-01-01T00:00:00Z</time>
      </trkpt>
      <trkpt lat="39.617224" lon="-5.418914">
        <ele>693.9</ele>
        <time>1970-01-01T00:00:00Z</time>
      </trkpt>
      <trkpt lat="39.617024" lon="-5.419204">
        <ele>694.9</ele>
        <time>1970-01-01T00:00:00Z</time>
      </trkpt>
      <trkpt lat="39.616726" lon="-5.419450">
        <ele>699.5</ele>
        <time>1970-01-01T00:00:00Z</time>
      </trkpt>
      <trkpt lat="39.616503" lon="-5.419565">
        <ele>702.9</ele>
        <time>1970-01-01T00:00:00Z</time>
      </trkpt>
      <trkpt lat="39.616363" lon="-5.419607">
        <ele>705.1</ele>
        <time>1970-01-01T00:00:00Z</time>
      </trkpt>
      <trkpt lat="39.616052" lon="-5.419596">
        <ele>710.1</ele>
        <time>1970-01-01T00:00:00Z</time>
      </trkpt>
      <trkpt lat="39.615710" lon="-5.419530">
        <ele>717.1</ele>
        <time>1970-01-01T00:00:00Z</time>
      </trkpt>
      <trkpt lat="39.615610" lon="-5.419540">
        <ele>717.5</ele>
        <time>1970-01-01T00:00:00Z</time>
      </trkpt>
      <trkpt lat="39.615524" lon="-5.419624">
        <ele>715.8</ele>
        <time>1970-01-01T00:00:00Z</time>
      </trkpt>
      <trkpt lat="39.615284" lon="-5.419715">
        <ele>714.1</ele>
        <time>1970-01-01T00:00:00Z</time>
      </trkpt>
      <trkpt lat="39.614961" lon="-5.419633">
        <ele>713.4</ele>
        <time>1970-01-01T00:00:00Z</time>
      </trkpt>
      <trkpt lat="39.614647" lon="-5.419570">
        <ele>712.1</ele>
        <time>1970-01-01T00:00:00Z</time>
      </trkpt>
      <trkpt lat="39.614427" lon="-5.419527">
        <ele>711.0</ele>
        <time>1970-01-01T00:00:00Z</time>
      </trkpt>
      <trkpt lat="39.614073" lon="-5.419457">
        <ele>710.5</ele>
        <time>1970-01-01T00:00:00Z</time>
      </trkpt>
      <trkpt lat="39.613956" lon="-5.419464">
        <ele>709.5</ele>
        <time>1970-01-01T00:00:00Z</time>
      </trkpt>
      <trkpt lat="39.613636" lon="-5.419453">
        <ele>708.8</ele>
        <time>1970-01-01T00:00:00Z</time>
      </trkpt>
      <trkpt lat="39.613375" lon="-5.419456">
        <ele>708.1</ele>
        <time>1970-01-01T00:00:00Z</time>
      </trkpt>
      <trkpt lat="39.613248" lon="-5.419463">
        <ele>708.6</ele>
        <time>1970-01-01T00:00:00Z</time>
      </trkpt>
      <trkpt lat="39.613099" lon="-5.419493">
        <ele>708.7</ele>
        <time>1970-01-01T00:00:00Z</time>
      </trkpt>
      <trkpt lat="39.612940" lon="-5.419630">
        <ele>707.0</ele>
        <time>1970-01-01T00:00:00Z</time>
      </trkpt>
      <trkpt lat="39.612694" lon="-5.420148">
        <ele>703.7</ele>
        <time>1970-01-01T00:00:00Z</time>
      </trkpt>
      <trkpt lat="39.612450" lon="-5.420570">
        <ele>703.3</ele>
        <time>1970-01-01T00:00:00Z</time>
      </trkpt>
      <trkpt lat="39.612320" lon="-5.420710">
        <ele>704.2</ele>
        <time>1970-01-01T00:00:00Z</time>
      </trkpt>
      <trkpt lat="39.612240" lon="-5.420740">
        <ele>705.3</ele>
        <time>1970-01-01T00:00:00Z</time>
      </trkpt>
      <trkpt lat="39.612150" lon="-5.420750">
        <ele>706.4</ele>
        <time>1970-01-01T00:00:00Z</time>
      </trkpt>
      <trkpt lat="39.612060" lon="-5.420750">
        <ele>707.6</ele>
        <time>1970-01-01T00:00:00Z</time>
      </trkpt>
      <trkpt lat="39.612010" lon="-5.420750">
        <ele>708.2</ele>
        <time>1970-01-01T00:00:00Z</time>
      </trkpt>
      <trkpt lat="39.611870" lon="-5.420750">
        <ele>709.5</ele>
        <time>1970-01-01T00:00:00Z</time>
      </trkpt>
      <trkpt lat="39.611770" lon="-5.420740">
        <ele>710.4</ele>
        <time>1970-01-01T00:00:00Z</time>
      </trkpt>
      <trkpt lat="39.611516" lon="-5.420684">
        <ele>711.2</ele>
        <time>1970-01-01T00:00:00Z</time>
      </trkpt>
      <trkpt lat="39.611403" lon="-5.420680">
        <ele>710.7</ele>
        <time>1970-01-01T00:00:00Z</time>
      </trkpt>
      <trkpt lat="39.611360" lon="-5.420660">
        <ele>710.8</ele>
        <time>1970-01-01T00:00:00Z</time>
      </trkpt>
      <trkpt lat="39.611360" lon="-5.420660">
        <ele>710.8</ele>
        <time>1970-01-01T00:00:00Z</time>
      </trkpt>
      <trkpt lat="39.611190" lon="-5.420620">
        <ele>709.6</ele>
        <time>1970-01-01T00:00:00Z</time>
      </trkpt>
      <trkpt lat="39.610770" lon="-5.420510">
        <ele>705.7</ele>
        <time>1970-01-01T00:00:00Z</time>
      </trkpt>
      <trkpt lat="39.610675" lon="-5.420387">
        <ele>706.0</ele>
        <time>1970-01-01T00:00:00Z</time>
      </trkpt>
      <trkpt lat="39.610585" lon="-5.420191">
        <ele>706.6</ele>
        <time>1970-01-01T00:00:00Z</time>
      </trkpt>
      <trkpt lat="39.610465" lon="-5.419908">
        <ele>707.5</ele>
        <time>1970-01-01T00:00:00Z</time>
      </trkpt>
      <trkpt lat="39.610390" lon="-5.419850">
        <ele>707.0</ele>
        <time>1970-01-01T00:00:00Z</time>
      </trkpt>
      <trkpt lat="39.610249" lon="-5.419871">
        <ele>705.0</ele>
        <time>1970-01-01T00:00:00Z</time>
      </trkpt>
      <trkpt lat="39.610057" lon="-5.419998">
        <ele>701.9</ele>
        <time>1970-01-01T00:00:00Z</time>
      </trkpt>
      <trkpt lat="39.609797" lon="-5.419972">
        <ele>700.4</ele>
        <time>1970-01-01T00:00:00Z</time>
      </trkpt>
      <trkpt lat="39.609520" lon="-5.419863">
        <ele>701.0</ele>
        <time>1970-01-01T00:00:00Z</time>
      </trkpt>
      <trkpt lat="39.609148" lon="-5.419559">
        <ele>705.9</ele>
        <time>1970-01-01T00:00:00Z</time>
      </trkpt>
      <trkpt lat="39.608730" lon="-5.419380">
        <ele>710.5</ele>
        <time>1970-01-01T00:00:00Z</time>
      </trkpt>
      <trkpt lat="39.608610" lon="-5.419260">
        <ele>712.7</ele>
        <time>1970-01-01T00:00:00Z</time>
      </trkpt>
      <trkpt lat="39.608420" lon="-5.419100">
        <ele>715.0</ele>
        <time>1970-01-01T00:00:00Z</time>
      </trkpt>
      <trkpt lat="39.608390" lon="-5.419060">
        <ele>715.5</ele>
        <time>1970-01-01T00:00:00Z</time>
      </trkpt>
      <trkpt lat="39.608120" lon="-5.418660">
        <ele>717.7</ele>
        <time>1970-01-01T00:00:00Z</time>
      </trkpt>
      <trkpt lat="39.608100" lon="-5.418490">
        <ele>719.1</ele>
        <time>1970-01-01T00:00:00Z</time>
      </trkpt>
      <trkpt lat="39.608040" lon="-5.418280">
        <ele>720.1</ele>
        <time>1970-01-01T00:00:00Z</time>
      </trkpt>
      <trkpt lat="39.608010" lon="-5.418130">
        <ele>721.2</ele>
        <time>1970-01-01T00:00:00Z</time>
      </trkpt>
      <trkpt lat="39.607970" lon="-5.418060">
        <ele>721.5</ele>
        <time>1970-01-01T00:00:00Z</time>
      </trkpt>
      <trkpt lat="39.607710" lon="-5.417750">
        <ele>721.6</ele>
        <time>1970-01-01T00:00:00Z</time>
      </trkpt>
      <trkpt lat="39.607310" lon="-5.417380">
        <ele>722.0</ele>
        <time>1970-01-01T00:00:00Z</time>
      </trkpt>
      <trkpt lat="39.606870" lon="-5.417030">
        <ele>722.0</ele>
        <time>1970-01-01T00:00:00Z</time>
      </trkpt>
      <trkpt lat="39.606360" lon="-5.416630">
        <ele>722.5</ele>
        <time>1970-01-01T00:00:00Z</time>
      </trkpt>
      <trkpt lat="39.606240" lon="-5.416550">
        <ele>722.7</ele>
        <time>1970-01-01T00:00:00Z</time>
      </trkpt>
      <trkpt lat="39.606074" lon="-5.416406">
        <ele>722.5</ele>
        <time>1970-01-01T00:00:00Z</time>
      </trkpt>
      <trkpt lat="39.605364" lon="-5.415852">
        <ele>721.7</ele>
        <time>1970-01-01T00:00:00Z</time>
      </trkpt>
      <trkpt lat="39.605134" lon="-5.415681">
        <ele>721.8</ele>
        <time>1970-01-01T00:00:00Z</time>
      </trkpt>
      <trkpt lat="39.605079" lon="-5.415522">
        <ele>724.1</ele>
        <time>1970-01-01T00:00:00Z</time>
      </trkpt>
      <trkpt lat="39.605080" lon="-5.415330">
        <ele>727.9</ele>
        <time>1970-01-01T00:00:00Z</time>
      </trkpt>
      <trkpt lat="39.605070" lon="-5.415260">
        <ele>729.3</ele>
        <time>1970-01-01T00:00:00Z</time>
      </trkpt>
      <trkpt lat="39.605022" lon="-5.415188">
        <ele>730.7</ele>
        <time>1970-01-01T00:00:00Z</time>
      </trkpt>
      <trkpt lat="39.604930" lon="-5.415090">
        <ele>732.4</ele>
        <time>1970-01-01T00:00:00Z</time>
      </trkpt>
      <trkpt lat="39.604983" lon="-5.415152">
        <ele>731.2</ele>
        <time>1970-01-01T00:00:00Z</time>
      </trkpt>
      <trkpt lat="39.604903" lon="-5.415061">
        <ele>732.9</ele>
        <time>1970-01-01T00:00:00Z</time>
      </trkpt>
      <trkpt lat="39.604877" lon="-5.415037">
        <ele>733.3</ele>
        <time>1970-01-01T00:00:00Z</time>
      </trkpt>
      <trkpt lat="39.604761" lon="-5.414975">
        <ele>732.9</ele>
        <time>1970-01-01T00:00:00Z</time>
      </trkpt>
      <trkpt lat="39.604672" lon="-5.414925">
        <ele>732.5</ele>
        <time>1970-01-01T00:00:00Z</time>
      </trkpt>
      <trkpt lat="39.604552" lon="-5.414828">
        <ele>733.1</ele>
        <time>1970-01-01T00:00:00Z</time>
      </trkpt>
      <trkpt lat="39.604350" lon="-5.414680">
        <ele>733.7</ele>
        <time>1970-01-01T00:00:00Z</time>
      </trkpt>
      <trkpt lat="39.604030" lon="-5.414460">
        <ele>733.5</ele>
        <time>1970-01-01T00:00:00Z</time>
      </trkpt>
      <trkpt lat="39.603630" lon="-5.414200">
        <ele>734.2</ele>
        <time>1970-01-01T00:00:00Z</time>
      </trkpt>
      <trkpt lat="39.603450" lon="-5.414070">
        <ele>735.1</ele>
        <time>1970-01-01T00:00:00Z</time>
      </trkpt>
      <trkpt lat="39.603349" lon="-5.413977">
        <ele>736.0</ele>
        <time>1970-01-01T00:00:00Z</time>
      </trkpt>
      <trkpt lat="39.603219" lon="-5.413763">
        <ele>738.0</ele>
        <time>1970-01-01T00:00:00Z</time>
      </trkpt>
      <trkpt lat="39.603149" lon="-5.413632">
        <ele>738.5</ele>
        <time>1970-01-01T00:00:00Z</time>
      </trkpt>
      <trkpt lat="39.602962" lon="-5.413340">
        <ele>738.7</ele>
        <time>1970-01-01T00:00:00Z</time>
      </trkpt>
      <trkpt lat="39.602718" lon="-5.412732">
        <ele>736.8</ele>
        <time>1970-01-01T00:00:00Z</time>
      </trkpt>
      <trkpt lat="39.602625" lon="-5.412216">
        <ele>737.7</ele>
        <time>1970-01-01T00:00:00Z</time>
      </trkpt>
      <trkpt lat="39.602614" lon="-5.411669">
        <ele>741.9</ele>
        <time>1970-01-01T00:00:00Z</time>
      </trkpt>
      <trkpt lat="39.602570" lon="-5.411390">
        <ele>744.1</ele>
        <time>1970-01-01T00:00:00Z</time>
      </trkpt>
      <trkpt lat="39.602468" lon="-5.411320">
        <ele>743.0</ele>
        <time>1970-01-01T00:00:00Z</time>
      </trkpt>
      <trkpt lat="39.602210" lon="-5.411270">
        <ele>740.3</ele>
        <time>1970-01-01T00:00:00Z</time>
      </trkpt>
      <trkpt lat="39.601913" lon="-5.411138">
        <ele>739.4</ele>
        <time>1970-01-01T00:00:00Z</time>
      </trkpt>
      <trkpt lat="39.601556" lon="-5.410991">
        <ele>740.4</ele>
        <time>1970-01-01T00:00:00Z</time>
      </trkpt>
      <trkpt lat="39.601090" lon="-5.410890">
        <ele>741.4</ele>
        <time>1970-01-01T00:00:00Z</time>
      </trkpt>
      <trkpt lat="39.600800" lon="-5.410870">
        <ele>740.3</ele>
        <time>1970-01-01T00:00:00Z</time>
      </trkpt>
      <trkpt lat="39.600585" lon="-5.410865">
        <ele>739.0</ele>
        <time>1970-01-01T00:00:00Z</time>
      </trkpt>
      <trkpt lat="39.600472" lon="-5.410896">
        <ele>737.9</ele>
        <time>1970-01-01T00:00:00Z</time>
      </trkpt>
      <trkpt lat="39.600351" lon="-5.410880">
        <ele>736.6</ele>
        <time>1970-01-01T00:00:00Z</time>
      </trkpt>
      <trkpt lat="39.600154" lon="-5.410820">
        <ele>733.8</ele>
        <time>1970-01-01T00:00:00Z</time>
      </trkpt>
      <trkpt lat="39.600046" lon="-5.410793">
        <ele>731.6</ele>
        <time>1970-01-01T00:00:00Z</time>
      </trkpt>
      <trkpt lat="39.599850" lon="-5.410699">
        <ele>728.0</ele>
        <time>1970-01-01T00:00:00Z</time>
      </trkpt>
      <trkpt lat="39.599717" lon="-5.410619">
        <ele>725.3</ele>
        <time>1970-01-01T00:00:00Z</time>
      </trkpt>
      <trkpt lat="39.599609" lon="-5.410604">
        <ele>723.0</ele>
        <time>1970-01-01T00:00:00Z</time>
      </trkpt>
      <trkpt lat="39.599490" lon="-5.410675">
        <ele>720.8</ele>
        <time>1970-01-01T00:00:00Z</time>
      </trkpt>
      <trkpt lat="39.599335" lon="-5.410786">
        <ele>718.0</ele>
        <time>1970-01-01T00:00:00Z</time>
      </trkpt>
      <trkpt lat="39.599195" lon="-5.410781">
        <ele>715.0</ele>
        <time>1970-01-01T00:00:00Z</time>
      </trkpt>
      <trkpt lat="39.598983" lon="-5.410588">
        <ele>711.1</ele>
        <time>1970-01-01T00:00:00Z</time>
      </trkpt>
      <trkpt lat="39.598727" lon="-5.410346">
        <ele>708.2</ele>
        <time>1970-01-01T00:00:00Z</time>
      </trkpt>
      <trkpt lat="39.598658" lon="-5.410186">
        <ele>707.6</ele>
        <time>1970-01-01T00:00:00Z</time>
      </trkpt>
      <trkpt lat="39.598553" lon="-5.410020">
        <ele>706.2</ele>
        <time>1970-01-01T00:00:00Z</time>
      </trkpt>
      <trkpt lat="39.598390" lon="-5.409910">
        <ele>705.1</ele>
        <time>1970-01-01T00:00:00Z</time>
      </trkpt>
      <trkpt lat="39.598350" lon="-5.409880">
        <ele>704.8</ele>
        <time>1970-01-01T00:00:00Z</time>
      </trkpt>
      <trkpt lat="39.598170" lon="-5.409770">
        <ele>702.4</ele>
        <time>1970-01-01T00:00:00Z</time>
      </trkpt>
      <trkpt lat="39.598130" lon="-5.409750">
        <ele>702.0</ele>
        <time>1970-01-01T00:00:00Z</time>
      </trkpt>
      <trkpt lat="39.598020" lon="-5.409700">
        <ele>700.6</ele>
        <time>1970-01-01T00:00:00Z</time>
      </trkpt>
      <trkpt lat="39.597760" lon="-5.409720">
        <ele>697.9</ele>
        <time>1970-01-01T00:00:00Z</time>
      </trkpt>
      <trkpt lat="39.597670" lon="-5.409860">
        <ele>697.1</ele>
        <time>1970-01-01T00:00:00Z</time>
      </trkpt>
      <trkpt lat="39.597631" lon="-5.409993">
        <ele>696.7</ele>
        <time>1970-01-01T00:00:00Z</time>
      </trkpt>
      <trkpt lat="39.597553" lon="-5.410061">
        <ele>696.0</ele>
        <time>1970-01-01T00:00:00Z</time>
      </trkpt>
      <trkpt lat="39.597412" lon="-5.410120">
        <ele>694.8</ele>
        <time>1970-01-01T00:00:00Z</time>
      </trkpt>
      <trkpt lat="39.597081" lon="-5.410196">
        <ele>692.2</ele>
        <time>1970-01-01T00:00:00Z</time>
      </trkpt>
      <trkpt lat="39.596871" lon="-5.410369">
        <ele>690.1</ele>
        <time>1970-01-01T00:00:00Z</time>
      </trkpt>
      <trkpt lat="39.596709" lon="-5.410544">
        <ele>686.6</ele>
        <time>1970-01-01T00:00:00Z</time>
      </trkpt>
      <trkpt lat="39.596644" lon="-5.410640">
        <ele>685.0</ele>
        <time>1970-01-01T00:00:00Z</time>
      </trkpt>
      <trkpt lat="39.596564" lon="-5.410795">
        <ele>682.1</ele>
        <time>1970-01-01T00:00:00Z</time>
      </trkpt>
      <trkpt lat="39.596508" lon="-5.410886">
        <ele>679.9</ele>
        <time>1970-01-01T00:00:00Z</time>
      </trkpt>
      <trkpt lat="39.596470" lon="-5.410984">
        <ele>677.4</ele>
        <time>1970-01-01T00:00:00Z</time>
      </trkpt>
      <trkpt lat="39.596417" lon="-5.411151">
        <ele>674.1</ele>
        <time>1970-01-01T00:00:00Z</time>
      </trkpt>
      <trkpt lat="39.596415" lon="-5.411279">
        <ele>672.4</ele>
        <time>1970-01-01T00:00:00Z</time>
      </trkpt>
      <trkpt lat="39.596300" lon="-5.411330">
        <ele>670.9</ele>
        <time>1970-01-01T00:00:00Z</time>
      </trkpt>
      <trkpt lat="39.596090" lon="-5.411380">
        <ele>669.5</ele>
        <time>1970-01-01T00:00:00Z</time>
      </trkpt>
      <trkpt lat="39.595880" lon="-5.411330">
        <ele>668.4</ele>
        <time>1970-01-01T00:00:00Z</time>
      </trkpt>
      <trkpt lat="39.595788" lon="-5.411292">
        <ele>667.6</ele>
        <time>1970-01-01T00:00:00Z</time>
      </trkpt>
      <trkpt lat="39.595540" lon="-5.411230">
        <ele>663.8</ele>
        <time>1970-01-01T00:00:00Z</time>
      </trkpt>
      <trkpt lat="39.595300" lon="-5.411120">
        <ele>660.0</ele>
        <time>1970-01-01T00:00:00Z</time>
      </trkpt>
      <trkpt lat="39.595110" lon="-5.410850">
        <ele>657.5</ele>
        <time>1970-01-01T00:00:00Z</time>
      </trkpt>
      <trkpt lat="39.595020" lon="-5.410590">
        <ele>659.3</ele>
        <time>1970-01-01T00:00:00Z</time>
      </trkpt>
      <trkpt lat="39.594960" lon="-5.410480">
        <ele>658.4</ele>
        <time>1970-01-01T00:00:00Z</time>
      </trkpt>
      <trkpt lat="39.594870" lon="-5.410230">
        <ele>656.8</ele>
        <time>1970-01-01T00:00:00Z</time>
      </trkpt>
      <trkpt lat="39.594850" lon="-5.410100">
        <ele>656.5</ele>
        <time>1970-01-01T00:00:00Z</time>
      </trkpt>
      <trkpt lat="39.594800" lon="-5.409820">
        <ele>655.2</ele>
        <time>1970-01-01T00:00:00Z</time>
      </trkpt>
      <trkpt lat="39.594720" lon="-5.409540">
        <ele>652.2</ele>
        <time>1970-01-01T00:00:00Z</time>
      </trkpt>
      <trkpt lat="39.594660" lon="-5.409310">
        <ele>649.6</ele>
        <time>1970-01-01T00:00:00Z</time>
      </trkpt>
      <trkpt lat="39.594610" lon="-5.409320">
        <ele>647.6</ele>
        <time>1970-01-01T00:00:00Z</time>
      </trkpt>
      <trkpt lat="39.594560" lon="-5.409660">
        <ele>644.9</ele>
        <time>1970-01-01T00:00:00Z</time>
      </trkpt>
      <trkpt lat="39.594510" lon="-5.410000">
        <ele>641.6</ele>
        <time>1970-01-01T00:00:00Z</time>
      </trkpt>
      <trkpt lat="39.594470" lon="-5.410280">
        <ele>638.4</ele>
        <time>1970-01-01T00:00:00Z</time>
      </trkpt>
      <trkpt lat="39.594450" lon="-5.410440">
        <ele>636.5</ele>
        <time>1970-01-01T00:00:00Z</time>
      </trkpt>
      <trkpt lat="39.594510" lon="-5.410890">
        <ele>634.1</ele>
        <time>1970-01-01T00:00:00Z</time>
      </trkpt>
      <trkpt lat="39.594683" lon="-5.411358">
        <ele>636.9</ele>
        <time>1970-01-01T00:00:00Z</time>
      </trkpt>
      <trkpt lat="39.594840" lon="-5.411428">
        <ele>643.4</ele>
        <time>1970-01-01T00:00:00Z</time>
      </trkpt>
      <trkpt lat="39.594889" lon="-5.411453">
        <ele>645.4</ele>
        <time>1970-01-01T00:00:00Z</time>
      </trkpt>
      <trkpt lat="39.594945" lon="-5.411542">
        <ele>647.2</ele>
        <time>1970-01-01T00:00:00Z</time>
      </trkpt>
      <trkpt lat="39.594985" lon="-5.411590">
        <ele>648.8</ele>
        <time>1970-01-01T00:00:00Z</time>
      </trkpt>
      <trkpt lat="39.595011" lon="-5.411626">
        <ele>649.8</ele>
        <time>1970-01-01T00:00:00Z</time>
      </trkpt>
      <trkpt lat="39.595028" lon="-5.411667">
        <ele>650.4</ele>
        <time>1970-01-01T00:00:00Z</time>
      </trkpt>
      <trkpt lat="39.595040" lon="-5.411740">
        <ele>650.9</ele>
        <time>1970-01-01T00:00:00Z</time>
      </trkpt>
      <trkpt lat="39.595010" lon="-5.411830">
        <ele>649.6</ele>
        <time>1970-01-01T00:00:00Z</time>
      </trkpt>
      <trkpt lat="39.594968" lon="-5.411951">
        <ele>647.8</ele>
        <time>1970-01-01T00:00:00Z</time>
      </trkpt>
      <trkpt lat="39.594935" lon="-5.412054">
        <ele>646.9</ele>
        <time>1970-01-01T00:00:00Z</time>
      </trkpt>
      <trkpt lat="39.594902" lon="-5.412123">
        <ele>646.1</ele>
        <time>1970-01-01T00:00:00Z</time>
      </trkpt>
      <trkpt lat="39.594842" lon="-5.412202">
        <ele>643.9</ele>
        <time>1970-01-01T00:00:00Z</time>
      </trkpt>
      <trkpt lat="39.594719" lon="-5.412268">
        <ele>638.8</ele>
        <time>1970-01-01T00:00:00Z</time>
      </trkpt>
      <trkpt lat="39.594591" lon="-5.412316">
        <ele>632.9</ele>
        <time>1970-01-01T00:00:00Z</time>
      </trkpt>
      <trkpt lat="39.594446" lon="-5.412387">
        <ele>626.0</ele>
        <time>1970-01-01T00:00:00Z</time>
      </trkpt>
      <trkpt lat="39.594354" lon="-5.412459">
        <ele>622.2</ele>
        <time>1970-01-01T00:00:00Z</time>
      </trkpt>
      <trkpt lat="39.594256" lon="-5.412613">
        <ele>617.9</ele>
        <time>1970-01-01T00:00:00Z</time>
      </trkpt>
      <trkpt lat="39.594176" lon="-5.412796">
        <ele>614.4</ele>
        <time>1970-01-01T00:00:00Z</time>
      </trkpt>
      <trkpt lat="39.594072" lon="-5.413014">
        <ele>610.6</ele>
        <time>1970-01-01T00:00:00Z</time>
      </trkpt>
      <trkpt lat="39.593990" lon="-5.413290">
        <ele>607.8</ele>
        <time>1970-01-01T00:00:00Z</time>
      </trkpt>
      <trkpt lat="39.593950" lon="-5.413500">
        <ele>606.6</ele>
        <time>1970-01-01T00:00:00Z</time>
      </trkpt>
      <trkpt lat="39.593920" lon="-5.413690">
        <ele>605.8</ele>
        <time>1970-01-01T00:00:00Z</time>
      </trkpt>
      <trkpt lat="39.593890" lon="-5.413788">
        <ele>605.1</ele>
        <time>1970-01-01T00:00:00Z</time>
      </trkpt>
      <trkpt lat="39.593847" lon="-5.413914">
        <ele>604.2</ele>
        <time>1970-01-01T00:00:00Z</time>
      </trkpt>
      <trkpt lat="39.593790" lon="-5.414000">
        <ele>603.0</ele>
        <time>1970-01-01T00:00:00Z</time>
      </trkpt>
      <trkpt lat="39.593710" lon="-5.414040">
        <ele>601.5</ele>
        <time>1970-01-01T00:00:00Z</time>
      </trkpt>
      <trkpt lat="39.593550" lon="-5.414090">
        <ele>599.0</ele>
        <time>1970-01-01T00:00:00Z</time>
      </trkpt>
      <trkpt lat="39.593460" lon="-5.414100">
        <ele>597.7</ele>
        <time>1970-01-01T00:00:00Z</time>
      </trkpt>
      <trkpt lat="39.593310" lon="-5.414150">
        <ele>596.2</ele>
        <time>1970-01-01T00:00:00Z</time>
      </trkpt>
      <trkpt lat="39.593170" lon="-5.414182">
        <ele>594.2</ele>
        <time>1970-01-01T00:00:00Z</time>
      </trkpt>
      <trkpt lat="39.593080" lon="-5.414150">
        <ele>592.4</ele>
        <time>1970-01-01T00:00:00Z</time>
      </trkpt>
      <trkpt lat="39.593046" lon="-5.414085">
        <ele>591.3</ele>
        <time>1970-01-01T00:00:00Z</time>
      </trkpt>
      <trkpt lat="39.593062" lon="-5.413940">
        <ele>590.8</ele>
        <time>1970-01-01T00:00:00Z</time>
      </trkpt>
      <trkpt lat="39.593021" lon="-5.413781">
        <ele>589.9</ele>
        <time>1970-01-01T00:00:00Z</time>
      </trkpt>
      <trkpt lat="39.592968" lon="-5.413686">
        <ele>589.4</ele>
        <time>1970-01-01T00:00:00Z</time>
      </trkpt>
      <trkpt lat="39.592942" lon="-5.413639">
        <ele>589.2</ele>
        <time>1970-01-01T00:00:00Z</time>
      </trkpt>
      <trkpt lat="39.592899" lon="-5.413579">
        <ele>589.2</ele>
        <time>1970-01-01T00:00:00Z</time>
      </trkpt>
      <trkpt lat="39.592859" lon="-5.413543">
        <ele>589.4</ele>
        <time>1970-01-01T00:00:00Z</time>
      </trkpt>
      <trkpt lat="39.592783" lon="-5.413499">
        <ele>589.9</ele>
        <time>1970-01-01T00:00:00Z</time>
      </trkpt>
      <trkpt lat="39.592671" lon="-5.413489">
        <ele>590.1</ele>
        <time>1970-01-01T00:00:00Z</time>
      </trkpt>
      <trkpt lat="39.592236" lon="-5.413602">
        <ele>588.2</ele>
        <time>1970-01-01T00:00:00Z</time>
      </trkpt>
      <trkpt lat="39.591929" lon="-5.413650">
        <ele>588.0</ele>
        <time>1970-01-01T00:00:00Z</time>
      </trkpt>
      <trkpt lat="39.591784" lon="-5.413657">
        <ele>588.3</ele>
        <time>1970-01-01T00:00:00Z</time>
      </trkpt>
      <trkpt lat="39.591654" lon="-5.413652">
        <ele>588.9</ele>
        <time>1970-01-01T00:00:00Z</time>
      </trkpt>
      <trkpt lat="39.591506" lon="-5.413635">
        <ele>590.6</ele>
        <time>1970-01-01T00:00:00Z</time>
      </trkpt>
      <trkpt lat="39.591278" lon="-5.413761">
        <ele>589.7</ele>
        <time>1970-01-01T00:00:00Z</time>
      </trkpt>
      <trkpt lat="39.591041" lon="-5.414085">
        <ele>585.3</ele>
        <time>1970-01-01T00:00:00Z</time>
      </trkpt>
      <trkpt lat="39.590735" lon="-5.414505">
        <ele>583.4</ele>
        <time>1970-01-01T00:00:00Z</time>
      </trkpt>
      <trkpt lat="39.590511" lon="-5.414870">
        <ele>581.9</ele>
        <time>1970-01-01T00:00:00Z</time>
      </trkpt>
      <trkpt lat="39.590338" lon="-5.414957">
        <ele>583.5</ele>
        <time>1970-01-01T00:00:00Z</time>
      </trkpt>
      <trkpt lat="39.590140" lon="-5.414985">
        <ele>586.9</ele>
        <time>1970-01-01T00:00:00Z</time>
      </trkpt>
      <trkpt lat="39.589737" lon="-5.414860">
        <ele>597.9</ele>
        <time>1970-01-01T00:00:00Z</time>
      </trkpt>
      <trkpt lat="39.589350" lon="-5.414730">
        <ele>610.4</ele>
        <time>1970-01-01T00:00:00Z</time>
      </trkpt>
      <trkpt lat="39.589163" lon="-5.414718">
        <ele>615.2</ele>
        <time>1970-01-01T00:00:00Z</time>
      </trkpt>
      <trkpt lat="39.589105" lon="-5.414903">
        <ele>614.7</ele>
        <time>1970-01-01T00:00:00Z</time>
      </trkpt>
      <trkpt lat="39.589195" lon="-5.415133">
        <ele>611.3</ele>
        <time>1970-01-01T00:00:00Z</time>
      </trkpt>
      <trkpt lat="39.589620" lon="-5.415810">
        <ele>595.7</ele>
        <time>1970-01-01T00:00:00Z</time>
      </trkpt>
      <trkpt lat="39.589910" lon="-5.416400">
        <ele>587.6</ele>
        <time>1970-01-01T00:00:00Z</time>
      </trkpt>
      <trkpt lat="39.590013" lon="-5.416966">
        <ele>584.9</ele>
        <time>1970-01-01T00:00:00Z</time>
      </trkpt>
      <trkpt lat="39.590005" lon="-5.417146">
        <ele>584.4</ele>
        <time>1970-01-01T00:00:00Z</time>
      </trkpt>
      <trkpt lat="39.589914" lon="-5.417387">
        <ele>586.4</ele>
        <time>1970-01-01T00:00:00Z</time>
      </trkpt>
      <trkpt lat="39.589727" lon="-5.417486">
        <ele>591.7</ele>
        <time>1970-01-01T00:00:00Z</time>
      </trkpt>
      <trkpt lat="39.589566" lon="-5.417457">
        <ele>597.1</ele>
        <time>1970-01-01T00:00:00Z</time>
      </trkpt>
      <trkpt lat="39.589342" lon="-5.417368">
        <ele>606.0</ele>
        <time>1970-01-01T00:00:00Z</time>
      </trkpt>
      <trkpt lat="39.589030" lon="-5.417270">
        <ele>615.1</ele>
        <time>1970-01-01T00:00:00Z</time>
      </trkpt>
      <trkpt lat="39.588640" lon="-5.417140">
        <ele>621.2</ele>
        <time>1970-01-01T00:00:00Z</time>
      </trkpt>
      <trkpt lat="39.588160" lon="-5.417010">
        <ele>624.7</ele>
        <time>1970-01-01T00:00:00Z</time>
      </trkpt>
      <trkpt lat="39.587610" lon="-5.416870">
        <ele>627.8</ele>
        <time>1970-01-01T00:00:00Z</time>
      </trkpt>
      <trkpt lat="39.587507" lon="-5.416797">
        <ele>628.7</ele>
        <time>1970-01-01T00:00:00Z</time>
      </trkpt>
      <trkpt lat="39.587470" lon="-5.416760">
        <ele>629.2</ele>
        <time>1970-01-01T00:00:00Z</time>
      </trkpt>
      <trkpt lat="39.587424" lon="-5.416690">
        <ele>630.1</ele>
        <time>1970-01-01T00:00:00Z</time>
      </trkpt>
      <trkpt lat="39.587458" lon="-5.416592">
        <ele>631.4</ele>
        <time>1970-01-01T00:00:00Z</time>
      </trkpt>
      <trkpt lat="39.587542" lon="-5.416443">
        <ele>633.2</ele>
        <time>1970-01-01T00:00:00Z</time>
      </trkpt>
      <trkpt lat="39.587517" lon="-5.416326">
        <ele>635.1</ele>
        <time>1970-01-01T00:00:00Z</time>
      </trkpt>
      <trkpt lat="39.587443" lon="-5.416207">
        <ele>637.0</ele>
        <time>1970-01-01T00:00:00Z</time>
      </trkpt>
      <trkpt lat="39.587380" lon="-5.416110">
        <ele>638.4</ele>
        <time>1970-01-01T00:00:00Z</time>
      </trkpt>
      <trkpt lat="39.587266" lon="-5.415852">
        <ele>642.0</ele>
        <time>1970-01-01T00:00:00Z</time>
      </trkpt>
      <trkpt lat="39.587189" lon="-5.415668">
        <ele>644.3</ele>
        <time>1970-01-01T00:00:00Z</time>
      </trkpt>
      <trkpt lat="39.586991" lon="-5.415446">
        <ele>646.0</ele>
        <time>1970-01-01T00:00:00Z</time>
      </trkpt>
      <trkpt lat="39.586880" lon="-5.415338">
        <ele>646.8</ele>
        <time>1970-01-01T00:00:00Z</time>
      </trkpt>
      <trkpt lat="39.586837" lon="-5.415249">
        <ele>647.8</ele>
        <time>1970-01-01T00:00:00Z</time>
      </trkpt>
      <trkpt lat="39.586814" lon="-5.415079">
        <ele>649.3</ele>
        <time>1970-01-01T00:00:00Z</time>
      </trkpt>
      <trkpt lat="39.586700" lon="-5.414590">
        <ele>652.2</ele>
        <time>1970-01-01T00:00:00Z</time>
      </trkpt>
      <trkpt lat="39.586650" lon="-5.414480">
        <ele>652.8</ele>
        <time>1970-01-01T00:00:00Z</time>
      </trkpt>
      <trkpt lat="39.586540" lon="-5.414300">
        <ele>653.9</ele>
        <time>1970-01-01T00:00:00Z</time>
      </trkpt>
      <trkpt lat="39.586290" lon="-5.414180">
        <ele>653.6</ele>
        <time>1970-01-01T00:00:00Z</time>
      </trkpt>
      <trkpt lat="39.586200" lon="-5.414140">
        <ele>654.1</ele>
        <time>1970-01-01T00:00:00Z</time>
      </trkpt>
      <trkpt lat="39.586120" lon="-5.414080">
        <ele>654.8</ele>
        <time>1970-01-01T00:00:00Z</time>
      </trkpt>
      <trkpt lat="39.585930" lon="-5.413890">
        <ele>656.5</ele>
        <time>1970-01-01T00:00:00Z</time>
      </trkpt>
      <trkpt lat="39.585796" lon="-5.413763">
        <ele>657.3</ele>
        <time>1970-01-01T00:00:00Z</time>
      </trkpt>
      <trkpt lat="39.585683" lon="-5.413550">
        <ele>658.0</ele>
        <time>1970-01-01T00:00:00Z</time>
      </trkpt>
      <trkpt lat="39.585494" lon="-5.413543">
        <ele>659.3</ele>
        <time>1970-01-01T00:00:00Z</time>
      </trkpt>
      <trkpt lat="39.585397" lon="-5.413441">
        <ele>660.0</ele>
        <time>1970-01-01T00:00:00Z</time>
      </trkpt>
      <trkpt lat="39.585104" lon="-5.413238">
        <ele>662.4</ele>
        <time>1970-01-01T00:00:00Z</time>
      </trkpt>
      <trkpt lat="39.584830" lon="-5.412984">
        <ele>663.6</ele>
        <time>1970-01-01T00:00:00Z</time>
      </trkpt>
      <trkpt lat="39.584603" lon="-5.412872">
        <ele>666.3</ele>
        <time>1970-01-01T00:00:00Z</time>
      </trkpt>
      <trkpt lat="39.584313" lon="-5.412734">
        <ele>670.1</ele>
        <time>1970-01-01T00:00:00Z</time>
      </trkpt>
      <trkpt lat="39.584251" lon="-5.412685">
        <ele>670.9</ele>
        <time>1970-01-01T00:00:00Z</time>
      </trkpt>
      <trkpt lat="39.584171" lon="-5.412635">
        <ele>671.2</ele>
        <time>1970-01-01T00:00:00Z</time>
      </trkpt>
      <trkpt lat="39.584092" lon="-5.412540">
        <ele>671.8</ele>
        <time>1970-01-01T00:00:00Z</time>
      </trkpt>
      <trkpt lat="39.583985" lon="-5.412449">
        <ele>673.2</ele>
        <time>1970-01-01T00:00:00Z</time>
      </trkpt>
      <trkpt lat="39.583853" lon="-5.412298">
        <ele>674.8</ele>
        <time>1970-01-01T00:00:00Z</time>
      </trkpt>
      <trkpt lat="39.583703" lon="-5.412148">
        <ele>676.4</ele>
        <time>1970-01-01T00:00:00Z</time>
      </trkpt>
      <trkpt lat="39.583498" lon="-5.411844">
        <ele>678.3</ele>
        <time>1970-01-01T00:00:00Z</time>
      </trkpt>
      <trkpt lat="39.583301" lon="-5.411552">
        <ele>680.9</ele>
        <time>1970-01-01T00:00:00Z</time>
      </trkpt>
      <trkpt lat="39.583260" lon="-5.411387">
        <ele>681.1</ele>
        <time>1970-01-01T00:00:00Z</time>
      </trkpt>
      <trkpt lat="39.583214" lon="-5.411223">
        <ele>681.8</ele>
        <time>1970-01-01T00:00:00Z</time>
      </trkpt>
      <trkpt lat="39.583248" lon="-5.411102">
        <ele>682.1</ele>
        <time>1970-01-01T00:00:00Z</time>
      </trkpt>
      <trkpt lat="39.583220" lon="-5.411010">
        <ele>682.5</ele>
        <time>1970-01-01T00:00:00Z</time>
      </trkpt>
      <trkpt lat="39.583098" lon="-5.410503">
        <ele>683.5</ele>
        <time>1970-01-01T00:00:00Z</time>
      </trkpt>
      <trkpt lat="39.583024" lon="-5.409941">
        <ele>684.5</ele>
        <time>1970-01-01T00:00:00Z</time>
      </trkpt>
      <trkpt lat="39.582982" lon="-5.409596">
        <ele>685.1</ele>
        <time>1970-01-01T00:00:00Z</time>
      </trkpt>
      <trkpt lat="39.582932" lon="-5.409391">
        <ele>684.8</ele>
        <time>1970-01-01T00:00:00Z</time>
      </trkpt>
      <trkpt lat="39.582830" lon="-5.409180">
        <ele>685.2</ele>
        <time>1970-01-01T00:00:00Z</time>
      </trkpt>
      <trkpt lat="39.582610" lon="-5.409080">
        <ele>684.5</ele>
        <time>1970-01-01T00:00:00Z</time>
      </trkpt>
      <trkpt lat="39.582390" lon="-5.408920">
        <ele>683.3</ele>
        <time>1970-01-01T00:00:00Z</time>
      </trkpt>
      <trkpt lat="39.582078" lon="-5.408447">
        <ele>683.4</ele>
        <time>1970-01-01T00:00:00Z</time>
      </trkpt>
      <trkpt lat="39.581755" lon="-5.407912">
        <ele>685.1</ele>
        <time>1970-01-01T00:00:00Z</time>
      </trkpt>
      <trkpt lat="39.581607" lon="-5.407663">
        <ele>687.7</ele>
        <time>1970-01-01T00:00:00Z</time>
      </trkpt>
      <trkpt lat="39.581520" lon="-5.407520">
        <ele>688.8</ele>
        <time>1970-01-01T00:00:00Z</time>
      </trkpt>
      <trkpt lat="39.581423" lon="-5.407435">
        <ele>689.3</ele>
        <time>1970-01-01T00:00:00Z</time>
      </trkpt>
      <trkpt lat="39.581289" lon="-5.407390">
        <ele>689.7</ele>
        <time>1970-01-01T00:00:00Z</time>
      </trkpt>
      <trkpt lat="39.581087" lon="-5.407557">
        <ele>686.8</ele>
        <time>1970-01-01T00:00:00Z</time>
      </trkpt>
      <trkpt lat="39.580987" lon="-5.407612">
        <ele>685.8</ele>
        <time>1970-01-01T00:00:00Z</time>
      </trkpt>
      <trkpt lat="39.580878" lon="-5.407643">
        <ele>685.5</ele>
        <time>1970-01-01T00:00:00Z</time>
      </trkpt>
      <trkpt lat="39.580600" lon="-5.407570">
        <ele>686.2</ele>
        <time>1970-01-01T00:00:00Z</time>
      </trkpt>
      <trkpt lat="39.580510" lon="-5.407550">
        <ele>686.4</ele>
        <time>1970-01-01T00:00:00Z</time>
      </trkpt>
      <trkpt lat="39.580490" lon="-5.407560">
        <ele>686.3</ele>
        <time>1970-01-01T00:00:00Z</time>
      </trkpt>
      <trkpt lat="39.580490" lon="-5.407580">
        <ele>686.1</ele>
        <time>1970-01-01T00:00:00Z</time>
      </trkpt>
      <trkpt lat="39.580490" lon="-5.407580">
        <ele>686.1</ele>
        <time>1970-01-01T00:00:00Z</time>
      </trkpt>
      <trkpt lat="39.580490" lon="-5.407580">
        <ele>686.1</ele>
        <time>1970-01-01T00:00:00Z</time>
      </trkpt>
      <trkpt lat="39.580490" lon="-5.407580">
        <ele>686.1</ele>
        <time>1970-01-01T00:00:00Z</time>
      </trkpt>
      <trkpt lat="39.580484" lon="-5.407531">
        <ele>686.5</ele>
        <time>1970-01-01T00:00:00Z</time>
      </trkpt>
      <trkpt lat="39.580417" lon="-5.407505">
        <ele>686.8</ele>
        <time>1970-01-01T00:00:00Z</time>
      </trkpt>
      <trkpt lat="39.580349" lon="-5.407520">
        <ele>686.6</ele>
        <time>1970-01-01T00:00:00Z</time>
      </trkpt>
      <trkpt lat="39.580220" lon="-5.407450">
        <ele>687.2</ele>
        <time>1970-01-01T00:00:00Z</time>
      </trkpt>
      <trkpt lat="39.580060" lon="-5.407260">
        <ele>688.9</ele>
        <time>1970-01-01T00:00:00Z</time>
      </trkpt>
      <trkpt lat="39.579820" lon="-5.406790">
        <ele>695.0</ele>
        <time>1970-01-01T00:00:00Z</time>
      </trkpt>
      <trkpt lat="39.579707" lon="-5.406334">
        <ele>699.6</ele>
        <time>1970-01-01T00:00:00Z</time>
      </trkpt>
      <trkpt lat="39.579543" lon="-5.405787">
        <ele>705.3</ele>
        <time>1970-01-01T00:00:00Z</time>
      </trkpt>
      <trkpt lat="39.579344" lon="-5.405372">
        <ele>708.6</ele>
        <time>1970-01-01T00:00:00Z</time>
      </trkpt>
      <trkpt lat="39.579212" lon="-5.404984">
        <ele>713.0</ele>
        <time>1970-01-01T00:00:00Z</time>
      </trkpt>
      <trkpt lat="39.579210" lon="-5.404646">
        <ele>716.8</ele>
        <time>1970-01-01T00:00:00Z</time>
      </trkpt>
      <trkpt lat="39.579272" lon="-5.404299">
        <ele>719.5</ele>
        <time>1970-01-01T00:00:00Z</time>
      </trkpt>
      <trkpt lat="39.579413" lon="-5.403582">
        <ele>724.3</ele>
        <time>1970-01-01T00:00:00Z</time>
      </trkpt>
      <trkpt lat="39.579586" lon="-5.403279">
        <ele>725.8</ele>
        <time>1970-01-01T00:00:00Z</time>
      </trkpt>
      <trkpt lat="39.579870" lon="-5.403240">
        <ele>727.8</ele>
        <time>1970-01-01T00:00:00Z</time>
      </trkpt>
      <trkpt lat="39.580250" lon="-5.403180">
        <ele>728.9</ele>
        <time>1970-01-01T00:00:00Z</time>
      </trkpt>
      <trkpt lat="39.580420" lon="-5.403110">
        <ele>730.0</ele>
        <time>1970-01-01T00:00:00Z</time>
      </trkpt>
      <trkpt lat="39.580677" lon="-5.402979">
        <ele>731.5</ele>
        <time>1970-01-01T00:00:00Z</time>
      </trkpt>
      <trkpt lat="39.580755" lon="-5.402720">
        <ele>734.0</ele>
        <time>1970-01-01T00:00:00Z</time>
      </trkpt>
      <trkpt lat="39.580730" lon="-5.402460">
        <ele>736.0</ele>
        <time>1970-01-01T00:00:00Z</time>
      </trkpt>
      <trkpt lat="39.580990" lon="-5.402180">
        <ele>740.7</ele>
        <time>1970-01-01T00:00:00Z</time>
      </trkpt>
      <trkpt lat="39.581190" lon="-5.402060">
        <ele>744.3</ele>
        <time>1970-01-01T00:00:00Z</time>
      </trkpt>
      <trkpt lat="39.581400" lon="-5.401960">
        <ele>747.0</ele>
        <time>1970-01-01T00:00:00Z</time>
      </trkpt>
      <trkpt lat="39.581846" lon="-5.402001">
        <ele>750.7</ele>
        <time>1970-01-01T00:00:00Z</time>
      </trkpt>
      <trkpt lat="39.582426" lon="-5.402481">
        <ele>747.5</ele>
        <time>1970-01-01T00:00:00Z</time>
      </trkpt>
      <trkpt lat="39.582880" lon="-5.402390">
        <ele>752.0</ele>
        <time>1970-01-01T00:00:00Z</time>
      </trkpt>
      <trkpt lat="39.583180" lon="-5.402180">
        <ele>757.9</ele>
        <time>1970-01-01T00:00:00Z</time>
      </trkpt>
      <trkpt lat="39.583683" lon="-5.401837">
        <ele>765.1</ele>
        <time>1970-01-01T00:00:00Z</time>
      </trkpt>
      <trkpt lat="39.584290" lon="-5.401710">
        <ele>773.3</ele>
        <time>1970-01-01T00:00:00Z</time>
      </trkpt>
      <trkpt lat="39.584537" lon="-5.401716">
        <ele>776.4</ele>
        <time>1970-01-01T00:00:00Z</time>
      </trkpt>
      <trkpt lat="39.584660" lon="-5.402080">
        <ele>771.7</ele>
        <time>1970-01-01T00:00:00Z</time>
      </trkpt>
      <trkpt lat="39.585000" lon="-5.402440">
        <ele>771.2</ele>
        <time>1970-01-01T00:00:00Z</time>
      </trkpt>
      <trkpt lat="39.585310" lon="-5.402550">
        <ele>773.4</ele>
        <time>1970-01-01T00:00:00Z</time>
      </trkpt>
      <trkpt lat="39.585576" lon="-5.402631">
        <ele>775.2</ele>
        <time>1970-01-01T00:00:00Z</time>
      </trkpt>
      <trkpt lat="39.585800" lon="-5.402702">
        <ele>775.4</ele>
        <time>1970-01-01T00:00:00Z</time>
      </trkpt>
      <trkpt lat="39.586240" lon="-5.402720">
        <ele>776.2</ele>
        <time>1970-01-01T00:00:00Z</time>
      </trkpt>
      <trkpt lat="39.586540" lon="-5.402480">
        <ele>777.5</ele>
        <time>1970-01-01T00:00:00Z</time>
      </trkpt>
      <trkpt lat="39.586770" lon="-5.402140">
        <ele>779.1</ele>
        <time>1970-01-01T00:00:00Z</time>
      </trkpt>
      <trkpt lat="39.586850" lon="-5.402020">
        <ele>779.5</ele>
        <time>1970-01-01T00:00:00Z</time>
      </trkpt>
      <trkpt lat="39.587180" lon="-5.401420">
        <ele>780.9</ele>
        <time>1970-01-01T00:00:00Z</time>
      </trkpt>
      <trkpt lat="39.587410" lon="-5.400880">
        <ele>785.9</ele>
        <time>1970-01-01T00:00:00Z</time>
      </trkpt>
      <trkpt lat="39.587640" lon="-5.400030">
        <ele>790.9</ele>
        <time>1970-01-01T00:00:00Z</time>
      </trkpt>
      <trkpt lat="39.587690" lon="-5.399570">
        <ele>792.2</ele>
        <time>1970-01-01T00:00:00Z</time>
      </trkpt>
      <trkpt lat="39.587660" lon="-5.399010">
        <ele>794.2</ele>
        <time>1970-01-01T00:00:00Z</time>
      </trkpt>
      <trkpt lat="39.587690" lon="-5.398630">
        <ele>794.2</ele>
        <time>1970-01-01T00:00:00Z</time>
      </trkpt>
      <trkpt lat="39.587680" lon="-5.398290">
        <ele>794.6</ele>
        <time>1970-01-01T00:00:00Z</time>
      </trkpt>
      <trkpt lat="39.587530" lon="-5.398000">
        <ele>798.4</ele>
        <time>1970-01-01T00:00:00Z</time>
      </trkpt>
      <trkpt lat="39.587130" lon="-5.397680">
        <ele>805.8</ele>
        <time>1970-01-01T00:00:00Z</time>
      </trkpt>
      <trkpt lat="39.586784" lon="-5.397608">
        <ele>811.3</ele>
        <time>1970-01-01T00:00:00Z</time>
      </trkpt>
      <trkpt lat="39.586570" lon="-5.397300">
        <ele>817.2</ele>
        <time>1970-01-01T00:00:00Z</time>
      </trkpt>
      <trkpt lat="39.586610" lon="-5.397020">
        <ele>819.6</ele>
        <time>1970-01-01T00:00:00Z</time>
      </trkpt>
      <trkpt lat="39.586780" lon="-5.396780">
        <ele>820.9</ele>
        <time>1970-01-01T00:00:00Z</time>
      </trkpt>
      <trkpt lat="39.586902" lon="-5.396476">
        <ele>827.1</ele>
        <time>1970-01-01T00:00:00Z</time>
      </trkpt>
      <trkpt lat="39.586956" lon="-5.396263">
        <ele>831.3</ele>
        <time>1970-01-01T00:00:00Z</time>
      </trkpt>
      <trkpt lat="39.587159" lon="-5.396223">
        <ele>831.0</ele>
        <time>1970-01-01T00:00:00Z</time>
      </trkpt>
      <trkpt lat="39.587440" lon="-5.396300">
        <ele>826.4</ele>
        <time>1970-01-01T00:00:00Z</time>
      </trkpt>
      <trkpt lat="39.587800" lon="-5.396270">
        <ele>822.5</ele>
        <time>1970-01-01T00:00:00Z</time>
      </trkpt>
      <trkpt lat="39.587960" lon="-5.396220">
        <ele>821.2</ele>
        <time>1970-01-01T00:00:00Z</time>
      </trkpt>
      <trkpt lat="39.588245" lon="-5.395999">
        <ele>819.8</ele>
        <time>1970-01-01T00:00:00Z</time>
      </trkpt>
      <trkpt lat="39.588373" lon="-5.395671">
        <ele>824.1</ele>
        <time>1970-01-01T00:00:00Z</time>
      </trkpt>
      <trkpt lat="39.588441" lon="-5.395423">
        <ele>829.3</ele>
        <time>1970-01-01T00:00:00Z</time>
      </trkpt>
      <trkpt lat="39.588499" lon="-5.395053">
        <ele>838.0</ele>
        <time>1970-01-01T00:00:00Z</time>
      </trkpt>
      <trkpt lat="39.588545" lon="-5.394775">
        <ele>845.4</ele>
        <time>1970-01-01T00:00:00Z</time>
      </trkpt>
      <trkpt lat="39.588780" lon="-5.394660">
        <ele>848.8</ele>
        <time>1970-01-01T00:00:00Z</time>
      </trkpt>
      <trkpt lat="39.589041" lon="-5.394763">
        <ele>849.5</ele>
        <time>1970-01-01T00:00:00Z</time>
      </trkpt>
      <trkpt lat="39.589455" lon="-5.395179">
        <ele>851.6</ele>
        <time>1970-01-01T00:00:00Z</time>
      </trkpt>
      <trkpt lat="39.589970" lon="-5.395490">
        <ele>852.8</ele>
        <time>1970-01-01T00:00:00Z</time>
      </trkpt>
      <trkpt lat="39.590220" lon="-5.395480">
        <ele>855.6</ele>
        <time>1970-01-01T00:00:00Z</time>
      </trkpt>
      <trkpt lat="39.590630" lon="-5.395420">
        <ele>858.5</ele>
        <time>1970-01-01T00:00:00Z</time>
      </trkpt>
      <trkpt lat="39.590821" lon="-5.395342">
        <ele>858.8</ele>
        <time>1970-01-01T00:00:00Z</time>
      </trkpt>
      <trkpt lat="39.591050" lon="-5.395240">
        <ele>856.3</ele>
        <time>1970-01-01T00:00:00Z</time>
      </trkpt>
      <trkpt lat="39.591277" lon="-5.394863">
        <ele>857.6</ele>
        <time>1970-01-01T00:00:00Z</time>
      </trkpt>
      <trkpt lat="39.591397" lon="-5.394495">
        <ele>860.8</ele>
        <time>1970-01-01T00:00:00Z</time>
      </trkpt>
      <trkpt lat="39.591490" lon="-5.394060">
        <ele>867.4</ele>
        <time>1970-01-01T00:00:00Z</time>
      </trkpt>
      <trkpt lat="39.591650" lon="-5.393613">
        <ele>871.9</ele>
        <time>1970-01-01T00:00:00Z</time>
      </trkpt>
      <trkpt lat="39.591970" lon="-5.393220">
        <ele>865.3</ele>
        <time>1970-01-01T00:00:00Z</time>
      </trkpt>
      <trkpt lat="39.592350" lon="-5.392640">
        <ele>860.5</ele>
        <time>1970-01-01T00:00:00Z</time>
      </trkpt>
      <trkpt lat="39.592511" lon="-5.392239">
        <ele>859.2</ele>
        <time>1970-01-01T00:00:00Z</time>
      </trkpt>
      <trkpt lat="39.592562" lon="-5.391309">
        <ele>870.2</ele>
        <time>1970-01-01T00:00:00Z</time>
      </trkpt>
      <trkpt lat="39.592497" lon="-5.390085">
        <ele>874.8</ele>
        <time>1970-01-01T00:00:00Z</time>
      </trkpt>
      <trkpt lat="39.592568" lon="-5.389470">
        <ele>870.3</ele>
        <time>1970-01-01T00:00:00Z</time>
      </trkpt>
      <trkpt lat="39.592501" lon="-5.389019">
        <ele>876.2</ele>
        <time>1970-01-01T00:00:00Z</time>
      </trkpt>
      <trkpt lat="39.592520" lon="-5.388490">
        <ele>881.6</ele>
        <time>1970-01-01T00:00:00Z</time>
      </trkpt>
      <trkpt lat="39.592600" lon="-5.388070">
        <ele>885.0</ele>
        <time>1970-01-01T00:00:00Z</time>
      </trkpt>
      <trkpt lat="39.592690" lon="-5.387800">
        <ele>885.0</ele>
        <time>1970-01-01T00:00:00Z</time>
      </trkpt>
      <trkpt lat="39.593050" lon="-5.387100">
        <ele>881.5</ele>
        <time>1970-01-01T00:00:00Z</time>
      </trkpt>
      <trkpt lat="39.593196" lon="-5.386778">
        <ele>880.2</ele>
        <time>1970-01-01T00:00:00Z</time>
      </trkpt>
      <trkpt lat="39.593156" lon="-5.386538">
        <ele>883.8</ele>
        <time>1970-01-01T00:00:00Z</time>
      </trkpt>
      <trkpt lat="39.592842" lon="-5.386236">
        <ele>892.5</ele>
        <time>1970-01-01T00:00:00Z</time>
      </trkpt>
      <trkpt lat="39.592857" lon="-5.385969">
        <ele>893.0</ele>
        <time>1970-01-01T00:00:00Z</time>
      </trkpt>
      <trkpt lat="39.592734" lon="-5.385598">
        <ele>893.9</ele>
        <time>1970-01-01T00:00:00Z</time>
      </trkpt>
      <trkpt lat="39.592700" lon="-5.385380">
        <ele>893.8</ele>
        <time>1970-01-01T00:00:00Z</time>
      </trkpt>
      <trkpt lat="39.592648" lon="-5.385147">
        <ele>894.7</ele>
        <time>1970-01-01T00:00:00Z</time>
      </trkpt>
      <trkpt lat="39.592640" lon="-5.384970">
        <ele>895.4</ele>
        <time>1970-01-01T00:00:00Z</time>
      </trkpt>
      <trkpt lat="39.592650" lon="-5.384710">
        <ele>896.2</ele>
        <time>1970-01-01T00:00:00Z</time>
      </trkpt>
      <trkpt lat="39.592806" lon="-5.384256">
        <ele>894.0</ele>
        <time>1970-01-01T00:00:00Z</time>
      </trkpt>
      <trkpt lat="39.592839" lon="-5.383529">
        <ele>890.2</ele>
        <time>1970-01-01T00:00:00Z</time>
      </trkpt>
      <trkpt lat="39.592679" lon="-5.382976">
        <ele>891.0</ele>
        <time>1970-01-01T00:00:00Z</time>
      </trkpt>
      <trkpt lat="39.592433" lon="-5.382665">
        <ele>895.6</ele>
        <time>1970-01-01T00:00:00Z</time>
      </trkpt>
      <trkpt lat="39.592168" lon="-5.382219">
        <ele>900.7</ele>
        <time>1970-01-01T00:00:00Z</time>
      </trkpt>
      <trkpt lat="39.592020" lon="-5.381570">
        <ele>898.4</ele>
        <time>1970-01-01T00:00:00Z</time>
      </trkpt>
      <trkpt lat="39.591740" lon="-5.381170">
        <ele>900.7</ele>
        <time>1970-01-01T00:00:00Z</time>
      </trkpt>
      <trkpt lat="39.590910" lon="-5.379890">
        <ele>907.9</ele>
        <time>1970-01-01T00:00:00Z</time>
      </trkpt>
      <trkpt lat="39.590730" lon="-5.379700">
        <ele>912.2</ele>
        <time>1970-01-01T00:00:00Z</time>
      </trkpt>
      <trkpt lat="39.590544" lon="-5.379457">
        <ele>918.1</ele>
        <time>1970-01-01T00:00:00Z</time>
      </trkpt>
      <trkpt lat="39.590528" lon="-5.379153">
        <ele>918.7</ele>
        <time>1970-01-01T00:00:00Z</time>
      </trkpt>
      <trkpt lat="39.590922" lon="-5.378614">
        <ele>907.8</ele>
        <time>1970-01-01T00:00:00Z</time>
      </trkpt>
      <trkpt lat="39.591050" lon="-5.378020">
        <ele>905.3</ele>
        <time>1970-01-01T00:00:00Z</time>
      </trkpt>
      <trkpt lat="39.590980" lon="-5.377660">
        <ele>906.0</ele>
        <time>1970-01-01T00:00:00Z</time>
      </trkpt>
      <trkpt lat="39.590512" lon="-5.376626">
        <ele>910.0</ele>
        <time>1970-01-01T00:00:00Z</time>
      </trkpt>
      <trkpt lat="39.590110" lon="-5.376110">
        <ele>913.5</ele>
        <time>1970-01-01T00:00:00Z</time>
      </trkpt>
      <trkpt lat="39.589850" lon="-5.375930">
        <ele>919.0</ele>
        <time>1970-01-01T00:00:00Z</time>
      </trkpt>
      <trkpt lat="39.589574" lon="-5.375610">
        <ele>924.3</ele>
        <time>1970-01-01T00:00:00Z</time>
      </trkpt>
      <trkpt lat="39.589539" lon="-5.375079">
        <ele>921.6</ele>
        <time>1970-01-01T00:00:00Z</time>
      </trkpt>
      <trkpt lat="39.589873" lon="-5.374392">
        <ele>911.6</ele>
        <time>1970-01-01T00:00:00Z</time>
      </trkpt>
      <trkpt lat="39.590110" lon="-5.373740">
        <ele>908.7</ele>
        <time>1970-01-01T00:00:00Z</time>
      </trkpt>
      <trkpt lat="39.590100" lon="-5.373330">
        <ele>910.1</ele>
        <time>1970-01-01T00:00:00Z</time>
      </trkpt>
      <trkpt lat="39.590050" lon="-5.373090">
        <ele>910.3</ele>
        <time>1970-01-01T00:00:00Z</time>
      </trkpt>
      <trkpt lat="39.589790" lon="-5.372250">
        <ele>914.5</ele>
        <time>1970-01-01T00:00:00Z</time>
      </trkpt>
      <trkpt lat="39.589630" lon="-5.371990">
        <ele>917.4</ele>
        <time>1970-01-01T00:00:00Z</time>
      </trkpt>
      <trkpt lat="39.589200" lon="-5.371790">
        <ele>928.3</ele>
        <time>1970-01-01T00:00:00Z</time>
      </trkpt>
      <trkpt lat="39.589110" lon="-5.371770">
        <ele>930.5</ele>
        <time>1970-01-01T00:00:00Z</time>
      </trkpt>
      <trkpt lat="39.588910" lon="-5.371727">
        <ele>935.9</ele>
        <time>1970-01-01T00:00:00Z</time>
      </trkpt>
      <trkpt lat="39.588865" lon="-5.371470">
        <ele>934.0</ele>
        <time>1970-01-01T00:00:00Z</time>
      </trkpt>
      <trkpt lat="39.589150" lon="-5.370752">
        <ele>915.3</ele>
        <time>1970-01-01T00:00:00Z</time>
      </trkpt>
      <trkpt lat="39.589088" lon="-5.370505">
        <ele>913.4</ele>
        <time>1970-01-01T00:00:00Z</time>
      </trkpt>
      <trkpt lat="39.588710" lon="-5.370310">
        <ele>919.9</ele>
        <time>1970-01-01T00:00:00Z</time>
      </trkpt>
      <trkpt lat="39.588326" lon="-5.370095">
        <ele>927.5</ele>
        <time>1970-01-01T00:00:00Z</time>
      </trkpt>
      <trkpt lat="39.588315" lon="-5.369757">
        <ele>922.4</ele>
        <time>1970-01-01T00:00:00Z</time>
      </trkpt>
      <trkpt lat="39.588160" lon="-5.369181">
        <ele>918.6</ele>
        <time>1970-01-01T00:00:00Z</time>
      </trkpt>
      <trkpt lat="39.587800" lon="-5.368610">
        <ele>920.4</ele>
        <time>1970-01-01T00:00:00Z</time>
      </trkpt>
      <trkpt lat="39.587660" lon="-5.368460">
        <ele>922.2</ele>
        <time>1970-01-01T00:00:00Z</time>
      </trkpt>
      <trkpt lat="39.587470" lon="-5.368120">
        <ele>923.2</ele>
        <time>1970-01-01T00:00:00Z</time>
      </trkpt>
      <trkpt lat="39.587294" lon="-5.367912">
        <ele>925.3</ele>
        <time>1970-01-01T00:00:00Z</time>
      </trkpt>
      <trkpt lat="39.586982" lon="-5.367726">
        <ele>931.3</ele>
        <time>1970-01-01T00:00:00Z</time>
      </trkpt>
      <trkpt lat="39.586675" lon="-5.367355">
        <ele>933.5</ele>
        <time>1970-01-01T00:00:00Z</time>
      </trkpt>
      <trkpt lat="39.586291" lon="-5.366940">
        <ele>935.6</ele>
        <time>1970-01-01T00:00:00Z</time>
      </trkpt>
      <trkpt lat="39.586106" lon="-5.366503">
        <ele>935.9</ele>
        <time>1970-01-01T00:00:00Z</time>
      </trkpt>
      <trkpt lat="39.585945" lon="-5.366253">
        <ele>939.6</ele>
        <time>1970-01-01T00:00:00Z</time>
      </trkpt>
      <trkpt lat="39.585850" lon="-5.366020">
        <ele>942.3</ele>
        <time>1970-01-01T00:00:00Z</time>
      </trkpt>
      <trkpt lat="39.585735" lon="-5.365699">
        <ele>947.0</ele>
        <time>1970-01-01T00:00:00Z</time>
      </trkpt>
      <trkpt lat="39.585596" lon="-5.365263">
        <ele>954.1</ele>
        <time>1970-01-01T00:00:00Z</time>
      </trkpt>
      <trkpt lat="39.585480" lon="-5.364980">
        <ele>957.3</ele>
        <time>1970-01-01T00:00:00Z</time>
      </trkpt>
      <trkpt lat="39.585346" lon="-5.364707">
        <ele>958.0</ele>
        <time>1970-01-01T00:00:00Z</time>
      </trkpt>
      <trkpt lat="39.585254" lon="-5.364553">
        <ele>957.8</ele>
        <time>1970-01-01T00:00:00Z</time>
      </trkpt>
      <trkpt lat="39.585154" lon="-5.364369">
        <ele>957.3</ele>
        <time>1970-01-01T00:00:00Z</time>
      </trkpt>
      <trkpt lat="39.585079" lon="-5.364110">
        <ele>958.8</ele>
        <time>1970-01-01T00:00:00Z</time>
      </trkpt>
      <trkpt lat="39.585051" lon="-5.363912">
        <ele>961.0</ele>
        <time>1970-01-01T00:00:00Z</time>
      </trkpt>
      <trkpt lat="39.585028" lon="-5.363730">
        <ele>963.7</ele>
        <time>1970-01-01T00:00:00Z</time>
      </trkpt>
      <trkpt lat="39.585026" lon="-5.363614">
        <ele>966.0</ele>
        <time>1970-01-01T00:00:00Z</time>
      </trkpt>
      <trkpt lat="39.585003" lon="-5.363403">
        <ele>971.8</ele>
        <time>1970-01-01T00:00:00Z</time>
      </trkpt>
      <trkpt lat="39.584951" lon="-5.363285">
        <ele>974.3</ele>
        <time>1970-01-01T00:00:00Z</time>
      </trkpt>
      <trkpt lat="39.584868" lon="-5.363160">
        <ele>976.3</ele>
        <time>1970-01-01T00:00:00Z</time>
      </trkpt>
      <trkpt lat="39.584532" lon="-5.362863">
        <ele>975.9</ele>
        <time>1970-01-01T00:00:00Z</time>
      </trkpt>
      <trkpt lat="39.584226" lon="-5.362603">
        <ele>975.6</ele>
        <time>1970-01-01T00:00:00Z</time>
      </trkpt>
      <trkpt lat="39.583950" lon="-5.362310">
        <ele>975.6</ele>
        <time>1970-01-01T00:00:00Z</time>
      </trkpt>
      <trkpt lat="39.583640" lon="-5.361960">
        <ele>977.5</ele>
        <time>1970-01-01T00:00:00Z</time>
      </trkpt>
      <trkpt lat="39.583110" lon="-5.361310">
        <ele>985.0</ele>
        <time>1970-01-01T00:00:00Z</time>
      </trkpt>
      <trkpt lat="39.582860" lon="-5.361090">
        <ele>988.7</ele>
        <time>1970-01-01T00:00:00Z</time>
      </trkpt>
      <trkpt lat="39.582873" lon="-5.360927">
        <ele>990.2</ele>
        <time>1970-01-01T00:00:00Z</time>
      </trkpt>
      <trkpt lat="39.583100" lon="-5.360700">
        <ele>995.2</ele>
        <time>1970-01-01T00:00:00Z</time>
      </trkpt>
      <trkpt lat="39.583230" lon="-5.360490">
        <ele>1001.5</ele>
        <time>1970-01-01T00:00:00Z</time>
      </trkpt>
      <trkpt lat="39.583370" lon="-5.360200">
        <ele>1008.2</ele>
        <time>1970-01-01T00:00:00Z</time>
      </trkpt>
      <trkpt lat="39.583440" lon="-5.360070">
        <ele>1011.1</ele>
        <time>1970-01-01T00:00:00Z</time>
      </trkpt>
      <trkpt lat="39.583512" lon="-5.359872">
        <ele>1014.8</ele>
        <time>1970-01-01T00:00:00Z</time>
      </trkpt>
      <trkpt lat="39.583460" lon="-5.359777">
        <ele>1014.9</ele>
        <time>1970-01-01T00:00:00Z</time>
      </trkpt>
      <trkpt lat="39.583360" lon="-5.359750">
        <ele>1013.7</ele>
        <time>1970-01-01T00:00:00Z</time>
      </trkpt>
      <trkpt lat="39.583170" lon="-5.359700">
        <ele>1011.8</ele>
        <time>1970-01-01T00:00:00Z</time>
      </trkpt>
      <trkpt lat="39.582973" lon="-5.359574">
        <ele>1011.4</ele>
        <time>1970-01-01T00:00:00Z</time>
      </trkpt>
      <trkpt lat="39.582808" lon="-5.359458">
        <ele>1011.7</ele>
        <time>1970-01-01T00:00:00Z</time>
      </trkpt>
      <trkpt lat="39.582642" lon="-5.359650">
        <ele>1007.7</ele>
        <time>1970-01-01T00:00:00Z</time>
      </trkpt>
      <trkpt lat="39.582514" lon="-5.359768">
        <ele>1005.2</ele>
        <time>1970-01-01T00:00:00Z</time>
      </trkpt>
      <trkpt lat="39.582350" lon="-5.359750">
        <ele>1005.2</ele>
        <time>1970-01-01T00:00:00Z</time>
      </trkpt>
      <trkpt lat="39.582040" lon="-5.359650">
        <ele>1008.6</ele>
        <time>1970-01-01T00:00:00Z</time>
      </trkpt>
      <trkpt lat="39.581800" lon="-5.359580">
        <ele>1012.8</ele>
        <time>1970-01-01T00:00:00Z</time>
      </trkpt>
      <trkpt lat="39.581502" lon="-5.359460">
        <ele>1017.5</ele>
        <time>1970-01-01T00:00:00Z</time>
      </trkpt>
      <trkpt lat="39.581239" lon="-5.359329">
        <ele>1023.4</ele>
        <time>1970-01-01T00:00:00Z</time>
      </trkpt>
      <trkpt lat="39.581068" lon="-5.359113">
        <ele>1029.3</ele>
        <time>1970-01-01T00:00:00Z</time>
      </trkpt>
      <trkpt lat="39.581019" lon="-5.358850">
        <ele>1032.4</ele>
        <time>1970-01-01T00:00:00Z</time>
      </trkpt>
      <trkpt lat="39.581022" lon="-5.358687">
        <ele>1033.5</ele>
        <time>1970-01-01T00:00:00Z</time>
      </trkpt>
      <trkpt lat="39.581026" lon="-5.358495">
        <ele>1035.1</ele>
        <time>1970-01-01T00:00:00Z</time>
      </trkpt>
      <trkpt lat="39.581010" lon="-5.358310">
        <ele>1036.8</ele>
        <time>1970-01-01T00:00:00Z</time>
      </trkpt>
      <trkpt lat="39.580960" lon="-5.357561">
        <ele>1043.1</ele>
        <time>1970-01-01T00:00:00Z</time>
      </trkpt>
      <trkpt lat="39.580845" lon="-5.356999">
        <ele>1046.5</ele>
        <time>1970-01-01T00:00:00Z</time>
      </trkpt>
      <trkpt lat="39.580830" lon="-5.356620">
        <ele>1049.5</ele>
        <time>1970-01-01T00:00:00Z</time>
      </trkpt>
      <trkpt lat="39.580820" lon="-5.356410">
        <ele>1050.3</ele>
        <time>1970-01-01T00:00:00Z</time>
      </trkpt>
      <trkpt lat="39.580830" lon="-5.356120">
        <ele>1051.4</ele>
        <time>1970-01-01T00:00:00Z</time>
      </trkpt>
      <trkpt lat="39.580795" lon="-5.355914">
        <ele>1051.5</ele>
        <time>1970-01-01T00:00:00Z</time>
      </trkpt>
      <trkpt lat="39.580792" lon="-5.355815">
        <ele>1051.9</ele>
        <time>1970-01-01T00:00:00Z</time>
      </trkpt>
      <trkpt lat="39.580764" lon="-5.355651">
        <ele>1052.0</ele>
        <time>1970-01-01T00:00:00Z</time>
      </trkpt>
      <trkpt lat="39.580783" lon="-5.355378">
        <ele>1052.7</ele>
        <time>1970-01-01T00:00:00Z</time>
      </trkpt>
      <trkpt lat="39.580780" lon="-5.355150">
        <ele>1053.1</ele>
        <time>1970-01-01T00:00:00Z</time>
      </trkpt>
      <trkpt lat="39.580689" lon="-5.354892">
        <ele>1052.7</ele>
        <time>1970-01-01T00:00:00Z</time>
      </trkpt>
      <trkpt lat="39.580475" lon="-5.354559">
        <ele>1052.0</ele>
        <time>1970-01-01T00:00:00Z</time>
      </trkpt>
      <trkpt lat="39.580370" lon="-5.354427">
        <ele>1052.0</ele>
        <time>1970-01-01T00:00:00Z</time>
      </trkpt>
      <trkpt lat="39.580090" lon="-5.353870">
        <ele>1053.0</ele>
        <time>1970-01-01T00:00:00Z</time>
      </trkpt>
      <trkpt lat="39.580053" lon="-5.353630">
        <ele>1052.9</ele>
        <time>1970-01-01T00:00:00Z</time>
      </trkpt>
      <trkpt lat="39.580094" lon="-5.353387">
        <ele>1051.8</ele>
        <time>1970-01-01T00:00:00Z</time>
      </trkpt>
      <trkpt lat="39.580268" lon="-5.353224">
        <ele>1051.1</ele>
        <time>1970-01-01T00:00:00Z</time>
      </trkpt>
      <trkpt lat="39.580289" lon="-5.353068">
        <ele>1050.4</ele>
        <time>1970-01-01T00:00:00Z</time>
      </trkpt>
      <trkpt lat="39.580206" lon="-5.352716">
        <ele>1048.9</ele>
        <time>1970-01-01T00:00:00Z</time>
      </trkpt>
      <trkpt lat="39.580170" lon="-5.352290">
        <ele>1046.5</ele>
        <time>1970-01-01T00:00:00Z</time>
      </trkpt>
      <trkpt lat="39.580314" lon="-5.351183">
        <ele>1041.4</ele>
        <time>1970-01-01T00:00:00Z</time>
      </trkpt>
      <trkpt lat="39.580340" lon="-5.350811">
        <ele>1039.1</ele>
        <time>1970-01-01T00:00:00Z</time>
      </trkpt>
      <trkpt lat="39.580280" lon="-5.350450">
        <ele>1036.8</ele>
        <time>1970-01-01T00:00:00Z</time>
      </trkpt>
      <trkpt lat="39.580230" lon="-5.350210">
        <ele>1035.4</ele>
        <time>1970-01-01T00:00:00Z</time>
      </trkpt>
      <trkpt lat="39.580206" lon="-5.350050">
        <ele>1034.5</ele>
        <time>1970-01-01T00:00:00Z</time>
      </trkpt>
      <trkpt lat="39.580198" lon="-5.349817">
        <ele>1033.5</ele>
        <time>1970-01-01T00:00:00Z</time>
      </trkpt>
      <trkpt lat="39.580197" lon="-5.349619">
        <ele>1032.8</ele>
        <time>1970-01-01T00:00:00Z</time>
      </trkpt>
      <trkpt lat="39.580184" lon="-5.349351">
        <ele>1032.4</ele>
        <time>1970-01-01T00:00:00Z</time>
      </trkpt>
      <trkpt lat="39.580163" lon="-5.349059">
        <ele>1031.3</ele>
        <time>1970-01-01T00:00:00Z</time>
      </trkpt>
      <trkpt lat="39.580191" lon="-5.348786">
        <ele>1030.9</ele>
        <time>1970-01-01T00:00:00Z</time>
      </trkpt>
      <trkpt lat="39.580223" lon="-5.348584">
        <ele>1029.8</ele>
        <time>1970-01-01T00:00:00Z</time>
      </trkpt>
      <trkpt lat="39.580239" lon="-5.348433">
        <ele>1029.1</ele>
        <time>1970-01-01T00:00:00Z</time>
      </trkpt>
      <trkpt lat="39.580245" lon="-5.348351">
        <ele>1028.8</ele>
        <time>1970-01-01T00:00:00Z</time>
      </trkpt>
      <trkpt lat="39.580250" lon="-5.348239">
        <ele>1028.2</ele>
        <time>1970-01-01T00:00:00Z</time>
      </trkpt>
      <trkpt lat="39.580190" lon="-5.348268">
        <ele>1028.1</ele>
        <time>1970-01-01T00:00:00Z</time>
      </trkpt>
      <trkpt lat="39.580021" lon="-5.348343">
        <ele>1027.8</ele>
        <time>1970-01-01T00:00:00Z</time>
      </trkpt>
      <trkpt lat="39.579745" lon="-5.348463">
        <ele>1026.9</ele>
        <time>1970-01-01T00:00:00Z</time>
      </trkpt>
      <trkpt lat="39.579538" lon="-5.348555">
        <ele>1026.6</ele>
        <time>1970-01-01T00:00:00Z</time>
      </trkpt>
      <trkpt lat="39.579208" lon="-5.348872">
        <ele>1028.6</ele>
        <time>1970-01-01T00:00:00Z</time>
      </trkpt>
      <trkpt lat="39.578891" lon="-5.348639">
        <ele>1029.1</ele>
        <time>1970-01-01T00:00:00Z</time>
      </trkpt>
      <trkpt lat="39.578617" lon="-5.348571">
        <ele>1030.6</ele>
        <time>1970-01-01T00:00:00Z</time>
      </trkpt>
      <trkpt lat="39.578305" lon="-5.348655">
        <ele>1033.9</ele>
        <time>1970-01-01T00:00:00Z</time>
      </trkpt>
      <trkpt lat="39.578138" lon="-5.348848">
        <ele>1036.4</ele>
        <time>1970-01-01T00:00:00Z</time>
      </trkpt>
      <trkpt lat="39.577970" lon="-5.349055">
        <ele>1038.1</ele>
        <time>1970-01-01T00:00:00Z</time>
      </trkpt>
      <trkpt lat="39.577744" lon="-5.349336">
        <ele>1040.7</ele>
        <time>1970-01-01T00:00:00Z</time>
      </trkpt>
      <trkpt lat="39.577549" lon="-5.349582">
        <ele>1043.6</ele>
        <time>1970-01-01T00:00:00Z</time>
      </trkpt>
      <trkpt lat="39.577382" lon="-5.349899">
        <ele>1045.5</ele>
        <time>1970-01-01T00:00:00Z</time>
      </trkpt>
      <trkpt lat="39.577310" lon="-5.350011">
        <ele>1046.2</ele>
        <time>1970-01-01T00:00:00Z</time>
      </trkpt>
      <trkpt lat="39.577114" lon="-5.350143">
        <ele>1047.6</ele>
        <time>1970-01-01T00:00:00Z</time>
      </trkpt>
      <trkpt lat="39.576989" lon="-5.350659">
        <ele>1051.0</ele>
        <time>1970-01-01T00:00:00Z</time>
      </trkpt>
      <trkpt lat="39.576812" lon="-5.351041">
        <ele>1056.3</ele>
        <time>1970-01-01T00:00:00Z</time>
      </trkpt>
      <trkpt lat="39.576712" lon="-5.351125">
        <ele>1058.7</ele>
        <time>1970-01-01T00:00:00Z</time>
      </trkpt>
      <trkpt lat="39.576608" lon="-5.351127">
        <ele>1060.1</ele>
        <time>1970-01-01T00:00:00Z</time>
      </trkpt>
      <trkpt lat="39.576502" lon="-5.351025">
        <ele>1060.1</ele>
        <time>1970-01-01T00:00:00Z</time>
      </trkpt>
      <trkpt lat="39.576335" lon="-5.351043">
        <ele>1062.5</ele>
        <time>1970-01-01T00:00:00Z</time>
      </trkpt>
      <trkpt lat="39.576165" lon="-5.351206">
        <ele>1067.3</ele>
        <time>1970-01-01T00:00:00Z</time>
      </trkpt>
      <trkpt lat="39.576048" lon="-5.351434">
        <ele>1072.1</ele>
        <time>1970-01-01T00:00:00Z</time>
      </trkpt>
      <trkpt lat="39.575952" lon="-5.351489">
        <ele>1074.0</ele>
        <time>1970-01-01T00:00:00Z</time>
      </trkpt>
      <trkpt lat="39.575863" lon="-5.351457">
        <ele>1074.6</ele>
        <time>1970-01-01T00:00:00Z</time>
      </trkpt>
      <trkpt lat="39.575663" lon="-5.351282">
        <ele>1075.4</ele>
        <time>1970-01-01T00:00:00Z</time>
      </trkpt>
      <trkpt lat="39.575446" lon="-5.351117">
        <ele>1078.0</ele>
        <time>1970-01-01T00:00:00Z</time>
      </trkpt>
      <trkpt lat="39.575435" lon="-5.350989">
        <ele>1077.1</ele>
        <time>1970-01-01T00:00:00Z</time>
      </trkpt>
      <trkpt lat="39.575485" lon="-5.350542">
        <ele>1073.5</ele>
        <time>1970-01-01T00:00:00Z</time>
      </trkpt>
      <trkpt lat="39.575449" lon="-5.350326">
        <ele>1073.9</ele>
        <time>1970-01-01T00:00:00Z</time>
      </trkpt>
      <trkpt lat="39.575320" lon="-5.350240">
        <ele>1077.3</ele>
        <time>1970-01-01T00:00:00Z</time>
      </trkpt>
      <trkpt lat="39.574913" lon="-5.350372">
        <ele>1087.7</ele>
        <time>1970-01-01T00:00:00Z</time>
      </trkpt>
      <trkpt lat="39.574783" lon="-5.350401">
        <ele>1089.6</ele>
        <time>1970-01-01T00:00:00Z</time>
      </trkpt>
      <trkpt lat="39.574294" lon="-5.350348">
        <ele>1094.6</ele>
        <time>1970-01-01T00:00:00Z</time>
      </trkpt>
      <trkpt lat="39.573978" lon="-5.350433">
        <ele>1095.3</ele>
        <time>1970-01-01T00:00:00Z</time>
      </trkpt>
      <trkpt lat="39.573794" lon="-5.350518">
        <ele>1093.6</ele>
        <time>1970-01-01T00:00:00Z</time>
      </trkpt>
      <trkpt lat="39.573592" lon="-5.350606">
        <ele>1091.0</ele>
        <time>1970-01-01T00:00:00Z</time>
      </trkpt>
      <trkpt lat="39.573443" lon="-5.350805">
        <ele>1087.8</ele>
        <time>1970-01-01T00:00:00Z</time>
      </trkpt>
      <trkpt lat="39.573376" lon="-5.351200">
        <ele>1085.0</ele>
        <time>1970-01-01T00:00:00Z</time>
      </trkpt>
      <trkpt lat="39.573309" lon="-5.351196">
        <ele>1083.6</ele>
        <time>1970-01-01T00:00:00Z</time>
      </trkpt>
      <trkpt lat="39.573245" lon="-5.351188">
        <ele>1082.3</ele>
        <time>1970-01-01T00:00:00Z</time>
      </trkpt>
      <trkpt lat="39.573153" lon="-5.351227">
        <ele>1080.5</ele>
        <time>1970-01-01T00:00:00Z</time>
      </trkpt>
      <trkpt lat="39.572988" lon="-5.351328">
        <ele>1076.4</ele>
        <time>1970-01-01T00:00:00Z</time>
      </trkpt>
      <trkpt lat="39.572885" lon="-5.351340">
        <ele>1073.7</ele>
        <time>1970-01-01T00:00:00Z</time>
      </trkpt>
      <trkpt lat="39.572699" lon="-5.351381">
        <ele>1068.8</ele>
        <time>1970-01-01T00:00:00Z</time>
      </trkpt>
      <trkpt lat="39.572643" lon="-5.351137">
        <ele>1068.3</ele>
        <time>1970-01-01T00:00:00Z</time>
      </trkpt>
      <trkpt lat="39.572641" lon="-5.350983">
        <ele>1068.9</ele>
        <time>1970-01-01T00:00:00Z</time>
      </trkpt>
      <trkpt lat="39.572613" lon="-5.350870">
        <ele>1068.7</ele>
        <time>1970-01-01T00:00:00Z</time>
      </trkpt>
      <trkpt lat="39.572354" lon="-5.350762">
        <ele>1063.3</ele>
        <time>1970-01-01T00:00:00Z</time>
      </trkpt>
      <trkpt lat="39.572140" lon="-5.350668">
        <ele>1059.5</ele>
        <time>1970-01-01T00:00:00Z</time>
      </trkpt>
      <trkpt lat="39.572048" lon="-5.350513">
        <ele>1059.2</ele>
        <time>1970-01-01T00:00:00Z</time>
      </trkpt>
      <trkpt lat="39.571881" lon="-5.350531">
        <ele>1056.2</ele>
        <time>1970-01-01T00:00:00Z</time>
      </trkpt>
      <trkpt lat="39.571818" lon="-5.350541">
        <ele>1055.1</ele>
        <time>1970-01-01T00:00:00Z</time>
      </trkpt>
      <trkpt lat="39.571735" lon="-5.350660">
        <ele>1052.8</ele>
        <time>1970-01-01T00:00:00Z</time>
      </trkpt>
      <trkpt lat="39.571513" lon="-5.350687">
        <ele>1048.6</ele>
        <time>1970-01-01T00:00:00Z</time>
      </trkpt>
      <trkpt lat="39.571198" lon="-5.350712">
        <ele>1042.3</ele>
        <time>1970-01-01T00:00:00Z</time>
      </trkpt>
      <trkpt lat="39.570686" lon="-5.350642">
        <ele>1033.9</ele>
        <time>1970-01-01T00:00:00Z</time>
      </trkpt>
      <trkpt lat="39.570405" lon="-5.350499">
        <ele>1031.8</ele>
        <time>1970-01-01T00:00:00Z</time>
      </trkpt>
      <trkpt lat="39.570239" lon="-5.350208">
        <ele>1031.8</ele>
        <time>1970-01-01T00:00:00Z</time>
      </trkpt>
      <trkpt lat="39.570085" lon="-5.350022">
        <ele>1029.5</ele>
        <time>1970-01-01T00:00:00Z</time>
      </trkpt>
      <trkpt lat="39.569967" lon="-5.349867">
        <ele>1027.5</ele>
        <time>1970-01-01T00:00:00Z</time>
      </trkpt>
      <trkpt lat="39.569861" lon="-5.349759">
        <ele>1025.1</ele>
        <time>1970-01-01T00:00:00Z</time>
      </trkpt>
      <trkpt lat="39.569797" lon="-5.349582">
        <ele>1025.1</ele>
        <time>1970-01-01T00:00:00Z</time>
      </trkpt>
      <trkpt lat="39.569535" lon="-5.349422">
        <ele>1021.0</ele>
        <time>1970-01-01T00:00:00Z</time>
      </trkpt>
      <trkpt lat="39.569102" lon="-5.349454">
        <ele>1010.4</ele>
        <time>1970-01-01T00:00:00Z</time>
      </trkpt>
      <trkpt lat="39.568818" lon="-5.349432">
        <ele>1003.8</ele>
        <time>1970-01-01T00:00:00Z</time>
      </trkpt>
      <trkpt lat="39.568244" lon="-5.349745">
        <ele>984.5</ele>
        <time>1970-01-01T00:00:00Z</time>
      </trkpt>
      <trkpt lat="39.567819" lon="-5.349858">
        <ele>978.7</ele>
        <time>1970-01-01T00:00:00Z</time>
      </trkpt>
      <trkpt lat="39.567359" lon="-5.350326">
        <ele>976.0</ele>
        <time>1970-01-01T00:00:00Z</time>
      </trkpt>
      <trkpt lat="39.566964" lon="-5.350697">
        <ele>970.8</ele>
        <time>1970-01-01T00:00:00Z</time>
      </trkpt>
      <trkpt lat="39.566607" lon="-5.350987">
        <ele>965.2</ele>
        <time>1970-01-01T00:00:00Z</time>
      </trkpt>
      <trkpt lat="39.566429" lon="-5.351069">
        <ele>963.3</ele>
        <time>1970-01-01T00:00:00Z</time>
      </trkpt>
      <trkpt lat="39.566054" lon="-5.351155">
        <ele>961.6</ele>
        <time>1970-01-01T00:00:00Z</time>
      </trkpt>
      <trkpt lat="39.565186" lon="-5.350648">
        <ele>963.3</ele>
        <time>1970-01-01T00:00:00Z</time>
      </trkpt>
      <trkpt lat="39.564691" lon="-5.350614">
        <ele>964.8</ele>
        <time>1970-01-01T00:00:00Z</time>
      </trkpt>
      <trkpt lat="39.563825" lon="-5.350346">
        <ele>964.8</ele>
        <time>1970-01-01T00:00:00Z</time>
      </trkpt>
      <trkpt lat="39.563311" lon="-5.350209">
        <ele>965.7</ele>
        <time>1970-01-01T00:00:00Z</time>
      </trkpt>
      <trkpt lat="39.562451" lon="-5.350347">
        <ele>970.4</ele>
        <time>1970-01-01T00:00:00Z</time>
      </trkpt>
      <trkpt lat="39.562182" lon="-5.350479">
        <ele>971.0</ele>
        <time>1970-01-01T00:00:00Z</time>
      </trkpt>
      <trkpt lat="39.561864" lon="-5.350740">
        <ele>971.2</ele>
        <time>1970-01-01T00:00:00Z</time>
      </trkpt>
      <trkpt lat="39.561507" lon="-5.351246">
        <ele>969.7</ele>
        <time>1970-01-01T00:00:00Z</time>
      </trkpt>
      <trkpt lat="39.561179" lon="-5.351717">
        <ele>965.9</ele>
        <time>1970-01-01T00:00:00Z</time>
      </trkpt>
      <trkpt lat="39.560674" lon="-5.352178">
        <ele>959.7</ele>
        <time>1970-01-01T00:00:00Z</time>
      </trkpt>
      <trkpt lat="39.560231" lon="-5.352373">
        <ele>958.5</ele>
        <time>1970-01-01T00:00:00Z</time>
      </trkpt>
      <trkpt lat="39.559847" lon="-5.352566">
        <ele>955.8</ele>
        <time>1970-01-01T00:00:00Z</time>
      </trkpt>
      <trkpt lat="39.559625" lon="-5.352747">
        <ele>952.7</ele>
        <time>1970-01-01T00:00:00Z</time>
      </trkpt>
      <trkpt lat="39.559478" lon="-5.353072">
        <ele>946.6</ele>
        <time>1970-01-01T00:00:00Z</time>
      </trkpt>
      <trkpt lat="39.559336" lon="-5.353430">
        <ele>941.9</ele>
        <time>1970-01-01T00:00:00Z</time>
      </trkpt>
      <trkpt lat="39.559096" lon="-5.353504">
        <ele>945.8</ele>
        <time>1970-01-01T00:00:00Z</time>
      </trkpt>
      <trkpt lat="39.558892" lon="-5.353340">
        <ele>952.6</ele>
        <time>1970-01-01T00:00:00Z</time>
      </trkpt>
      <trkpt lat="39.558482" lon="-5.353057">
        <ele>959.4</ele>
        <time>1970-01-01T00:00:00Z</time>
      </trkpt>
      <trkpt lat="39.558144" lon="-5.352826">
        <ele>960.2</ele>
        <time>1970-01-01T00:00:00Z</time>
      </trkpt>
      <trkpt lat="39.557774" lon="-5.352656">
        <ele>958.1</ele>
        <time>1970-01-01T00:00:00Z</time>
      </trkpt>
      <trkpt lat="39.557108" lon="-5.352400">
        <ele>947.4</ele>
        <time>1970-01-01T00:00:00Z</time>
      </trkpt>
      <trkpt lat="39.556777" lon="-5.352348">
        <ele>939.7</ele>
        <time>1970-01-01T00:00:00Z</time>
      </trkpt>
      <trkpt lat="39.556253" lon="-5.352076">
        <ele>931.9</ele>
        <time>1970-01-01T00:00:00Z</time>
      </trkpt>
      <trkpt lat="39.555809" lon="-5.351878">
        <ele>926.6</ele>
        <time>1970-01-01T00:00:00Z</time>
      </trkpt>
      <trkpt lat="39.555553" lon="-5.351816">
        <ele>926.0</ele>
        <time>1970-01-01T00:00:00Z</time>
      </trkpt>
      <trkpt lat="39.555302" lon="-5.351883">
        <ele>924.3</ele>
        <time>1970-01-01T00:00:00Z</time>
      </trkpt>
      <trkpt lat="39.555054" lon="-5.352142">
        <ele>922.2</ele>
        <time>1970-01-01T00:00:00Z</time>
      </trkpt>
      <trkpt lat="39.554788" lon="-5.352237">
        <ele>921.9</ele>
        <time>1970-01-01T00:00:00Z</time>
      </trkpt>
      <trkpt lat="39.554410" lon="-5.352279">
        <ele>920.2</ele>
        <time>1970-01-01T00:00:00Z</time>
      </trkpt>
      <trkpt lat="39.554037" lon="-5.352464">
        <ele>920.5</ele>
        <time>1970-01-01T00:00:00Z</time>
      </trkpt>
      <trkpt lat="39.553591" lon="-5.352548">
        <ele>918.0</ele>
        <time>1970-01-01T00:00:00Z</time>
      </trkpt>
      <trkpt lat="39.553411" lon="-5.352538">
        <ele>914.9</ele>
        <time>1970-01-01T00:00:00Z</time>
      </trkpt>
      <trkpt lat="39.552785" lon="-5.352713">
        <ele>909.0</ele>
        <time>1970-01-01T00:00:00Z</time>
      </trkpt>
      <trkpt lat="39.552531" lon="-5.352904">
        <ele>908.2</ele>
        <time>1970-01-01T00:00:00Z</time>
      </trkpt>
      <trkpt lat="39.552294" lon="-5.353093">
        <ele>908.6</ele>
        <time>1970-01-01T00:00:00Z</time>
      </trkpt>
      <trkpt lat="39.552033" lon="-5.353068">
        <ele>906.2</ele>
        <time>1970-01-01T00:00:00Z</time>
      </trkpt>
      <trkpt lat="39.551427" lon="-5.352891">
        <ele>905.3</ele>
        <time>1970-01-01T00:00:00Z</time>
      </trkpt>
      <trkpt lat="39.550877" lon="-5.352551">
        <ele>905.1</ele>
        <time>1970-01-01T00:00:00Z</time>
      </trkpt>
      <trkpt lat="39.550303" lon="-5.352438">
        <ele>906.3</ele>
        <time>1970-01-01T00:00:00Z</time>
      </trkpt>
      <trkpt lat="39.549919" lon="-5.352239">
        <ele>901.0</ele>
        <time>1970-01-01T00:00:00Z</time>
      </trkpt>
      <trkpt lat="39.549575" lon="-5.352128">
        <ele>895.8</ele>
        <time>1970-01-01T00:00:00Z</time>
      </trkpt>
      <trkpt lat="39.549108" lon="-5.352276">
        <ele>894.8</ele>
        <time>1970-01-01T00:00:00Z</time>
      </trkpt>
      <trkpt lat="39.548454" lon="-5.352318">
        <ele>888.0</ele>
        <time>1970-01-01T00:00:00Z</time>
      </trkpt>
      <trkpt lat="39.548238" lon="-5.352537">
        <ele>888.3</ele>
        <time>1970-01-01T00:00:00Z</time>
      </trkpt>
      <trkpt lat="39.548125" lon="-5.352981">
        <ele>892.0</ele>
        <time>1970-01-01T00:00:00Z</time>
      </trkpt>
      <trkpt lat="39.548055" lon="-5.353285">
        <ele>892.9</ele>
        <time>1970-01-01T00:00:00Z</time>
      </trkpt>
      <trkpt lat="39.547948" lon="-5.353533">
        <ele>893.2</ele>
        <time>1970-01-01T00:00:00Z</time>
      </trkpt>
      <trkpt lat="39.547566" lon="-5.353661">
        <ele>887.2</ele>
        <time>1970-01-01T00:00:00Z</time>
      </trkpt>
      <trkpt lat="39.547256" lon="-5.353854">
        <ele>885.2</ele>
        <time>1970-01-01T00:00:00Z</time>
      </trkpt>
      <trkpt lat="39.547047" lon="-5.353946">
        <ele>884.3</ele>
        <time>1970-01-01T00:00:00Z</time>
      </trkpt>
      <trkpt lat="39.546832" lon="-5.353869">
        <ele>882.1</ele>
        <time>1970-01-01T00:00:00Z</time>
      </trkpt>
      <trkpt lat="39.546522" lon="-5.353602">
        <ele>877.3</ele>
        <time>1970-01-01T00:00:00Z</time>
      </trkpt>
      <trkpt lat="39.546136" lon="-5.353531">
        <ele>875.9</ele>
        <time>1970-01-01T00:00:00Z</time>
      </trkpt>
      <trkpt lat="39.545763" lon="-5.353286">
        <ele>873.8</ele>
        <time>1970-01-01T00:00:00Z</time>
      </trkpt>
      <trkpt lat="39.545500" lon="-5.353143">
        <ele>871.9</ele>
        <time>1970-01-01T00:00:00Z</time>
      </trkpt>
      <trkpt lat="39.545286" lon="-5.353114">
        <ele>870.6</ele>
        <time>1970-01-01T00:00:00Z</time>
      </trkpt>
      <trkpt lat="39.544939" lon="-5.352827">
        <ele>865.4</ele>
        <time>1970-01-01T00:00:00Z</time>
      </trkpt>
      <trkpt lat="39.544474" lon="-5.352433">
        <ele>857.9</ele>
        <time>1970-01-01T00:00:00Z</time>
      </trkpt>
      <trkpt lat="39.543836" lon="-5.352365">
        <ele>858.2</ele>
        <time>1970-01-01T00:00:00Z</time>
      </trkpt>
      <trkpt lat="39.543484" lon="-5.351940">
        <ele>854.2</ele>
        <time>1970-01-01T00:00:00Z</time>
      </trkpt>
      <trkpt lat="39.543517" lon="-5.351435">
        <ele>850.6</ele>
        <time>1970-01-01T00:00:00Z</time>
      </trkpt>
      <trkpt lat="39.543356" lon="-5.351360">
        <ele>851.3</ele>
        <time>1970-01-01T00:00:00Z</time>
      </trkpt>
      <trkpt lat="39.543016" lon="-5.352157">
        <ele>854.3</ele>
        <time>1970-01-01T00:00:00Z</time>
      </trkpt>
      <trkpt lat="39.542710" lon="-5.352822">
        <ele>854.9</ele>
        <time>1970-01-01T00:00:00Z</time>
      </trkpt>
      <trkpt lat="39.542590" lon="-5.353172">
        <ele>855.0</ele>
        <time>1970-01-01T00:00:00Z</time>
      </trkpt>
      <trkpt lat="39.542023" lon="-5.353284">
        <ele>846.7</ele>
        <time>1970-01-01T00:00:00Z</time>
      </trkpt>
      <trkpt lat="39.541713" lon="-5.353177">
        <ele>842.9</ele>
        <time>1970-01-01T00:00:00Z</time>
      </trkpt>
      <trkpt lat="39.541435" lon="-5.352943">
        <ele>838.5</ele>
        <time>1970-01-01T00:00:00Z</time>
      </trkpt>
      <trkpt lat="39.541140" lon="-5.352670">
        <ele>832.6</ele>
        <time>1970-01-01T00:00:00Z</time>
      </trkpt>
      <trkpt lat="39.540903" lon="-5.352627">
        <ele>831.9</ele>
        <time>1970-01-01T00:00:00Z</time>
      </trkpt>
      <trkpt lat="39.540525" lon="-5.352794">
        <ele>836.0</ele>
        <time>1970-01-01T00:00:00Z</time>
      </trkpt>
      <trkpt lat="39.540369" lon="-5.352719">
        <ele>834.2</ele>
        <time>1970-01-01T00:00:00Z</time>
      </trkpt>
      <trkpt lat="39.540179" lon="-5.352527">
        <ele>830.4</ele>
        <time>1970-01-01T00:00:00Z</time>
      </trkpt>
      <trkpt lat="39.540054" lon="-5.352261">
        <ele>826.0</ele>
        <time>1970-01-01T00:00:00Z</time>
      </trkpt>
      <trkpt lat="39.539951" lon="-5.352044">
        <ele>823.7</ele>
        <time>1970-01-01T00:00:00Z</time>
      </trkpt>
      <trkpt lat="39.539768" lon="-5.351948">
        <ele>822.1</ele>
        <time>1970-01-01T00:00:00Z</time>
      </trkpt>
      <trkpt lat="39.539400" lon="-5.352064">
        <ele>821.5</ele>
        <time>1970-01-01T00:00:00Z</time>
      </trkpt>
      <trkpt lat="39.539189" lon="-5.352255">
        <ele>821.6</ele>
        <time>1970-01-01T00:00:00Z</time>
      </trkpt>
      <trkpt lat="39.539063" lon="-5.352285">
        <ele>821.0</ele>
        <time>1970-01-01T00:00:00Z</time>
      </trkpt>
      <trkpt lat="39.538593" lon="-5.351682">
        <ele>813.3</ele>
        <time>1970-01-01T00:00:00Z</time>
      </trkpt>
      <trkpt lat="39.538143" lon="-5.351385">
        <ele>809.5</ele>
        <time>1970-01-01T00:00:00Z</time>
      </trkpt>
      <trkpt lat="39.538005" lon="-5.351138">
        <ele>807.2</ele>
        <time>1970-01-01T00:00:00Z</time>
      </trkpt>
      <trkpt lat="39.537872" lon="-5.350570">
        <ele>805.4</ele>
        <time>1970-01-01T00:00:00Z</time>
      </trkpt>
      <trkpt lat="39.537689" lon="-5.350467">
        <ele>807.3</ele>
        <time>1970-01-01T00:00:00Z</time>
      </trkpt>
      <trkpt lat="39.537438" lon="-5.350437">
        <ele>810.1</ele>
        <time>1970-01-01T00:00:00Z</time>
      </trkpt>
      <trkpt lat="39.536534" lon="-5.350815">
        <ele>808.4</ele>
        <time>1970-01-01T00:00:00Z</time>
      </trkpt>
      <trkpt lat="39.535846" lon="-5.350984">
        <ele>800.9</ele>
        <time>1970-01-01T00:00:00Z</time>
      </trkpt>
      <trkpt lat="39.535640" lon="-5.351205">
        <ele>800.0</ele>
        <time>1970-01-01T00:00:00Z</time>
      </trkpt>
      <trkpt lat="39.534970" lon="-5.351298">
        <ele>796.9</ele>
        <time>1970-01-01T00:00:00Z</time>
      </trkpt>
      <trkpt lat="39.534411" lon="-5.351843">
        <ele>798.0</ele>
        <time>1970-01-01T00:00:00Z</time>
      </trkpt>
      <trkpt lat="39.534205" lon="-5.352575">
        <ele>798.9</ele>
        <time>1970-01-01T00:00:00Z</time>
      </trkpt>
      <trkpt lat="39.533797" lon="-5.352934">
        <ele>800.8</ele>
        <time>1970-01-01T00:00:00Z</time>
      </trkpt>
      <trkpt lat="39.533527" lon="-5.352959">
        <ele>799.8</ele>
        <time>1970-01-01T00:00:00Z</time>
      </trkpt>
      <trkpt lat="39.533330" lon="-5.353092">
        <ele>798.6</ele>
        <time>1970-01-01T00:00:00Z</time>
      </trkpt>
      <trkpt lat="39.533083" lon="-5.353491">
        <ele>796.7</ele>
        <time>1970-01-01T00:00:00Z</time>
      </trkpt>
      <trkpt lat="39.532901" lon="-5.353619">
        <ele>794.6</ele>
        <time>1970-01-01T00:00:00Z</time>
      </trkpt>
      <trkpt lat="39.532310" lon="-5.353436">
        <ele>788.9</ele>
        <time>1970-01-01T00:00:00Z</time>
      </trkpt>
      <trkpt lat="39.531688" lon="-5.353444">
        <ele>785.0</ele>
        <time>1970-01-01T00:00:00Z</time>
      </trkpt>
      <trkpt lat="39.531307" lon="-5.353767">
        <ele>785.4</ele>
        <time>1970-01-01T00:00:00Z</time>
      </trkpt>
      <trkpt lat="39.531046" lon="-5.353787">
        <ele>784.7</ele>
        <time>1970-01-01T00:00:00Z</time>
      </trkpt>
      <trkpt lat="39.530848" lon="-5.353697">
        <ele>782.3</ele>
        <time>1970-01-01T00:00:00Z</time>
      </trkpt>
      <trkpt lat="39.530363" lon="-5.353721">
        <ele>776.6</ele>
        <time>1970-01-01T00:00:00Z</time>
      </trkpt>
      <trkpt lat="39.530076" lon="-5.353832">
        <ele>775.2</ele>
        <time>1970-01-01T00:00:00Z</time>
      </trkpt>
      <trkpt lat="39.529806" lon="-5.354311">
        <ele>777.5</ele>
        <time>1970-01-01T00:00:00Z</time>
      </trkpt>
      <trkpt lat="39.529571" lon="-5.354344">
        <ele>775.8</ele>
        <time>1970-01-01T00:00:00Z</time>
      </trkpt>
      <trkpt lat="39.529167" lon="-5.354231">
        <ele>773.5</ele>
        <time>1970-01-01T00:00:00Z</time>
      </trkpt>
      <trkpt lat="39.528839" lon="-5.353931">
        <ele>768.6</ele>
        <time>1970-01-01T00:00:00Z</time>
      </trkpt>
      <trkpt lat="39.528304" lon="-5.353206">
        <ele>758.1</ele>
        <time>1970-01-01T00:00:00Z</time>
      </trkpt>
      <trkpt lat="39.527740" lon="-5.352781">
        <ele>757.2</ele>
        <time>1970-01-01T00:00:00Z</time>
      </trkpt>
      <trkpt lat="39.527426" lon="-5.352614">
        <ele>755.0</ele>
        <time>1970-01-01T00:00:00Z</time>
      </trkpt>
      <trkpt lat="39.526776" lon="-5.352010">
        <ele>741.7</ele>
        <time>1970-01-01T00:00:00Z</time>
      </trkpt>
      <trkpt lat="39.526383" lon="-5.352026">
        <ele>743.6</ele>
        <time>1970-01-01T00:00:00Z</time>
      </trkpt>
      <trkpt lat="39.526170" lon="-5.352327">
        <ele>749.2</ele>
        <time>1970-01-01T00:00:00Z</time>
      </trkpt>
      <trkpt lat="39.526014" lon="-5.353456">
        <ele>749.0</ele>
        <time>1970-01-01T00:00:00Z</time>
      </trkpt>
      <trkpt lat="39.525994" lon="-5.354113">
        <ele>747.9</ele>
        <time>1970-01-01T00:00:00Z</time>
      </trkpt>
      <trkpt lat="39.526072" lon="-5.354947">
        <ele>753.0</ele>
        <time>1970-01-01T00:00:00Z</time>
      </trkpt>
      <trkpt lat="39.525608" lon="-5.356579">
        <ele>719.9</ele>
        <time>1970-01-01T00:00:00Z</time>
      </trkpt>
      <trkpt lat="39.525499" lon="-5.356091">
        <ele>723.6</ele>
        <time>1970-01-01T00:00:00Z</time>
      </trkpt>
      <trkpt lat="39.525244" lon="-5.355432">
        <ele>717.7</ele>
        <time>1970-01-01T00:00:00Z</time>
      </trkpt>
      <trkpt lat="39.524972" lon="-5.354747">
        <ele>706.7</ele>
        <time>1970-01-01T00:00:00Z</time>
      </trkpt>
      <trkpt lat="39.524696" lon="-5.353947">
        <ele>699.0</ele>
        <time>1970-01-01T00:00:00Z</time>
      </trkpt>
      <trkpt lat="39.524574" lon="-5.353297">
        <ele>697.1</ele>
        <time>1970-01-01T00:00:00Z</time>
      </trkpt>
      <trkpt lat="39.524411" lon="-5.352890">
        <ele>694.4</ele>
        <time>1970-01-01T00:00:00Z</time>
      </trkpt>
      <trkpt lat="39.524340" lon="-5.352812">
        <ele>693.5</ele>
        <time>1970-01-01T00:00:00Z</time>
      </trkpt>
      <trkpt lat="39.524178" lon="-5.352830">
        <ele>692.6</ele>
        <time>1970-01-01T00:00:00Z</time>
      </trkpt>
      <trkpt lat="39.524090" lon="-5.353158">
        <ele>691.3</ele>
        <time>1970-01-01T00:00:00Z</time>
      </trkpt>
      <trkpt lat="39.523969" lon="-5.353346">
        <ele>691.6</ele>
        <time>1970-01-01T00:00:00Z</time>
      </trkpt>
      <trkpt lat="39.523871" lon="-5.353320">
        <ele>692.2</ele>
        <time>1970-01-01T00:00:00Z</time>
      </trkpt>
      <trkpt lat="39.523811" lon="-5.353131">
        <ele>692.5</ele>
        <time>1970-01-01T00:00:00Z</time>
      </trkpt>
      <trkpt lat="39.523693" lon="-5.352982">
        <ele>694.7</ele>
        <time>1970-01-01T00:00:00Z</time>
      </trkpt>
      <trkpt lat="39.523423" lon="-5.352723">
        <ele>699.3</ele>
        <time>1970-01-01T00:00:00Z</time>
      </trkpt>
      <trkpt lat="39.523191" lon="-5.352479">
        <ele>703.4</ele>
        <time>1970-01-01T00:00:00Z</time>
      </trkpt>
      <trkpt lat="39.522754" lon="-5.352033">
        <ele>714.6</ele>
        <time>1970-01-01T00:00:00Z</time>
      </trkpt>
      <trkpt lat="39.522273" lon="-5.351624">
        <ele>724.5</ele>
        <time>1970-01-01T00:00:00Z</time>
      </trkpt>
      <trkpt lat="39.522098" lon="-5.351418">
        <ele>727.6</ele>
        <time>1970-01-01T00:00:00Z</time>
      </trkpt>
      <trkpt lat="39.521960" lon="-5.351132">
        <ele>731.8</ele>
        <time>1970-01-01T00:00:00Z</time>
      </trkpt>
      <trkpt lat="39.521314" lon="-5.350674">
        <ele>736.9</ele>
        <time>1970-01-01T00:00:00Z</time>
      </trkpt>
      <trkpt lat="39.520855" lon="-5.349879">
        <ele>736.0</ele>
        <time>1970-01-01T00:00:00Z</time>
      </trkpt>
      <trkpt lat="39.520610" lon="-5.349708">
        <ele>731.7</ele>
        <time>1970-01-01T00:00:00Z</time>
      </trkpt>
      <trkpt lat="39.520004" lon="-5.349466">
        <ele>722.2</ele>
        <time>1970-01-01T00:00:00Z</time>
      </trkpt>
      <trkpt lat="39.519355" lon="-5.348980">
        <ele>716.7</ele>
        <time>1970-01-01T00:00:00Z</time>
      </trkpt>
      <trkpt lat="39.518739" lon="-5.348255">
        <ele>716.1</ele>
        <time>1970-01-01T00:00:00Z</time>
      </trkpt>
      <trkpt lat="39.518803" lon="-5.348001">
        <ele>720.7</ele>
        <time>1970-01-01T00:00:00Z</time>
      </trkpt>
      <trkpt lat="39.518729" lon="-5.347854">
        <ele>722.2</ele>
        <time>1970-01-01T00:00:00Z</time>
      </trkpt>
      <trkpt lat="39.518354" lon="-5.347911">
        <ele>713.3</ele>
        <time>1970-01-01T00:00:00Z</time>
      </trkpt>
      <trkpt lat="39.518110" lon="-5.347722">
        <ele>710.4</ele>
        <time>1970-01-01T00:00:00Z</time>
      </trkpt>
      <trkpt lat="39.517841" lon="-5.347463">
        <ele>708.8</ele>
        <time>1970-01-01T00:00:00Z</time>
      </trkpt>
      <trkpt lat="39.517465" lon="-5.347305">
        <ele>704.9</ele>
        <time>1970-01-01T00:00:00Z</time>
      </trkpt>
      <trkpt lat="39.517141" lon="-5.347294">
        <ele>699.4</ele>
        <time>1970-01-01T00:00:00Z</time>
      </trkpt>
      <trkpt lat="39.517148" lon="-5.347649">
        <ele>694.4</ele>
        <time>1970-01-01T00:00:00Z</time>
      </trkpt>
      <trkpt lat="39.516923" lon="-5.348060">
        <ele>691.9</ele>
        <time>1970-01-01T00:00:00Z</time>
      </trkpt>
      <trkpt lat="39.516720" lon="-5.348191">
        <ele>693.8</ele>
        <time>1970-01-01T00:00:00Z</time>
      </trkpt>
      <trkpt lat="39.516519" lon="-5.348465">
        <ele>696.1</ele>
        <time>1970-01-01T00:00:00Z</time>
      </trkpt>
      <trkpt lat="39.516383" lon="-5.349130">
        <ele>698.6</ele>
        <time>1970-01-01T00:00:00Z</time>
      </trkpt>
      <trkpt lat="39.516243" lon="-5.349829">
        <ele>702.1</ele>
        <time>1970-01-01T00:00:00Z</time>
      </trkpt>
      <trkpt lat="39.516218" lon="-5.349979">
        <ele>702.8</ele>
        <time>1970-01-01T00:00:00Z</time>
      </trkpt>
      <trkpt lat="39.516096" lon="-5.350219">
        <ele>704.9</ele>
        <time>1970-01-01T00:00:00Z</time>
      </trkpt>
      <trkpt lat="39.515825" lon="-5.350515">
        <ele>708.6</ele>
        <time>1970-01-01T00:00:00Z</time>
      </trkpt>
      <trkpt lat="39.515305" lon="-5.350565">
        <ele>715.9</ele>
        <time>1970-01-01T00:00:00Z</time>
      </trkpt>
      <trkpt lat="39.514745" lon="-5.350860">
        <ele>722.7</ele>
        <time>1970-01-01T00:00:00Z</time>
      </trkpt>
      <trkpt lat="39.514366" lon="-5.350893">
        <ele>726.7</ele>
        <time>1970-01-01T00:00:00Z</time>
      </trkpt>
      <trkpt lat="39.514040" lon="-5.351041">
        <ele>729.8</ele>
        <time>1970-01-01T00:00:00Z</time>
      </trkpt>
      <trkpt lat="39.513620" lon="-5.351713">
        <ele>733.7</ele>
        <time>1970-01-01T00:00:00Z</time>
      </trkpt>
      <trkpt lat="39.513556" lon="-5.351827">
        <ele>734.0</ele>
        <time>1970-01-01T00:00:00Z</time>
      </trkpt>
      <trkpt lat="39.513434" lon="-5.351982">
        <ele>734.9</ele>
        <time>1970-01-01T00:00:00Z</time>
      </trkpt>
      <trkpt lat="39.513386" lon="-5.352033">
        <ele>735.6</ele>
        <time>1970-01-01T00:00:00Z</time>
      </trkpt>
      <trkpt lat="39.513185" lon="-5.352181">
        <ele>739.3</ele>
        <time>1970-01-01T00:00:00Z</time>
      </trkpt>
      <trkpt lat="39.513089" lon="-5.352248">
        <ele>740.7</ele>
        <time>1970-01-01T00:00:00Z</time>
      </trkpt>
      <trkpt lat="39.512622" lon="-5.352491">
        <ele>744.9</ele>
        <time>1970-01-01T00:00:00Z</time>
      </trkpt>
      <trkpt lat="39.512134" lon="-5.352752">
        <ele>744.9</ele>
        <time>1970-01-01T00:00:00Z</time>
      </trkpt>
      <trkpt lat="39.512032" lon="-5.352787">
        <ele>744.8</ele>
        <time>1970-01-01T00:00:00Z</time>
      </trkpt>
      <trkpt lat="39.511882" lon="-5.352812">
        <ele>744.7</ele>
        <time>1970-01-01T00:00:00Z</time>
      </trkpt>
      <trkpt lat="39.511616" lon="-5.352726">
        <ele>745.1</ele>
        <time>1970-01-01T00:00:00Z</time>
      </trkpt>
      <trkpt lat="39.511233" lon="-5.352350">
        <ele>746.3</ele>
        <time>1970-01-01T00:00:00Z</time>
      </trkpt>
      <trkpt lat="39.511138" lon="-5.352265">
        <ele>746.2</ele>
        <time>1970-01-01T00:00:00Z</time>
      </trkpt>
      <trkpt lat="39.510993" lon="-5.352015">
        <ele>745.4</ele>
        <time>1970-01-01T00:00:00Z</time>
      </trkpt>
      <trkpt lat="39.510920" lon="-5.351906">
        <ele>744.7</ele>
        <time>1970-01-01T00:00:00Z</time>
      </trkpt>
      <trkpt lat="39.510710" lon="-5.351780">
        <ele>742.6</ele>
        <time>1970-01-01T00:00:00Z</time>
      </trkpt>
      <trkpt lat="39.510228" lon="-5.351798">
        <ele>739.5</ele>
        <time>1970-01-01T00:00:00Z</time>
      </trkpt>
      <trkpt lat="39.509954" lon="-5.351829">
        <ele>737.2</ele>
        <time>1970-01-01T00:00:00Z</time>
      </trkpt>
      <trkpt lat="39.509455" lon="-5.351973">
        <ele>735.8</ele>
        <time>1970-01-01T00:00:00Z</time>
      </trkpt>
      <trkpt lat="39.509047" lon="-5.352104">
        <ele>738.4</ele>
        <time>1970-01-01T00:00:00Z</time>
      </trkpt>
      <trkpt lat="39.508819" lon="-5.352145">
        <ele>741.4</ele>
        <time>1970-01-01T00:00:00Z</time>
      </trkpt>
      <trkpt lat="39.508651" lon="-5.352201">
        <ele>743.5</ele>
        <time>1970-01-01T00:00:00Z</time>
      </trkpt>
      <trkpt lat="39.508588" lon="-5.352239">
        <ele>744.4</ele>
        <time>1970-01-01T00:00:00Z</time>
      </trkpt>
      <trkpt lat="39.508342" lon="-5.352318">
        <ele>748.1</ele>
        <time>1970-01-01T00:00:00Z</time>
      </trkpt>
      <trkpt lat="39.508211" lon="-5.352377">
        <ele>750.3</ele>
        <time>1970-01-01T00:00:00Z</time>
      </trkpt>
      <trkpt lat="39.508058" lon="-5.352432">
        <ele>752.7</ele>
        <time>1970-01-01T00:00:00Z</time>
      </trkpt>
      <trkpt lat="39.507869" lon="-5.352494">
        <ele>755.7</ele>
        <time>1970-01-01T00:00:00Z</time>
      </trkpt>
      <trkpt lat="39.507715" lon="-5.352549">
        <ele>758.3</ele>
        <time>1970-01-01T00:00:00Z</time>
      </trkpt>
      <trkpt lat="39.507531" lon="-5.352661">
        <ele>762.1</ele>
        <time>1970-01-01T00:00:00Z</time>
      </trkpt>
      <trkpt lat="39.507362" lon="-5.352727">
        <ele>765.3</ele>
        <time>1970-01-01T00:00:00Z</time>
      </trkpt>
      <trkpt lat="39.507321" lon="-5.352746">
        <ele>766.1</ele>
        <time>1970-01-01T00:00:00Z</time>
      </trkpt>
      <trkpt lat="39.507177" lon="-5.352887">
        <ele>769.8</ele>
        <time>1970-01-01T00:00:00Z</time>
      </trkpt>
      <trkpt lat="39.507096" lon="-5.353023">
        <ele>771.9</ele>
        <time>1970-01-01T00:00:00Z</time>
      </trkpt>
      <trkpt lat="39.506993" lon="-5.353164">
        <ele>773.8</ele>
        <time>1970-01-01T00:00:00Z</time>
      </trkpt>
      <trkpt lat="39.506767" lon="-5.353313">
        <ele>776.3</ele>
        <time>1970-01-01T00:00:00Z</time>
      </trkpt>
      <trkpt lat="39.506556" lon="-5.353467">
        <ele>777.8</ele>
        <time>1970-01-01T00:00:00Z</time>
      </trkpt>
      <trkpt lat="39.506245" lon="-5.353643">
        <ele>779.1</ele>
        <time>1970-01-01T00:00:00Z</time>
      </trkpt>
      <trkpt lat="39.505936" lon="-5.353718">
        <ele>780.9</ele>
        <time>1970-01-01T00:00:00Z</time>
      </trkpt>
      <trkpt lat="39.505698" lon="-5.353650">
        <ele>783.7</ele>
        <time>1970-01-01T00:00:00Z</time>
      </trkpt>
      <trkpt lat="39.505045" lon="-5.353545">
        <ele>788.1</ele>
        <time>1970-01-01T00:00:00Z</time>
      </trkpt>
      <trkpt lat="39.504755" lon="-5.353445">
        <ele>789.3</ele>
        <time>1970-01-01T00:00:00Z</time>
      </trkpt>
      <trkpt lat="39.504259" lon="-5.353151">
        <ele>789.4</ele>
        <time>1970-01-01T00:00:00Z</time>
      </trkpt>
      <trkpt lat="39.503389" lon="-5.352900">
        <ele>791.3</ele>
        <time>1970-01-01T00:00:00Z</time>
      </trkpt>
      <trkpt lat="39.502749" lon="-5.352415">
        <ele>795.8</ele>
        <time>1970-01-01T00:00:00Z</time>
      </trkpt>
      <trkpt lat="39.501794" lon="-5.352024">
        <ele>805.3</ele>
        <time>1970-01-01T00:00:00Z</time>
      </trkpt>
      <trkpt lat="39.501015" lon="-5.351576">
        <ele>813.6</ele>
        <time>1970-01-01T00:00:00Z</time>
      </trkpt>
      <trkpt lat="39.500245" lon="-5.351479">
        <ele>822.4</ele>
        <time>1970-01-01T00:00:00Z</time>
      </trkpt>
      <trkpt lat="39.499359" lon="-5.350933">
        <ele>839.6</ele>
        <time>1970-01-01T00:00:00Z</time>
      </trkpt>
      <trkpt lat="39.498383" lon="-5.350560">
        <ele>838.9</ele>
        <time>1970-01-01T00:00:00Z</time>
      </trkpt>
      <trkpt lat="39.497905" lon="-5.350344">
        <ele>839.7</ele>
        <time>1970-01-01T00:00:00Z</time>
      </trkpt>
      <trkpt lat="39.496782" lon="-5.349636">
        <ele>840.3</ele>
        <time>1970-01-01T00:00:00Z</time>
      </trkpt>
      <trkpt lat="39.495929" lon="-5.348870">
        <ele>851.2</ele>
        <time>1970-01-01T00:00:00Z</time>
      </trkpt>
      <trkpt lat="39.495515" lon="-5.348653">
        <ele>852.4</ele>
        <time>1970-01-01T00:00:00Z</time>
      </trkpt>
      <trkpt lat="39.495235" lon="-5.348022">
        <ele>855.7</ele>
        <time>1970-01-01T00:00:00Z</time>
      </trkpt>
      <trkpt lat="39.494367" lon="-5.347442">
        <ele>859.5</ele>
        <time>1970-01-01T00:00:00Z</time>
      </trkpt>
      <trkpt lat="39.494077" lon="-5.347364">
        <ele>861.7</ele>
        <time>1970-01-01T00:00:00Z</time>
      </trkpt>
      <trkpt lat="39.493510" lon="-5.347470">
        <ele>861.0</ele>
        <time>1970-01-01T00:00:00Z</time>
      </trkpt>
      <trkpt lat="39.492935" lon="-5.347474">
        <ele>859.4</ele>
        <time>1970-01-01T00:00:00Z</time>
      </trkpt>
      <trkpt lat="39.492177" lon="-5.347870">
        <ele>855.3</ele>
        <time>1970-01-01T00:00:00Z</time>
      </trkpt>
      <trkpt lat="39.490733" lon="-5.347911">
        <ele>853.2</ele>
        <time>1970-01-01T00:00:00Z</time>
      </trkpt>
      <trkpt lat="39.490127" lon="-5.348034">
        <ele>856.2</ele>
        <time>1970-01-01T00:00:00Z</time>
      </trkpt>
      <trkpt lat="39.488914" lon="-5.347585">
        <ele>871.0</ele>
        <time>1970-01-01T00:00:00Z</time>
      </trkpt>
      <trkpt lat="39.488712" lon="-5.347402">
        <ele>872.0</ele>
        <time>1970-01-01T00:00:00Z</time>
      </trkpt>
      <trkpt lat="39.488453" lon="-5.347298">
        <ele>872.8</ele>
        <time>1970-01-01T00:00:00Z</time>
      </trkpt>
      <trkpt lat="39.488096" lon="-5.347371">
        <ele>876.2</ele>
        <time>1970-01-01T00:00:00Z</time>
      </trkpt>
      <trkpt lat="39.487883" lon="-5.347191">
        <ele>874.8</ele>
        <time>1970-01-01T00:00:00Z</time>
      </trkpt>
      <trkpt lat="39.487802" lon="-5.346935">
        <ele>872.1</ele>
        <time>1970-01-01T00:00:00Z</time>
      </trkpt>
      <trkpt lat="39.487714" lon="-5.346764">
        <ele>870.7</ele>
        <time>1970-01-01T00:00:00Z</time>
      </trkpt>
      <trkpt lat="39.487537" lon="-5.346578">
        <ele>869.2</ele>
        <time>1970-01-01T00:00:00Z</time>
      </trkpt>
      <trkpt lat="39.487068" lon="-5.346351">
        <ele>870.6</ele>
        <time>1970-01-01T00:00:00Z</time>
      </trkpt>
      <trkpt lat="39.486255" lon="-5.346354">
        <ele>881.1</ele>
        <time>1970-01-01T00:00:00Z</time>
      </trkpt>
      <trkpt lat="39.485532" lon="-5.346471">
        <ele>887.7</ele>
        <time>1970-01-01T00:00:00Z</time>
      </trkpt>
      <trkpt lat="39.485187" lon="-5.346419">
        <ele>888.7</ele>
        <time>1970-01-01T00:00:00Z</time>
      </trkpt>
      <trkpt lat="39.484959" lon="-5.346310">
        <ele>890.0</ele>
        <time>1970-01-01T00:00:00Z</time>
      </trkpt>
      <trkpt lat="39.484633" lon="-5.345927">
        <ele>887.3</ele>
        <time>1970-01-01T00:00:00Z</time>
      </trkpt>
      <trkpt lat="39.484090" lon="-5.345618">
        <ele>888.5</ele>
        <time>1970-01-01T00:00:00Z</time>
      </trkpt>
      <trkpt lat="39.483712" lon="-5.345594">
        <ele>892.3</ele>
        <time>1970-01-01T00:00:00Z</time>
      </trkpt>
      <trkpt lat="39.483281" lon="-5.345521">
        <ele>890.5</ele>
        <time>1970-01-01T00:00:00Z</time>
      </trkpt>
      <trkpt lat="39.482873" lon="-5.345355">
        <ele>883.8</ele>
        <time>1970-01-01T00:00:00Z</time>
      </trkpt>
      <trkpt lat="39.482421" lon="-5.345261">
        <ele>878.5</ele>
        <time>1970-01-01T00:00:00Z</time>
      </trkpt>
      <trkpt lat="39.481984" lon="-5.345359">
        <ele>878.0</ele>
        <time>1970-01-01T00:00:00Z</time>
      </trkpt>
      <trkpt lat="39.481837" lon="-5.345659">
        <ele>880.7</ele>
        <time>1970-01-01T00:00:00Z</time>
      </trkpt>
      <trkpt lat="39.481749" lon="-5.346493">
        <ele>887.2</ele>
        <time>1970-01-01T00:00:00Z</time>
      </trkpt>
      <trkpt lat="39.481712" lon="-5.346633">
        <ele>887.6</ele>
        <time>1970-01-01T00:00:00Z</time>
      </trkpt>
      <trkpt lat="39.481522" lon="-5.346693">
        <ele>884.7</ele>
        <time>1970-01-01T00:00:00Z</time>
      </trkpt>
      <trkpt lat="39.481021" lon="-5.346577">
        <ele>874.8</ele>
        <time>1970-01-01T00:00:00Z</time>
      </trkpt>
      <trkpt lat="39.480464" lon="-5.346293">
        <ele>867.9</ele>
        <time>1970-01-01T00:00:00Z</time>
      </trkpt>
      <trkpt lat="39.480022" lon="-5.346318">
        <ele>868.2</ele>
        <time>1970-01-01T00:00:00Z</time>
      </trkpt>
      <trkpt lat="39.479648" lon="-5.346550">
        <ele>870.7</ele>
        <time>1970-01-01T00:00:00Z</time>
      </trkpt>
      <trkpt lat="39.479488" lon="-5.346759">
        <ele>872.5</ele>
        <time>1970-01-01T00:00:00Z</time>
      </trkpt>
      <trkpt lat="39.479396" lon="-5.347405">
        <ele>877.2</ele>
        <time>1970-01-01T00:00:00Z</time>
      </trkpt>
      <trkpt lat="39.479353" lon="-5.347864">
        <ele>876.9</ele>
        <time>1970-01-01T00:00:00Z</time>
      </trkpt>
      <trkpt lat="39.479302" lon="-5.348270">
        <ele>876.5</ele>
        <time>1970-01-01T00:00:00Z</time>
      </trkpt>
      <trkpt lat="39.479125" lon="-5.348540">
        <ele>875.0</ele>
        <time>1970-01-01T00:00:00Z</time>
      </trkpt>
      <trkpt lat="39.479073" lon="-5.348823">
        <ele>877.5</ele>
        <time>1970-01-01T00:00:00Z</time>
      </trkpt>
      <trkpt lat="39.478940" lon="-5.348884">
        <ele>875.5</ele>
        <time>1970-01-01T00:00:00Z</time>
      </trkpt>
      <trkpt lat="39.478117" lon="-5.348827">
        <ele>867.5</ele>
        <time>1970-01-01T00:00:00Z</time>
      </trkpt>
      <trkpt lat="39.477691" lon="-5.348676">
        <ele>863.2</ele>
        <time>1970-01-01T00:00:00Z</time>
      </trkpt>
      <trkpt lat="39.477401" lon="-5.348633">
        <ele>861.6</ele>
        <time>1970-01-01T00:00:00Z</time>
      </trkpt>
      <trkpt lat="39.476984" lon="-5.348640">
        <ele>860.0</ele>
        <time>1970-01-01T00:00:00Z</time>
      </trkpt>
      <trkpt lat="39.476618" lon="-5.348883">
        <ele>862.2</ele>
        <time>1970-01-01T00:00:00Z</time>
      </trkpt>
      <trkpt lat="39.476403" lon="-5.348847">
        <ele>859.9</ele>
        <time>1970-01-01T00:00:00Z</time>
      </trkpt>
      <trkpt lat="39.476034" lon="-5.348608">
        <ele>854.1</ele>
        <time>1970-01-01T00:00:00Z</time>
      </trkpt>
      <trkpt lat="39.475618" lon="-5.348484">
        <ele>849.4</ele>
        <time>1970-01-01T00:00:00Z</time>
      </trkpt>
      <trkpt lat="39.475176" lon="-5.348469">
        <ele>846.0</ele>
        <time>1970-01-01T00:00:00Z</time>
      </trkpt>
      <trkpt lat="39.474652" lon="-5.348556">
        <ele>845.0</ele>
        <time>1970-01-01T00:00:00Z</time>
      </trkpt>
      <trkpt lat="39.474211" lon="-5.348994">
        <ele>841.9</ele>
        <time>1970-01-01T00:00:00Z</time>
      </trkpt>
      <trkpt lat="39.473893" lon="-5.350018">
        <ele>837.5</ele>
        <time>1970-01-01T00:00:00Z</time>
      </trkpt>
      <trkpt lat="39.473818" lon="-5.350161">
        <ele>837.8</ele>
        <time>1970-01-01T00:00:00Z</time>
      </trkpt>
      <trkpt lat="39.473320" lon="-5.350120">
        <ele>836.8</ele>
        <time>1970-01-01T00:00:00Z</time>
      </trkpt>
      <trkpt lat="39.473170" lon="-5.349985">
        <ele>836.2</ele>
        <time>1970-01-01T00:00:00Z</time>
      </trkpt>
      <trkpt lat="39.472985" lon="-5.349459">
        <ele>833.6</ele>
        <time>1970-01-01T00:00:00Z</time>
      </trkpt>
      <trkpt lat="39.472633" lon="-5.349284">
        <ele>836.6</ele>
        <time>1970-01-01T00:00:00Z</time>
      </trkpt>
      <trkpt lat="39.471723" lon="-5.349512">
        <ele>847.3</ele>
        <time>1970-01-01T00:00:00Z</time>
      </trkpt>
      <trkpt lat="39.471116" lon="-5.349675">
        <ele>854.6</ele>
        <time>1970-01-01T00:00:00Z</time>
      </trkpt>
      <trkpt lat="39.469774" lon="-5.349554">
        <ele>871.6</ele>
        <time>1970-01-01T00:00:00Z</time>
      </trkpt>
      <trkpt lat="39.468393" lon="-5.349750">
        <ele>877.0</ele>
        <time>1970-01-01T00:00:00Z</time>
      </trkpt>
      <trkpt lat="39.467782" lon="-5.349768">
        <ele>876.9</ele>
        <time>1970-01-01T00:00:00Z</time>
      </trkpt>
      <trkpt lat="39.466773" lon="-5.349807">
        <ele>878.5</ele>
        <time>1970-01-01T00:00:00Z</time>
      </trkpt>
      <trkpt lat="39.465378" lon="-5.349806">
        <ele>886.5</ele>
        <time>1970-01-01T00:00:00Z</time>
      </trkpt>
      <trkpt lat="39.464750" lon="-5.350134">
        <ele>884.1</ele>
        <time>1970-01-01T00:00:00Z</time>
      </trkpt>
      <trkpt lat="39.464571" lon="-5.350041">
        <ele>881.0</ele>
        <time>1970-01-01T00:00:00Z</time>
      </trkpt>
      <trkpt lat="39.464431" lon="-5.349856">
        <ele>878.4</ele>
        <time>1970-01-01T00:00:00Z</time>
      </trkpt>
      <trkpt lat="39.464201" lon="-5.349412">
        <ele>873.2</ele>
        <time>1970-01-01T00:00:00Z</time>
      </trkpt>
      <trkpt lat="39.464050" lon="-5.348896">
        <ele>870.0</ele>
        <time>1970-01-01T00:00:00Z</time>
      </trkpt>
      <trkpt lat="39.464007" lon="-5.348331">
        <ele>870.1</ele>
        <time>1970-01-01T00:00:00Z</time>
      </trkpt>
      <trkpt lat="39.464019" lon="-5.347976">
        <ele>870.2</ele>
        <time>1970-01-01T00:00:00Z</time>
      </trkpt>
      <trkpt lat="39.464362" lon="-5.347250">
        <ele>877.6</ele>
        <time>1970-01-01T00:00:00Z</time>
      </trkpt>
      <trkpt lat="39.464480" lon="-5.347010">
        <ele>880.2</ele>
        <time>1970-01-01T00:00:00Z</time>
      </trkpt>
      <trkpt lat="39.464415" lon="-5.346200">
        <ele>871.4</ele>
        <time>1970-01-01T00:00:00Z</time>
      </trkpt>
      <trkpt lat="39.464350" lon="-5.345634">
        <ele>865.9</ele>
        <time>1970-01-01T00:00:00Z</time>
      </trkpt>
      <trkpt lat="39.464212" lon="-5.345106">
        <ele>860.0</ele>
        <time>1970-01-01T00:00:00Z</time>
      </trkpt>
      <trkpt lat="39.464052" lon="-5.344520">
        <ele>854.3</ele>
        <time>1970-01-01T00:00:00Z</time>
      </trkpt>
      <trkpt lat="39.463880" lon="-5.343916">
        <ele>850.3</ele>
        <time>1970-01-01T00:00:00Z</time>
      </trkpt>
      <trkpt lat="39.463647" lon="-5.343187">
        <ele>846.6</ele>
        <time>1970-01-01T00:00:00Z</time>
      </trkpt>
      <trkpt lat="39.463359" lon="-5.342515">
        <ele>840.0</ele>
        <time>1970-01-01T00:00:00Z</time>
      </trkpt>
      <trkpt lat="39.463179" lon="-5.341602">
        <ele>832.9</ele>
        <time>1970-01-01T00:00:00Z</time>
      </trkpt>
      <trkpt lat="39.463070" lon="-5.340942">
        <ele>823.8</ele>
        <time>1970-01-01T00:00:00Z</time>
      </trkpt>
      <trkpt lat="39.463109" lon="-5.340595">
        <ele>819.7</ele>
        <time>1970-01-01T00:00:00Z</time>
      </trkpt>
      <trkpt lat="39.463276" lon="-5.340345">
        <ele>819.2</ele>
        <time>1970-01-01T00:00:00Z</time>
      </trkpt>
      <trkpt lat="39.463851" lon="-5.340207">
        <ele>829.6</ele>
        <time>1970-01-01T00:00:00Z</time>
      </trkpt>
      <trkpt lat="39.464373" lon="-5.340213">
        <ele>843.1</ele>
        <time>1970-01-01T00:00:00Z</time>
      </trkpt>
      <trkpt lat="39.464716" lon="-5.339980">
        <ele>842.9</ele>
        <time>1970-01-01T00:00:00Z</time>
      </trkpt>
      <trkpt lat="39.465051" lon="-5.339643">
        <ele>841.6</ele>
        <time>1970-01-01T00:00:00Z</time>
      </trkpt>
      <trkpt lat="39.465311" lon="-5.339297">
        <ele>842.3</ele>
        <time>1970-01-01T00:00:00Z</time>
      </trkpt>
      <trkpt lat="39.465296" lon="-5.339122">
        <ele>841.1</ele>
        <time>1970-01-01T00:00:00Z</time>
      </trkpt>
      <trkpt lat="39.465099" lon="-5.338860">
        <ele>833.8</ele>
        <time>1970-01-01T00:00:00Z</time>
      </trkpt>
      <trkpt lat="39.464842" lon="-5.338427">
        <ele>825.2</ele>
        <time>1970-01-01T00:00:00Z</time>
      </trkpt>
      <trkpt lat="39.464542" lon="-5.337644">
        <ele>818.5</ele>
        <time>1970-01-01T00:00:00Z</time>
      </trkpt>
      <trkpt lat="39.464357" lon="-5.337423">
        <ele>814.6</ele>
        <time>1970-01-01T00:00:00Z</time>
      </trkpt>
      <trkpt lat="39.464098" lon="-5.336880">
        <ele>807.7</ele>
        <time>1970-01-01T00:00:00Z</time>
      </trkpt>
      <trkpt lat="39.464202" lon="-5.336622">
        <ele>809.8</ele>
        <time>1970-01-01T00:00:00Z</time>
      </trkpt>
      <trkpt lat="39.464632" lon="-5.336101">
        <ele>819.0</ele>
        <time>1970-01-01T00:00:00Z</time>
      </trkpt>
      <trkpt lat="39.464742" lon="-5.335553">
        <ele>820.1</ele>
        <time>1970-01-01T00:00:00Z</time>
      </trkpt>
      <trkpt lat="39.464545" lon="-5.335244">
        <ele>813.8</ele>
        <time>1970-01-01T00:00:00Z</time>
      </trkpt>
      <trkpt lat="39.464036" lon="-5.334820">
        <ele>803.9</ele>
        <time>1970-01-01T00:00:00Z</time>
      </trkpt>
      <trkpt lat="39.463513" lon="-5.334594">
        <ele>801.9</ele>
        <time>1970-01-01T00:00:00Z</time>
      </trkpt>
      <trkpt lat="39.462527" lon="-5.334584">
        <ele>791.8</ele>
        <time>1970-01-01T00:00:00Z</time>
      </trkpt>
      <trkpt lat="39.461714" lon="-5.334475">
        <ele>786.8</ele>
        <time>1970-01-01T00:00:00Z</time>
      </trkpt>
      <trkpt lat="39.460980" lon="-5.334242">
        <ele>780.9</ele>
        <time>1970-01-01T00:00:00Z</time>
      </trkpt>
      <trkpt lat="39.460481" lon="-5.333760">
        <ele>779.0</ele>
        <time>1970-01-01T00:00:00Z</time>
      </trkpt>
      <trkpt lat="39.460411" lon="-5.333392">
        <ele>778.2</ele>
        <time>1970-01-01T00:00:00Z</time>
      </trkpt>
      <trkpt lat="39.460433" lon="-5.332544">
        <ele>773.2</ele>
        <time>1970-01-01T00:00:00Z</time>
      </trkpt>
      <trkpt lat="39.460719" lon="-5.331967">
        <ele>772.6</ele>
        <time>1970-01-01T00:00:00Z</time>
      </trkpt>
      <trkpt lat="39.461107" lon="-5.331491">
        <ele>769.3</ele>
        <time>1970-01-01T00:00:00Z</time>
      </trkpt>
      <trkpt lat="39.461395" lon="-5.331071">
        <ele>767.6</ele>
        <time>1970-01-01T00:00:00Z</time>
      </trkpt>
      <trkpt lat="39.461428" lon="-5.330770">
        <ele>763.9</ele>
        <time>1970-01-01T00:00:00Z</time>
      </trkpt>
      <trkpt lat="39.461292" lon="-5.330353">
        <ele>757.7</ele>
        <time>1970-01-01T00:00:00Z</time>
      </trkpt>
      <trkpt lat="39.461079" lon="-5.330189">
        <ele>754.6</ele>
        <time>1970-01-01T00:00:00Z</time>
      </trkpt>
      <trkpt lat="39.460537" lon="-5.330060">
        <ele>749.2</ele>
        <time>1970-01-01T00:00:00Z</time>
      </trkpt>
      <trkpt lat="39.460045" lon="-5.329875">
        <ele>743.3</ele>
        <time>1970-01-01T00:00:00Z</time>
      </trkpt>
      <trkpt lat="39.459327" lon="-5.329538">
        <ele>732.1</ele>
        <time>1970-01-01T00:00:00Z</time>
      </trkpt>
      <trkpt lat="39.459101" lon="-5.329321">
        <ele>728.9</ele>
        <time>1970-01-01T00:00:00Z</time>
      </trkpt>
      <trkpt lat="39.459075" lon="-5.329076">
        <ele>728.0</ele>
        <time>1970-01-01T00:00:00Z</time>
      </trkpt>
      <trkpt lat="39.459476" lon="-5.328613">
        <ele>737.7</ele>
        <time>1970-01-01T00:00:00Z</time>
      </trkpt>
      <trkpt lat="39.459420" lon="-5.328274">
        <ele>735.8</ele>
        <time>1970-01-01T00:00:00Z</time>
      </trkpt>
      <trkpt lat="39.458847" lon="-5.327598">
        <ele>718.4</ele>
        <time>1970-01-01T00:00:00Z</time>
      </trkpt>
      <trkpt lat="39.458618" lon="-5.327579">
        <ele>712.3</ele>
        <time>1970-01-01T00:00:00Z</time>
      </trkpt>
      <trkpt lat="39.458089" lon="-5.327219">
        <ele>705.7</ele>
        <time>1970-01-01T00:00:00Z</time>
      </trkpt>
      <trkpt lat="39.457542" lon="-5.326666">
        <ele>702.7</ele>
        <time>1970-01-01T00:00:00Z</time>
      </trkpt>
      <trkpt lat="39.457096" lon="-5.326436">
        <ele>695.7</ele>
        <time>1970-01-01T00:00:00Z</time>
      </trkpt>
      <trkpt lat="39.456747" lon="-5.326337">
        <ele>691.8</ele>
        <time>1970-01-01T00:00:00Z</time>
      </trkpt>
      <trkpt lat="39.456414" lon="-5.326291">
        <ele>689.5</ele>
        <time>1970-01-01T00:00:00Z</time>
      </trkpt>
      <trkpt lat="39.455973" lon="-5.326288">
        <ele>687.0</ele>
        <time>1970-01-01T00:00:00Z</time>
      </trkpt>
      <trkpt lat="39.455408" lon="-5.326380">
        <ele>680.9</ele>
        <time>1970-01-01T00:00:00Z</time>
      </trkpt>
      <trkpt lat="39.455192" lon="-5.326372">
        <ele>679.6</ele>
        <time>1970-01-01T00:00:00Z</time>
      </trkpt>
      <trkpt lat="39.454723" lon="-5.326386">
        <ele>675.4</ele>
        <time>1970-01-01T00:00:00Z</time>
      </trkpt>
      <trkpt lat="39.454412" lon="-5.326399">
        <ele>673.4</ele>
        <time>1970-01-01T00:00:00Z</time>
      </trkpt>
      <trkpt lat="39.453927" lon="-5.326795">
        <ele>664.3</ele>
        <time>1970-01-01T00:00:00Z</time>
      </trkpt>
      <trkpt lat="39.453599" lon="-5.327208">
        <ele>655.3</ele>
        <time>1970-01-01T00:00:00Z</time>
      </trkpt>
      <trkpt lat="39.453367" lon="-5.327317">
        <ele>653.2</ele>
        <time>1970-01-01T00:00:00Z</time>
      </trkpt>
      <trkpt lat="39.453193" lon="-5.327195">
        <ele>655.0</ele>
        <time>1970-01-01T00:00:00Z</time>
      </trkpt>
      <trkpt lat="39.452937" lon="-5.326722">
        <ele>660.5</ele>
        <time>1970-01-01T00:00:00Z</time>
      </trkpt>
      <trkpt lat="39.452595" lon="-5.326280">
        <ele>662.0</ele>
        <time>1970-01-01T00:00:00Z</time>
      </trkpt>
      <trkpt lat="39.452149" lon="-5.327172">
        <ele>652.5</ele>
        <time>1970-01-01T00:00:00Z</time>
      </trkpt>
      <trkpt lat="39.452127" lon="-5.327369">
        <ele>650.6</ele>
        <time>1970-01-01T00:00:00Z</time>
      </trkpt>
    </trkseg>
  </trk>
</gpx>
